ECMWFFLT1_850_spd_000.txt.gz
Wind_Speed
37 41 45 47 49 49 49 49 47 47 46 46 45 43 41 40 39 37 36 36 37 37 37 37 37 37 36 35 32 29 27 25 22 21 19 18 16 15 15 15 16 17 17 18 17 15 13 12 12 11 10 11 12 11 10 9 9 9 9 10 9 9 9
35 39 42 45 48 49 50 49 47 47 47 47 47 45 44 43 41 40 39 39 39 39 39 39 39 39 38 35 32 30 28 25 24 22 20 18 17 16 16 16 16 17 17 17 16 15 14 13 13 12 12 12 12 12 11 11 11 11 11 11 12 12 11
35 38 42 45 48 49 50 50 48 48 47 47 47 47 46 45 43 43 42 41 41 41 41 41 41 40 38 36 34 32 29 27 25 23 20 19 17 16 16 16 17 17 18 17 17 16 15 15 15 14 13 13 13 13 13 13 13 11 11 11 13 13 13
36 40 42 44 47 49 50 51 50 49 48 47 47 46 46 46 45 45 44 43 43 43 44 44 44 42 39 37 36 33 31 29 27 24 22 19 17 16 17 18 18 19 19 18 17 17 17 16 15 15 15 15 14 14 14 13 13 12 11 12 13 13 14
36 39 39 41 44 46 48 51 52 50 49 49 48 47 47 46 46 46 46 45 44 45 45 45 45 43 40 38 37 35 32 30 28 26 24 21 19 18 18 19 21 22 21 18 18 18 17 16 16 16 16 16 15 14 14 13 12 12 12 13 14 14 14
34 36 38 41 44 46 49 51 52 52 50 49 49 49 48 48 48 47 48 48 47 47 46 46 46 45 43 41 39 37 34 32 30 27 25 23 21 19 20 21 22 22 20 18 18 18 17 16 16 16 16 16 16 14 14 13 12 12 13 13 14 15 15
33 36 39 42 44 47 49 50 51 51 51 50 49 49 50 51 50 49 49 49 49 49 48 48 49 47 46 44 42 40 37 35 33 30 29 27 23 21 21 22 23 22 18 17 18 18 17 17 16 16 16 16 15 14 13 12 12 12 13 14 15 15 14
33 37 41 42 44 46 47 48 49 50 51 52 51 51 52 52 52 52 51 51 51 51 50 50 50 50 49 48 46 43 40 37 35 32 31 30 26 23 23 23 23 21 18 18 18 18 17 17 16 16 16 16 15 13 12 13 13 13 14 15 16 15 14
34 37 40 42 43 44 45 46 48 48 50 51 52 53 53 53 53 53 53 52 52 53 52 51 51 52 51 51 49 46 43 40 37 36 35 33 29 26 24 23 23 21 19 19 19 19 18 17 17 17 17 16 14 13 13 14 14 14 15 16 16 15 14
33 36 38 39 41 42 43 44 45 47 49 50 52 54 54 54 54 54 54 54 54 54 52 51 52 53 53 53 52 49 46 42 40 40 38 36 33 29 25 24 23 22 21 21 20 20 19 19 19 18 18 16 14 14 14 15 15 16 16 15 15 15 14
32 34 35 37 39 40 41 42 44 46 47 49 51 52 53 55 55 54 55 55 54 54 52 51 52 54 54 54 54 52 49 46 45 44 41 38 35 30 27 26 24 22 22 22 21 20 20 21 21 20 19 17 15 15 15 16 16 16 16 15 15 14 12
31 32 35 38 39 40 41 42 44 45 45 47 49 49 51 53 53 53 53 53 54 54 53 53 53 54 55 55 56 55 53 50 50 49 45 40 35 30 28 27 24 23 23 22 22 21 21 22 22 21 19 17 16 16 16 16 16 16 16 16 15 13 12
31 33 36 37 38 39 40 41 43 44 44 45 46 46 48 49 50 51 51 52 52 53 54 54 54 55 56 56 57 56 53 53 53 52 47 41 37 30 26 27 26 23 23 22 22 22 23 23 23 22 20 19 18 17 16 16 17 16 16 16 14 13 13
29 32 34 36 37 38 40 41 42 43 43 43 43 44 45 45 46 48 49 49 49 51 53 55 55 56 56 56 57 55 53 54 56 54 47 43 41 32 26 29 30 24 21 22 22 22 22 23 23 21 21 20 18 17 16 16 17 16 16 16 14 13 14
27 31 35 38 38 39 39 40 40 41 41 41 41 42 42 42 44 46 47 48 48 50 52 53 55 57 56 57 57 55 55 55 54 52 46 43 41 36 30 31 30 23 21 24 25 23 21 21 21 20 20 20 19 18 18 18 17 16 16 15 13 13 14
29 34 38 39 39 39 39 38 38 38 39 39 39 40 39 39 41 43 43 44 45 47 49 51 54 55 54 55 55 55 55 53 48 46 46 44 42 38 33 30 28 24 23 25 25 23 20 19 20 19 19 20 20 20 20 19 19 17 16 15 14 14 14
34 37 39 39 38 38 38 38 38 37 37 37 37 37 37 37 39 40 41 42 44 44 45 49 51 52 52 51 52 54 54 48 41 38 38 37 38 39 37 34 32 30 27 25 24 22 20 19 19 19 20 21 22 21 21 21 20 19 17 15 15 15 15
39 40 39 37 37 37 37 37 37 36 35 34 34 35 36 37 39 40 40 41 41 41 43 47 50 51 52 50 50 53 52 47 41 34 28 26 32 39 41 40 39 36 31 27 24 22 21 20 19 20 22 24 24 24 22 21 22 21 19 17 16 16 17
39 39 37 35 34 34 33 34 34 33 31 30 30 32 35 37 38 38 38 38 39 40 43 46 48 49 49 49 50 51 51 49 47 41 32 26 29 36 39 39 40 38 34 31 27 24 22 21 20 22 24 25 26 25 22 21 22 21 19 18 18 18 19
35 35 33 31 31 31 29 30 30 29 28 28 29 33 35 35 35 35 36 37 38 40 41 44 45 46 46 47 48 48 47 47 48 43 33 29 29 31 35 37 38 36 33 32 30 27 23 20 22 26 27 27 27 25 22 22 21 20 19 20 20 20 21
28 30 30 30 30 29 28 28 26 23 23 23 24 25 23 20 20 24 29 32 34 37 38 40 41 42 44 43 42 42 40 39 41 36 26 25 29 32 35 37 37 35 34 32 31 28 23 21 24 28 29 28 27 25 24 23 22 21 21 22 22 23 23
23 24 25 26 26 24 20 16 12 8 8 7 6 6 4 5 7 12 18 22 27 31 33 36 38 38 40 40 38 36 34 31 31 24 20 27 26 24 28 31 33 35 36 34 30 26 22 22 26 29 29 27 27 26 24 24 23 22 23 23 23 24 26
15 14 14 13 12 10 7 6 7 7 5 5 5 4 4 4 4 5 8 12 17 22 27 31 33 34 36 37 34 30 26 23 22 24 28 23 18 17 18 23 30 35 36 34 30 24 22 25 29 31 31 29 28 27 25 24 24 24 24 23 23 23 25
11 10 10 11 14 15 15 13 12 11 10 8 7 7 6 4 4 4 6 8 11 15 20 24 28 30 31 31 29 25 22 21 26 28 21 12 11 8 12 19 29 33 31 29 26 25 27 31 32 33 32 30 28 28 27 25 24 25 25 22 20 21 23
19 20 18 18 18 18 17 15 14 14 12 9 8 7 6 7 8 8 9 10 11 12 14 18 22 25 27 27 26 23 20 23 23 17 9 6 5 9 11 17 26 27 24 24 25 28 32 32 30 28 28 26 23 23 25 26 26 26 25 22 20 22 23
24 25 23 22 21 20 19 17 14 13 10 8 6 7 11 13 12 11 11 12 14 13 13 15 19 22 24 24 23 22 24 25 19 15 15 14 8 5 12 23 25 23 23 23 25 26 25 23 22 22 22 21 19 18 22 26 27 28 28 25 24 24 24
26 27 25 23 20 16 15 14 12 10 8 6 6 10 12 13 12 11 10 12 13 14 14 17 20 21 21 22 23 25 26 25 20 17 18 14 6 10 22 27 25 23 23 21 20 20 19 19 19 19 20 20 21 23 25 27 27 26 24 23 22 22 21
28 26 24 22 19 15 14 13 10 8 5 4 8 12 13 15 15 12 10 11 12 13 16 18 19 20 20 21 23 24 24 24 20 17 18 14 9 14 22 25 25 24 23 23 22 19 17 16 16 18 17 17 19 21 21 21 20 19 17 17 19 19 20
28 27 24 20 17 14 12 10 11 12 9 8 12 16 19 19 16 11 9 10 11 14 16 17 19 20 19 19 21 22 24 26 21 17 20 21 18 18 19 18 19 21 23 24 20 14 11 11 10 10 11 12 13 13 13 14 15 14 14 15 17 18 20
27 26 25 22 19 17 14 13 17 17 15 14 17 20 22 19 15 12 10 10 11 14 15 16 18 19 20 20 22 23 26 26 21 19 22 24 23 23 21 18 17 19 22 19 12 6 7 9 10 13 16 15 14 13 13 13 14 13 14 15 17 19 21
22 22 21 20 19 19 17 16 17 16 16 17 19 19 18 16 15 13 12 11 12 13 14 15 17 19 21 22 24 26 27 25 21 21 24 24 22 21 19 18 16 16 14 9 5 5 7 9 11 16 19 19 17 15 15 14 14 14 15 16 18 19 20
19 17 16 16 16 16 17 17 17 17 18 19 19 17 15 14 14 13 12 12 13 13 13 14 15 17 19 21 23 26 27 26 23 24 27 25 19 13 9 8 8 8 7 7 7 6 6 7 11 16 18 18 17 17 17 16 15 15 16 17 17 18 18
20 18 17 17 17 18 19 19 18 17 17 17 17 16 14 13 13 13 12 12 13 13 12 12 12 14 17 20 23 26 28 26 24 26 28 23 17 11 4 6 10 13 12 10 9 8 9 10 12 15 17 16 16 17 17 16 15 15 16 16 16 18 18
19 21 19 18 18 20 19 17 15 13 11 12 14 14 14 13 13 13 13 13 13 12 11 11 12 12 14 17 18 20 23 22 23 27 26 19 12 7 9 12 14 14 15 14 11 10 10 10 12 15 17 17 17 16 16 15 15 15 15 16 18 18 17
15 16 16 15 16 17 15 12 11 10 8 9 10 12 13 14 15 14 13 12 11 10 10 10 10 9 10 12 14 16 18 20 23 26 22 16 12 13 12 14 17 18 18 16 12 11 10 10 14 16 16 16 15 15 16 16 15 14 14 17 18 17 16
11 11 12 13 13 11 11 9 8 8 7 6 7 10 13 14 14 13 12 12 11 12 11 8 6 6 9 12 15 18 19 20 21 22 22 22 18 12 12 16 20 21 19 14 11 11 12 15 17 15 13 13 15 16 16 16 14 13 15 17 16 15 14
10 9 10 11 11 10 10 9 6 6 6 6 7 9 11 12 10 9 9 10 10 10 8 4 3 5 10 14 16 18 20 21 23 25 25 21 15 14 15 16 18 19 17 13 11 12 13 15 16 15 14 15 17 17 15 14 13 14 16 16 16 15 13
10 9 8 9 10 10 10 9 8 7 8 9 9 9 10 10 8 7 8 7 7 7 6 3 2 6 14 18 19 21 24 24 22 20 16 14 15 16 16 17 18 19 17 15 14 14 14 15 17 17 17 17 17 16 14 13 14 14 15 15 15 13 12

ECMWFFLT1_850_spd_003.txt.gz
Wind_Speed
32 38 43 47 49 49 48 47 44 43 41 40 40 39 39 38 37 37 36 36 37 36 35 35 35 36 35 35 34 32 31 30 30 30 28 26 23 20 18 17 16 16 15 15 15 14 14 14 14 12 9 8 9 10 10 9 8 7 7 7 7 8 8
31 34 39 46 50 50 50 48 45 45 44 41 41 40 40 39 38 38 37 37 38 37 36 37 37 37 37 36 35 33 32 31 31 31 29 26 23 20 18 17 17 16 16 15 14 14 14 14 14 12 10 9 9 10 10 10 9 8 8 9 9 10 10
33 36 41 48 52 52 51 49 47 47 46 44 42 41 41 40 38 38 38 38 38 37 37 38 39 39 38 38 37 35 33 32 32 32 30 28 24 21 19 18 18 17 16 16 15 15 15 15 14 12 10 9 10 10 10 11 11 10 10 10 11 12 12
37 40 44 49 52 53 52 50 49 49 48 46 43 40 39 39 38 38 39 39 39 39 39 40 40 40 40 39 38 36 35 34 34 33 31 28 25 23 21 20 19 18 18 18 17 16 16 16 15 13 12 11 11 12 12 12 12 11 11 12 12 13 13
35 38 42 46 49 52 53 52 52 51 50 48 45 41 38 38 38 39 40 40 40 40 40 40 41 42 42 41 39 38 36 35 35 34 32 29 27 25 24 22 21 20 19 18 18 17 17 17 16 15 14 13 13 13 13 13 13 12 12 13 13 12 12
29 35 40 43 47 49 51 53 53 53 51 48 46 43 39 38 39 40 41 41 42 42 41 41 42 42 42 41 40 39 37 36 36 35 33 31 29 27 26 24 22 20 19 18 18 18 17 17 16 15 15 15 15 15 15 14 14 14 14 13 13 12 12
29 35 39 41 44 46 48 50 52 53 52 49 46 44 42 42 41 41 42 44 44 44 43 43 43 42 43 43 42 41 39 38 37 36 34 32 30 29 26 24 23 20 18 17 17 17 17 17 17 16 16 15 15 16 16 16 16 15 15 14 13 12 12
27 33 37 40 42 43 45 47 49 50 50 49 48 47 46 46 44 42 43 44 45 45 44 44 43 43 44 44 43 43 41 39 38 37 35 33 32 29 26 24 23 20 18 18 17 16 17 17 18 17 16 16 16 16 16 17 17 16 15 14 12 12 12
23 28 33 36 38 41 42 44 46 46 46 46 47 48 48 48 48 46 44 44 44 45 45 44 44 44 45 44 43 43 42 40 38 37 36 35 34 31 26 24 23 22 20 18 16 15 16 17 18 18 17 16 16 17 17 17 17 16 14 13 12 12 13
20 24 29 32 35 38 40 41 42 42 43 43 44 45 47 48 49 48 46 45 45 45 44 44 44 45 45 44 43 44 44 41 38 37 38 38 38 34 30 26 25 24 21 17 15 16 17 18 18 18 18 17 18 18 18 18 17 16 14 13 12 13 13
18 21 27 31 34 36 38 38 39 39 40 39 40 42 44 47 49 49 48 48 47 46 45 44 44 45 45 45 46 48 47 43 41 41 41 42 42 39 33 29 27 25 22 19 18 18 19 19 19 19 20 20 20 19 19 19 18 16 14 13 13 13 14
18 21 27 30 33 35 35 36 37 37 37 36 37 39 41 44 46 47 48 48 47 47 46 46 46 47 47 47 48 51 50 47 46 45 44 45 46 42 36 32 29 26 23 20 19 20 20 20 21 22 23 22 22 21 20 19 18 16 15 14 13 14 14
19 22 27 29 31 32 33 34 35 36 35 35 36 38 38 40 41 43 45 45 45 47 47 47 48 49 49 49 51 53 52 50 48 47 48 49 48 42 36 33 32 29 24 20 19 17 17 20 24 24 24 24 24 23 22 21 19 18 17 17 15 14 15
20 23 26 28 30 30 31 33 34 35 35 35 36 37 37 38 38 39 40 40 41 44 45 46 48 49 49 50 52 53 52 51 49 49 51 52 50 44 37 33 35 32 26 21 18 17 22 27 28 27 25 25 26 25 23 22 21 19 19 18 16 15 16
22 23 26 29 30 30 32 34 34 34 34 34 35 36 35 36 36 36 36 36 37 39 41 43 44 46 47 49 51 51 50 50 48 47 51 53 53 49 41 37 37 34 30 26 22 25 37 38 30 28 27 25 27 26 25 23 22 20 19 18 17 16 16
25 26 28 30 30 32 34 34 32 32 32 33 33 33 33 32 31 31 31 32 34 35 37 39 39 41 43 45 47 48 48 48 45 45 48 51 54 53 48 45 41 35 36 37 32 34 42 38 29 28 27 25 26 26 25 24 22 21 20 19 18 18 17
26 28 29 29 31 34 35 33 31 31 31 31 31 30 29 28 26 27 28 30 32 33 35 37 38 38 40 41 43 44 43 43 43 43 44 46 49 50 47 46 41 36 37 39 38 38 38 32 29 29 26 24 25 25 24 24 22 21 20 19 19 19 19
28 30 31 30 32 36 35 31 30 30 29 28 27 25 24 24 24 26 28 30 32 33 34 35 36 36 36 37 39 38 37 38 39 39 38 38 37 36 37 40 41 39 38 37 38 40 38 32 30 29 26 24 23 22 23 23 21 20 20 20 20 20 21
26 26 27 30 33 35 34 31 29 28 27 25 24 23 23 24 24 25 26 27 28 28 30 31 31 32 33 34 35 34 33 33 34 32 29 27 27 29 33 39 43 43 42 42 43 44 41 37 34 31 28 25 23 21 21 21 21 20 20 21 20 20 21
22 20 19 21 24 26 27 28 27 27 27 26 25 23 21 19 17 16 16 17 19 22 24 26 28 29 30 31 32 32 30 29 28 26 23 22 25 27 28 34 42 45 46 48 48 45 42 39 36 34 30 25 22 20 20 21 23 22 21 21 20 19 20
20 20 18 16 14 18 23 25 26 25 24 22 19 14 9 6 3 2 2 5 9 13 17 20 23 25 26 27 29 29 27 26 26 25 24 23 23 22 23 27 36 43 46 48 50 48 46 39 34 35 34 27 23 22 22 25 26 24 21 22 22 23 22
13 15 17 16 14 19 23 19 15 12 11 10 10 11 12 12 11 10 9 7 4 4 7 12 16 19 21 23 25 25 25 26 27 27 26 22 19 21 24 27 33 39 41 43 47 49 46 39 35 36 33 28 25 24 25 29 28 24 22 23 24 24 23
10 10 12 13 14 17 17 16 18 15 14 17 20 20 19 18 16 14 12 9 6 3 2 5 8 11 14 17 20 22 23 25 27 27 26 22 20 21 23 24 29 34 35 38 42 43 41 37 34 33 30 29 27 25 28 30 27 22 22 22 23 23 24
11 10 10 11 12 15 19 28 32 29 26 26 25 23 22 20 18 15 12 10 7 4 2 3 5 6 9 12 15 18 20 23 24 24 23 21 20 19 17 17 19 21 25 31 35 36 36 33 30 30 30 30 27 27 30 31 26 24 23 23 23 24 24
12 12 13 16 21 25 30 35 37 33 29 27 25 23 21 20 19 17 14 11 8 6 5 4 3 3 5 8 10 13 16 18 19 20 20 19 16 15 15 14 15 18 22 28 31 32 33 32 31 32 32 30 27 27 28 27 23 24 25 25 25 24 25
21 23 27 30 31 33 35 37 36 32 28 25 23 22 19 17 18 17 13 10 7 6 5 5 4 3 4 6 8 10 13 14 14 15 17 17 16 16 17 16 18 22 24 26 28 29 30 31 33 34 32 28 25 24 23 20 17 18 20 22 22 23 25
30 32 34 34 34 34 35 35 32 29 26 23 21 20 18 17 17 16 12 9 7 6 5 5 5 5 5 6 8 10 11 12 13 15 19 19 18 19 20 19 22 23 20 21 24 26 27 30 31 30 28 25 23 22 19 14 10 10 12 14 17 21 24
35 37 35 32 30 29 31 31 28 26 24 21 20 19 17 17 17 15 12 9 8 7 6 4 6 7 6 7 8 9 11 12 14 19 24 23 20 20 20 19 20 19 16 18 22 24 24 26 25 23 21 19 18 16 13 9 8 8 10 12 16 20 21
33 35 34 32 29 26 26 25 22 20 20 20 19 18 17 16 16 14 12 9 8 6 4 3 6 6 6 8 8 9 11 14 17 22 25 23 20 19 18 17 17 17 17 17 19 20 20 20 18 17 16 14 12 11 9 9 9 10 11 14 17 18 18
30 31 30 29 27 23 20 17 16 15 16 17 15 13 11 9 9 9 8 7 7 6 4 5 8 9 9 10 9 10 14 17 20 22 24 22 20 19 18 16 15 16 17 17 16 16 15 15 16 15 13 12 10 8 8 9 11 12 14 16 17 17 15
25 25 23 21 20 18 15 14 13 12 11 11 9 6 5 3 3 5 5 5 7 8 7 9 12 13 12 11 11 13 17 20 22 23 24 23 22 21 19 16 14 14 16 17 17 16 14 15 16 15 12 11 10 9 10 13 14 15 15 17 17 16 14
20 20 20 19 19 18 16 14 13 11 9 8 7 7 6 4 4 4 3 4 5 7 9 11 13 14 11 11 13 16 19 22 25 25 25 25 23 20 17 15 14 15 16 17 17 17 17 18 17 15 12 11 11 13 15 17 16 15 14 16 16 14 12
15 15 16 16 16 15 15 13 12 10 8 6 6 6 5 3 2 1 3 4 4 6 10 11 11 10 9 11 14 16 19 23 26 27 27 26 23 19 15 13 14 17 19 20 19 20 20 19 16 14 12 11 13 15 15 14 14 14 15 15 14 12 12
14 12 12 12 12 12 12 11 10 8 8 6 5 4 3 2 1 1 3 4 4 5 8 10 9 9 10 12 14 16 19 23 26 27 27 26 23 20 18 16 16 18 19 21 21 20 18 15 12 10 10 10 11 12 12 12 13 13 14 13 11 11 12
13 11 11 10 10 10 10 9 8 8 8 8 7 5 4 3 2 1 1 3 4 5 8 10 9 9 10 13 15 17 19 22 25 27 27 25 22 21 21 20 18 17 19 20 20 19 16 12 9 9 9 9 9 10 11 12 11 11 12 11 10 11 13
11 10 9 8 8 8 8 7 6 6 6 6 6 6 5 5 4 3 1 3 4 6 8 8 8 10 11 12 15 17 19 21 24 25 25 23 22 23 23 22 19 19 20 19 18 17 14 10 8 9 10 9 9 10 11 10 10 10 11 10 10 12 14
9 8 7 5 5 5 5 5 4 4 4 4 5 6 5 4 4 3 2 3 4 6 7 9 10 9 9 9 12 14 16 18 20 21 21 21 22 23 23 20 19 20 21 19 18 16 12 9 9 10 10 10 10 11 11 10 11 11 11 11 12 14 15
8 7 5 4 5 5 5 4 3 2 3 4 5 5 4 4 4 4 4 5 6 8 10 11 10 8 6 6 10 12 13 15 16 17 18 20 21 22 21 18 17 17 19 19 18 15 11 10 10 10 10 10 11 11 12 12 12 12 12 12 14 14 14

ECMWFFLT1_850_spd_006.txt.gz
Wind_Speed
25 28 31 32 32 34 36 36 35 36 39 41 42 41 41 41 40 40 40 39 38 37 36 35 34 32 32 31 30 30 30 29 27 26 25 24 23 22 21 20 19 18 16 14 12 11 10 11 11 9 9 10 9 9 9 10 10 9 9 9 8 7 7
25 27 30 32 33 34 37 39 40 42 42 43 43 43 43 43 42 42 41 40 39 38 37 36 36 35 34 33 32 32 32 31 30 28 26 25 24 23 22 20 19 18 15 13 12 11 9 10 10 9 10 11 9 8 9 9 10 9 8 8 8 8 8
24 26 28 31 32 34 38 42 44 45 44 44 44 44 44 44 43 42 41 41 40 39 38 38 37 36 35 34 34 34 33 33 32 30 28 27 26 24 22 21 19 16 14 12 12 12 10 10 12 12 12 11 9 9 9 9 9 9 9 9 9 9 9
24 26 27 29 31 34 40 46 47 46 46 45 45 44 44 43 42 41 41 40 40 40 40 40 39 37 37 36 36 35 35 35 34 32 29 27 25 23 22 22 20 16 15 14 13 13 12 12 13 13 12 11 10 10 10 9 10 9 9 10 9 10 11
23 25 25 27 30 31 36 45 48 47 46 44 44 44 43 43 41 40 40 39 39 39 40 40 39 39 38 38 37 37 36 36 35 33 29 27 25 24 23 22 20 18 16 15 14 14 13 13 13 12 12 11 10 10 10 10 10 11 11 11 10 10 10
21 23 25 27 29 30 34 41 46 48 47 44 43 45 44 42 42 40 39 39 39 39 39 39 39 40 40 39 39 39 38 37 35 34 31 29 27 25 24 24 23 21 18 16 15 14 14 13 13 12 10 10 10 10 10 11 11 11 12 12 12 12 11
19 22 25 27 29 31 33 37 40 44 46 43 42 45 45 43 43 41 40 39 39 39 39 39 39 40 41 40 40 40 39 38 35 34 33 30 29 28 27 27 26 23 20 18 15 15 15 13 12 11 9 9 10 10 11 12 12 13 13 13 14 14 14
17 20 24 26 28 30 30 32 33 36 39 39 40 44 46 44 42 41 41 39 38 39 40 39 40 42 41 41 41 41 39 38 36 35 33 31 31 32 30 29 28 25 21 18 17 16 15 13 12 10 8 7 9 10 11 13 13 13 14 15 15 15 15
15 18 21 23 25 27 27 29 29 30 33 38 41 44 47 45 42 41 41 38 35 37 40 38 38 41 42 42 42 41 41 40 39 36 34 34 35 34 33 31 29 26 22 19 18 17 15 13 12 9 7 7 9 11 11 13 14 15 16 17 17 17 16
12 16 18 20 21 23 24 26 27 29 32 37 41 45 47 47 44 41 39 37 33 34 37 37 35 38 42 43 43 43 43 41 40 39 38 38 38 36 33 30 28 26 22 20 20 18 16 14 13 11 11 11 11 12 14 14 15 16 17 19 19 19 19
11 13 15 17 19 21 23 24 27 32 35 38 42 44 46 47 47 44 40 38 34 31 33 35 34 34 40 44 44 44 44 43 42 42 41 41 40 35 31 29 29 27 23 21 22 19 16 17 17 16 16 14 12 14 16 17 17 17 18 19 20 20 20
10 11 13 16 19 21 23 24 27 32 37 40 41 42 44 46 47 45 43 40 35 31 30 32 33 33 38 44 44 45 45 44 43 44 45 42 36 32 30 30 30 27 24 23 22 19 19 22 23 21 20 17 19 23 22 20 19 18 18 19 20 21 21
11 10 12 14 18 20 23 25 28 32 36 38 39 40 40 42 43 43 44 43 38 32 30 31 31 31 34 38 42 45 46 44 45 46 43 36 29 29 31 30 29 29 27 25 24 26 32 35 31 27 24 21 23 29 29 24 20 19 20 20 20 21 21
13 11 12 14 19 22 24 26 29 31 34 35 36 38 38 38 39 39 42 44 40 34 30 30 31 31 32 32 35 40 44 44 43 38 34 33 33 33 31 28 30 30 28 28 33 40 45 45 39 35 33 28 25 29 31 26 21 21 22 21 20 21 21
14 14 14 16 21 25 27 29 31 33 34 34 35 37 37 36 37 37 39 41 40 36 30 29 31 31 30 30 31 34 40 39 31 26 29 35 38 36 32 31 33 35 36 41 46 48 48 46 43 42 41 36 30 30 31 28 24 23 24 23 22 21 21
15 15 17 20 23 27 30 33 33 33 34 34 35 36 37 36 36 36 36 36 37 36 30 27 29 29 29 29 28 28 32 30 23 23 30 34 35 36 37 40 45 48 49 51 52 51 47 44 44 45 45 39 32 28 29 29 27 24 24 24 22 20 20
17 16 19 22 25 27 30 32 33 34 34 35 35 36 36 35 33 32 32 31 31 32 28 26 28 28 27 26 24 22 21 22 25 30 34 34 34 35 36 42 51 56 55 54 54 52 48 44 44 46 46 43 36 29 27 29 29 26 24 25 23 20 19
17 16 17 18 21 24 26 29 33 36 35 34 35 35 34 32 31 31 30 26 24 23 23 24 25 25 21 19 22 23 20 19 26 33 34 33 33 32 30 34 44 53 56 57 57 55 51 47 46 46 46 44 39 32 29 30 30 27 25 24 22 20 19
14 13 13 14 17 21 25 25 27 30 30 28 29 31 29 27 27 28 26 23 21 20 20 20 21 21 19 18 21 24 21 20 24 28 27 28 28 27 27 28 34 44 51 55 56 55 53 51 49 48 46 43 37 31 29 30 29 26 24 24 22 21 19
13 12 12 13 15 19 24 24 23 26 28 25 24 24 23 22 22 23 23 22 22 21 19 19 19 18 17 17 19 20 19 19 22 23 22 22 22 23 25 26 27 33 40 47 51 53 53 52 51 49 47 43 37 31 28 28 27 25 24 24 24 22 21
14 13 13 14 15 18 23 23 23 25 27 25 25 24 22 20 19 18 18 18 18 18 17 17 17 16 16 17 17 17 17 18 20 19 18 18 18 20 21 22 22 25 31 39 45 49 51 50 50 50 46 40 35 32 29 28 26 24 24 26 27 25 22
14 15 16 18 20 21 21 21 22 27 29 28 27 24 21 19 18 17 17 16 16 17 17 17 17 16 16 16 14 14 15 16 16 16 15 14 15 17 17 17 20 22 27 34 40 45 49 49 49 49 42 34 34 36 33 29 27 26 27 28 28 27 25
12 14 15 16 19 20 20 21 24 27 28 27 26 25 25 26 26 24 22 21 21 21 20 19 19 18 16 15 13 12 12 12 12 11 11 12 13 13 13 15 18 20 21 25 28 33 39 42 44 45 39 34 36 37 33 31 31 30 29 28 27 27 28
15 15 14 15 17 19 19 22 24 26 26 26 28 31 33 33 33 30 28 26 24 23 22 21 20 18 16 15 13 11 10 10 9 9 9 10 10 10 11 12 14 15 16 18 19 22 26 29 29 32 33 33 35 33 31 31 32 28 26 27 28 29 30
16 16 15 16 17 17 19 22 25 28 31 30 31 36 37 35 34 31 28 26 24 23 22 21 19 18 16 14 12 10 10 10 10 10 10 9 10 11 12 12 12 13 14 15 16 19 22 21 20 22 25 27 29 29 28 27 27 25 26 29 32 31 29
15 16 16 16 17 21 25 30 32 35 35 33 34 37 37 33 31 29 26 24 22 21 21 20 18 17 15 12 10 9 9 10 11 12 12 12 13 14 14 13 12 13 14 13 13 15 17 18 18 19 19 20 23 27 28 26 26 27 28 30 31 28 26
15 16 17 19 24 29 34 37 38 37 36 35 35 35 33 31 29 26 24 23 21 19 19 18 16 15 13 11 9 8 8 10 12 12 12 13 14 15 15 14 13 15 16 15 14 15 16 16 16 17 18 18 20 24 26 25 26 26 24 23 23 22 21
18 19 22 26 30 35 38 39 39 38 36 34 33 32 31 29 28 26 24 24 21 20 19 16 14 12 11 11 10 10 11 12 12 12 12 12 13 14 15 14 15 17 17 15 15 17 18 17 16 18 20 20 20 21 22 22 23 22 20 20 20 20 18
26 29 33 35 33 32 33 35 36 35 34 32 31 30 29 27 25 24 23 21 19 17 16 14 11 10 10 11 13 13 13 13 13 13 12 13 15 16 17 18 18 18 17 16 16 17 18 16 17 19 20 21 23 22 20 21 22 21 20 20 19 17 15
36 37 35 33 29 26 28 32 33 32 32 30 29 28 26 23 20 18 18 17 16 14 13 11 9 9 12 14 15 15 14 13 14 14 13 15 18 20 20 20 18 16 16 16 17 17 16 16 17 18 18 20 21 20 19 21 23 21 19 18 15 13 13
32 32 29 27 25 22 24 28 29 28 28 27 26 25 23 19 17 15 15 15 13 11 10 9 9 12 15 16 15 14 14 14 15 15 16 20 23 23 21 19 16 14 13 14 15 15 15 15 16 16 17 18 19 21 21 22 22 19 16 14 13 12 13
29 27 26 26 25 21 19 21 22 23 22 22 21 20 18 16 14 13 12 11 11 10 9 9 11 14 16 16 14 13 14 15 17 18 20 24 25 24 21 18 13 10 10 12 14 15 14 15 15 16 18 18 20 22 23 21 18 16 14 13 13 13 13
28 26 24 24 25 22 19 18 18 19 19 18 18 16 15 14 13 11 10 10 10 10 11 12 14 16 17 16 14 14 15 16 18 20 23 27 27 23 20 16 12 10 11 12 13 14 15 16 17 18 18 18 18 20 21 18 15 14 13 12 12 12 12
24 23 22 21 21 20 19 18 18 17 17 16 16 15 14 13 12 10 9 10 11 12 15 16 17 16 16 15 14 15 16 17 19 22 25 28 25 20 17 14 12 11 11 11 11 13 14 15 16 16 15 15 15 15 15 14 11 10 10 11 12 12 12
19 20 19 18 17 16 16 16 16 16 15 15 15 15 15 14 12 12 11 12 14 16 17 17 16 15 15 15 15 15 16 18 21 23 24 25 24 20 17 16 14 12 11 12 11 12 14 14 13 12 12 11 12 13 12 11 11 12 13 14 14 13 13
16 17 17 16 16 14 13 14 14 15 15 16 16 16 16 15 14 15 15 16 17 18 17 17 17 16 15 15 15 15 16 18 20 22 22 22 22 21 20 19 16 14 14 15 13 12 14 16 15 13 12 10 11 13 14 13 14 14 14 14 14 14 14
14 14 14 13 14 14 13 13 14 14 15 16 17 16 16 16 16 16 17 18 18 18 18 19 19 17 15 15 15 15 17 18 19 20 20 19 19 20 20 20 19 17 16 17 15 12 13 17 18 15 14 12 12 14 15 15 15 14 14 14 14 15 15
13 13 12 10 10 12 12 11 11 12 13 15 15 15 15 16 16 16 17 18 20 21 21 21 20 18 15 15 15 15 17 17 16 16 17 16 16 18 20 20 18 16 15 15 14 12 15 18 17 14 14 14 15 15 14 14 13 13 14 15 16 16 15

ECMWFFLT1_850_spd_009.txt.gz
Wind_Speed
25 24 26 31 34 36 38 39 39 39 39 40 40 40 39 38 37 35 34 34 35 37 38 37 35 33 31 30 29 29 28 28 27 26 25 24 23 21 19 18 18 17 14 13 13 13 12 11 12 13 11 10 10 10 8 8 9 9 9 9 9 8 7
23 21 24 31 36 36 38 39 39 39 39 40 40 40 40 39 39 37 35 35 36 38 39 38 37 35 33 30 30 29 29 28 28 27 27 26 24 23 21 20 20 19 17 15 15 14 13 13 14 14 13 13 12 10 9 8 8 8 9 8 8 8 7
22 25 28 34 37 35 36 38 39 39 39 39 40 40 41 42 41 40 38 36 37 39 39 39 38 37 35 32 30 30 30 29 29 29 28 27 25 24 23 23 22 20 18 17 16 15 14 14 15 14 14 14 13 11 10 9 9 8 9 9 8 7 7
21 25 28 32 35 34 35 37 38 39 39 39 40 41 42 42 42 43 41 38 38 40 41 40 39 38 37 35 32 31 31 31 30 30 29 28 26 25 25 25 24 21 19 18 16 16 16 15 14 14 15 14 14 13 11 11 10 9 9 9 9 8 8
19 19 23 30 33 33 34 36 39 40 39 38 38 39 40 41 41 42 42 40 38 40 42 41 39 38 38 37 35 33 31 31 31 30 30 30 28 26 26 26 24 21 19 18 17 18 17 14 13 14 15 14 14 15 14 12 13 12 10 9 8 9 9
18 18 22 28 29 31 34 36 39 41 41 40 39 38 38 39 40 39 40 41 40 38 40 41 39 38 39 38 36 35 33 33 32 32 32 32 30 29 27 25 23 20 18 18 18 18 17 15 15 15 15 15 14 16 16 14 14 14 11 8 7 8 9
17 18 22 26 27 30 33 34 36 38 39 38 38 38 38 39 40 39 38 40 41 38 37 40 39 38 39 38 37 37 37 35 34 34 33 33 31 30 27 25 23 20 19 19 18 18 17 17 16 16 16 16 17 18 17 16 16 15 12 8 8 9 10
19 18 21 24 27 29 30 33 34 34 36 37 37 38 39 39 39 39 38 38 39 38 36 36 37 37 39 40 39 39 39 38 37 36 34 32 30 28 26 25 23 22 21 20 19 18 18 18 17 17 19 19 20 20 18 17 17 17 15 11 9 9 11
18 16 16 19 24 26 27 30 31 32 34 38 39 38 39 39 39 38 38 37 36 37 37 35 34 35 38 41 41 40 40 39 38 37 35 32 30 26 25 25 24 24 24 22 21 21 22 22 22 24 25 23 23 22 21 19 19 19 17 14 9 6 9
12 12 13 17 22 25 26 26 28 31 34 38 41 40 38 39 39 37 37 37 35 35 36 35 32 33 36 41 43 42 41 40 39 37 33 31 29 26 25 27 26 26 27 26 26 27 28 28 28 31 31 28 25 25 24 22 20 19 18 16 10 6 9
8 12 13 16 21 22 23 24 26 30 33 38 41 40 38 39 39 37 37 36 35 33 33 34 32 32 34 37 40 41 42 42 39 35 31 30 30 28 27 29 30 29 29 30 32 34 35 35 34 36 37 34 28 27 26 23 21 20 18 16 13 9 10
12 14 15 18 20 21 22 23 26 29 31 35 38 38 38 39 39 38 36 36 35 33 32 33 32 33 33 33 35 38 42 42 37 33 31 32 33 33 32 34 37 36 33 34 38 41 42 40 39 39 40 37 31 28 27 24 22 21 18 15 15 13 12
12 15 17 18 19 20 21 23 24 27 29 32 35 36 36 37 38 38 37 36 35 33 32 32 33 34 34 32 32 34 38 39 36 35 36 36 36 36 36 37 40 41 39 39 42 44 44 42 40 41 41 38 33 30 28 25 24 23 18 15 17 16 14
14 16 17 18 20 20 21 22 23 25 28 30 32 34 34 34 36 38 38 37 35 33 32 31 32 33 34 33 31 31 33 32 33 37 41 40 39 39 40 41 43 44 43 44 45 45 44 43 43 44 43 40 35 31 29 28 27 25 20 16 17 18 17
17 17 17 18 19 18 19 22 24 25 27 29 30 32 32 32 33 35 36 36 36 34 31 30 32 32 33 32 30 29 30 31 33 38 42 42 41 41 43 47 49 49 47 48 48 47 45 44 44 45 44 42 37 33 31 31 31 28 22 17 17 18 19
20 19 17 14 14 15 17 20 24 25 26 27 29 31 32 31 32 33 34 34 36 35 32 31 32 32 32 32 30 29 29 31 33 34 38 43 43 43 45 49 51 51 50 49 48 47 45 44 45 45 43 42 39 36 35 35 35 32 26 20 17 18 19
24 21 17 13 11 12 16 19 23 25 27 28 30 31 32 32 33 33 32 32 34 36 34 31 31 33 33 31 30 30 30 32 34 33 35 39 41 42 44 46 46 47 48 47 47 46 45 44 45 45 43 41 40 39 38 38 37 35 29 23 18 18 20
22 21 19 15 13 14 17 21 23 26 29 29 28 29 30 31 32 32 31 31 32 34 34 32 31 32 32 31 31 32 33 35 36 34 33 34 34 36 38 40 41 43 44 45 45 46 47 47 47 46 44 43 42 40 40 39 38 36 31 24 19 18 21
21 23 19 14 15 18 21 22 23 26 28 29 29 30 30 30 31 32 31 30 31 33 33 32 31 32 33 32 32 33 35 36 35 33 33 31 29 30 33 35 37 39 42 44 44 45 47 48 49 47 46 45 43 41 39 37 36 35 31 26 22 20 22
25 25 20 16 17 20 21 23 22 23 26 28 29 30 29 28 30 31 31 30 30 32 33 32 31 33 35 34 33 34 35 35 33 32 31 28 25 26 29 32 33 35 38 41 42 44 45 47 49 48 48 46 43 41 38 33 30 31 30 27 23 22 24
28 25 22 23 25 22 22 24 23 23 25 27 27 29 29 28 29 30 30 30 30 32 34 34 32 33 34 33 33 35 35 32 31 30 28 24 22 24 26 28 30 30 32 35 38 41 43 46 48 48 47 45 42 40 36 29 26 29 31 28 24 23 25
31 25 20 22 25 26 27 25 23 23 26 27 28 30 30 30 29 29 30 31 31 33 35 34 31 31 31 29 30 31 29 28 29 29 25 21 21 23 23 24 25 25 27 29 32 36 37 38 40 43 43 42 38 34 29 26 25 30 33 29 24 23 25
31 26 21 21 23 25 26 24 22 23 26 28 29 30 30 30 31 31 31 31 32 34 35 33 29 28 29 28 28 26 23 24 26 25 22 19 20 21 20 21 22 22 22 22 23 27 27 23 24 27 30 31 30 26 23 24 27 31 31 28 25 25 26
26 24 20 20 20 21 22 22 22 25 28 29 30 30 30 30 32 33 32 31 32 32 33 31 29 29 28 28 27 26 24 23 21 20 20 19 19 19 17 17 18 18 17 16 17 20 21 19 19 20 21 22 23 22 23 25 28 31 31 29 26 25 26
21 21 18 18 19 20 22 22 23 26 28 29 31 32 31 31 32 33 32 31 32 32 31 29 28 29 28 25 25 25 24 22 20 19 18 18 18 18 16 15 14 14 14 13 14 17 18 18 18 17 18 20 21 23 24 24 24 27 28 28 27 26 26
18 19 18 17 18 20 22 23 25 27 28 29 30 31 31 32 32 32 32 32 32 31 30 29 29 29 27 24 23 22 21 21 20 18 17 18 18 17 15 13 13 13 13 12 12 13 14 14 14 13 15 17 18 20 20 18 18 21 22 23 25 25 25
16 17 17 16 18 21 22 23 26 26 27 28 29 29 32 34 33 32 33 33 31 29 29 30 29 27 25 24 24 23 22 21 21 19 17 16 16 15 15 14 13 12 12 11 11 10 10 11 11 10 12 13 13 13 13 11 13 16 16 17 21 23 24
15 15 16 18 20 22 22 23 24 24 24 27 28 29 31 32 32 34 35 33 32 31 31 31 29 27 26 26 26 26 24 22 22 23 21 18 17 19 19 15 12 11 11 12 12 12 11 10 9 9 10 11 11 11 11 10 11 13 14 15 19 22 22
15 17 18 20 22 23 23 24 26 26 27 28 29 28 29 30 33 36 35 33 32 32 31 30 29 28 27 27 27 27 24 23 24 24 23 21 20 20 18 17 16 16 17 16 14 13 13 11 11 11 11 11 12 11 11 12 12 13 13 15 17 19 20
15 18 19 20 22 23 25 28 29 29 29 29 29 28 29 33 36 36 33 31 31 31 31 31 30 29 29 28 28 26 23 23 24 23 21 20 19 18 18 20 21 18 16 15 14 12 11 11 12 12 11 12 12 12 12 13 14 13 12 12 14 17 20
16 18 20 22 23 25 27 31 32 32 31 31 30 31 33 35 35 32 29 29 30 30 31 31 29 28 29 27 24 23 21 21 21 20 19 19 19 20 22 22 19 14 12 12 12 11 11 11 11 11 12 12 12 12 13 14 14 12 12 14 15 17 19
19 21 22 24 26 27 29 31 31 31 31 29 28 30 33 33 31 30 30 31 32 31 31 30 28 26 25 21 20 20 20 19 19 19 19 19 21 24 24 20 16 13 11 10 10 11 11 11 11 12 12 11 11 11 13 13 12 11 12 15 18 19 19
23 23 23 25 26 26 27 29 30 30 29 28 27 28 29 29 28 28 29 30 30 29 29 29 28 25 21 19 19 20 20 21 22 22 21 21 22 23 21 18 16 14 11 9 10 10 10 11 11 11 11 11 10 10 11 12 12 11 12 14 18 20 19
24 23 24 24 24 23 24 26 28 28 27 25 24 22 22 24 25 25 26 27 28 28 26 24 23 21 20 21 22 21 20 21 23 23 22 21 21 20 18 18 16 13 11 12 12 11 11 11 11 11 11 10 10 10 12 13 13 12 12 13 15 17 16
25 25 25 24 22 21 21 22 23 24 23 21 20 19 20 22 22 22 23 24 24 23 20 18 19 21 22 23 23 21 20 20 21 22 22 21 21 21 20 19 18 15 14 15 15 14 14 13 11 10 10 10 10 12 13 12 12 13 13 12 12 13 14
21 22 24 24 23 22 20 20 20 20 20 19 18 19 21 21 19 17 17 18 17 18 18 19 20 21 21 20 19 19 19 19 19 20 20 20 21 23 22 20 20 20 18 16 15 14 13 13 12 12 12 11 12 15 14 11 12 13 13 12 12 12 13
19 19 19 21 22 22 20 19 19 19 19 18 17 17 18 18 18 16 16 17 18 19 21 21 20 18 17 16 16 18 18 18 18 19 19 18 18 21 22 20 20 19 16 12 11 11 11 11 13 15 15 14 14 15 15 13 12 13 13 13 12 12 12
19 19 18 17 18 19 19 18 18 18 19 18 17 17 16 16 17 16 16 18 19 19 21 20 18 16 15 15 17 19 18 17 17 17 17 17 16 18 20 21 20 19 16 12 10 10 10 10 12 17 18 16 14 13 12 12 11 12 12 13 12 12 12

ECMWFFLT1_850_spd_012.txt.gz
Wind_Speed
30 29 30 33 35 36 37 39 42 43 42 42 45 44 43 42 40 39 39 40 40 40 39 38 38 37 35 34 33 32 32 30 28 27 26 25 23 23 24 23 21 19 19 18 16 15 16 16 14 13 14 14 15 13 10 9 9 11 12 12 16 15 11
31 31 31 32 34 38 40 41 41 42 42 42 45 45 43 43 43 42 41 41 41 41 40 40 39 37 35 34 33 33 32 31 30 28 27 26 24 24 24 23 21 20 19 17 17 17 18 17 16 16 17 18 15 12 9 8 9 11 11 11 14 15 13
33 33 33 34 35 39 42 42 41 41 41 41 44 46 45 45 44 44 43 42 42 41 40 41 40 38 36 34 33 33 32 32 31 30 29 27 26 25 24 22 21 21 20 18 18 19 18 18 18 19 20 20 18 15 11 10 10 11 12 11 12 13 13
37 34 34 35 35 37 38 40 41 41 40 39 41 44 46 45 45 44 44 43 42 42 41 40 40 39 37 35 35 34 33 32 32 31 30 28 28 27 25 24 23 22 22 21 21 21 20 20 21 21 21 20 19 17 14 13 12 11 13 12 12 12 12
40 36 36 35 32 33 36 38 39 39 39 38 39 42 45 46 46 45 44 43 42 42 41 40 40 39 39 37 36 36 35 33 32 31 31 29 28 28 27 26 26 25 24 24 24 25 24 24 24 24 23 21 20 18 17 16 14 12 14 14 13 13 12
42 39 37 35 29 30 35 36 35 35 37 37 37 39 42 43 43 44 43 43 41 41 41 40 39 40 40 39 38 37 36 35 33 32 31 30 30 29 29 28 28 28 27 26 26 27 27 26 26 26 25 23 22 21 19 18 16 14 14 15 15 14 13
41 39 35 34 30 28 30 31 30 31 33 34 34 36 38 40 41 41 41 41 40 40 41 40 39 41 42 41 40 39 38 36 35 33 32 31 31 31 29 30 31 30 29 29 29 30 29 28 28 28 26 24 23 23 22 20 18 16 15 15 16 15 14
37 40 37 35 30 26 27 29 29 29 31 33 34 36 38 39 40 41 41 40 40 40 41 41 41 42 43 42 41 39 39 37 36 35 34 33 33 31 31 32 33 32 31 32 32 32 31 30 29 29 28 26 25 25 24 22 20 19 17 16 16 15 14
36 44 39 34 30 26 27 30 30 30 33 35 36 38 39 40 40 42 42 40 40 40 40 40 41 42 42 43 42 40 39 37 36 36 36 36 34 33 33 34 35 34 33 33 33 34 33 31 30 30 30 29 28 27 26 24 22 21 20 18 16 14 13
34 40 34 31 29 27 27 28 29 30 31 34 39 42 42 41 41 41 41 41 40 40 40 39 39 40 42 43 42 41 40 38 37 38 38 38 36 36 37 37 37 36 34 34 34 34 35 33 32 32 32 31 31 30 29 27 25 23 22 20 17 15 14
35 35 32 32 30 27 27 28 31 32 32 35 42 44 43 42 41 40 41 41 40 39 39 39 39 38 41 43 42 41 41 40 39 39 39 39 39 39 39 39 40 39 37 37 37 37 37 36 35 35 35 34 33 32 31 29 27 24 24 22 19 17 15
35 33 35 36 32 30 31 31 32 34 34 37 43 45 44 43 42 40 40 41 40 39 40 39 38 38 39 42 42 41 41 42 42 40 39 39 41 40 40 40 41 41 40 40 40 40 39 38 38 38 37 36 35 34 34 31 28 26 25 23 21 19 17
29 29 31 32 32 32 32 32 31 32 33 37 42 45 44 43 43 40 40 41 40 38 40 40 39 39 39 41 42 41 42 43 43 42 40 41 42 41 41 42 42 42 43 42 42 41 40 39 39 39 40 38 36 35 35 33 30 28 27 25 23 20 19
27 27 27 28 30 31 30 30 29 30 34 37 39 43 43 43 43 41 40 42 40 38 40 41 40 40 41 41 41 41 42 42 43 42 42 42 42 42 42 43 43 43 44 44 44 43 41 40 41 42 41 39 38 37 37 34 33 31 28 26 25 22 21
26 24 25 26 27 26 25 26 26 27 32 36 37 40 42 42 43 42 41 42 41 39 39 41 42 42 42 42 41 40 40 41 41 42 42 43 43 44 44 44 44 45 44 44 45 44 42 40 42 44 42 40 39 39 38 37 36 34 30 28 27 25 22
22 19 19 19 20 20 19 23 26 26 29 33 34 36 40 41 43 43 42 42 42 40 39 41 44 44 44 44 43 42 41 40 40 41 42 44 45 45 45 45 45 46 45 45 44 43 41 41 43 45 43 41 41 40 40 39 37 35 32 29 27 26 23
20 20 21 20 19 19 19 21 25 28 30 33 34 34 37 39 41 42 40 39 41 42 40 41 44 44 45 45 44 43 41 40 40 41 43 45 47 46 46 46 46 46 45 44 44 42 40 41 43 44 43 42 41 41 42 41 39 37 34 31 28 26 23
20 17 19 25 25 23 23 25 27 29 32 33 34 35 36 37 38 39 40 39 41 42 41 41 44 45 45 46 46 45 43 42 42 42 43 45 46 46 45 45 45 44 43 43 42 42 42 42 43 42 40 39 41 42 42 41 40 38 36 33 29 26 24
23 22 18 24 29 28 28 30 31 30 29 31 33 34 36 37 37 38 41 41 41 42 42 40 43 45 46 47 47 46 45 44 43 43 43 43 43 44 44 44 43 42 41 42 42 43 43 42 42 41 38 37 38 39 40 40 40 38 37 34 29 26 24
27 29 28 26 31 34 34 34 33 29 27 28 28 29 32 36 38 39 40 40 40 42 43 41 41 45 48 47 46 45 45 45 44 43 43 42 41 43 43 42 41 41 42 42 42 43 43 42 42 41 39 38 37 37 36 37 38 37 36 33 28 26 25
26 32 33 27 26 33 33 31 29 27 26 26 24 25 30 34 37 38 39 39 39 42 45 44 41 43 46 45 44 45 46 46 44 44 43 42 42 42 39 36 37 41 42 41 41 41 42 41 41 41 39 37 37 36 35 34 34 34 33 30 26 24 24
28 29 31 28 25 27 27 26 25 25 24 25 25 25 29 33 36 37 37 39 39 41 44 44 41 40 43 45 45 46 47 46 44 44 43 42 40 36 31 31 36 39 39 38 38 38 39 39 38 38 37 35 34 34 32 30 29 28 27 24 21 21 22
33 31 29 30 28 27 27 26 25 24 24 25 26 26 28 32 35 36 37 38 39 40 41 41 39 39 42 45 47 47 46 45 44 44 43 39 35 31 29 31 34 36 35 34 34 34 34 34 33 33 32 30 28 28 27 25 24 23 23 22 20 20 21
35 37 35 32 29 28 29 30 27 25 27 28 27 26 28 32 35 37 39 39 39 40 41 40 39 39 40 42 46 46 45 45 44 42 38 34 31 30 30 31 32 33 32 32 32 31 30 27 25 24 23 20 18 17 19 20 21 22 22 22 21 21 21
38 41 40 36 34 33 32 33 30 27 29 30 29 28 30 33 36 38 40 40 40 42 43 42 43 42 40 41 43 44 44 43 40 37 34 32 31 30 30 29 29 28 27 28 28 28 26 22 19 18 17 15 14 14 14 15 18 20 21 21 21 22 22
29 34 36 35 36 32 29 29 28 29 30 31 31 31 33 36 37 39 41 41 42 44 45 45 45 43 41 40 42 42 38 35 34 33 32 31 30 27 25 25 25 24 25 26 25 25 24 21 18 17 14 13 14 16 16 16 17 19 20 22 22 21 21
20 25 27 32 31 25 23 25 26 28 30 31 31 33 35 38 39 40 41 42 43 44 45 45 44 42 38 36 37 37 33 29 29 31 30 29 28 25 24 25 25 25 26 24 21 21 21 20 18 18 15 13 13 14 15 17 19 19 19 19 19 18 18
14 20 17 25 28 24 22 25 27 28 28 30 32 34 36 38 39 40 40 42 42 41 41 41 41 40 38 35 33 32 30 28 29 29 28 28 28 27 26 25 25 25 24 21 19 19 19 17 16 17 15 13 13 13 12 13 15 16 15 14 15 16 17
16 21 19 16 20 24 26 27 28 29 29 30 32 34 35 37 38 38 38 38 36 35 36 40 40 39 38 35 32 30 28 29 30 29 27 27 28 27 26 25 24 24 22 20 19 18 17 15 13 14 14 13 12 10 8 9 10 9 9 11 13 14 15
25 26 22 17 15 20 26 28 29 30 29 29 31 32 33 35 36 37 36 34 33 33 36 40 40 38 36 34 32 30 27 25 27 26 23 24 24 23 22 22 21 21 19 18 19 18 16 14 11 11 13 11 9 7 8 10 10 8 8 9 11 13 14
20 21 21 22 21 19 21 23 26 28 28 28 31 32 33 35 37 36 34 33 34 36 37 39 39 37 34 33 32 31 27 26 27 24 22 22 22 20 20 20 20 20 20 21 22 21 19 16 13 13 14 13 10 10 11 12 10 8 8 9 12 14 15
11 14 16 19 21 20 19 21 24 26 26 27 30 31 31 34 35 35 34 34 35 36 37 39 39 37 34 32 31 30 29 28 27 24 22 22 22 21 21 21 21 23 23 22 22 21 20 18 16 16 17 15 12 13 14 12 10 9 9 10 13 16 16
7 11 14 18 21 22 23 25 26 27 27 27 28 29 30 32 34 34 35 35 34 36 37 38 39 37 33 31 31 29 27 26 26 25 23 22 22 21 21 22 23 23 23 21 19 17 17 16 15 15 16 15 13 15 17 15 11 10 11 13 15 16 17
3 9 14 19 21 22 25 26 27 28 28 27 27 29 30 32 33 33 34 33 34 37 38 37 37 35 30 29 30 26 22 22 24 22 19 20 21 21 21 22 24 23 21 18 17 16 16 16 15 15 15 15 14 16 19 17 13 11 12 13 14 15 16
11 13 15 17 20 22 24 25 26 27 27 27 28 28 30 32 32 31 32 33 35 37 37 35 33 30 27 25 24 20 19 19 19 18 17 21 25 24 21 21 22 22 21 19 17 16 15 15 15 15 15 15 15 17 18 18 14 11 10 10 10 10 11
17 19 19 22 26 26 26 26 26 26 26 27 27 28 31 32 29 26 27 32 35 35 34 33 31 27 24 23 21 20 20 20 19 19 21 24 26 25 22 23 22 20 20 19 17 16 16 16 17 18 17 16 17 18 18 16 12 10 9 8 8 8 9
21 24 26 27 27 27 26 24 23 23 24 24 24 25 28 27 24 22 23 28 31 32 31 31 29 26 24 23 23 24 25 24 24 24 25 26 25 23 23 24 22 19 19 20 19 18 18 18 18 18 18 17 16 16 17 14 11 9 8 7 7 8 9
23 24 26 25 23 24 24 22 22 21 21 21 23 23 23 22 20 19 19 22 26 27 27 26 26 25 25 25 25 27 28 27 27 27 26 25 24 23 23 23 22 19 19 19 18 18 18 17 16 17 19 18 15 14 16 15 11 9 9 9 9 9 9

ECMWFFLT1_850_spd_015.txt.gz
Wind_Speed
39 39 40 41 42 42 45 48 48 49 50 50 50 49 49 47 46 45 45 45 45 43 42 42 42 42 42 40 38 36 35 34 32 31 31 29 28 28 27 26 25 24 22 22 23 22 21 21 20 18 18 18 17 16 16 14 13 14 15 16 16 14 11
40 39 40 41 41 41 43 47 48 49 50 50 50 49 49 48 47 46 46 45 45 43 43 42 42 42 42 41 39 38 36 34 33 32 32 30 29 29 29 28 27 25 23 23 23 22 21 21 20 18 19 18 17 16 15 14 13 14 14 16 16 15 13
39 39 40 42 43 43 44 46 47 48 49 49 49 49 49 49 48 47 46 45 44 43 42 42 42 42 42 41 41 39 37 36 34 34 33 32 31 30 29 29 28 26 24 24 24 23 23 23 21 20 19 19 18 18 16 13 13 13 13 15 16 15 14
39 40 42 44 46 48 48 48 47 47 48 48 49 49 49 48 47 46 45 45 44 44 43 43 43 42 42 42 42 41 39 37 35 35 35 33 32 31 31 31 30 28 26 25 25 24 25 25 24 22 21 21 20 19 17 15 14 13 13 15 16 16 15
40 41 43 44 46 48 48 49 49 48 48 48 48 48 47 47 46 46 45 44 44 44 44 43 43 43 43 43 43 42 40 37 36 36 36 34 33 32 33 33 32 31 29 27 27 27 27 27 26 25 24 23 22 21 19 18 16 15 14 14 16 16 16
42 42 43 45 46 48 49 50 51 50 50 49 48 46 46 46 47 47 46 45 43 43 42 43 43 43 44 44 43 43 41 38 37 37 37 36 34 34 35 35 33 32 31 29 29 29 29 28 28 27 26 25 24 23 21 20 18 16 15 14 16 17 17
44 44 45 47 48 50 50 50 50 49 49 48 47 46 46 47 48 48 47 47 45 44 43 44 44 44 44 44 44 43 42 40 38 38 38 37 35 35 36 36 35 33 32 31 31 31 30 29 28 28 27 26 26 25 23 22 20 18 16 15 16 18 18
47 45 47 49 49 50 50 49 49 48 47 46 45 47 47 48 49 49 48 48 46 45 45 45 45 45 45 44 44 44 43 41 39 39 38 37 37 37 37 37 37 35 34 33 33 32 31 30 29 29 29 28 28 27 26 24 22 20 19 18 18 19 19
46 47 48 50 50 51 50 48 47 46 46 47 46 47 47 47 48 49 49 48 47 47 46 46 46 46 45 45 45 45 44 43 41 39 39 39 38 38 39 39 38 36 36 36 35 34 33 32 31 30 30 30 30 29 28 27 25 23 22 20 20 20 20
46 48 50 51 49 48 47 44 43 44 45 47 47 46 46 47 48 48 48 47 47 47 47 46 46 46 46 46 45 45 46 45 43 41 41 40 40 39 39 39 39 38 38 37 37 36 36 34 33 32 32 32 32 31 31 30 28 27 25 22 21 21 21
46 50 49 49 45 41 40 39 41 43 46 48 48 46 46 46 46 47 48 48 47 47 46 46 46 46 46 46 46 46 47 46 45 43 42 42 41 40 40 40 40 40 40 39 39 38 37 36 35 35 34 34 34 33 33 32 31 30 28 24 22 22 22
45 51 47 45 43 39 38 39 42 45 46 47 48 47 46 46 46 46 47 47 46 46 46 46 46 46 47 47 47 48 49 48 46 45 44 43 42 42 41 41 41 41 41 41 41 40 39 38 37 37 36 36 35 34 35 34 33 32 30 26 23 23 24
41 49 45 43 42 40 40 42 44 46 46 47 48 48 47 45 45 45 45 46 46 45 45 45 45 46 46 47 48 49 50 50 49 47 45 43 43 43 43 43 42 42 42 42 42 42 41 40 39 38 37 37 36 36 36 36 35 34 32 29 25 24 25
36 43 43 43 43 42 44 45 46 47 46 46 47 47 47 45 46 46 46 46 46 45 45 44 45 45 46 47 49 50 51 51 50 49 46 44 43 44 45 45 44 44 43 43 43 43 43 42 40 39 39 38 37 37 37 37 37 36 34 32 28 26 26
31 36 36 38 40 42 44 43 43 45 45 45 46 46 46 45 45 46 47 47 46 45 45 44 45 45 46 48 50 51 52 52 51 50 48 46 45 45 46 46 46 45 45 44 44 43 43 42 42 41 40 40 39 38 38 38 38 38 37 35 31 28 27
29 34 37 40 42 44 43 39 38 41 43 43 43 44 45 45 46 47 48 48 47 46 45 44 45 46 47 49 50 51 51 52 52 51 49 48 47 46 46 46 46 47 46 46 45 43 42 42 42 42 42 41 40 39 39 39 39 39 38 36 33 30 27
24 29 33 37 40 40 40 38 38 38 38 37 37 40 43 45 47 48 49 48 48 47 46 45 46 47 48 50 50 50 51 52 52 52 51 50 49 48 47 47 46 47 47 46 45 43 42 41 42 42 42 41 40 39 39 40 40 39 38 37 35 32 28
24 26 27 29 33 36 39 40 38 34 32 33 34 36 40 44 46 48 49 49 49 48 46 46 48 49 50 51 50 50 51 51 51 52 52 52 51 49 48 47 47 46 46 45 44 43 41 40 40 41 41 40 39 39 39 39 39 38 38 37 35 33 29
31 33 36 35 36 40 41 38 35 32 30 32 35 35 36 40 45 48 50 50 50 49 48 48 49 50 51 51 52 52 52 51 51 51 52 52 51 49 48 47 47 46 45 44 43 42 40 39 38 39 39 39 39 39 39 38 38 37 36 36 35 33 30
32 34 40 39 37 40 41 37 34 33 32 34 35 34 33 37 43 47 50 51 50 49 50 50 50 51 52 53 53 54 53 52 51 51 51 50 50 49 48 48 47 45 44 43 42 41 40 39 38 38 38 38 38 38 38 37 36 35 35 35 34 32 29
32 32 38 40 39 41 43 40 38 37 37 37 36 35 36 38 42 46 49 50 51 51 52 52 51 52 53 54 55 55 54 54 53 52 50 49 48 48 47 46 46 45 43 41 41 41 41 41 40 39 38 37 37 37 36 35 34 33 33 33 31 30 29
22 24 28 35 41 46 46 42 38 37 37 38 38 38 40 40 41 46 49 50 51 53 53 53 53 52 53 55 56 56 56 55 54 52 50 48 47 46 45 45 44 43 41 40 40 41 40 40 40 39 38 37 36 35 33 31 30 28 28 28 27 26 27
16 16 19 24 32 39 42 39 34 32 33 36 37 38 40 41 42 45 48 50 52 53 54 54 54 54 53 54 56 57 56 55 54 52 50 48 46 45 44 43 43 41 40 40 41 41 41 40 40 38 37 37 36 34 31 28 27 26 25 25 23 23 25
23 21 21 23 23 25 31 36 34 31 32 34 36 36 38 41 44 45 46 49 52 53 54 55 55 55 55 55 56 57 57 55 54 52 50 48 47 45 44 43 41 39 38 39 40 40 40 39 37 35 34 33 32 30 28 26 25 24 24 23 21 20 22
22 23 22 21 22 23 25 30 31 29 31 34 36 38 39 41 44 46 48 49 52 53 54 56 56 57 57 56 55 56 57 55 53 52 51 50 48 46 44 43 39 36 36 37 37 37 36 35 33 31 29 27 25 23 22 20 19 19 19 19 19 19 19
16 19 22 22 24 24 24 28 31 28 31 39 42 41 42 43 44 46 49 50 53 54 55 57 58 58 59 57 55 55 56 55 53 52 51 50 48 46 44 40 36 34 35 36 35 34 33 30 28 25 22 21 19 18 17 16 14 14 14 15 16 17 18
16 14 16 19 25 27 24 27 34 34 34 41 46 44 43 45 46 46 47 51 53 55 57 58 57 57 58 57 54 54 56 55 54 53 51 49 48 45 41 36 33 33 35 35 34 32 29 27 24 21 18 18 18 17 16 15 12 11 13 15 17 18 19
17 15 14 12 17 26 24 20 29 39 41 43 47 48 48 49 49 46 47 50 52 54 55 54 53 54 55 55 53 53 54 54 53 51 50 48 46 42 37 33 33 34 34 33 32 30 27 26 24 21 19 17 17 16 15 14 12 12 14 16 18 19 20
15 15 16 16 13 15 18 16 23 38 47 49 49 49 48 49 48 45 46 48 50 51 51 50 50 51 52 51 51 51 51 52 51 50 49 46 42 37 34 34 34 33 31 30 29 27 26 26 24 22 19 17 16 15 14 13 12 13 15 17 18 19 19
11 14 16 17 16 13 11 13 20 32 42 45 46 44 43 45 46 45 45 47 47 48 49 48 49 50 50 49 49 49 48 49 48 47 45 41 37 35 34 34 33 31 29 27 26 24 24 25 24 22 20 19 19 17 15 13 13 14 16 17 18 19 20
8 9 10 12 14 16 14 11 16 25 31 33 36 39 42 45 46 45 45 47 47 47 47 49 50 51 50 48 47 46 45 45 43 41 39 37 36 35 35 33 31 29 27 25 24 23 23 23 22 21 21 22 21 19 16 15 15 15 16 16 16 18 20
7 6 7 9 11 14 16 14 14 19 23 24 26 29 32 37 44 48 47 47 47 47 48 50 51 50 47 46 45 44 43 42 40 37 36 35 34 34 32 31 29 27 25 24 24 22 21 21 20 18 18 19 19 16 16 16 16 15 15 15 17 18 19
7 6 7 8 8 9 14 19 20 21 23 24 24 24 21 23 33 45 49 48 47 47 48 49 48 46 45 45 45 43 41 39 38 36 34 33 32 31 29 26 25 24 24 25 25 23 22 22 20 17 17 18 17 15 14 15 14 14 14 15 17 18 19
8 5 6 8 8 8 11 19 22 22 24 25 24 26 24 20 22 32 39 43 45 46 47 46 45 44 42 38 35 34 34 35 36 35 33 32 31 29 26 24 23 23 24 25 24 24 25 23 20 17 18 19 18 16 15 15 14 14 14 15 17 18 19
9 4 6 8 10 11 13 17 19 20 22 22 21 22 23 22 23 25 30 36 43 47 47 45 40 35 30 26 27 30 33 35 35 34 33 32 30 28 26 24 24 25 25 24 23 23 22 20 17 16 18 21 21 20 18 17 14 12 11 13 16 17 18
9 4 4 6 6 8 10 11 13 15 16 17 19 21 22 24 27 29 30 34 39 39 37 33 29 27 26 29 32 34 35 35 34 32 32 32 31 29 28 26 25 24 24 23 22 21 19 18 17 17 19 22 23 22 19 15 11 10 10 12 15 16 16
15 9 9 10 9 3 6 10 13 15 17 18 21 24 22 20 23 26 27 29 30 29 27 28 31 33 35 36 37 35 34 33 33 31 31 31 30 30 29 28 26 24 23 23 23 22 20 20 19 19 20 20 22 22 18 13 11 11 12 13 15 15 14
22 17 14 11 13 11 9 12 14 16 18 19 22 24 21 16 16 20 23 26 27 26 28 33 37 39 39 37 35 33 32 32 32 31 32 31 29 28 27 28 29 28 26 25 23 21 19 20 20 21 20 19 19 21 19 16 13 12 12 13 14 14 12

ECMWFFLT1_850_spd_018.txt.gz
Wind_Speed
43 46 49 51 52 52 53 55 56 57 57 57 58 58 58 57 56 55 55 54 54 53 51 50 50 48 46 44 43 44 43 42 40 38 38 37 35 33 32 31 30 30 29 27 27 26 25 24 24 24 24 23 21 17 15 14 13 12 11 11 13 13 12
41 44 47 49 51 52 54 56 57 58 58 58 59 58 58 58 58 57 56 55 54 53 52 51 50 49 47 44 43 43 44 43 41 39 38 37 36 35 34 32 31 31 29 28 27 26 26 26 25 25 25 23 21 18 17 16 15 14 13 13 14 14 14
40 44 47 49 51 54 55 56 57 58 58 58 58 58 59 59 59 58 57 55 54 53 52 51 50 48 47 44 43 43 43 44 42 41 40 38 36 36 35 34 32 31 30 28 27 27 27 27 26 25 25 24 22 20 19 18 16 16 15 15 16 15 14
40 45 49 52 54 55 56 57 57 58 58 58 59 59 59 60 59 58 57 56 54 53 52 51 50 48 47 45 43 42 43 44 43 42 41 39 37 36 36 35 34 33 32 30 28 27 28 28 27 26 25 25 24 22 21 20 18 17 17 17 17 17 16
40 44 48 51 53 55 56 57 57 58 58 58 58 58 59 58 57 57 56 55 54 53 51 50 49 48 47 45 43 42 41 43 43 42 41 40 38 37 37 37 36 34 33 30 29 28 29 30 28 27 27 26 25 23 22 21 20 19 19 18 19 18 17
40 42 44 48 52 54 55 56 57 58 58 58 57 57 57 56 56 56 56 55 54 53 51 50 49 48 47 46 44 42 41 41 43 43 42 40 39 39 39 38 36 35 33 32 31 30 30 30 30 29 28 28 26 25 24 23 22 22 21 20 20 20 19
42 43 43 47 50 53 55 56 57 57 57 56 55 54 54 55 55 55 55 55 54 53 52 51 49 48 47 46 45 43 41 41 42 43 43 41 40 40 40 39 38 36 34 33 33 32 32 32 31 31 30 29 28 26 25 24 24 24 24 22 22 21 20
45 46 47 48 49 52 53 55 56 55 54 53 52 53 53 54 55 55 55 55 54 53 53 52 50 48 47 46 45 43 40 39 40 42 43 42 41 42 41 40 39 37 36 36 35 34 33 33 33 32 31 30 29 28 27 26 26 26 26 25 24 23 22
47 49 52 52 52 53 53 55 56 54 52 52 52 53 53 54 55 55 56 56 55 54 54 53 51 48 47 46 46 44 41 39 39 41 43 43 43 43 43 42 40 39 39 38 37 36 35 34 34 33 33 32 31 30 29 29 28 28 28 27 26 25 24
46 48 52 54 54 54 54 54 53 51 51 51 51 52 52 53 54 55 55 55 55 55 54 52 50 49 48 47 46 45 42 40 38 40 43 44 44 44 44 44 42 41 41 40 39 38 36 36 35 34 34 34 33 33 32 32 31 30 30 28 27 26 24
45 48 50 52 52 52 52 50 47 48 50 51 52 52 52 53 53 54 54 54 54 54 52 51 50 50 50 48 47 47 45 42 39 40 43 45 45 45 45 45 44 43 42 41 41 40 39 38 37 37 36 36 35 35 34 34 33 33 32 30 29 27 25
43 46 49 50 50 51 50 47 46 48 50 51 51 52 51 52 52 53 53 53 53 52 52 51 51 51 51 50 49 49 47 44 42 40 41 44 46 46 46 46 45 44 44 43 42 42 41 40 40 39 39 38 37 36 35 35 35 34 33 31 30 28 27
41 45 48 49 49 48 48 47 47 49 50 51 51 52 52 52 52 53 52 53 53 52 51 51 51 51 52 51 51 50 49 47 44 41 41 43 46 47 47 47 46 45 45 44 44 44 43 42 42 41 41 39 38 37 37 36 36 36 35 33 32 30 28
39 41 45 47 47 46 46 46 48 49 50 51 51 51 52 52 52 52 52 53 53 52 52 52 52 52 52 52 52 51 50 49 46 42 40 42 45 47 48 48 47 46 46 45 46 46 45 44 43 42 41 40 39 39 38 38 38 38 37 36 34 32 30
34 35 36 37 41 44 46 46 47 47 49 50 50 51 51 51 52 52 52 53 53 53 53 53 53 53 53 53 53 52 51 49 48 45 41 41 44 47 49 49 48 47 47 47 46 46 46 45 44 43 42 41 41 40 40 40 40 40 39 38 36 34 31
32 34 35 36 38 41 44 46 45 46 47 48 49 49 50 51 52 52 52 53 53 54 54 53 54 54 53 53 53 53 51 50 49 47 44 43 45 47 49 50 50 49 49 48 47 47 46 46 45 44 43 43 42 42 42 42 42 41 40 39 38 35 32
31 35 38 40 42 42 42 43 44 45 46 47 47 47 49 50 50 51 51 52 53 55 55 55 54 55 55 54 53 52 51 51 51 50 47 46 46 47 49 50 51 51 50 49 48 47 47 47 46 45 44 44 43 43 44 44 43 41 41 41 39 36 33
30 34 38 40 43 43 42 42 43 44 45 46 45 46 47 48 49 49 50 52 53 55 54 55 55 55 55 54 52 52 52 52 51 51 50 48 47 48 49 51 52 51 50 49 48 47 47 47 46 45 45 44 44 44 44 44 42 42 41 41 39 36 33
31 32 37 40 41 41 42 43 44 45 45 45 44 43 44 46 48 50 51 53 55 55 54 55 55 55 55 54 52 51 51 52 52 52 51 50 49 49 50 51 52 52 51 50 48 47 47 47 46 45 44 44 45 44 44 43 42 42 41 40 38 35 33
30 30 32 35 38 40 42 43 44 45 46 43 41 39 41 45 47 49 51 53 54 54 54 55 55 55 54 54 53 51 51 52 52 52 51 50 49 50 51 52 52 52 51 49 48 48 48 47 46 45 44 44 44 43 43 42 42 41 40 38 36 34 33
29 30 31 32 36 40 43 44 45 46 44 41 39 39 42 45 47 49 51 54 55 55 55 56 56 55 54 54 53 52 51 52 52 52 51 50 49 49 50 51 51 51 50 50 49 49 48 47 46 44 44 44 43 43 42 41 41 40 37 35 33 32 31
18 23 28 31 34 39 41 43 44 44 43 43 41 42 44 46 48 51 53 54 54 55 55 55 55 55 55 54 54 53 52 52 52 51 51 49 49 49 49 50 50 50 50 49 49 48 47 46 44 44 43 43 42 42 41 40 39 38 35 33 30 29 29
5 13 21 25 30 37 40 41 42 42 44 46 45 44 46 47 50 53 54 55 55 55 55 55 55 55 55 55 55 55 53 53 52 51 50 49 48 48 48 49 49 50 49 48 48 48 46 45 44 43 43 43 42 41 40 39 37 35 32 30 28 27 28
8 1 10 18 26 34 39 42 44 45 47 47 47 47 47 48 52 54 55 55 55 55 54 54 55 56 56 56 56 56 55 54 53 52 51 50 49 48 48 48 48 48 48 48 48 46 44 43 43 43 43 42 41 39 38 37 35 32 29 27 25 25 26
12 10 3 6 16 29 37 41 44 46 47 47 47 47 47 49 52 54 55 55 54 54 54 55 56 57 57 57 57 57 56 54 53 52 51 50 49 48 47 46 46 46 46 47 46 44 42 42 42 42 42 40 39 37 35 33 31 28 26 24 23 23 24
10 10 8 5 2 13 26 36 42 45 47 46 44 44 47 50 51 52 53 52 52 52 53 54 55 55 57 58 57 57 56 55 54 53 52 51 50 48 47 46 45 46 46 46 45 43 41 42 42 41 40 38 36 34 31 29 27 25 23 22 21 21 23
9 8 7 5 4 3 8 21 33 41 44 44 43 45 47 47 48 50 51 50 51 52 51 51 51 52 54 56 57 56 55 55 55 54 53 52 51 49 48 46 46 46 46 46 45 43 42 42 41 39 38 36 33 31 28 25 23 21 20 19 19 20 22
9 8 8 7 6 7 7 8 18 30 39 42 44 47 50 49 47 48 49 51 51 50 48 48 50 51 53 55 56 56 56 55 55 54 52 51 51 50 49 48 47 47 47 46 44 43 42 41 40 38 35 32 29 27 24 22 20 19 18 17 17 19 21
12 10 9 9 10 11 10 10 11 16 28 39 43 43 45 49 51 51 52 53 52 50 49 51 52 53 54 55 56 56 55 54 54 53 52 51 52 52 51 50 49 49 49 47 44 43 42 41 38 35 32 29 26 24 22 21 20 18 17 16 18 20 21
13 12 10 10 11 11 12 13 12 12 17 27 36 39 37 40 46 49 50 50 48 46 47 51 53 53 53 54 55 55 54 53 52 52 52 52 53 53 52 52 52 51 49 46 44 43 42 39 36 34 31 28 26 24 22 21 18 16 16 17 18 20 21
13 12 11 11 10 11 12 14 14 13 14 16 23 31 34 34 38 42 44 43 42 39 37 38 43 48 50 50 52 52 52 51 50 50 52 53 54 54 54 54 54 51 48 45 44 43 41 38 35 33 30 27 26 24 22 19 16 14 16 18 19 19 20
10 11 12 12 12 12 13 14 14 14 15 15 16 21 26 31 35 38 40 40 39 38 34 28 29 36 43 46 49 50 49 49 49 49 51 53 54 54 55 55 54 51 48 45 43 41 39 36 33 30 28 26 25 23 21 19 16 16 18 20 21 20 20
9 9 11 13 15 14 14 14 14 14 16 19 20 20 22 27 31 34 36 36 34 34 35 31 28 31 36 41 44 46 46 46 47 48 48 50 52 52 52 51 51 49 45 40 37 36 35 33 31 29 27 26 24 22 21 19 19 19 21 23 23 23 22
9 9 10 12 15 16 16 16 16 16 17 20 22 24 25 27 30 31 32 33 34 35 37 39 38 36 36 37 40 43 45 46 48 49 49 49 49 48 48 46 45 43 37 32 34 37 36 33 31 29 28 26 24 22 21 21 22 23 24 24 23 23 23
9 8 10 10 12 15 17 18 18 17 16 18 21 24 26 28 31 34 33 35 39 40 39 41 43 42 40 41 42 43 45 49 51 52 53 52 49 47 46 43 38 34 30 31 36 38 35 32 30 27 26 25 22 20 20 22 23 22 22 21 20 20 20
10 9 9 9 10 11 14 17 17 16 14 15 17 20 22 24 27 32 36 39 43 44 41 41 42 41 42 45 49 50 50 51 53 53 52 53 50 46 43 40 35 31 31 33 34 31 27 23 22 23 23 23 19 15 16 19 21 21 19 17 16 16 16
14 13 12 10 9 8 8 10 11 11 10 11 14 17 20 21 23 27 32 35 36 36 35 38 41 42 42 42 45 52 56 55 53 54 53 51 49 46 42 39 35 32 31 32 30 26 23 20 19 20 20 17 15 14 14 16 18 18 17 15 15 15 16
18 17 15 13 11 8 5 5 5 6 7 8 9 12 16 19 21 24 28 30 31 32 34 37 41 45 46 38 32 41 53 54 49 47 46 44 42 41 40 39 37 35 32 30 27 25 24 22 19 17 15 13 15 17 19 19 18 16 15 15 16 16 17

ECMWFFLT1_850_spd_024.txt.gz
Wind_Speed
42 42 46 49 49 50 52 55 55 54 55 56 56 56 55 55 54 54 54 53 53 52 51 51 51 50 49 48 46 43 42 40 39 38 38 37 37 35 33 32 31 31 30 29 28 27 27 26 26 25 24 24 23 21 20 19 18 18 18 18 17 16 16
35 40 45 47 48 50 53 55 54 54 55 56 57 57 56 56 56 56 55 54 54 53 52 52 52 51 50 49 48 46 45 43 41 40 39 38 38 37 35 33 32 31 30 29 28 27 27 27 26 26 25 24 23 21 21 20 19 20 19 18 18 17 17
34 40 44 47 50 53 54 54 54 54 55 56 57 57 57 57 57 57 56 55 55 54 53 53 53 52 51 50 49 48 47 45 44 42 41 39 38 37 36 35 33 32 31 30 29 28 28 27 27 27 25 25 23 22 21 20 21 21 20 19 19 18 17
35 39 44 47 50 53 53 53 55 56 57 58 58 59 59 59 58 57 57 56 55 55 54 54 53 53 52 51 51 49 48 47 46 44 42 40 38 37 36 35 34 34 33 32 30 29 28 28 28 27 26 26 24 23 22 21 22 21 20 20 20 19 18
35 37 40 43 46 49 51 53 56 57 57 58 58 58 59 59 58 57 57 57 56 55 54 53 52 52 52 52 51 51 49 48 47 45 44 42 41 39 38 36 35 34 34 33 32 31 31 29 29 28 27 26 25 24 23 23 23 22 21 22 21 20 20
35 36 38 43 47 50 53 55 57 58 59 59 59 59 58 57 56 56 57 57 56 56 54 53 53 53 53 52 52 51 50 49 48 47 45 44 43 42 40 38 36 35 34 33 33 33 33 32 30 29 28 27 26 25 25 24 24 24 23 23 23 22 22
38 38 42 45 48 51 54 56 56 57 59 59 58 58 57 55 55 55 56 56 57 56 55 55 55 54 54 53 52 52 51 51 49 48 46 45 44 44 42 39 38 36 34 33 33 33 34 33 32 31 29 28 27 26 25 25 25 25 24 24 25 24 24
40 40 43 46 48 51 52 54 55 55 56 57 56 55 54 53 53 54 55 56 57 57 57 57 56 55 55 54 53 52 51 50 50 48 47 46 46 45 44 41 40 38 36 35 34 33 34 34 33 33 31 29 28 27 26 26 26 27 26 26 26 26 25
37 37 40 43 46 48 48 50 52 52 53 55 55 55 54 53 53 54 55 56 56 57 57 58 57 56 55 54 54 53 51 50 50 49 48 48 47 46 45 43 40 39 38 36 35 33 33 34 34 34 33 31 30 29 28 27 28 28 29 28 27 27 26
33 35 39 41 42 43 43 43 45 47 50 52 54 55 54 53 54 54 54 55 55 57 58 58 57 56 56 56 55 53 52 52 51 50 49 49 47 46 45 43 41 40 39 38 36 35 34 34 34 34 34 33 32 31 29 29 29 29 30 30 29 28 28
31 34 38 39 39 39 39 39 41 46 49 52 53 54 54 53 54 54 54 54 55 57 57 57 56 56 56 56 55 54 54 53 52 51 51 49 48 46 44 42 41 40 39 39 38 36 35 35 35 35 35 35 34 33 31 30 30 30 31 31 30 29 29
26 30 34 37 38 38 39 39 42 46 49 51 52 53 54 54 54 53 54 54 55 56 56 56 56 56 56 56 55 55 55 54 53 52 51 50 48 46 44 42 41 40 40 39 38 37 37 36 36 37 36 36 35 34 32 31 31 31 31 31 30 30 29
24 27 31 33 35 37 37 38 41 45 48 49 51 52 53 54 54 54 54 54 55 55 55 55 55 55 55 55 55 55 56 55 54 53 51 49 47 45 43 42 41 41 40 39 38 38 38 38 38 38 37 37 36 35 34 32 32 31 31 31 31 30 29
20 23 26 28 31 34 36 38 41 44 47 48 49 50 52 53 54 54 54 55 54 54 54 54 54 55 55 55 55 56 56 55 54 52 51 49 47 46 44 42 42 41 40 39 38 38 39 39 39 38 39 39 38 37 35 34 33 32 31 31 31 31 30
22 24 25 26 29 32 35 38 41 43 46 48 49 50 50 51 52 53 53 54 53 53 54 54 54 55 55 56 56 56 55 54 53 52 51 49 48 47 45 43 42 41 40 39 39 39 39 40 40 39 40 40 40 39 37 35 34 33 32 32 32 32 32
24 26 27 27 28 31 34 36 39 43 45 47 48 49 50 51 52 52 53 53 53 54 54 53 54 54 55 56 57 56 54 53 53 52 51 50 49 47 46 44 43 42 41 40 40 39 40 40 41 41 42 42 41 41 39 37 36 34 33 33 33 32 32
20 21 24 26 26 28 32 35 38 41 44 46 47 48 50 51 51 52 52 52 53 54 54 53 54 54 55 56 56 55 54 53 53 53 52 50 48 47 46 45 44 43 41 40 41 41 41 41 42 43 43 43 43 42 41 39 37 35 34 33 33 33 32
19 19 20 21 23 25 29 33 36 39 42 45 47 48 49 50 51 51 51 52 53 53 53 53 54 55 55 55 55 54 54 53 53 53 52 51 49 47 46 46 45 44 42 42 42 42 42 43 44 44 44 44 44 43 42 40 38 36 35 34 33 33 32
20 21 20 20 21 22 25 28 33 37 40 43 46 48 48 49 50 50 50 51 52 52 52 52 53 54 55 54 54 54 54 54 53 53 53 52 50 48 47 47 46 45 44 43 43 43 44 44 45 45 46 46 45 44 42 41 38 37 36 35 33 32 32
19 20 20 20 20 21 23 25 28 32 37 41 44 47 47 48 48 48 47 48 50 50 51 52 53 54 54 54 54 54 54 54 53 53 53 52 50 49 49 48 47 46 44 44 44 44 45 45 45 46 47 47 46 44 43 41 39 38 37 35 33 31 31
15 17 19 20 20 21 22 22 24 28 33 37 41 44 45 45 46 46 46 48 49 50 51 52 52 53 54 54 54 54 54 54 54 53 52 51 51 50 50 49 48 47 46 45 45 46 46 46 46 46 47 47 47 45 44 41 40 39 38 36 33 30 30
10 11 13 16 19 19 18 19 21 23 26 31 36 40 41 42 43 45 46 47 49 50 50 51 52 52 53 53 53 53 53 54 53 53 52 51 51 50 50 50 49 48 47 47 46 47 47 47 47 47 48 47 47 46 45 43 42 40 38 35 32 30 30
4 3 3 7 12 14 14 14 16 18 21 24 29 34 37 38 40 43 45 46 47 48 49 50 51 52 51 51 52 52 52 53 52 51 50 50 50 51 50 50 49 49 48 48 48 48 48 48 48 48 48 47 47 47 46 45 43 41 38 35 33 31 30
7 7 5 3 2 7 9 9 10 12 15 19 24 28 32 35 37 40 43 44 45 46 47 49 50 50 49 50 51 51 51 51 50 49 49 50 51 51 50 49 49 49 49 49 49 49 48 48 48 48 48 48 48 47 46 46 45 42 38 36 33 31 30
12 11 10 10 8 3 0 3 5 6 7 11 15 19 24 28 33 37 41 43 43 45 46 48 49 48 47 48 49 49 49 50 50 49 50 50 51 51 50 48 47 47 48 48 49 49 48 49 49 49 49 49 48 46 45 46 46 43 40 37 33 30 28
12 12 12 13 14 12 10 6 3 2 4 5 6 8 13 19 26 32 37 40 41 44 45 46 46 45 45 46 47 48 49 49 50 50 50 50 50 50 49 48 47 46 47 48 49 49 49 49 50 50 49 49 47 46 45 46 47 45 42 37 33 29 27
11 11 12 12 13 14 14 13 11 8 4 1 3 5 8 13 20 27 32 36 40 43 43 43 43 44 44 46 46 47 48 49 49 49 50 50 50 49 48 47 47 47 48 48 49 49 49 50 50 50 49 48 47 46 46 47 47 46 42 37 32 29 28
12 10 10 10 10 11 13 14 14 13 12 9 4 2 6 10 15 20 26 32 36 38 39 40 42 43 43 44 45 46 48 49 49 48 49 50 50 50 48 47 47 48 48 48 49 49 49 50 49 49 49 48 47 47 47 47 47 45 40 36 31 28 28
12 10 9 8 8 9 11 11 12 12 12 12 10 4 3 8 12 16 22 26 27 28 32 35 38 39 41 43 45 46 47 48 48 48 49 50 51 51 50 48 48 49 49 50 50 50 50 50 49 48 48 48 48 48 47 47 46 43 38 34 30 28 28
13 11 10 9 8 9 9 9 9 10 9 9 9 7 3 4 7 11 17 20 21 24 28 30 33 36 39 41 43 44 46 47 47 48 49 51 51 51 51 50 50 50 50 51 52 52 52 51 50 49 48 48 48 48 48 47 45 41 37 33 30 29 27
14 13 12 10 9 8 8 7 7 7 7 6 5 5 3 3 4 7 10 13 15 20 24 27 30 34 37 39 41 42 43 45 46 47 49 51 51 51 51 51 51 51 51 52 51 52 52 52 52 51 50 48 49 49 48 46 43 40 36 32 31 31 29
15 14 13 11 9 8 7 6 5 4 3 3 3 2 1 1 3 5 7 9 11 13 16 21 26 30 33 36 39 40 42 44 46 47 48 51 52 52 52 52 51 52 52 52 51 52 52 52 52 52 51 50 50 50 48 45 43 39 35 32 33 34 32
16 15 14 13 11 9 7 6 6 5 4 4 4 4 4 5 5 6 8 9 10 11 13 16 20 24 28 31 35 38 41 43 45 47 48 50 51 51 51 52 52 52 53 53 53 54 53 53 52 52 52 52 51 50 47 45 43 40 36 35 36 36 36
15 15 14 13 11 10 8 7 7 7 7 7 8 9 9 10 10 10 11 11 12 13 14 15 17 20 23 26 30 34 37 40 43 46 48 50 51 52 53 53 54 55 56 56 56 56 56 56 56 56 56 55 54 51 49 47 45 41 38 38 39 40 40
14 13 13 13 12 11 10 9 8 7 6 7 8 10 11 13 14 15 15 15 16 15 16 16 17 19 21 24 28 32 35 38 41 44 46 49 51 53 54 55 56 58 59 59 59 59 59 57 57 58 59 58 55 54 52 49 45 41 38 39 41 42 40
14 13 13 13 12 12 12 11 10 9 7 6 6 7 8 10 12 14 15 17 17 17 17 18 18 19 20 22 26 30 33 36 39 42 45 47 50 52 54 55 56 57 58 59 60 61 61 60 56 56 58 58 56 55 51 44 40 39 39 38 39 39 37
14 14 14 13 13 13 13 13 12 11 10 8 7 6 6 6 7 8 10 11 12 14 15 17 17 18 19 20 23 27 30 32 35 38 41 44 47 50 52 54 56 57 58 59 59 60 61 60 57 56 58 58 58 55 47 38 35 38 38 36 38 39 37
15 15 15 15 15 16 16 17 17 15 13 11 10 9 8 8 8 7 7 8 9 10 11 12 14 15 17 19 20 22 25 28 31 34 37 41 43 46 50 53 56 57 58 59 59 58 59 60 60 60 59 58 56 51 43 37 36 37 36 37 40 40 36

ECMWFFLT1_850_spd_027.txt.gz
Wind_Speed
33 34 37 39 44 50 53 54 54 52 52 50 48 47 47 47 49 50 51 50 50 50 50 48 47 45 44 43 41 40 39 38 36 35 35 35 34 34 34 33 33 31 30 29 28 26 24 22 21 21 21 21 21 21 22 21 20 19 18 17 16 16 15
28 32 36 37 42 50 54 54 54 54 53 52 50 49 49 49 49 50 51 50 50 50 50 50 49 48 46 44 42 41 40 39 38 37 36 36 34 33 32 32 32 31 29 29 28 27 26 24 22 21 20 21 21 22 22 22 21 20 19 18 17 17 16
26 31 35 38 43 51 56 55 54 54 54 54 53 52 51 51 49 49 50 50 50 50 51 51 50 49 47 46 44 42 41 40 40 39 38 37 36 34 33 33 31 30 29 28 28 27 27 26 24 22 21 21 21 22 23 22 22 21 19 18 18 18 18
28 32 35 40 46 51 53 54 54 55 56 56 56 54 52 51 49 50 50 50 51 51 51 52 51 50 49 48 46 44 43 42 41 40 39 38 37 35 35 34 32 31 31 30 28 27 27 27 26 24 23 22 22 23 23 23 22 21 20 19 19 19 19
28 31 32 37 44 47 49 53 55 56 57 57 57 56 54 52 51 51 51 51 52 51 51 51 51 51 51 50 48 47 45 43 42 41 41 40 38 37 36 35 33 32 31 31 30 29 28 27 27 26 25 24 24 24 24 24 23 22 20 20 20 20 20
27 31 34 37 41 44 49 53 55 57 58 58 58 58 56 54 54 54 53 52 52 52 52 53 52 52 52 51 49 48 47 45 44 43 42 41 40 39 38 36 35 34 32 31 30 30 30 29 29 28 27 26 25 25 25 25 24 24 22 21 22 22 22
31 32 36 39 40 44 48 51 52 54 56 57 57 57 56 56 56 56 55 55 54 53 53 53 53 53 52 50 50 49 48 46 45 44 43 43 42 41 40 39 37 35 33 32 31 30 31 30 31 30 29 28 27 26 26 26 25 25 23 23 23 23 23
34 31 34 37 41 43 45 47 50 50 52 55 56 56 56 56 56 57 57 57 56 55 55 54 53 53 52 50 49 49 47 46 46 45 45 44 44 43 42 41 39 37 35 34 33 31 31 31 31 32 32 31 30 29 28 27 26 25 24 24 24 24 24
31 28 29 31 34 36 39 43 46 47 49 53 54 56 56 55 56 57 58 58 58 57 57 56 55 54 52 50 49 48 47 46 46 45 45 45 45 45 44 42 40 39 37 36 35 33 33 32 31 32 33 33 33 32 31 30 28 27 26 25 25 25 25
29 29 29 27 26 29 34 39 42 43 46 49 51 53 55 55 57 58 58 58 58 58 57 57 56 56 54 52 50 49 48 47 47 46 46 46 47 46 45 44 42 41 39 38 37 36 34 33 32 32 33 35 35 35 34 33 31 29 28 26 26 26 26
25 28 28 28 27 28 30 34 38 40 43 46 48 51 53 55 57 57 57 58 58 58 58 57 57 57 56 53 52 51 50 49 48 47 47 47 47 46 44 44 43 42 41 40 39 38 36 34 33 33 34 36 37 37 36 36 34 32 29 28 28 27 28
19 19 21 24 28 29 29 31 35 37 40 43 47 50 52 53 54 56 56 57 57 57 57 57 57 57 57 55 54 53 52 51 50 49 49 48 47 45 44 44 43 42 41 40 40 40 38 36 35 34 35 36 37 38 37 37 36 34 31 30 29 29 29
17 16 17 19 24 27 27 29 33 35 38 41 44 48 50 51 53 54 54 55 55 55 55 56 56 56 57 56 54 54 54 53 52 51 50 48 46 45 44 44 44 43 41 40 41 41 40 38 36 35 36 36 37 38 38 38 38 35 32 31 31 31 30
16 17 18 18 21 25 26 28 31 33 36 39 42 44 47 50 52 52 52 53 53 53 54 55 55 56 56 55 54 54 54 54 53 51 50 49 47 46 46 45 44 43 42 41 41 42 40 38 37 36 36 36 37 38 39 39 39 37 35 34 33 33 32
14 14 16 18 20 22 24 27 29 31 33 36 39 41 45 48 50 50 51 51 52 53 53 54 55 55 54 54 54 54 54 54 53 52 51 50 48 48 47 47 45 44 43 42 42 42 40 39 37 37 37 37 37 39 40 41 41 39 37 36 35 35 34
11 13 15 17 18 20 21 24 26 27 30 34 36 39 42 45 48 49 50 51 51 52 53 53 54 53 53 54 54 53 53 53 52 52 52 51 50 50 49 48 47 45 44 43 42 42 42 40 39 39 39 38 38 40 41 43 43 41 39 37 36 36 36
15 17 19 17 15 16 17 20 22 24 27 31 34 37 40 43 46 47 49 50 50 50 51 53 52 52 52 53 53 53 52 52 51 52 52 52 51 51 49 49 48 46 45 44 44 44 43 42 41 40 40 39 39 40 43 45 45 43 40 38 37 37 37
21 22 23 21 18 16 16 17 18 20 24 28 31 35 38 40 43 46 48 49 49 48 50 51 51 51 52 52 52 52 51 51 52 52 51 51 51 51 50 49 48 47 46 45 45 44 44 44 43 41 40 40 41 42 44 46 46 44 41 39 38 38 38
23 24 26 26 24 21 19 18 17 17 19 23 27 31 34 37 41 44 46 48 48 48 50 51 50 50 51 52 52 51 51 51 52 52 52 51 51 50 50 49 49 48 47 46 45 45 45 45 43 42 41 42 42 43 44 46 47 45 42 40 39 39 39
25 25 26 27 27 25 23 21 19 18 17 18 21 26 30 35 38 39 42 46 47 48 49 50 50 50 51 51 52 51 51 51 51 52 52 51 51 50 50 50 49 49 48 48 47 46 47 47 45 44 43 43 43 43 44 46 48 46 43 42 41 40 40
25 24 24 25 25 26 25 23 22 21 20 17 18 22 29 33 36 38 41 43 44 45 47 48 49 49 50 51 51 50 51 52 52 52 52 51 51 50 50 50 49 49 49 49 49 49 48 47 46 45 45 44 43 43 44 46 48 47 45 43 42 41 41
22 22 22 22 24 26 26 25 24 24 21 17 15 20 26 30 33 37 40 41 42 43 44 46 47 47 48 50 50 50 50 50 50 51 51 50 50 50 50 50 50 49 49 49 50 49 48 48 48 47 46 45 44 44 45 46 48 47 46 44 43 42 42
20 20 19 20 22 24 25 25 24 22 19 16 15 19 23 28 32 35 38 40 41 41 42 44 45 45 47 48 49 50 49 49 49 49 49 49 50 50 50 50 49 49 48 48 49 49 49 49 47 45 45 46 45 45 45 46 47 48 46 45 44 44 43
16 16 15 15 17 19 21 21 20 18 15 14 15 17 20 24 29 32 35 37 39 40 42 43 43 44 45 46 48 49 48 46 47 48 49 50 50 50 49 49 49 49 48 48 48 50 51 49 45 43 45 48 47 46 46 45 46 47 46 45 45 45 45
11 10 10 10 11 12 14 14 14 13 12 12 14 15 17 20 24 28 31 34 37 39 40 41 41 41 43 45 47 47 45 44 46 48 48 49 49 49 49 49 49 49 49 49 49 49 48 45 43 43 45 47 48 47 46 45 45 46 46 45 46 46 45
10 10 8 6 5 5 5 7 8 10 10 11 13 14 14 16 19 23 27 30 34 36 37 37 38 39 41 43 44 43 42 43 45 47 47 47 47 48 48 48 48 49 48 49 50 50 47 44 42 42 44 47 48 47 47 46 46 46 47 46 45 45 44
9 11 11 9 6 4 3 3 6 9 10 11 12 13 13 14 16 19 22 26 30 32 32 33 34 36 38 39 40 40 41 42 43 44 45 45 45 46 47 47 48 48 48 49 50 49 47 42 39 40 41 41 41 43 46 47 47 47 47 47 45 44 43
6 8 11 12 11 9 9 8 7 8 10 11 12 12 12 12 13 14 17 21 24 25 26 27 28 30 32 34 35 37 39 40 41 42 44 44 43 44 45 46 48 48 48 49 48 46 43 41 39 38 35 33 36 42 46 48 48 48 47 47 45 43 43
5 5 7 11 12 12 11 10 11 11 11 11 11 11 12 12 12 12 13 17 19 21 23 23 24 26 28 30 32 34 35 37 38 39 41 42 42 42 44 46 47 48 47 48 48 47 44 43 40 36 32 34 39 44 46 49 49 48 47 47 45 43 43
4 3 4 7 10 13 12 11 11 12 12 12 12 11 13 14 13 13 13 15 17 18 19 20 22 24 26 28 30 32 33 34 36 37 39 40 40 41 43 45 47 47 47 47 48 49 49 47 46 42 39 39 39 40 44 49 50 48 48 48 46 45 43
4 3 3 4 7 11 12 12 12 11 11 12 12 12 12 12 13 14 13 14 14 14 14 16 17 20 22 25 27 29 30 32 34 35 37 39 40 41 43 45 46 48 49 48 49 51 50 48 48 49 49 47 44 43 44 46 48 49 50 49 47 46 43
5 5 6 6 6 7 9 12 13 12 12 12 12 11 11 10 11 11 11 11 11 11 12 12 14 16 18 20 22 24 26 29 31 33 35 37 39 40 42 44 46 48 49 49 50 52 51 48 48 52 56 55 54 52 48 45 46 50 51 49 48 46 43
7 7 8 8 8 6 6 8 11 11 12 12 11 10 10 9 8 8 8 8 8 9 10 11 12 13 14 16 18 20 22 25 28 30 32 35 37 39 41 43 46 48 50 50 49 50 53 50 47 49 53 53 52 52 52 50 48 48 49 49 48 47 44
8 8 9 10 9 7 5 6 8 10 10 11 11 9 8 8 6 5 5 6 6 8 8 9 10 11 12 13 15 16 19 22 25 27 30 33 35 38 40 43 45 48 50 51 50 50 51 48 44 44 49 50 46 43 47 52 51 51 53 53 50 47 44
8 8 10 11 10 9 8 8 9 10 11 12 11 9 8 7 6 4 3 3 4 6 7 8 9 10 10 11 11 12 14 18 20 23 27 31 34 37 40 42 44 47 49 50 51 52 52 51 50 51 55 55 50 46 50 56 56 56 57 54 50 47 45
9 9 10 11 11 11 10 10 11 13 13 12 11 10 9 8 7 6 4 2 1 1 3 5 6 8 9 10 10 11 13 14 15 17 21 26 29 33 36 39 41 44 47 49 50 51 52 53 55 55 56 56 56 56 58 59 58 58 57 53 50 48 46
12 13 14 15 16 16 14 13 14 16 16 15 13 11 9 8 7 6 5 5 4 4 4 3 2 3 4 6 8 9 12 13 14 16 19 22 25 28 32 36 38 41 43 45 47 50 52 54 56 57 57 57 58 59 59 59 58 58 58 55 50 48 46
15 17 18 20 21 21 21 20 19 18 17 16 14 13 12 11 10 9 8 7 7 6 6 6 6 6 6 6 7 8 9 12 14 16 19 21 22 25 27 31 34 37 38 40 44 47 50 53 56 58 59 60 61 61 61 61 60 60 60 57 50 45 44

ECMWFFLT1_850_spd_030.txt.gz
Wind_Speed
23 25 28 29 30 32 33 35 37 39 40 41 44 45 45 46 47 47 48 48 48 47 46 45 44 44 43 42 41 40 40 40 40 39 39 38 36 35 34 33 32 31 29 29 28 26 26 25 25 24 23 23 23 22 22 20 19 17 15 14 14 13 13
23 25 27 29 30 32 33 35 36 39 42 43 45 46 45 46 48 49 49 48 48 48 48 47 46 46 45 43 43 42 41 41 41 40 39 39 38 37 36 34 33 32 30 29 28 27 27 27 26 25 24 23 23 23 22 21 20 18 17 16 15 15 15
22 24 27 29 31 32 33 34 35 38 42 44 46 47 47 47 47 47 48 48 48 48 48 48 47 47 46 45 44 43 42 41 41 41 40 40 39 37 36 35 34 33 31 30 30 29 29 28 27 26 25 24 23 22 21 20 20 20 18 18 17 17 17
22 24 25 28 30 31 31 33 36 37 40 44 48 48 48 48 47 46 46 46 47 47 48 49 48 47 46 46 45 44 44 43 42 41 41 41 39 36 36 35 34 33 32 31 31 31 30 30 29 28 27 26 25 23 21 21 21 21 20 20 19 20 18
22 23 23 25 27 28 29 33 36 38 38 41 46 49 49 48 47 46 45 45 45 46 48 48 48 48 48 47 47 47 46 45 44 43 42 41 39 37 37 36 34 33 32 32 31 31 31 31 30 30 29 28 28 26 24 23 23 22 22 21 21 22 19
22 22 23 24 26 28 31 34 36 38 39 38 40 45 47 47 48 47 46 45 45 45 46 46 46 47 49 49 48 48 48 47 46 45 42 41 41 40 39 38 36 34 32 32 32 31 31 31 31 31 30 30 29 28 27 26 25 24 24 23 23 23 21
21 23 26 27 27 29 31 33 34 35 36 35 35 37 40 43 47 48 46 46 46 46 46 46 46 47 49 49 49 49 49 48 48 47 45 44 42 41 40 39 38 36 34 33 32 32 32 31 31 32 31 31 30 30 29 28 27 26 25 25 24 24 24
19 21 24 26 26 27 28 29 30 30 31 32 32 34 36 39 42 44 46 47 46 46 47 46 46 48 49 49 49 49 50 49 48 47 47 45 43 42 42 40 39 37 36 35 34 33 33 32 32 33 33 32 32 32 31 30 30 28 26 27 26 25 26
14 14 16 18 20 20 21 22 24 26 29 31 33 35 36 36 38 41 46 47 46 47 48 47 47 48 49 49 49 49 49 48 48 47 46 46 45 44 43 42 40 38 37 37 35 34 34 33 33 34 34 35 34 33 33 32 31 30 28 27 28 27 26
8 10 11 13 15 17 18 18 20 24 29 32 35 35 35 36 37 39 43 46 48 49 49 48 47 48 49 49 48 48 49 48 48 48 47 47 46 46 44 43 42 40 39 38 37 37 36 35 34 34 35 36 36 35 35 34 33 32 30 28 29 28 27
5 8 10 11 14 16 18 19 22 26 30 33 35 36 36 37 37 37 39 43 47 49 49 48 47 47 49 49 48 48 49 48 48 49 48 48 48 47 46 45 45 44 42 40 39 40 39 37 36 36 35 36 37 37 37 36 35 35 33 31 29 29 29
5 7 8 10 12 15 18 21 23 26 29 32 34 35 36 38 38 37 36 38 41 42 43 45 46 47 48 49 49 49 49 48 48 48 48 48 48 48 47 46 46 46 45 43 41 41 41 40 39 38 37 36 37 37 37 37 37 37 37 34 32 31 30
4 7 8 8 11 14 16 19 22 26 28 30 32 33 34 36 37 36 36 36 37 37 36 39 44 46 48 49 50 50 50 49 48 48 47 46 47 47 46 45 45 46 45 43 42 42 43 43 42 39 38 37 37 37 37 37 38 38 39 38 34 33 33
9 8 8 7 8 11 14 17 20 23 26 27 28 30 31 33 35 36 37 38 37 35 34 36 40 44 47 49 50 51 52 51 49 48 47 47 47 46 45 45 44 44 45 43 42 41 42 43 42 40 39 38 38 38 38 38 38 38 40 40 36 35 36
13 8 5 6 5 6 9 12 14 17 22 24 26 29 31 33 34 36 38 40 38 37 35 35 38 43 47 48 50 52 51 50 50 49 48 48 48 47 46 46 45 44 45 45 43 41 41 41 41 40 40 39 39 39 39 40 40 40 41 41 38 37 39
15 11 7 5 4 7 9 9 9 11 15 20 24 29 31 33 34 36 37 38 38 38 37 36 38 43 47 49 50 51 50 50 49 49 49 49 49 49 48 47 46 46 46 46 45 43 42 41 41 41 40 40 39 40 40 41 42 42 42 42 41 41 41
17 14 12 8 7 12 15 13 12 11 13 16 21 26 30 32 34 35 35 35 36 38 38 36 38 43 47 48 49 49 49 49 49 48 48 47 48 49 48 48 48 47 47 47 47 46 44 43 43 42 41 41 39 40 41 43 43 43 43 43 43 43 42
19 17 17 14 14 19 21 19 18 17 16 17 17 20 26 31 33 33 34 34 35 35 35 36 38 42 46 47 47 48 48 49 48 48 47 47 47 48 47 47 48 48 48 48 48 47 46 45 45 43 42 42 41 41 41 43 45 44 44 44 44 43 43
23 22 21 17 17 22 25 23 21 20 19 18 17 18 20 25 30 33 34 34 32 30 31 35 38 41 44 45 45 47 48 47 47 46 46 46 46 46 46 47 47 48 48 48 48 46 45 45 45 44 44 44 42 43 43 43 44 45 44 45 45 44 44
23 23 22 19 19 22 25 25 24 23 20 18 17 17 17 20 25 29 31 32 32 32 34 36 37 39 42 44 44 46 46 46 46 45 45 46 46 45 46 46 46 47 47 48 48 46 43 41 38 39 44 41 36 39 44 45 45 46 45 46 46 46 45
22 21 20 20 21 23 26 28 28 25 22 19 17 16 17 19 22 25 28 29 32 35 37 38 38 39 42 44 44 45 45 44 45 45 45 45 45 45 46 46 45 46 47 47 48 48 45 42 38 38 40 35 28 32 39 42 45 47 46 46 48 47 45
19 17 17 17 20 23 27 28 27 25 23 21 19 17 18 19 20 22 24 26 30 34 37 39 40 41 43 44 44 43 43 43 43 44 44 44 44 45 45 45 45 45 47 47 48 48 47 46 45 41 34 29 29 33 35 37 43 47 47 47 49 48 46
16 17 18 20 22 24 25 25 24 24 23 20 18 18 18 18 19 21 23 25 28 32 36 39 41 42 43 43 42 41 41 41 42 43 42 42 43 44 43 43 44 45 46 47 47 48 48 47 47 44 35 31 34 36 34 35 41 45 47 48 48 47 47
15 17 20 22 22 21 21 22 22 22 21 19 17 17 18 19 20 22 25 26 27 29 34 37 40 42 43 42 41 40 40 41 42 42 41 41 42 42 42 42 43 44 45 46 46 47 46 44 43 43 41 37 34 34 34 36 38 40 45 48 47 47 47
10 14 17 17 17 17 18 19 19 17 16 16 16 17 18 20 20 22 25 27 27 28 32 36 37 39 41 41 40 40 40 41 41 40 40 40 41 41 42 42 43 43 43 44 45 45 44 40 37 39 40 36 32 32 34 35 35 37 42 46 47 47 47
9 12 12 11 13 16 16 14 13 10 9 12 15 16 17 19 19 21 23 25 26 28 31 34 34 35 37 39 40 41 41 40 38 37 38 40 41 41 41 41 42 43 43 43 44 43 42 40 37 36 36 34 32 32 33 33 33 35 39 43 45 47 47
9 9 9 9 11 13 11 8 8 8 8 12 15 15 16 17 18 19 21 22 25 27 27 27 29 31 33 35 37 39 38 37 35 35 37 39 39 40 40 41 42 42 42 42 40 39 40 39 35 33 33 32 32 33 33 32 33 34 37 41 44 46 47
9 8 7 7 7 7 6 4 6 7 9 11 10 10 14 16 17 18 19 20 22 23 22 22 24 28 30 31 33 35 35 35 34 35 37 38 38 39 40 40 41 41 41 40 37 38 40 38 33 32 32 32 34 35 34 34 35 35 38 41 43 45 48
8 7 5 3 4 4 3 2 4 5 7 9 9 8 10 13 15 16 16 16 18 18 18 19 22 25 26 27 29 32 33 33 33 34 35 35 37 38 38 38 39 40 41 39 34 32 34 34 32 33 33 32 33 36 35 35 36 37 40 43 43 44 47
5 4 3 3 4 4 2 1 2 2 4 8 11 10 9 10 13 14 14 16 19 18 17 19 21 23 24 24 25 28 30 31 31 32 32 32 34 36 36 36 37 38 40 39 33 27 27 29 29 30 34 34 34 34 34 35 35 37 40 43 44 44 44
4 4 4 4 4 3 0 2 4 4 1 4 9 11 11 11 12 15 17 18 20 19 19 20 21 21 21 21 21 23 25 27 29 29 28 29 31 34 35 35 36 38 40 38 32 26 26 27 28 29 33 37 35 32 32 33 34 35 38 43 45 44 44
2 2 3 4 3 2 2 3 3 5 4 2 5 9 11 11 12 15 16 17 16 17 18 18 18 18 18 18 18 19 20 22 24 24 25 26 28 30 32 33 34 36 37 34 30 28 27 28 30 31 32 35 34 32 31 33 35 36 39 42 45 46 46
2 2 2 2 3 2 3 3 3 4 5 5 3 5 8 10 11 13 14 14 15 16 16 16 16 17 17 17 17 17 18 19 19 19 19 22 23 24 27 29 30 33 33 31 31 31 29 27 30 31 32 33 33 32 32 33 35 37 39 42 46 49 51
4 4 3 3 3 3 3 4 4 4 4 4 4 4 5 6 7 8 9 10 10 10 9 10 10 11 12 14 15 15 16 16 17 17 16 16 18 20 22 23 24 26 27 27 29 31 30 29 30 31 32 34 34 33 33 34 35 36 38 42 48 51 52
5 5 5 5 5 4 4 4 4 4 4 4 4 4 4 5 5 4 4 4 5 5 4 5 6 6 7 8 10 11 12 12 13 15 15 15 16 18 20 22 23 24 25 25 25 27 29 30 31 31 31 32 32 33 34 36 38 38 39 42 47 50 50
6 6 7 7 7 7 6 5 5 5 4 4 4 5 5 5 5 4 4 3 3 3 3 3 4 5 5 6 8 8 8 8 8 9 11 13 14 15 18 20 22 24 25 25 25 26 28 30 31 31 32 32 33 35 35 36 38 40 40 42 47 50 51
8 9 9 8 9 9 8 8 8 7 6 5 5 5 6 6 6 5 5 4 3 4 4 3 4 4 4 5 7 6 6 6 6 6 6 8 10 12 14 16 18 20 23 24 26 28 30 33 34 34 34 35 37 39 40 41 42 43 44 47 50 52 52
9 9 9 9 9 9 9 9 9 8 8 7 6 6 7 7 7 7 6 5 5 6 7 7 7 7 6 5 4 4 3 2 2 3 4 4 6 8 11 13 14 17 18 20 23 27 30 33 36 38 39 40 42 44 46 48 48 48 49 50 52 53 55

ECMWFFLT1_850_spd_033.txt.gz
Wind_Speed
23 24 25 26 28 30 32 34 35 36 38 39 41 42 41 40 39 39 42 45 45 44 44 43 43 43 43 42 41 40 39 38 38 37 37 36 36 34 33 33 32 30 29 28 27 27 27 25 24 24 24 22 21 20 20 19 17 17 16 16 15 14 14
24 25 24 24 27 30 32 34 35 36 37 39 41 41 42 42 43 42 43 46 46 46 45 45 45 44 44 43 42 41 40 39 39 38 38 37 37 36 35 35 34 33 31 29 27 27 27 27 26 26 26 24 22 21 21 21 19 19 18 18 17 16 16
26 26 24 25 27 30 32 34 36 37 38 38 40 42 44 46 47 47 46 47 47 46 46 46 46 46 45 44 43 42 41 41 40 40 40 39 38 37 36 36 35 34 33 31 29 28 27 28 28 27 27 26 24 22 22 22 21 21 20 20 19 18 17
30 28 25 25 29 30 32 34 36 37 37 38 39 41 44 46 48 49 48 48 47 48 48 47 47 47 46 46 44 44 43 43 42 41 41 40 39 38 38 38 37 36 35 34 32 30 28 28 29 29 28 27 27 25 24 24 23 22 22 21 20 20 18
32 29 26 25 26 27 30 33 35 36 37 38 40 40 41 43 45 46 48 48 47 47 47 47 48 47 47 47 46 45 45 44 43 43 42 42 41 40 40 40 39 38 37 35 34 33 31 30 30 30 30 29 28 27 26 25 25 24 23 22 21 22 20
28 28 25 23 22 25 30 34 36 38 38 37 38 38 38 39 41 43 45 47 47 46 46 47 48 48 48 48 47 47 46 45 45 44 44 43 43 42 42 41 40 39 38 37 35 34 34 33 33 32 32 31 30 29 29 28 27 26 25 24 23 23 22
26 26 24 23 25 29 33 34 35 35 35 34 34 35 36 38 40 41 42 45 47 46 46 47 48 48 48 49 49 49 48 47 46 46 45 45 44 44 43 42 41 40 38 37 36 35 35 35 35 34 33 32 31 30 30 30 29 28 27 26 24 24 24
25 27 26 27 30 30 30 30 31 32 31 31 32 34 36 37 39 40 41 43 45 45 46 47 48 48 48 49 50 50 49 49 48 47 47 46 46 45 45 44 42 41 39 38 37 37 36 36 35 35 34 33 33 31 30 31 31 30 29 29 28 26 25
23 26 28 29 29 26 23 23 25 28 30 31 32 34 35 36 37 40 40 41 41 43 45 46 46 47 48 48 49 50 49 49 49 48 48 47 47 46 46 44 43 42 41 40 38 37 37 37 36 35 34 33 33 33 32 32 33 32 31 31 31 28 26
21 25 25 23 22 22 21 21 23 26 29 31 32 32 34 35 36 38 39 39 41 43 45 45 44 45 47 48 48 49 49 50 50 49 49 48 48 47 46 44 43 44 43 41 40 38 38 37 37 36 35 34 34 34 34 34 35 34 33 33 32 31 29
14 16 17 14 14 16 19 22 24 27 29 32 33 32 33 35 34 35 37 39 41 42 43 43 42 42 45 47 47 48 50 50 50 50 50 50 49 48 47 45 42 42 43 43 41 39 38 38 38 38 37 37 36 36 36 37 37 36 35 35 34 33 32
11 10 10 11 12 14 17 21 24 28 31 33 33 31 32 34 33 33 35 37 38 38 39 40 40 39 42 45 47 48 49 50 50 51 51 50 50 49 48 47 43 39 39 42 43 41 39 40 40 40 39 39 37 37 38 38 39 39 37 36 36 35 34
8 7 8 10 12 13 15 18 20 25 28 28 27 28 29 31 32 32 33 35 35 35 35 38 39 39 40 42 44 47 48 49 50 50 50 50 49 49 48 47 43 39 37 39 43 43 41 41 42 42 40 40 39 38 38 39 40 40 40 38 37 37 36
6 9 10 9 10 12 13 15 17 19 22 23 24 26 28 29 30 32 33 33 33 33 34 36 38 39 40 41 43 46 48 48 48 48 48 48 48 48 47 46 43 40 38 38 41 43 42 41 42 43 42 41 40 39 39 40 40 41 42 41 40 39 38
4 9 14 13 11 11 12 14 16 18 20 21 22 24 26 28 29 30 31 32 32 33 33 34 36 38 39 40 44 48 48 46 47 47 47 46 46 46 46 45 43 41 40 39 41 41 41 39 39 41 43 42 41 41 40 41 42 42 43 43 42 42 41
2 5 12 15 14 11 9 10 12 15 18 20 21 23 25 26 27 29 29 30 31 33 33 33 36 38 38 40 44 48 47 45 45 47 47 47 46 46 46 45 44 43 42 41 40 40 40 39 36 36 40 43 43 43 42 43 44 44 44 44 43 43 42
4 2 3 8 11 10 9 9 8 8 11 14 16 19 24 26 26 26 27 28 30 32 32 32 34 37 39 40 42 44 45 46 47 47 47 47 46 47 47 46 45 46 45 43 41 39 39 40 38 36 36 39 42 43 44 45 45 45 45 45 44 43 43
6 4 4 4 4 4 6 8 8 7 8 10 12 15 20 24 26 26 27 27 28 29 31 33 34 36 39 39 38 40 43 46 48 47 47 48 46 47 47 46 47 47 46 46 44 42 42 42 42 40 37 36 39 41 43 44 45 45 45 45 45 44 43
7 6 6 6 7 6 4 5 6 6 6 9 11 13 15 19 24 26 27 26 26 27 29 33 34 35 37 38 38 40 43 45 46 47 47 48 46 46 45 46 46 47 46 46 45 44 45 45 45 45 42 40 39 39 41 42 43 45 45 45 45 44 44
8 8 8 8 9 8 6 5 4 5 6 7 9 11 13 17 20 23 23 24 26 28 30 32 33 34 36 38 39 40 43 45 45 45 45 46 45 45 45 45 45 45 45 46 45 45 46 47 46 46 46 44 42 41 42 42 42 43 44 44 44 44 45
10 10 10 8 7 5 4 5 5 6 7 7 8 8 10 14 16 19 21 23 26 29 31 33 33 34 36 39 40 41 43 45 45 43 43 44 43 43 43 43 43 43 43 44 44 45 46 46 46 46 46 46 44 43 43 42 41 43 44 44 43 44 44
13 12 10 7 6 6 9 13 13 12 11 12 10 8 9 11 14 16 20 23 26 29 31 33 34 35 36 39 41 42 43 44 43 43 43 43 42 42 41 41 42 42 42 42 42 42 43 45 45 45 45 46 46 46 44 41 40 42 45 46 44 43 43
12 9 8 7 8 10 13 16 16 14 15 16 14 11 10 11 12 15 19 21 24 27 29 32 35 38 38 39 41 41 42 43 43 43 43 43 42 42 41 41 41 41 41 42 42 41 41 42 43 42 44 45 45 46 45 41 39 41 43 45 45 43 44
6 8 8 8 10 11 10 11 14 16 16 17 16 14 12 12 12 15 18 21 23 25 29 32 35 38 39 39 39 39 40 41 42 42 42 42 42 41 41 41 41 40 40 41 41 40 38 37 37 38 40 42 43 44 44 42 41 41 42 42 43 44 44
9 9 9 9 10 10 12 15 18 17 15 14 13 12 13 15 15 15 18 21 23 24 29 33 34 35 37 37 37 38 39 39 40 41 41 41 41 41 40 40 40 39 39 40 40 38 35 33 33 34 36 37 38 40 42 42 41 42 42 42 44 44 44
10 10 10 9 9 12 15 16 15 11 8 9 10 10 10 12 15 17 17 20 22 24 27 30 30 30 32 33 33 35 38 38 38 39 40 40 39 39 39 38 38 37 37 37 36 34 34 33 32 32 32 33 35 36 39 41 41 42 43 43 44 45 44
9 10 10 9 11 14 14 11 9 7 6 9 14 13 9 9 13 16 17 18 21 23 23 23 25 26 28 30 31 32 35 37 37 37 38 37 36 36 37 36 36 36 36 34 31 30 32 33 32 31 31 31 32 33 36 39 40 41 43 43 43 43 43
10 10 9 9 11 12 9 7 7 7 6 7 8 7 6 9 11 13 16 17 19 20 18 18 21 24 26 27 29 29 30 32 34 34 35 35 34 34 35 34 33 33 33 31 29 29 30 31 31 31 31 30 31 32 34 36 37 38 40 42 42 42 43
10 9 9 8 9 8 7 6 6 6 6 6 5 3 3 6 10 12 12 14 15 15 16 16 17 20 23 25 26 27 26 27 30 32 33 33 33 32 33 32 31 30 29 29 29 28 28 29 30 29 29 30 30 31 33 34 34 35 38 40 41 41 43
10 9 8 7 7 7 6 6 5 5 5 7 7 7 4 2 7 9 8 9 12 11 13 16 16 16 19 21 22 24 23 23 25 27 28 28 29 29 28 29 28 27 28 28 28 27 27 28 27 27 28 29 29 30 31 31 32 34 36 40 42 41 42
10 9 8 7 7 6 5 4 5 4 3 6 5 5 7 6 5 7 7 9 13 12 11 13 14 14 16 17 18 20 20 19 20 22 22 22 23 24 25 25 25 26 26 26 25 24 26 27 26 26 28 28 27 29 30 29 30 33 35 38 41 43 43
9 9 8 8 7 6 4 3 3 3 2 4 6 1 6 7 6 5 5 5 8 10 12 12 11 11 13 14 14 15 17 17 17 18 19 19 19 20 21 21 22 23 23 23 23 23 24 24 24 25 27 28 28 28 29 29 29 31 34 37 40 42 44
8 8 8 8 7 5 4 3 2 3 2 3 5 4 2 3 3 1 2 1 2 6 11 12 11 10 11 11 11 11 13 15 15 15 16 16 16 16 17 18 19 20 21 21 21 22 23 23 24 25 26 27 27 27 26 27 29 30 31 34 38 40 42
7 7 6 6 6 4 3 2 2 2 3 3 3 4 3 3 3 2 1 1 1 2 6 8 8 8 8 8 8 9 10 12 13 13 13 13 14 14 15 16 17 18 19 20 20 21 22 23 24 25 25 25 25 26 26 27 29 30 30 31 33 37 39
6 6 6 6 5 3 2 1 2 2 3 3 3 4 5 5 4 4 3 2 2 4 4 5 5 6 6 6 7 8 8 8 10 11 11 12 13 14 15 16 16 17 17 17 18 20 21 21 22 23 23 22 23 24 26 27 27 27 28 29 31 35 39
4 4 4 4 4 4 2 2 2 2 2 3 4 5 6 6 6 6 6 6 5 5 5 5 6 6 5 5 6 7 7 7 7 9 10 10 10 12 13 14 15 17 18 16 17 19 21 23 24 24 24 24 24 24 25 26 27 26 27 27 29 33 38
3 3 3 3 4 5 5 4 5 4 4 3 5 6 6 7 8 8 8 8 7 7 6 6 7 6 5 5 8 10 10 8 6 7 9 11 10 10 12 12 13 16 19 20 19 20 21 23 25 26 27 28 29 29 28 29 30 29 29 29 29 31 34
3 3 4 3 4 4 3 4 5 6 6 6 6 7 8 8 8 9 10 11 10 8 8 7 7 6 5 5 10 13 12 10 8 8 9 11 11 11 13 14 12 10 13 18 22 24 25 26 27 28 29 31 33 35 36 36 37 37 36 37 37 37 38

ECMWFFLT1_850_spd_036.txt.gz
Wind_Speed
28 33 36 33 33 34 36 39 41 42 43 43 45 47 46 45 45 45 46 47 47 47 46 44 43 43 43 42 41 40 38 36 35 35 34 33 33 32 31 30 29 28 28 28 27 27 26 24 22 22 22 21 20 20 19 19 17 16 15 16 16 16 15
30 32 40 40 37 35 34 37 39 39 39 41 44 46 46 46 48 48 48 48 48 47 46 45 44 43 43 42 41 41 40 38 37 36 35 34 34 34 33 32 31 30 28 27 26 26 25 25 23 22 22 22 21 20 20 20 19 18 18 17 17 18 17
33 31 38 42 39 36 34 35 38 39 40 40 42 46 48 48 50 50 49 49 49 48 46 45 44 43 43 42 42 41 41 40 39 38 37 36 36 35 34 34 33 31 29 28 27 25 24 25 25 24 24 23 22 21 20 20 21 20 20 19 18 19 19
37 31 34 42 41 37 36 38 41 43 43 43 44 47 49 49 49 49 48 49 49 49 48 46 45 45 44 43 43 42 42 41 40 40 39 38 37 36 36 36 35 33 31 30 29 26 25 24 25 26 25 26 25 24 22 21 21 21 21 21 20 20 20
38 31 32 43 45 41 40 41 41 44 46 46 46 46 46 45 46 46 47 48 48 47 47 46 46 46 45 45 45 44 43 42 41 41 40 40 39 38 38 37 36 35 33 31 30 29 27 26 25 25 26 27 27 26 24 23 22 22 21 22 22 22 21
35 30 30 40 44 42 42 39 39 42 45 46 45 44 43 42 42 43 44 47 48 47 46 47 47 47 47 46 46 45 44 44 43 43 42 41 40 40 39 39 38 37 35 33 31 30 29 28 27 26 27 27 28 27 26 25 24 23 23 23 23 23 23
33 31 32 36 38 37 38 38 39 42 42 40 39 39 40 40 41 41 41 43 46 47 47 48 48 48 48 47 46 46 45 45 44 44 43 43 42 42 41 40 39 37 36 35 34 32 31 31 30 29 28 28 28 28 28 27 26 26 26 25 25 24 24
36 36 36 35 33 33 34 35 37 37 37 36 35 37 39 40 40 41 41 42 45 47 47 48 49 49 48 47 47 47 46 46 45 45 44 44 43 43 42 40 39 38 37 35 35 34 33 32 32 31 30 29 29 29 29 28 28 28 28 28 27 26 26
40 40 37 34 33 31 31 33 33 32 33 35 36 37 39 40 40 42 42 40 42 45 47 47 48 48 48 47 47 47 47 46 46 46 45 45 45 45 44 42 41 39 38 37 35 35 35 34 33 33 32 31 31 30 30 30 30 30 30 31 30 29 28
40 41 37 33 31 30 31 33 33 33 33 34 36 38 39 40 40 41 42 41 41 43 45 45 46 46 47 48 48 47 47 47 47 47 46 47 47 46 45 45 44 42 40 39 37 36 35 35 34 33 34 33 33 33 32 32 32 32 32 32 32 31 30
39 43 38 31 28 29 31 32 32 34 33 33 36 38 38 39 39 39 41 42 41 41 42 43 44 44 46 47 48 48 48 48 48 48 47 47 47 47 46 46 45 44 42 41 39 37 36 36 36 35 35 35 35 35 34 34 33 33 33 34 34 33 33
38 43 40 33 29 29 30 31 32 33 32 33 36 37 37 38 38 37 38 40 39 38 39 41 42 43 44 45 47 48 49 49 49 49 48 47 47 47 46 46 45 44 43 42 41 39 37 37 37 37 37 37 37 36 36 35 35 35 35 35 35 35 34
28 34 36 33 29 29 29 30 31 31 32 34 37 37 37 37 37 37 37 39 38 36 37 40 41 41 42 43 45 47 48 50 49 48 48 48 47 46 45 45 44 43 42 41 40 40 38 38 39 39 39 39 38 38 38 37 36 36 37 36 36 36 36
24 23 26 25 22 22 25 28 28 29 31 34 38 38 35 35 36 37 37 37 36 35 36 38 40 41 42 41 42 44 47 48 48 48 48 47 47 46 45 44 43 41 40 39 39 39 38 39 39 40 40 40 40 39 39 38 38 38 38 38 38 37 37
23 20 17 18 19 18 20 25 27 28 31 34 36 36 34 32 34 36 36 35 35 36 35 36 39 41 42 43 43 43 44 45 46 46 47 47 47 46 45 44 43 42 40 40 39 39 38 37 38 38 40 40 41 40 40 40 41 40 40 40 40 39 39
18 20 18 17 19 20 19 18 19 22 28 31 32 32 31 31 32 34 34 33 34 36 35 35 39 41 42 44 45 44 42 43 44 44 45 46 46 46 46 45 44 43 42 42 41 40 39 37 36 37 39 40 41 41 42 42 42 42 42 42 41 41 40
9 20 25 23 21 20 18 17 16 19 23 26 28 29 29 30 31 31 32 32 33 35 35 35 37 41 43 43 43 43 42 42 43 43 44 45 46 46 46 45 45 44 44 44 43 42 40 39 38 37 38 39 41 42 43 43 44 44 43 43 42 41 41
9 11 20 23 21 17 16 19 19 19 22 24 26 28 28 29 30 29 30 31 31 32 33 34 36 40 43 43 41 42 44 44 44 44 43 44 44 45 45 45 45 45 45 45 44 43 42 41 41 40 38 38 40 41 43 43 44 44 44 44 43 42 41
4 3 9 17 19 14 15 21 19 17 19 20 21 24 24 25 27 29 29 29 30 30 32 34 35 36 40 43 43 43 44 44 44 44 44 44 44 44 45 45 46 46 46 46 45 44 44 44 44 43 42 41 41 41 42 42 43 43 44 44 43 43 42
2 1 1 5 9 9 10 15 16 11 10 12 14 17 20 22 24 27 28 27 28 31 32 34 35 34 37 41 44 44 43 44 45 45 45 44 44 44 45 46 46 46 46 46 45 45 46 46 46 45 45 44 44 44 43 43 42 43 43 43 43 42 42
2 3 3 1 6 11 11 10 9 5 3 6 9 11 14 18 20 22 24 26 28 31 32 34 36 36 35 38 42 44 43 43 44 44 44 44 44 44 45 46 47 46 46 45 45 46 47 47 47 47 47 46 46 46 46 45 44 44 44 44 42 42 41
3 1 5 10 11 9 5 3 2 1 3 6 9 8 8 12 16 18 22 24 26 30 32 33 35 37 37 37 40 43 43 42 42 43 44 44 44 45 46 46 46 46 45 45 45 45 46 47 47 47 47 47 46 47 48 48 47 46 46 45 43 42 41
14 13 15 14 11 7 3 1 1 4 6 6 7 7 7 9 11 15 19 23 24 27 31 33 35 38 39 37 37 40 42 42 42 42 43 43 44 46 46 46 45 44 44 44 44 44 45 47 47 47 48 48 48 49 50 50 49 48 47 46 44 43 42
16 14 13 12 11 8 1 3 3 4 4 3 4 6 8 11 13 13 16 21 24 26 28 33 36 37 38 37 36 37 41 41 41 41 42 43 44 45 45 44 43 43 43 43 43 44 44 44 45 46 47 48 49 50 51 50 49 48 47 46 44 44 44
13 12 11 11 8 3 4 6 6 5 4 3 3 4 4 9 14 15 15 17 22 25 28 32 34 35 37 37 35 34 38 40 40 41 42 43 43 43 42 42 42 41 42 42 43 43 41 39 39 41 43 45 46 47 48 48 48 48 47 46 45 44 44
12 11 10 10 8 7 8 9 7 5 4 4 7 7 4 6 11 16 17 16 19 24 26 29 31 32 33 35 34 33 35 37 39 40 40 40 41 41 40 39 40 40 40 40 41 42 40 38 37 37 38 39 40 42 44 45 44 45 46 46 45 45 45
12 10 9 10 11 10 9 8 6 5 5 7 7 5 5 6 7 12 17 17 17 21 22 23 26 28 30 32 33 32 33 35 37 38 38 37 36 37 38 37 37 37 37 37 38 38 38 38 36 35 35 35 36 37 39 40 40 41 42 43 43 43 43
12 12 11 11 11 9 8 7 7 6 7 7 6 4 4 5 6 9 14 15 15 17 17 17 19 24 28 29 30 31 30 32 35 35 35 34 33 34 34 34 33 33 33 33 33 33 34 35 35 34 34 33 33 33 34 34 35 36 38 40 40 40 41
13 13 12 11 10 9 9 8 8 8 7 8 8 7 5 3 3 6 8 10 10 11 14 14 14 19 24 26 27 29 28 28 31 33 32 32 32 31 31 31 30 30 30 31 30 29 30 31 32 33 33 32 32 31 31 31 32 33 35 36 37 37 38
14 13 11 10 10 10 9 8 9 9 6 8 11 9 4 1 1 2 4 7 9 10 13 15 12 13 20 24 25 27 27 25 25 28 29 29 29 29 29 29 29 29 28 29 29 29 29 29 29 30 31 31 31 30 29 29 29 30 32 33 34 33 34
13 12 10 9 10 10 8 6 7 7 5 7 11 7 2 6 5 5 6 8 11 12 14 16 14 10 14 20 21 23 25 23 22 23 25 25 25 27 27 27 27 28 28 28 28 28 29 28 27 28 29 29 28 27 26 26 26 27 28 30 30 31 32
12 11 10 10 10 9 7 6 5 4 4 6 9 6 2 6 6 6 7 6 9 11 13 14 13 11 12 15 17 18 21 21 21 21 21 22 22 23 24 24 24 25 26 26 27 27 27 27 26 26 27 27 26 25 24 24 24 24 25 26 28 29 31
10 10 9 9 9 8 6 6 5 4 4 4 6 7 2 2 2 3 5 5 3 5 10 13 11 9 11 13 13 15 18 19 19 19 20 20 20 20 21 21 21 22 24 25 24 24 24 24 24 25 25 25 25 24 23 23 21 21 22 24 26 28 28
9 9 9 9 8 7 5 4 3 3 3 3 4 7 5 2 2 2 4 5 5 3 7 11 10 8 10 11 11 12 15 17 18 19 19 19 19 19 19 19 18 20 22 22 21 22 23 23 23 23 22 21 21 22 22 21 20 21 24 26 27 27 27
7 7 7 7 7 5 3 3 3 3 3 3 4 4 4 4 3 4 3 3 8 7 4 7 9 8 8 10 11 11 13 15 17 17 17 18 17 17 17 18 17 17 19 20 20 20 21 21 21 21 20 19 20 20 20 18 19 22 24 25 24 23 23
6 5 5 5 6 5 3 2 3 3 2 3 4 4 3 4 4 5 5 4 8 8 6 7 9 8 9 9 9 11 13 13 14 16 16 15 15 16 17 16 16 16 18 21 21 21 22 21 20 19 18 18 18 19 19 19 20 21 21 21 21 21 20
4 4 4 3 3 5 5 4 3 3 3 3 4 4 5 6 6 5 4 6 7 8 9 9 8 9 12 12 10 12 15 13 12 16 17 14 13 16 18 17 17 16 16 17 17 19 21 22 22 21 20 18 18 19 20 21 23 24 24 25 25 26 25
2 2 2 2 2 1 2 3 3 5 6 6 6 6 6 6 7 7 6 6 7 8 9 8 7 9 12 13 12 13 15 14 14 18 19 15 13 15 15 13 12 13 13 14 14 15 17 19 21 23 24 24 23 23 24 25 26 27 29 30 31 31 32

ECMWFFLT1_850_spd_039.txt.gz
Wind_Speed
44 45 46 46 46 46 48 49 49 48 47 47 49 48 46 46 46 47 47 48 49 50 50 49 49 48 46 44 42 41 40 39 38 38 37 36 35 34 33 31 30 30 29 28 27 24 23 21 21 20 19 18 18 19 19 18 18 16 15 15 15 15 15
42 44 46 46 46 47 48 49 49 48 47 47 48 49 49 48 47 48 48 48 50 50 50 50 50 50 49 46 44 43 42 40 39 38 38 37 36 36 35 33 32 31 30 30 29 27 25 24 22 21 20 19 19 19 19 19 19 18 17 17 17 16 16
43 45 47 48 48 48 48 49 48 48 49 49 50 51 52 51 50 49 48 48 49 50 50 50 51 51 50 48 46 44 43 42 40 39 38 38 37 36 36 34 33 31 30 30 30 29 28 26 24 22 21 20 19 19 20 20 20 20 19 18 18 18 18
46 48 48 48 49 48 48 49 49 49 50 50 52 53 54 53 50 48 47 47 48 49 49 50 51 52 52 50 48 46 45 43 41 40 39 38 37 36 36 36 34 32 31 30 29 29 29 28 26 24 22 21 20 20 20 21 21 21 20 20 20 19 19
44 44 44 44 46 47 48 49 50 50 51 50 51 52 52 51 48 46 46 46 47 48 48 49 50 52 52 51 49 47 45 43 42 41 40 38 38 37 37 37 36 34 33 31 30 29 28 28 26 25 24 23 23 21 21 21 21 22 22 21 21 21 22
40 40 41 42 45 46 47 48 49 49 50 50 50 50 50 50 48 47 47 47 47 46 46 47 49 51 51 51 50 49 46 44 43 42 40 39 39 39 39 38 37 36 34 32 31 30 29 28 27 26 25 24 24 23 23 22 22 22 22 22 22 23 24
42 42 42 43 45 46 47 47 47 48 48 47 48 48 48 49 48 47 47 47 47 46 45 47 48 50 52 52 51 51 49 47 46 44 42 40 40 40 39 38 37 36 35 34 33 32 31 30 28 27 26 25 25 25 25 24 24 23 23 24 24 24 24
46 46 46 46 47 47 46 46 47 47 47 45 45 46 47 47 47 46 47 48 48 47 47 48 49 51 52 52 52 52 50 49 47 46 44 43 41 41 40 39 38 37 36 36 35 34 32 31 30 29 28 27 27 27 26 26 26 25 25 25 25 25 25
46 48 49 49 49 48 48 48 48 47 46 45 44 45 46 46 47 48 49 49 48 48 48 48 49 50 52 53 53 52 51 50 49 48 47 45 44 42 41 40 39 38 38 37 36 35 34 33 32 31 31 30 29 29 28 28 28 28 28 27 27 27 27
42 45 49 48 47 48 48 48 47 46 46 47 46 45 45 46 47 47 48 47 47 48 48 48 49 50 51 52 53 52 51 50 49 49 48 47 46 44 43 41 40 39 39 38 37 37 36 35 33 32 32 32 32 32 31 31 30 30 30 30 29 29 29
41 44 47 47 45 45 45 46 46 47 48 49 49 48 47 46 46 45 45 45 45 46 47 48 49 49 50 52 52 52 52 51 50 49 49 48 47 45 44 42 41 41 40 39 39 38 37 36 35 34 34 34 34 34 34 33 33 32 32 31 31 30 30
45 44 47 48 45 44 43 44 45 47 47 48 48 49 49 48 46 44 43 42 42 43 44 47 48 49 50 51 52 53 52 52 51 50 49 48 47 46 45 43 43 42 42 41 40 39 39 38 37 36 36 36 36 36 36 35 35 35 34 33 32 32 32
43 45 48 48 47 46 45 45 45 45 44 44 44 45 47 47 45 43 42 42 42 41 42 43 45 47 49 50 51 52 53 52 52 51 50 49 47 46 45 45 44 44 43 42 41 41 40 39 39 38 37 37 37 37 37 37 37 37 36 35 35 34 34
37 40 43 45 47 48 48 47 46 45 44 43 42 42 43 44 44 43 43 43 43 43 42 42 43 45 47 48 50 52 53 52 51 50 49 48 47 47 46 45 45 45 44 43 42 42 41 41 40 39 39 38 38 38 38 38 39 39 38 37 37 36 36
35 33 33 37 44 49 48 47 46 46 45 44 43 42 42 42 43 44 44 44 44 44 43 42 42 44 45 47 49 50 51 51 50 50 49 48 48 47 46 46 46 45 44 44 44 43 42 42 41 41 41 40 39 39 40 40 41 41 40 39 39 38 38
31 29 27 32 40 45 46 46 46 46 45 44 44 43 42 42 43 44 44 44 44 43 43 42 42 44 45 47 48 49 49 50 50 50 49 49 49 48 46 46 46 46 45 45 44 44 43 42 42 42 42 42 42 41 41 42 43 42 42 41 40 40 40
27 29 30 31 35 38 40 42 43 43 43 43 43 43 42 41 43 45 44 43 43 43 42 42 43 44 45 46 47 48 48 48 49 50 50 49 49 48 47 46 46 46 45 45 44 44 43 42 42 43 43 43 42 43 43 44 43 43 43 42 42 41 41
25 28 30 30 30 30 32 34 37 38 38 39 40 41 42 41 41 42 43 42 41 41 41 42 43 44 45 46 46 47 47 47 47 48 49 49 49 48 47 46 46 46 46 46 45 44 43 43 43 43 42 42 42 42 43 43 43 43 43 43 43 42 42
22 23 23 24 24 24 23 22 25 29 31 33 37 39 40 40 39 39 39 39 39 39 40 42 43 43 44 45 46 47 47 46 46 46 47 48 48 48 48 47 47 47 47 46 45 44 44 44 44 43 42 43 43 43 43 43 42 42 42 42 42 42 42
21 21 19 17 17 18 18 17 18 21 24 26 30 32 33 35 35 34 33 34 36 37 38 40 41 42 43 44 46 48 47 47 46 46 45 46 46 47 48 48 48 48 47 46 45 46 45 45 44 44 44 44 44 44 44 43 43 43 42 42 41 41 41
26 24 23 21 18 17 17 15 14 14 14 16 18 20 23 27 29 29 29 30 33 35 37 38 40 41 42 42 44 47 48 48 47 46 45 44 44 45 46 47 48 48 47 47 47 47 46 45 45 44 45 45 45 45 45 45 44 44 44 43 42 41 41
29 27 24 23 21 20 18 16 13 13 13 13 13 13 15 20 24 25 26 28 30 32 34 36 38 40 42 42 42 44 48 49 48 47 45 44 43 44 45 45 46 47 47 47 47 47 47 46 46 46 45 45 45 46 47 47 46 46 45 44 42 41 40
27 24 21 20 18 17 15 13 11 10 11 13 13 12 11 13 19 23 24 26 29 31 32 34 37 39 41 42 40 41 44 48 48 47 46 45 44 44 44 44 44 45 46 47 47 47 48 48 48 47 47 46 47 47 48 48 47 47 47 45 43 41 40
26 22 18 16 15 14 12 10 10 8 6 8 11 13 12 11 14 19 22 24 27 29 31 34 36 37 38 41 41 39 40 44 47 47 46 46 45 44 43 43 43 43 43 45 46 47 47 47 47 47 48 48 48 48 49 49 48 47 46 45 42 40 40
22 19 18 16 15 16 14 11 11 10 5 4 6 10 13 13 13 15 18 21 24 27 30 32 35 36 36 38 38 38 38 39 43 46 46 46 45 44 42 42 42 42 42 43 44 45 46 46 46 47 47 48 49 49 49 49 47 46 46 45 42 39 38
19 17 18 18 15 14 13 9 9 8 4 1 1 5 10 14 15 14 15 17 20 25 28 30 31 31 33 35 36 37 37 37 39 42 44 45 44 43 42 41 41 41 41 41 42 43 43 44 45 46 46 46 47 47 47 47 45 45 44 43 41 40 38
17 16 17 17 12 9 9 7 5 4 3 4 3 6 9 12 15 16 15 14 15 18 23 27 29 28 27 30 33 35 36 35 36 38 40 42 42 41 41 40 40 41 40 40 40 41 41 43 44 45 45 44 44 44 44 44 43 42 41 40 39 39 40
16 14 14 13 10 6 6 7 7 4 5 7 6 6 8 10 12 14 13 13 15 15 15 19 25 27 26 26 28 32 34 33 33 33 35 38 39 40 40 40 39 40 39 38 38 39 40 41 41 43 44 43 42 41 41 40 39 38 37 37 37 37 38
15 13 11 9 8 6 3 5 8 6 5 8 7 5 7 8 8 9 9 12 15 16 15 14 16 20 24 25 25 27 30 32 31 31 32 35 37 38 39 38 38 38 38 37 37 37 38 39 40 40 42 42 42 40 38 36 34 33 32 32 31 30 31
13 12 9 6 7 8 3 1 5 4 5 8 6 4 3 4 6 8 10 12 14 16 17 16 14 15 18 22 24 24 26 29 30 29 29 32 34 35 36 36 36 36 36 35 35 35 37 37 38 38 39 39 39 38 36 34 31 29 27 27 26 26 26
12 12 10 6 6 6 1 3 4 1 5 7 5 3 3 5 7 9 10 11 12 13 15 15 15 14 13 17 23 24 24 26 27 27 27 28 30 32 33 33 32 32 33 32 32 33 34 35 35 35 35 34 33 33 32 32 29 25 23 23 25 26 26
12 11 10 8 8 6 0 3 5 0 6 6 5 4 5 5 6 7 9 10 10 11 13 13 13 12 11 14 20 22 22 24 25 24 23 24 25 27 28 28 29 29 30 30 30 31 32 32 32 32 31 30 29 28 27 27 27 26 25 25 26 25 24
12 11 10 9 9 7 2 3 5 1 6 5 4 4 5 6 6 5 6 7 8 10 12 12 12 11 10 13 18 21 22 23 22 20 20 21 22 23 24 24 25 26 27 28 29 30 30 30 30 30 29 28 26 26 24 23 23 25 27 28 27 25 24
9 10 10 8 7 6 4 4 6 3 3 5 4 3 4 4 5 5 4 5 7 8 11 13 12 12 12 13 16 18 19 20 18 17 17 19 20 21 22 22 22 23 25 26 27 28 29 29 28 28 28 26 24 23 22 23 24 25 27 28 28 27 25
7 7 8 7 5 4 2 2 4 5 6 5 3 2 3 4 3 2 3 5 5 7 11 13 12 12 14 14 14 16 17 19 19 17 16 17 19 20 21 22 21 21 22 24 25 26 26 26 26 26 26 26 24 22 21 22 24 26 26 26 26 25 24
7 6 5 5 5 3 2 1 3 4 5 5 3 1 3 6 5 2 3 5 7 7 9 12 13 13 14 15 16 16 16 18 20 19 16 16 20 22 22 22 22 22 23 23 23 23 23 23 23 23 24 25 24 23 20 19 19 20 21 21 21 20 21
7 7 6 6 5 4 2 1 1 1 4 5 5 5 6 6 6 5 4 4 6 6 7 10 12 13 14 15 15 16 15 15 18 20 18 17 21 25 24 23 23 23 22 22 22 22 22 21 19 19 20 22 22 21 20 18 16 15 15 15 15 16 17
7 6 6 6 5 3 2 1 0 2 4 5 4 5 6 6 6 6 4 4 4 4 5 7 10 11 13 13 13 13 15 15 16 18 18 17 20 22 22 22 24 24 20 18 18 19 20 19 17 16 16 17 18 18 17 17 16 15 14 14 15 16 18

ECMWFFLT1_850_spd_042.txt.gz
Wind_Speed
45 45 46 47 49 50 53 56 54 52 54 55 56 55 54 54 54 54 54 53 52 51 49 49 48 48 49 48 47 46 44 43 42 41 41 40 38 36 35 33 31 29 27 27 26 24 24 23 23 23 22 22 22 21 20 19 18 18 18 18 17 17 16
42 43 45 46 49 51 53 56 55 54 54 55 55 55 54 54 54 55 54 53 53 51 49 49 49 48 47 46 46 46 46 44 42 41 41 41 40 38 36 34 32 30 28 28 26 24 23 23 23 24 23 22 22 22 21 20 19 19 19 19 19 18 18
41 42 46 48 50 52 54 55 56 55 56 56 55 55 55 55 55 55 55 54 53 52 50 50 49 48 46 45 46 46 46 45 43 42 41 41 41 39 38 36 34 32 30 29 27 25 24 22 22 23 22 22 21 21 22 21 20 20 19 19 20 19 19
43 44 48 51 52 53 54 55 56 56 56 57 57 57 56 56 55 55 54 53 53 52 52 51 50 49 47 47 47 46 45 45 44 43 41 40 40 39 39 38 36 34 32 30 29 27 26 24 23 23 22 22 21 21 22 23 22 21 20 20 20 20 19
44 46 47 49 50 50 52 54 56 56 56 56 57 57 57 56 55 54 54 53 52 52 51 50 50 49 49 48 48 47 46 45 44 43 41 39 39 39 40 39 37 35 34 32 30 29 28 26 25 25 24 23 22 22 22 23 24 23 23 22 22 21 21
43 45 46 49 50 51 53 54 56 57 57 57 58 58 57 55 54 54 54 53 52 51 50 50 50 50 50 49 49 48 48 47 46 44 42 40 40 40 40 39 38 36 35 33 32 31 30 28 27 26 25 24 24 23 23 23 24 25 25 25 24 23 23
44 45 47 49 51 51 52 53 54 55 55 56 57 57 55 54 54 53 53 52 52 51 51 51 50 50 50 49 49 49 49 49 48 46 44 43 42 41 40 39 39 38 36 35 34 33 32 30 28 27 26 25 25 24 24 24 24 24 25 26 26 25 25
48 48 48 50 50 49 49 51 52 53 53 53 53 54 53 53 53 52 52 52 51 51 51 51 50 49 49 48 48 49 49 49 48 47 45 44 44 43 42 41 40 39 38 37 35 34 33 31 29 28 27 26 26 25 25 25 25 25 25 26 26 26 26
50 49 51 51 50 49 49 50 52 52 52 51 51 53 53 53 52 52 52 52 51 51 51 50 49 49 48 47 47 48 49 49 49 47 46 46 45 45 44 43 41 40 39 37 36 35 34 32 31 30 29 28 27 27 26 26 26 26 27 27 27 27 27
47 48 51 51 49 49 51 51 51 52 52 52 51 52 53 53 53 53 53 52 51 51 51 50 49 48 48 47 47 47 48 49 49 48 47 46 46 46 45 44 42 42 41 39 38 37 35 34 33 32 31 30 30 29 29 28 27 27 28 28 28 28 28
46 48 49 49 48 49 49 49 51 52 53 53 53 52 53 54 54 54 52 51 51 50 49 49 49 48 48 47 46 47 48 48 48 47 47 46 46 46 45 44 44 43 42 41 40 39 37 36 35 34 34 33 32 32 31 30 30 29 29 29 29 29 29
45 47 47 47 47 47 48 49 51 53 53 54 54 53 53 53 53 53 51 50 50 49 49 48 48 47 48 47 47 48 48 47 47 47 46 46 45 45 45 44 44 44 44 43 42 41 40 38 37 36 36 35 34 33 33 32 32 32 31 31 31 31 31
45 45 45 47 47 47 48 49 50 52 53 54 54 53 52 52 52 51 50 49 49 49 48 48 48 48 47 47 47 48 48 47 46 44 44 45 45 45 45 45 45 45 44 43 43 42 41 40 39 38 37 36 36 35 35 35 34 34 33 33 33 33 33
44 43 44 46 48 47 48 49 50 51 53 53 52 51 50 50 50 49 49 48 48 48 48 48 48 48 47 47 47 47 48 47 44 42 42 42 44 45 45 45 45 45 44 43 44 43 42 42 41 40 39 38 38 37 37 37 37 36 36 35 35 35 35
42 41 43 46 48 49 51 51 51 51 52 51 50 48 47 47 47 47 48 47 47 48 48 48 48 48 47 47 47 47 47 46 44 42 41 42 44 45 46 47 46 46 45 45 44 44 43 42 42 41 41 40 40 39 39 39 39 39 38 38 37 37 37
41 41 44 46 48 50 52 51 50 50 50 49 48 47 45 45 46 47 47 47 47 48 48 48 47 47 47 47 47 45 45 45 45 44 43 43 44 45 46 47 47 47 47 46 45 44 43 43 43 43 42 42 42 42 41 42 41 41 40 39 39 38 38
39 40 42 44 46 47 46 46 46 47 47 48 48 47 46 45 45 46 46 46 46 46 46 46 47 47 47 47 46 44 44 44 44 44 44 45 45 45 46 46 47 48 48 47 46 45 44 44 44 44 44 43 44 44 44 44 43 42 41 40 40 40 40
37 40 42 43 44 44 42 42 43 45 46 47 47 46 46 46 45 45 45 45 44 44 43 44 45 46 46 45 44 43 43 42 42 43 44 45 46 46 46 46 47 48 48 48 48 47 46 46 46 45 45 44 45 45 45 45 44 42 42 41 41 41 41
31 33 36 39 41 41 41 41 42 44 45 45 45 44 45 45 45 45 45 44 44 43 42 43 43 44 44 44 43 42 41 40 39 40 41 42 44 45 46 47 48 48 49 49 48 47 47 47 46 45 45 45 46 46 46 45 44 43 42 42 41 41 41
24 24 25 29 32 33 35 36 37 38 39 40 41 41 42 43 43 42 41 42 43 44 44 44 43 44 44 43 42 41 40 39 38 38 38 38 40 42 45 47 48 48 48 48 48 48 48 48 47 46 46 46 46 46 46 45 44 43 42 42 41 40 41
28 26 24 24 24 23 25 27 29 31 32 34 36 37 38 40 39 38 38 40 42 43 44 44 44 45 44 43 43 41 40 39 38 37 37 36 38 40 42 44 45 46 47 47 48 49 49 48 48 48 47 47 46 47 46 45 44 43 42 41 40 40 40
33 33 31 27 25 23 20 20 22 23 24 26 28 29 32 34 35 35 36 37 39 40 42 43 43 44 44 44 43 42 41 40 39 38 38 37 38 39 41 41 42 43 44 46 47 48 48 49 49 49 48 48 48 48 48 46 44 44 43 42 40 40 40
35 35 34 31 30 27 24 23 21 20 20 20 21 21 23 26 29 31 33 34 36 37 39 41 43 43 44 45 44 43 42 41 40 40 39 39 39 40 40 40 40 39 41 43 45 47 48 49 49 49 49 49 49 49 48 47 45 45 44 43 41 40 40
34 34 33 32 30 28 26 25 23 21 21 21 20 19 18 19 21 24 28 30 34 36 38 40 42 42 44 44 44 43 42 41 41 40 40 40 41 41 40 39 39 38 39 41 42 43 44 46 47 47 48 49 49 49 49 48 46 45 45 43 42 40 39
32 31 30 29 27 25 23 22 21 20 19 19 18 17 16 17 18 19 21 23 27 33 37 40 41 41 42 43 42 42 41 41 41 41 41 40 40 39 39 39 39 38 38 39 40 40 41 42 44 45 46 47 48 48 48 48 46 45 45 43 41 40 40
29 27 26 24 22 20 17 15 15 15 14 13 13 13 14 16 17 17 18 20 22 26 29 34 37 39 39 40 40 41 41 41 42 42 41 40 39 38 37 38 39 40 40 40 40 40 40 41 43 44 44 44 45 46 46 47 46 45 44 42 41 40 39
25 24 23 21 19 17 15 12 11 11 9 8 6 6 9 12 13 14 16 18 19 21 23 26 30 33 35 35 36 37 38 39 41 42 41 39 37 37 37 37 39 40 41 41 40 40 41 41 41 43 43 43 43 44 45 45 45 44 43 42 41 40 39
21 20 19 18 16 14 13 10 8 8 8 6 4 1 4 8 10 11 13 15 17 19 20 22 25 29 32 33 33 33 34 35 36 38 39 38 37 37 37 37 38 39 41 41 41 41 41 40 40 41 42 42 42 43 43 43 42 41 41 40 39 38 37
19 17 16 16 15 14 12 8 6 6 7 7 6 4 2 4 6 9 11 13 16 17 19 20 21 24 27 30 31 31 31 31 31 32 33 35 35 36 37 37 37 39 40 42 42 42 42 41 40 40 40 40 40 41 41 40 39 38 37 36 36 35 34
17 16 15 14 14 13 12 9 6 5 6 7 8 7 5 3 4 6 8 11 13 15 17 19 20 20 21 24 28 29 29 29 28 27 28 29 30 32 35 36 37 38 40 41 42 42 42 41 40 39 39 39 38 39 38 38 37 36 35 34 33 32 31
18 17 16 14 13 11 10 9 7 5 4 6 8 8 6 4 4 6 8 10 11 13 14 16 18 18 17 19 23 26 28 27 25 23 24 25 27 29 32 34 36 37 39 40 41 41 41 40 39 38 37 36 36 35 35 35 34 34 34 34 32 30 29
19 18 17 16 15 13 11 10 7 5 5 5 7 7 7 7 6 7 8 10 11 11 11 13 15 16 16 17 20 22 24 25 24 22 21 22 23 25 27 30 32 34 36 37 39 40 40 38 37 35 34 34 33 32 31 30 30 30 31 32 31 29 26
18 18 17 17 15 13 12 10 7 7 8 8 8 8 8 9 9 9 10 10 11 11 10 10 12 14 14 15 18 20 21 22 23 22 21 20 21 22 24 26 28 30 33 34 36 36 37 36 34 33 31 30 29 28 27 25 25 26 27 27 27 26 25
17 16 16 16 14 12 10 8 7 8 9 11 11 9 9 9 9 10 11 11 12 12 11 9 11 13 14 15 17 19 20 20 20 20 19 18 19 21 23 24 25 27 28 28 30 31 32 32 31 30 28 27 25 24 23 23 23 24 24 25 25 26 25
14 13 13 13 13 12 10 9 8 8 10 10 9 7 7 8 8 8 9 10 11 13 12 11 10 11 12 14 17 18 19 19 20 19 18 19 21 22 23 24 25 24 23 23 24 25 26 26 26 25 24 23 23 23 24 24 24 23 23 24 24 24 24
13 12 12 12 11 10 9 8 8 8 8 8 6 4 5 7 7 7 7 7 7 10 12 13 13 11 11 13 15 17 17 18 18 18 18 19 21 22 23 24 23 23 23 24 23 22 22 23 24 24 23 23 24 24 23 22 22 22 23 24 24 24 23
13 13 12 12 11 9 7 6 5 5 5 5 4 3 4 6 7 7 6 5 5 6 9 11 13 13 13 14 15 16 17 17 17 18 18 19 21 22 23 23 23 23 25 26 25 24 23 23 23 23 23 23 23 23 22 20 20 20 21 21 22 22 22
11 10 10 10 10 8 5 3 2 3 2 1 1 3 4 6 7 6 5 4 4 4 6 8 10 12 13 14 15 17 17 17 18 18 19 20 22 24 24 25 24 24 23 22 22 21 21 20 20 20 20 20 20 20 19 20 19 18 18 18 18 18 18

ECMWFFLT1_850_spd_045.txt.gz
Wind_Speed
45 44 46 47 48 49 51 53 53 53 54 54 54 54 53 53 54 54 54 53 52 51 49 48 47 45 44 44 43 43 42 41 42 42 42 40 38 36 34 34 34 33 32 30 28 26 24 23 22 21 21 22 22 21 20 19 18 18 18 17 17 16 15
40 43 46 47 47 49 50 51 52 53 54 54 55 54 54 55 55 55 55 54 53 51 50 49 48 47 45 44 44 44 43 42 41 41 41 41 39 37 35 34 34 34 32 30 28 26 25 24 24 22 22 23 22 21 21 20 19 19 19 19 19 18 17
38 41 44 46 48 50 51 51 52 53 54 54 55 55 56 57 57 57 57 56 55 53 51 49 48 46 45 44 45 45 45 44 42 41 40 40 39 38 36 35 35 34 33 31 29 26 24 24 24 23 23 24 23 22 22 21 21 20 20 20 20 19 19
39 42 45 47 50 52 52 52 52 52 53 54 55 57 58 58 58 58 57 57 56 55 53 51 48 46 44 44 45 45 46 46 44 43 41 39 38 38 37 36 35 35 35 33 30 26 24 23 23 23 23 24 23 22 22 22 21 21 21 21 21 21 20
42 44 44 46 48 49 50 50 51 52 54 54 55 56 57 57 57 57 57 57 56 55 53 51 49 47 46 45 44 45 45 45 44 43 41 40 39 38 38 37 36 36 36 34 31 28 25 23 22 23 23 23 23 23 23 23 23 22 22 23 23 22 22
42 44 44 46 47 48 50 52 52 53 54 54 55 55 55 55 55 55 56 56 56 54 53 52 50 49 47 46 45 44 45 45 45 43 42 41 40 40 39 37 36 36 36 35 33 31 28 25 24 24 23 23 23 23 24 24 24 24 23 24 24 24 23
42 44 46 48 48 50 53 54 53 53 53 53 53 52 52 53 54 54 55 55 55 55 54 53 52 50 49 47 45 45 44 45 45 44 43 42 41 41 39 38 37 36 36 36 34 32 30 28 26 26 25 24 23 23 24 25 25 25 25 25 25 25 25
44 45 47 49 50 52 54 54 52 51 51 50 49 50 51 52 53 53 54 55 55 54 54 54 53 51 50 48 46 45 44 43 43 43 43 43 42 41 40 39 38 37 37 37 36 33 32 30 28 28 27 27 26 25 25 25 26 26 26 27 27 27 26
46 47 50 52 51 51 52 52 51 51 50 49 49 50 51 51 53 53 54 54 54 54 54 54 53 51 50 49 47 45 43 42 42 42 43 43 43 41 40 40 38 38 38 37 36 35 33 32 30 29 29 29 28 27 27 26 26 27 27 27 28 27 27
45 47 50 51 50 50 50 49 49 49 50 49 49 50 50 50 52 52 53 53 53 54 54 54 53 51 50 49 47 45 43 43 42 42 43 43 43 42 41 40 40 39 38 37 37 36 35 34 33 32 31 31 30 29 28 27 27 27 28 28 28 28 27
43 47 48 48 46 45 45 45 47 50 51 51 51 51 50 51 51 52 52 52 53 53 53 53 52 51 50 49 47 45 44 43 42 42 43 43 43 42 42 41 40 40 39 38 38 37 36 35 35 34 34 33 32 30 29 28 28 28 28 28 28 28 28
41 44 46 46 44 44 44 45 49 52 53 52 53 52 51 52 51 51 51 52 52 52 52 52 51 51 50 49 48 47 45 44 43 42 42 42 42 42 42 42 41 40 39 38 38 37 37 37 36 36 35 34 33 32 31 30 29 29 29 28 28 28 28
41 42 45 45 45 44 45 46 50 53 53 52 53 53 52 53 52 51 51 51 52 51 51 51 50 50 50 49 48 47 45 44 42 40 40 40 40 41 42 42 42 41 40 38 38 38 37 37 37 36 36 35 34 34 33 32 32 31 31 30 30 30 29
39 41 42 42 43 44 45 47 50 52 52 52 52 52 52 52 52 51 51 51 50 50 50 51 50 50 50 49 48 47 45 43 41 40 38 37 38 39 41 42 43 42 41 39 39 38 38 37 37 37 36 36 36 35 35 34 34 34 33 33 32 31 32
36 38 39 39 41 44 46 48 50 51 52 51 51 51 51 51 50 49 49 49 49 50 50 50 50 50 50 49 49 47 45 43 41 40 39 37 37 38 40 41 42 42 42 41 40 39 38 38 38 38 38 38 38 37 37 38 37 36 35 35 34 34 33
34 36 38 41 43 45 48 49 51 52 52 51 50 51 50 49 50 50 50 50 50 50 50 50 50 50 49 49 49 47 45 43 42 41 40 39 38 37 38 40 41 42 42 43 41 39 38 38 38 39 39 39 39 39 40 40 39 38 37 36 36 35 35
34 36 39 43 45 47 49 50 50 50 50 50 51 51 50 50 50 50 50 50 50 50 49 49 49 49 49 48 47 46 45 44 43 42 41 40 39 37 37 37 39 40 41 42 42 40 39 38 39 39 40 40 40 40 41 42 40 39 38 37 37 37 36
34 37 39 42 44 46 47 47 47 48 49 51 51 50 51 50 49 49 50 51 50 49 47 47 47 47 47 46 45 45 44 43 43 42 42 41 40 38 37 37 38 39 40 42 42 41 40 40 39 39 40 40 41 42 43 43 41 40 39 38 38 37 38
36 39 41 43 44 45 46 46 47 50 51 51 51 51 51 50 49 49 50 50 49 47 46 45 45 45 45 44 44 43 43 42 42 41 41 40 39 38 38 38 39 39 40 40 41 41 41 40 40 39 39 41 42 43 43 43 42 41 41 40 39 38 39
32 35 36 39 41 42 44 45 46 48 49 49 49 49 48 48 48 48 47 47 46 45 45 44 43 44 43 43 42 42 41 41 40 40 39 38 37 37 38 38 39 39 39 39 40 41 41 40 40 40 40 41 42 43 43 43 43 42 42 41 40 40 40
24 28 30 32 35 37 39 41 42 43 44 45 45 45 45 45 45 44 43 43 43 44 44 43 43 43 42 41 41 40 40 39 39 38 38 37 36 37 37 37 37 37 37 38 39 39 39 39 39 39 39 40 41 42 43 43 42 42 42 42 41 41 42
19 24 27 29 33 34 36 38 39 40 41 41 41 42 43 43 42 42 41 41 42 42 42 42 42 42 41 40 39 39 38 38 37 37 36 35 36 36 37 36 35 34 34 35 36 36 37 37 38 38 39 39 40 42 43 42 41 41 41 41 41 42 42
19 22 24 26 28 30 31 33 33 33 35 35 36 37 39 39 39 39 39 39 39 39 39 40 41 40 40 39 38 37 37 36 36 35 35 35 36 36 35 34 33 32 32 34 35 34 34 34 35 35 36 38 39 41 42 41 40 40 40 40 41 42 42
26 26 25 25 27 27 26 27 26 26 28 30 31 33 35 36 37 37 37 37 37 37 38 39 39 39 39 38 37 36 36 35 35 35 34 35 35 35 34 33 32 31 31 33 33 32 31 30 31 32 33 35 37 38 40 40 38 38 39 39 40 41 41
31 32 32 31 30 30 28 27 26 26 27 28 28 29 30 31 32 33 34 34 34 35 37 38 39 39 39 38 37 36 36 36 36 35 35 35 34 33 32 31 30 30 31 33 33 32 31 30 31 31 31 32 34 36 38 38 37 37 38 39 39 39 39
31 33 35 36 35 35 34 33 32 31 29 28 26 24 23 25 25 27 28 29 30 32 34 35 37 37 39 39 39 38 38 38 37 37 35 34 33 31 31 31 31 31 32 34 34 33 33 33 33 33 31 31 33 34 35 36 35 35 36 37 37 37 37
29 30 32 34 34 35 36 35 34 33 30 28 26 24 22 21 22 24 25 25 27 30 32 34 36 37 39 41 41 41 40 40 39 38 36 34 33 32 32 32 32 32 32 33 33 34 34 34 34 35 33 32 33 34 34 34 33 33 33 34 34 35 35
27 27 28 29 29 31 32 32 31 29 26 24 22 22 21 20 21 22 21 22 23 24 25 27 30 33 36 39 40 41 41 41 40 39 37 36 35 35 35 35 34 34 34 34 34 35 35 35 35 36 36 35 34 34 34 33 33 33 32 32 32 33 33
24 24 24 25 25 25 27 28 27 25 23 20 18 18 17 18 19 19 19 19 19 19 19 19 21 23 25 28 31 34 36 38 39 39 38 37 36 36 36 36 36 37 36 36 36 36 36 35 35 37 37 37 36 36 34 33 32 32 32 31 32 32 32
24 24 24 23 22 21 22 23 23 22 20 18 16 15 14 14 16 17 17 17 17 17 16 16 17 17 18 19 20 22 24 27 30 32 34 35 35 36 36 36 38 39 39 38 38 38 37 36 36 37 38 37 37 36 34 33 31 31 30 30 30 31 31
24 23 23 22 21 20 19 20 19 18 17 15 13 12 11 10 11 12 13 14 14 15 15 15 16 16 16 17 17 18 18 19 21 24 26 27 29 31 33 34 36 38 39 39 39 39 38 37 37 37 37 37 36 35 34 32 31 30 29 28 28 29 29
22 21 20 20 19 18 18 18 16 15 13 12 10 8 7 7 7 7 8 9 10 12 12 13 14 15 15 16 16 17 17 17 18 19 21 23 23 24 25 27 30 33 35 37 38 38 38 37 37 37 36 36 35 34 32 31 29 28 27 27 27 27 27
20 19 19 18 17 15 15 15 14 13 11 10 9 7 5 4 4 4 6 7 8 9 9 9 10 12 12 13 14 16 17 17 18 19 20 21 21 21 21 22 24 28 31 33 35 36 36 36 36 35 35 35 33 32 30 28 26 25 25 24 24 24 25
18 17 17 16 15 14 14 14 13 12 10 10 9 7 5 4 3 1 2 4 6 7 7 7 8 8 9 9 11 13 16 17 18 19 21 21 20 20 20 20 22 24 27 28 29 30 32 32 33 32 31 31 30 29 27 25 23 22 22 22 21 21 21
18 16 16 15 14 14 14 14 13 13 12 12 10 8 7 6 5 3 2 3 5 5 6 7 7 7 7 7 9 11 14 16 17 19 20 20 20 21 21 21 21 22 23 24 25 26 27 27 26 25 25 25 25 25 24 22 21 20 19 19 18 18 18
17 16 16 14 12 12 12 12 12 12 13 14 13 12 10 9 7 6 4 3 4 4 4 5 6 6 6 6 6 9 12 14 15 17 19 19 20 21 21 21 20 20 21 22 22 22 22 22 21 19 19 20 21 21 20 19 17 17 18 18 18 18 19
15 15 16 15 12 11 11 11 10 11 12 12 13 13 13 11 10 8 6 5 4 3 2 2 3 5 5 5 5 7 10 13 14 16 17 18 19 20 20 20 19 19 20 20 20 20 19 19 18 16 16 18 19 19 18 18 17 18 19 20 20 20 20
13 12 13 15 13 11 10 10 9 10 10 10 10 12 13 13 12 10 8 7 5 5 4 3 2 2 4 5 5 6 9 12 14 14 15 17 18 18 18 18 17 18 19 19 18 18 18 18 19 20 19 19 19 19 19 19 21 22 20 18 19 19 19

ECMWFFLT1_850_spd_048.txt.gz
Wind_Speed
40 41 43 43 43 46 49 51 51 51 51 51 51 52 52 52 51 51 51 50 49 47 46 45 43 41 40 38 37 37 37 37 37 37 36 36 36 35 34 32 31 29 28 26 24 23 22 21 20 20 19 18 18 18 18 17 16 15 15 16 17 16 16
36 39 41 42 43 47 49 49 49 50 51 51 52 52 53 54 54 53 52 51 50 48 47 46 44 43 41 39 37 37 37 37 37 37 36 36 35 35 34 33 32 30 28 27 25 24 22 21 21 21 19 19 18 18 19 19 18 17 16 17 18 18 17
37 40 42 42 45 48 48 47 48 51 52 52 52 53 54 55 55 55 54 52 51 49 48 47 46 44 42 40 39 38 36 36 37 37 37 36 35 34 34 34 33 31 29 28 26 25 24 22 22 21 21 21 20 19 19 20 20 19 18 18 18 19 18
39 42 44 46 48 49 46 47 49 50 51 53 54 55 55 55 54 54 54 52 51 50 49 48 46 45 43 41 40 39 37 36 36 37 37 36 34 34 34 34 33 32 30 28 27 26 25 24 23 22 22 22 22 21 21 21 21 21 20 19 19 19 19
38 41 43 45 47 46 44 46 48 49 50 52 53 54 54 54 53 53 53 53 51 49 48 47 46 45 44 43 41 39 38 37 36 36 36 35 34 33 33 33 33 32 31 29 28 27 26 25 24 23 22 22 22 22 22 23 23 22 21 21 21 20 20
35 38 41 45 46 45 45 48 50 51 52 52 52 52 52 52 52 53 53 53 52 50 47 47 46 45 45 44 43 41 39 38 37 36 36 36 35 34 33 32 32 32 31 30 29 28 28 26 25 23 22 21 21 22 23 24 24 23 23 22 22 22 22
35 37 42 46 47 47 48 50 51 52 52 51 49 49 49 50 52 52 53 52 53 51 49 48 47 46 45 44 43 42 41 39 37 36 36 36 36 35 34 32 32 31 31 30 30 29 29 28 26 25 23 22 21 21 23 24 24 24 24 24 23 23 23
37 38 43 46 48 50 50 51 52 52 50 48 47 48 49 51 52 52 52 53 52 52 51 50 48 47 46 44 44 43 41 39 37 36 36 36 37 36 35 34 33 32 31 31 31 30 30 29 27 26 25 24 22 22 23 24 24 23 24 24 24 23 23
39 40 44 46 48 50 51 51 51 50 49 48 50 51 51 51 52 52 53 52 52 52 52 50 48 47 46 45 44 43 41 40 38 37 36 36 37 36 36 36 35 34 33 32 32 31 30 30 29 28 28 27 25 24 24 24 24 24 24 24 24 24 23
38 40 43 44 45 47 47 46 45 46 47 48 50 51 51 51 52 52 52 52 52 52 51 50 49 48 47 46 45 44 43 42 40 38 37 36 36 35 35 35 35 35 35 34 34 32 31 31 31 30 30 29 27 26 26 26 25 25 25 25 25 25 24
36 39 42 43 44 44 42 41 42 45 48 49 51 51 51 52 52 52 53 53 52 52 51 50 49 48 48 47 46 45 44 43 42 40 38 37 35 34 33 34 34 34 34 34 34 34 32 32 32 32 31 30 29 28 28 28 27 27 27 26 26 26 26
36 37 39 42 43 42 41 42 45 48 50 50 52 52 52 52 52 52 52 52 52 51 50 50 49 49 49 48 47 47 45 44 43 41 39 38 36 34 33 33 33 33 33 33 34 34 34 33 32 32 31 31 30 29 29 28 28 29 28 27 26 26 26
37 39 42 43 42 42 42 44 46 49 51 52 52 53 52 52 52 52 52 52 51 51 50 50 50 49 49 48 48 47 46 45 43 41 40 38 36 34 33 33 33 33 33 32 33 33 34 34 33 32 31 31 30 30 30 29 30 30 29 29 28 27 27
35 40 43 42 41 41 43 45 48 49 51 52 52 52 51 50 51 51 51 51 50 50 49 49 49 49 49 48 48 48 47 45 43 41 40 37 35 34 33 33 33 33 32 32 33 33 34 34 34 33 32 32 31 31 31 31 31 31 31 30 29 28 28
34 38 41 41 41 43 45 46 48 49 51 52 52 51 50 49 49 49 48 49 49 49 49 49 49 49 48 49 49 47 46 44 43 42 40 39 37 35 34 33 32 32 32 32 33 34 34 34 34 33 33 33 32 32 32 33 33 32 32 31 30 29 28
35 37 39 41 43 46 48 48 49 50 51 51 51 51 50 49 49 49 49 49 48 48 48 48 48 48 48 49 48 47 45 44 43 43 42 40 38 36 35 33 32 32 32 33 34 34 34 35 35 35 35 34 34 34 34 34 34 33 33 32 31 30 29
32 35 38 41 44 47 48 49 48 49 49 51 52 52 51 50 50 49 49 48 48 48 47 47 47 47 48 48 47 46 46 45 44 43 42 41 39 37 36 34 33 32 32 32 33 34 34 35 36 36 36 35 35 35 35 35 34 33 33 32 32 31 31
29 33 37 41 44 46 48 47 46 47 49 51 52 52 52 50 49 48 48 48 48 47 46 46 46 46 46 46 46 46 46 45 44 44 43 41 40 38 36 35 34 33 32 31 32 32 34 35 36 36 36 36 36 37 37 36 35 34 34 33 33 32 32
26 32 38 42 44 46 47 46 47 48 50 51 52 53 52 51 50 50 50 49 47 46 45 45 45 45 45 45 45 45 45 45 44 44 43 41 40 38 37 36 36 35 33 32 31 31 33 34 35 36 36 36 37 37 37 37 36 35 35 34 34 33 33
23 28 34 38 43 45 47 47 47 48 49 50 51 52 51 50 50 49 47 46 45 44 44 44 43 43 43 43 44 44 44 43 43 43 41 40 39 38 37 37 36 35 34 33 32 32 33 33 34 35 35 36 37 37 37 37 36 35 35 35 34 34 34
20 25 30 34 38 42 44 45 46 46 47 48 49 49 48 47 46 45 44 44 44 43 43 43 43 42 42 42 42 43 43 43 42 41 40 39 39 38 38 37 36 35 34 34 34 33 33 32 33 33 34 34 35 36 37 37 36 35 35 35 34 35 35
16 23 28 33 37 40 43 44 45 46 46 46 47 47 46 45 44 44 43 43 43 43 42 42 42 42 41 41 41 42 42 42 41 40 39 39 39 39 38 37 36 35 34 34 34 34 33 33 33 33 33 33 34 35 36 36 35 35 35 34 34 34 35
10 18 24 29 33 36 39 41 42 43 44 44 45 46 44 43 43 42 41 41 41 41 41 41 41 41 40 40 40 40 40 40 39 38 38 38 39 39 38 36 35 33 33 34 34 34 33 34 33 33 32 33 33 34 35 34 33 33 33 33 33 34 35
8 15 20 24 28 31 34 36 37 38 40 41 42 42 42 42 41 40 40 40 40 40 40 40 40 40 39 38 38 37 37 37 36 36 35 36 37 36 34 33 32 31 31 32 32 31 31 31 31 31 31 32 33 33 33 33 32 31 32 31 31 33 34
10 15 19 21 24 27 30 31 32 34 35 37 38 39 39 39 39 38 38 38 37 38 39 39 38 36 36 34 33 33 33 33 34 33 34 34 33 31 31 30 29 28 29 31 30 29 28 28 29 29 29 29 29 30 31 31 29 28 29 29 29 31 32
14 16 20 21 22 24 25 27 29 30 32 33 35 35 36 36 35 35 36 35 35 36 37 35 33 31 30 29 29 30 31 32 32 33 33 32 30 29 28 28 28 28 30 31 30 28 28 29 29 29 27 27 27 27 28 28 26 24 24 24 25 27 28
18 19 21 23 25 25 25 26 27 28 29 29 30 31 31 32 32 33 33 33 33 33 32 31 28 27 27 28 29 30 31 31 32 32 32 30 29 29 29 29 29 29 30 30 29 29 29 29 30 30 28 27 27 27 27 27 24 22 21 22 23 23 25
22 22 22 24 26 27 28 28 27 27 27 27 27 28 28 29 30 30 30 30 30 29 29 28 27 26 26 27 29 30 31 31 32 32 32 31 31 31 31 30 30 31 31 31 31 31 30 30 30 31 29 28 28 28 27 26 25 23 22 22 22 21 22
26 26 25 26 27 28 29 30 29 27 27 26 26 27 27 28 28 28 28 28 28 28 28 28 28 27 27 28 29 30 31 32 32 32 32 32 32 33 32 31 31 32 32 33 33 33 32 31 31 32 31 30 29 28 27 26 25 23 22 22 21 21 21
27 27 27 27 28 28 30 31 30 28 26 25 25 27 27 27 28 28 29 29 28 28 29 29 29 29 29 29 29 30 31 32 32 33 32 31 32 33 33 32 33 33 34 34 35 35 34 33 33 33 33 31 30 28 26 25 23 23 22 21 21 20 20
25 25 25 25 25 25 27 29 30 29 28 27 26 27 27 28 29 30 30 29 28 27 27 27 27 26 26 26 27 27 28 28 29 30 30 30 31 32 32 32 33 34 34 35 35 36 35 34 34 34 33 32 30 28 26 24 23 22 21 21 21 20 20
22 21 21 21 20 20 21 24 26 27 27 27 26 27 28 28 28 29 28 28 27 26 25 24 24 23 23 23 22 22 22 22 23 24 25 26 29 30 30 30 31 32 32 33 34 35 35 34 33 33 33 32 31 28 26 24 23 22 21 21 20 19 18
20 19 19 19 18 16 16 18 21 22 23 22 22 23 25 26 27 27 26 26 25 24 24 23 22 22 22 23 23 22 22 22 22 22 23 24 26 28 29 30 31 31 31 31 31 32 32 32 31 31 31 29 28 26 25 24 23 21 20 19 18 17 16
18 17 18 17 17 16 15 16 18 19 19 18 17 16 18 21 23 23 23 23 23 23 23 23 23 22 22 22 22 22 22 22 21 21 22 24 26 28 30 31 31 31 29 28 27 27 27 27 26 25 24 23 22 22 22 22 21 20 17 16 15 15 15
17 16 16 16 16 16 16 17 17 18 18 17 15 13 14 15 16 16 17 17 18 19 20 21 21 21 21 21 21 20 21 21 21 21 22 24 26 27 29 30 30 29 28 26 24 23 23 22 20 18 17 17 17 17 17 17 16 14 13 13 13 14 16
17 16 15 14 14 14 15 15 16 16 17 17 15 13 13 13 13 12 12 11 12 13 15 17 17 18 18 18 18 19 20 20 20 20 21 22 23 25 27 28 28 27 26 24 22 20 19 17 15 13 12 13 13 13 13 13 12 11 12 13 14 15 16
16 17 16 14 13 13 13 13 14 14 15 16 16 15 15 14 13 11 10 10 10 10 11 12 14 14 14 14 15 16 17 17 17 17 18 19 19 20 22 24 25 25 24 21 20 18 15 14 12 11 11 11 12 13 13 14 14 14 14 15 16 17 17
14 15 16 15 14 13 13 13 13 14 14 15 15 15 15 15 14 12 10 9 9 9 9 10 11 12 13 13 13 13 13 14 14 13 14 15 15 16 17 19 20 21 21 20 18 15 14 13 13 13 13 14 15 15 15 14 15 15 16 16 17 18 18

ECMWFFLT1_850_spd_051.txt.gz
Wind_Speed
29 30 31 31 35 39 43 46 48 48 49 50 50 49 48 48 49 49 48 46 45 44 43 41 40 39 37 35 34 33 32 32 32 31 31 31 32 31 30 29 29 28 26 24 23 22 21 20 19 19 18 18 17 16 15 14 13 12 12 13 13 13 13
27 29 31 32 35 41 44 45 47 49 49 50 50 49 49 50 50 49 48 47 45 44 43 42 41 40 38 36 34 33 33 32 32 32 31 31 31 31 30 29 29 28 27 26 24 23 21 20 19 19 18 18 18 17 16 15 14 14 13 13 14 14 14
27 29 31 34 37 42 45 45 47 50 50 50 51 51 52 52 50 48 47 46 46 45 44 43 42 41 39 37 36 34 33 32 33 33 32 32 31 31 30 30 29 28 27 27 25 24 22 21 20 19 18 18 18 17 17 16 15 15 15 14 15 15 15
29 32 33 36 40 44 46 47 49 50 50 51 52 53 53 52 49 47 46 45 45 46 45 44 43 41 40 38 37 36 34 33 32 33 33 33 32 31 31 30 30 29 29 28 27 25 24 22 21 20 19 19 19 18 17 17 16 16 16 16 16 16 16
31 33 32 34 38 40 44 48 49 50 50 49 50 52 52 51 49 47 47 46 46 45 44 43 43 41 40 39 38 37 36 34 32 32 32 33 33 32 31 31 30 30 29 29 28 27 25 24 22 22 21 20 19 19 19 18 18 17 17 17 18 18 18
29 30 32 35 36 38 43 48 49 50 51 49 49 52 52 51 49 49 48 48 47 46 45 44 43 42 41 39 38 38 36 35 34 32 32 32 33 32 31 31 30 29 29 29 29 28 26 25 24 23 21 20 20 20 20 20 19 19 19 19 20 20 19
28 32 37 40 38 38 43 48 49 50 52 48 46 48 50 50 50 50 49 49 49 48 47 47 46 44 42 40 39 38 37 36 35 33 32 31 31 32 32 31 30 29 28 28 28 28 27 26 25 23 22 21 21 20 20 20 20 20 21 21 22 21 21
30 36 41 42 41 40 42 47 48 47 48 45 43 46 51 50 50 51 51 51 50 49 49 48 47 46 44 42 41 39 37 36 36 34 33 32 31 31 31 31 30 29 28 28 28 28 27 27 25 24 23 23 22 22 21 20 20 21 21 22 23 23 22
31 38 42 42 42 40 41 47 47 44 45 48 48 50 52 51 51 53 53 52 52 51 50 48 47 47 45 44 42 38 37 36 36 35 34 33 32 31 31 31 30 29 28 27 27 27 27 27 26 26 25 25 24 23 22 21 21 21 22 23 23 23 23
28 36 41 40 39 38 38 41 42 41 45 50 51 51 51 51 53 53 53 53 53 52 51 49 48 48 46 44 42 40 38 37 35 35 35 34 33 32 31 31 31 31 29 28 27 27 27 27 27 27 27 27 26 25 24 23 22 21 22 22 23 23 23
21 30 36 36 36 35 34 37 41 44 47 50 51 51 51 52 54 53 54 54 53 52 51 50 49 48 46 44 43 42 41 38 36 36 36 35 34 33 31 31 31 31 31 30 29 28 28 27 28 28 29 29 28 27 26 26 24 23 23 22 23 23 23
17 23 29 33 36 37 36 39 44 47 47 49 50 51 52 53 54 54 54 54 53 52 52 51 50 48 46 45 44 45 43 40 39 38 36 35 34 33 32 31 31 31 31 31 31 30 30 29 29 30 30 29 29 28 28 27 27 26 24 24 24 24 23
18 21 26 29 32 35 37 39 42 45 47 48 51 53 53 54 54 54 54 54 53 52 52 51 50 49 47 45 46 46 44 42 40 38 37 35 34 33 32 32 31 30 30 30 31 31 31 31 32 32 31 30 30 29 29 29 28 28 27 26 26 25 25
17 19 24 28 30 32 35 38 41 44 46 48 51 53 53 53 53 53 54 54 53 52 52 51 51 49 47 46 47 46 45 43 40 38 36 35 34 34 33 32 31 30 29 29 30 31 31 32 33 33 32 31 31 30 29 29 29 29 28 28 27 27 26
17 16 19 25 31 34 37 40 42 44 47 49 51 53 53 53 52 52 53 53 52 51 52 52 51 49 47 47 47 46 44 43 41 38 37 36 35 34 33 32 31 30 29 29 29 29 30 30 31 31 31 31 31 31 30 30 30 30 30 29 28 28 27
19 21 19 21 28 34 38 41 44 46 48 49 51 53 54 54 54 54 54 52 51 51 51 51 50 48 48 47 47 45 44 42 41 38 38 37 36 35 34 33 32 31 30 29 29 29 29 29 29 29 30 30 31 31 31 31 31 31 30 29 28 28 28
18 24 27 26 28 33 37 41 44 46 47 49 51 53 55 55 55 55 53 52 52 52 51 51 50 48 48 47 46 45 43 42 41 39 38 38 37 36 35 34 33 32 32 31 30 30 30 30 30 30 30 31 31 32 33 33 32 31 30 29 29 28 28
18 22 28 31 31 33 37 42 45 47 48 49 51 52 54 55 55 54 53 52 53 52 51 50 49 48 48 47 46 44 42 41 41 41 40 39 38 37 36 35 34 34 33 32 32 31 31 31 31 31 31 31 32 33 34 34 33 32 31 30 29 29 28
20 22 26 31 32 32 36 41 45 47 48 50 51 52 54 54 54 55 54 54 53 52 51 50 48 47 47 47 46 43 41 41 41 40 40 39 38 37 36 36 36 35 35 34 33 33 33 33 32 32 32 33 33 34 34 35 34 32 31 31 30 29 29
21 22 24 27 30 30 33 40 44 46 48 51 52 52 53 52 52 53 52 52 52 51 50 49 48 47 47 47 45 43 41 41 40 40 39 38 37 37 36 36 36 36 35 34 34 34 34 33 33 33 33 33 34 35 35 35 35 33 32 31 31 30 30
21 22 21 22 25 27 32 38 43 46 49 50 49 49 51 51 51 50 50 51 51 50 49 48 47 46 46 46 44 42 41 40 39 38 38 37 37 36 37 37 37 36 35 35 35 35 33 33 33 33 33 33 34 35 36 36 35 34 33 32 32 31 31
21 22 21 20 22 26 31 36 42 46 48 48 46 47 50 51 50 50 50 50 49 48 48 47 45 45 45 44 43 41 40 39 37 37 36 35 36 36 36 37 36 35 35 35 35 35 34 33 33 33 33 32 33 34 35 36 35 34 33 32 32 31 31
20 21 20 18 21 25 29 34 38 42 43 43 44 47 49 49 50 49 47 46 46 46 47 46 44 44 43 43 42 41 39 38 36 35 34 34 35 35 35 35 35 34 34 35 35 35 35 34 33 33 32 32 33 33 34 34 34 34 33 32 31 31 31
17 17 17 16 18 22 27 32 35 38 39 40 42 44 46 48 49 48 46 46 46 45 45 45 44 43 42 42 41 40 39 38 36 34 34 34 34 34 34 35 34 34 34 35 35 35 34 33 32 32 33 33 33 33 33 33 33 33 32 31 31 30 31
15 13 11 11 14 20 25 29 32 34 35 37 40 42 45 47 48 48 47 46 45 44 44 44 43 41 40 39 39 39 38 36 35 34 33 34 33 33 33 32 32 32 33 33 33 33 33 32 32 33 32 32 31 31 31 31 31 32 31 30 30 30 31
13 10 7 8 14 19 23 26 30 33 34 36 39 41 44 46 46 46 46 45 44 44 43 41 39 37 36 36 36 35 34 33 33 33 33 32 31 30 29 29 28 30 31 31 31 31 31 32 32 32 31 30 30 30 30 29 29 29 29 28 27 28 29
10 8 4 7 14 18 21 25 28 31 33 34 35 39 43 45 45 44 44 44 44 42 40 37 35 34 34 34 33 33 32 32 31 31 30 29 27 27 27 27 28 29 30 30 30 30 31 31 31 31 30 30 29 29 29 27 26 25 24 23 24 24 25
9 8 3 5 13 18 22 25 26 28 30 31 33 37 40 42 42 43 43 43 41 39 36 34 33 32 31 31 32 32 31 30 29 28 27 26 26 27 28 27 28 29 29 29 30 30 30 30 30 30 29 29 29 29 28 26 24 23 22 22 22 22 23
11 10 8 4 10 17 22 26 27 29 30 31 33 36 38 39 40 41 41 40 37 34 33 30 29 29 29 29 30 30 28 27 26 25 25 25 26 27 27 27 28 28 28 28 29 30 30 29 29 30 29 29 30 29 27 25 22 21 21 21 21 21 23
16 14 12 9 8 12 18 24 28 30 32 33 34 35 36 37 38 38 38 36 33 30 29 27 26 27 27 27 27 26 25 25 24 24 25 25 25 26 26 27 28 28 28 29 29 30 30 30 30 30 30 30 29 28 25 23 21 20 20 20 21 21 23
20 20 18 15 11 11 12 17 23 27 31 33 34 34 35 35 35 36 36 33 30 28 27 26 26 26 26 26 26 25 25 24 24 24 24 24 25 26 26 26 28 28 29 29 29 30 31 31 31 30 29 28 28 27 24 23 22 21 20 20 20 21 22
22 22 22 20 18 15 13 13 17 22 27 30 32 33 35 35 34 34 34 32 29 28 27 27 26 26 26 27 26 25 25 24 24 24 23 24 25 25 24 25 27 28 28 29 29 30 30 30 30 29 27 27 27 26 24 23 23 22 21 20 20 20 21
22 23 23 21 19 19 19 18 17 17 21 25 27 30 33 34 33 32 31 31 30 29 28 28 27 26 26 26 25 25 25 26 26 25 25 25 26 25 25 26 27 29 30 30 30 31 30 29 28 27 27 26 25 24 23 24 24 23 22 21 21 20 20
22 21 22 22 20 19 20 21 20 19 19 20 20 23 27 29 30 30 30 30 29 28 28 29 28 27 26 26 25 25 25 25 25 26 27 27 28 28 28 28 29 30 30 29 29 30 29 27 26 26 26 25 23 23 23 24 23 21 19 18 18 18 18
22 21 22 22 21 20 20 20 19 19 20 19 18 20 21 23 25 26 26 27 26 26 27 27 26 26 25 25 25 25 24 23 24 25 27 29 30 30 30 30 30 29 29 28 28 28 28 27 26 25 24 22 22 22 22 23 21 18 15 14 14 14 15
23 21 21 20 20 20 21 20 19 18 18 17 17 18 19 20 21 22 23 24 24 24 25 25 25 25 25 25 26 26 25 25 25 26 28 29 31 31 31 30 30 29 29 28 27 26 26 26 25 23 22 21 21 20 19 19 18 15 13 13 14 14 15
22 20 19 20 19 20 20 19 18 18 17 16 15 15 16 16 17 18 19 21 22 23 23 25 26 27 27 28 28 27 27 28 29 29 29 30 30 32 32 31 30 29 28 27 26 25 25 24 23 21 19 19 18 16 15 16 15 15 14 14 14 15 15
22 19 19 19 19 19 19 19 18 17 16 14 13 13 13 14 14 14 15 15 17 20 21 23 25 26 27 28 28 28 28 29 30 30 31 31 31 31 31 31 30 29 28 27 26 25 24 23 21 19 17 17 16 15 14 14 14 14 15 15 15 15 15

ECMWFFLT1_850_spd_054.txt.gz
Wind_Speed
23 24 26 26 28 30 32 34 35 36 37 38 38 39 38 37 37 37 40 43 44 42 41 41 40 40 39 37 36 35 34 33 33 33 32 33 32 32 31 29 28 27 26 25 24 23 23 22 20 18 16 15 15 15 14 13 12 11 11 10 10 9 9
22 23 25 27 28 30 32 34 34 35 36 38 39 39 39 39 39 40 42 44 44 42 42 42 41 41 39 38 36 35 35 33 33 32 32 32 32 31 31 30 28 27 26 26 25 24 23 21 19 18 17 16 16 15 15 14 13 12 12 11 11 10 10
21 23 25 27 28 31 32 33 34 35 36 37 39 40 41 42 43 44 44 45 43 42 42 42 42 41 39 38 36 35 35 33 31 30 31 32 32 30 30 30 28 27 26 26 26 26 24 21 19 19 18 17 17 16 16 15 14 13 13 12 12 11 11
21 22 24 26 29 30 32 33 35 36 37 38 40 42 43 44 45 45 45 45 44 43 42 42 41 40 38 37 36 36 35 34 32 30 29 31 31 30 30 29 28 28 27 26 26 26 25 22 20 20 19 18 18 17 16 16 15 14 14 13 13 12 12
26 24 23 25 28 29 30 33 35 36 37 37 39 41 42 43 43 43 45 45 44 43 43 42 41 40 39 38 37 36 35 34 33 31 29 30 31 31 30 30 29 28 28 27 27 27 26 24 22 21 20 19 19 18 17 17 16 15 15 14 14 13 13
28 28 26 25 26 28 30 33 35 37 37 37 38 39 40 41 42 43 44 45 44 43 42 42 42 41 40 39 38 37 36 34 34 33 30 31 32 32 31 30 29 29 28 28 27 27 26 25 24 23 22 21 20 19 19 18 18 17 16 15 15 15 14
25 26 27 27 26 28 31 33 35 36 36 36 36 36 37 39 41 41 41 42 43 43 43 42 42 42 42 41 39 39 37 36 34 33 32 31 32 32 32 32 31 30 29 28 28 28 27 26 25 25 23 22 21 21 20 20 19 19 18 17 16 17 16
23 24 26 27 27 28 30 33 34 35 35 34 34 35 36 38 38 39 40 41 41 41 42 42 43 43 42 41 41 40 39 37 35 34 33 32 32 32 33 33 32 31 30 29 29 29 28 27 26 26 25 24 23 22 22 22 21 19 19 19 18 18 18
22 23 24 25 27 28 29 31 33 33 33 34 35 37 38 38 38 40 41 40 40 41 42 41 41 43 43 42 41 40 39 38 37 35 34 33 32 32 32 32 32 32 31 30 29 29 28 27 27 27 27 25 25 24 23 23 22 20 21 21 20 20 20
23 24 25 26 26 27 27 28 28 30 32 35 36 37 37 38 38 39 39 38 39 41 42 41 40 41 43 43 41 40 39 38 37 36 35 34 33 32 31 30 30 32 32 30 29 29 28 28 28 28 28 28 27 26 25 24 23 22 22 22 21 21 21
18 21 23 23 23 24 24 24 27 31 34 36 37 37 37 38 38 38 38 39 40 40 40 40 39 39 42 43 41 41 40 39 38 37 36 34 34 33 31 29 29 30 31 31 29 29 29 29 29 29 29 29 29 28 27 26 25 24 23 22 22 22 22
8 12 14 15 17 19 21 23 27 32 35 37 38 37 38 39 39 38 39 40 39 38 38 39 39 38 40 42 42 42 41 40 39 38 36 35 34 32 31 30 28 29 30 30 30 29 29 29 30 30 30 30 30 29 29 27 26 26 25 24 23 23 22
5 8 10 11 14 17 20 23 26 30 34 36 36 36 37 39 39 38 38 39 38 37 38 38 38 38 40 41 41 41 41 40 40 40 38 36 34 33 31 30 29 28 29 30 30 30 30 30 30 30 30 31 31 30 29 28 28 28 27 26 25 25 24
4 6 9 12 15 18 22 24 26 29 33 35 34 34 34 35 36 36 37 38 38 37 37 38 39 40 41 42 41 41 41 40 40 40 39 38 36 34 33 32 31 29 29 30 31 30 30 31 31 30 30 31 31 31 30 30 30 29 29 28 27 27 26
4 3 6 10 16 20 23 26 28 31 34 35 34 34 33 33 33 34 35 36 37 36 36 37 39 39 41 42 43 43 41 40 40 40 40 39 38 36 35 34 34 32 31 32 31 30 30 31 31 31 31 32 32 31 31 31 31 31 31 30 29 29 28
9 7 4 4 10 17 22 26 28 32 34 35 34 35 34 33 34 35 36 36 37 37 37 38 39 40 41 43 45 44 42 41 41 41 41 40 39 37 36 36 35 34 34 33 31 30 30 30 31 31 32 33 33 32 32 32 33 33 32 30 30 29 29
14 12 10 8 6 10 16 22 26 30 33 36 37 37 36 36 36 37 36 36 37 39 38 39 41 43 45 45 45 44 43 42 41 41 41 41 40 38 37 36 36 35 34 33 31 30 30 30 31 31 31 32 33 33 33 34 34 34 32 30 29 29 29
18 16 15 13 11 10 12 17 22 27 32 36 38 38 38 38 37 37 36 37 38 39 38 39 41 44 46 44 43 44 44 43 42 41 41 41 40 39 37 36 36 35 34 33 31 31 30 30 31 31 30 30 31 32 33 34 34 34 32 30 29 29 29
20 20 19 18 16 15 15 16 19 25 31 35 37 39 40 40 39 40 40 40 39 38 38 39 39 41 43 43 43 45 44 43 42 42 42 42 41 39 38 37 37 36 35 34 32 32 32 32 32 32 32 31 32 32 32 32 33 33 32 30 29 29 29
21 22 23 22 20 19 18 18 19 23 28 33 35 38 40 40 40 40 38 36 36 37 38 37 37 38 42 44 44 44 43 42 42 42 42 42 41 40 39 38 37 37 35 34 34 34 34 34 33 33 33 33 33 33 32 32 33 33 32 30 30 29 29
22 24 25 24 23 22 22 21 22 23 27 31 34 35 36 36 36 35 34 34 36 37 38 38 36 37 40 44 45 44 42 41 42 42 42 42 42 41 40 39 38 37 37 36 35 35 35 35 34 34 34 34 34 34 34 34 34 34 33 31 30 30 29
24 26 27 26 26 26 25 24 24 25 26 30 31 32 34 36 36 35 34 35 35 36 37 37 37 37 39 43 44 42 41 41 41 42 42 42 42 42 41 40 39 39 38 37 36 36 36 35 35 35 34 34 34 34 35 35 35 35 34 32 31 30 30
24 27 27 27 27 28 27 26 25 24 25 27 29 31 33 35 35 35 34 33 34 35 36 37 38 40 42 44 43 41 40 40 41 42 42 42 42 42 42 41 40 39 38 37 37 36 36 36 35 34 34 34 34 35 35 35 36 36 35 33 33 32 31
22 25 27 27 27 27 27 24 22 22 23 26 30 32 33 33 33 34 35 34 34 35 36 37 41 44 44 43 41 40 40 40 40 40 40 41 42 42 42 41 40 39 38 37 37 36 35 34 34 34 34 34 34 34 35 35 35 36 35 34 34 33 32
22 24 27 26 25 25 24 20 18 19 22 26 30 32 33 34 34 35 35 35 35 35 37 39 42 43 42 41 40 39 39 38 37 37 38 40 41 41 41 40 39 38 37 36 35 34 34 33 33 33 33 34 34 33 34 33 33 35 35 34 34 33 32
24 25 26 24 23 23 20 17 15 17 21 25 29 31 33 34 35 35 37 36 35 35 37 40 41 40 40 40 40 38 35 34 34 35 36 38 39 40 40 39 38 37 36 35 34 34 34 33 33 33 33 33 32 33 33 32 32 33 34 34 33 32 32
21 23 23 21 21 19 16 13 14 17 20 25 28 30 32 34 35 35 37 37 36 37 38 39 39 39 39 39 39 36 34 33 33 33 35 36 36 37 37 37 36 36 35 34 33 33 33 33 32 31 31 31 31 31 31 32 32 32 33 34 33 32 32
18 18 17 16 16 14 11 10 14 17 19 23 28 31 32 34 36 37 38 39 40 39 37 35 36 37 37 38 38 36 34 33 33 33 34 34 34 35 35 35 35 35 34 33 32 31 33 33 31 29 28 28 28 28 30 31 31 32 32 32 32 31 31
16 15 13 12 11 10 7 6 10 16 19 22 27 30 31 33 36 39 40 41 41 37 34 34 35 35 35 37 37 36 34 33 33 33 33 33 33 32 33 34 34 34 34 33 31 30 29 28 27 26 25 25 25 25 26 27 27 29 31 31 30 29 29
16 13 10 8 8 7 3 3 5 11 17 22 25 27 29 32 37 40 40 40 38 34 33 34 35 34 35 36 36 36 35 34 33 32 32 32 31 31 32 33 33 33 33 31 29 27 25 22 19 20 22 23 23 22 22 21 21 24 27 28 27 26 25
16 14 10 7 6 4 2 3 5 6 10 17 22 23 25 29 34 38 38 37 37 35 33 34 35 34 34 36 35 35 35 33 31 30 29 29 30 30 31 31 32 33 31 26 23 22 23 21 19 19 20 21 21 21 21 21 21 20 22 24 25 23 22
17 14 12 11 9 7 5 3 6 6 8 12 15 18 20 23 28 34 36 34 34 34 34 33 34 34 34 34 34 34 32 31 29 27 27 27 28 28 29 29 30 31 29 25 23 22 21 21 21 21 20 20 20 20 20 21 21 18 18 20 21 20 19
17 13 13 14 12 10 10 8 6 6 8 11 11 12 14 16 19 26 32 33 32 32 33 33 33 33 32 32 31 30 30 30 28 26 26 27 27 27 27 28 29 28 28 27 26 24 22 21 21 22 21 20 20 20 20 21 21 19 17 17 18 18 17
18 13 13 15 15 14 14 12 8 7 8 8 9 10 12 14 16 19 25 29 28 29 32 33 32 30 29 29 30 30 30 30 29 27 25 25 25 25 24 26 27 27 27 28 27 25 23 22 22 22 22 21 20 20 20 21 20 19 17 16 16 15 14
19 13 15 17 17 17 17 15 12 9 8 7 6 7 10 15 17 18 22 26 26 27 30 33 32 30 29 30 30 29 30 30 28 26 24 22 24 27 27 26 27 26 25 26 27 26 25 24 23 23 21 19 20 21 21 20 19 19 19 18 17 15 13
22 16 17 18 17 19 19 18 16 14 12 10 8 7 7 10 12 15 20 23 24 26 29 31 31 29 28 29 27 24 25 27 26 25 24 22 24 30 31 30 29 27 25 26 27 27 27 26 25 24 21 20 22 23 21 20 19 19 19 17 16 15 16
27 21 20 20 19 21 22 21 19 18 17 14 12 10 8 8 8 9 13 16 18 21 23 26 30 29 26 27 28 24 22 22 22 24 24 23 25 30 31 31 31 28 27 27 27 26 26 27 27 26 24 22 24 23 21 20 19 18 18 16 15 15 17
29 25 23 24 23 22 22 22 20 19 19 18 16 14 13 12 11 10 9 10 12 15 16 18 24 26 22 22 26 27 24 21 20 21 22 24 28 31 30 30 31 30 29 29 28 26 25 25 26 26 25 24 23 22 21 21 19 18 18 18 17 17 18

ECMWFFLT1_850_spd_057.txt.gz
Wind_Speed
30 31 33 33 31 32 33 36 36 36 37 38 38 38 37 37 37 37 37 39 42 43 43 43 43 43 43 42 41 39 38 37 36 35 34 33 31 28 27 26 25 24 22 21 21 21 20 19 18 17 17 16 15 14 13 12 12 11 10 10 10 10 9
29 28 31 34 33 32 32 33 33 34 36 37 38 39 38 38 38 38 37 39 42 43 43 43 42 43 43 42 41 40 39 38 36 35 34 34 33 31 29 27 26 26 25 22 19 20 20 20 20 19 18 16 15 15 14 13 13 12 11 11 10 10 9
28 28 30 34 33 32 32 33 33 34 35 36 37 38 39 39 40 40 39 40 42 43 43 43 42 42 42 42 41 40 39 38 37 36 35 34 34 32 30 29 28 26 26 24 21 19 20 21 21 21 19 17 16 16 16 15 14 14 13 12 11 10 10
26 27 29 33 33 32 34 35 35 34 35 36 37 39 40 41 41 41 40 40 42 43 43 43 43 42 42 41 41 41 40 39 38 37 36 33 33 32 30 30 30 28 26 26 24 21 20 21 22 21 20 19 19 18 17 16 15 15 14 13 12 11 11
24 25 26 30 31 30 31 33 33 33 34 35 37 39 40 41 41 40 40 39 40 42 42 42 42 42 42 42 41 41 40 40 39 38 36 33 31 31 30 30 30 29 26 25 25 24 23 23 23 22 21 21 20 19 18 18 17 16 15 15 14 13 12
25 25 25 28 31 29 28 29 30 32 33 35 36 37 38 39 39 39 39 39 38 38 39 40 41 42 43 42 41 41 41 40 40 38 37 35 33 31 31 30 29 28 26 25 25 25 25 26 24 23 23 22 21 20 19 19 18 18 17 16 15 15 13
27 26 25 26 29 29 28 29 30 30 31 33 34 36 36 37 39 39 39 38 38 38 38 39 41 41 43 43 42 42 42 42 41 39 37 36 35 33 31 31 30 28 27 25 24 25 26 28 26 24 24 23 22 21 20 20 20 19 19 18 17 16 15
29 28 27 26 28 29 27 29 31 31 32 31 32 34 35 36 38 38 38 38 38 38 38 39 39 40 43 43 43 44 43 42 42 40 38 36 35 34 33 33 32 30 27 25 25 25 26 28 28 26 26 24 23 22 21 21 21 21 20 20 18 18 17
28 29 29 28 28 29 28 29 31 33 35 33 32 34 35 36 37 38 39 38 38 39 39 38 38 39 42 43 43 44 43 42 42 40 39 37 35 34 33 32 32 31 29 27 26 26 26 27 28 28 28 26 24 24 23 23 23 22 21 21 20 19 18
23 25 27 28 28 30 32 32 31 33 36 34 33 34 35 36 36 37 38 38 38 39 39 38 37 37 40 43 43 43 42 42 41 39 38 36 34 33 32 30 30 31 31 29 27 26 27 27 26 27 29 29 27 27 26 25 25 24 22 22 21 21 20
22 23 23 25 26 29 33 33 31 33 35 35 34 34 35 36 36 36 37 38 39 39 38 38 37 37 38 41 42 42 42 42 40 38 38 37 34 33 32 30 29 30 31 31 29 27 27 28 27 28 30 31 30 29 28 27 27 25 24 24 23 23 22
13 21 24 25 25 26 28 31 32 33 34 36 35 34 35 36 36 36 37 38 38 37 38 38 37 37 37 38 39 41 43 42 40 39 38 38 35 33 32 31 30 29 30 31 30 28 27 28 29 30 31 32 31 31 31 29 28 27 26 24 23 23 23
5 4 13 19 19 19 22 28 31 31 32 36 35 33 35 36 36 35 36 37 37 36 37 38 38 38 38 37 38 40 42 43 42 40 38 38 36 33 32 32 31 30 30 30 30 30 28 28 29 31 32 33 32 32 32 31 29 29 28 26 24 23 23
5 2 5 9 9 10 13 21 27 29 31 33 33 32 33 33 34 34 34 35 35 35 36 38 39 40 39 38 38 40 43 43 42 42 39 38 37 34 32 32 31 30 29 28 29 30 30 29 29 31 33 33 33 32 32 32 31 30 30 29 27 24 23
5 2 3 7 7 8 11 16 21 26 29 31 31 31 32 31 32 33 32 33 34 34 35 37 39 40 40 40 40 42 43 42 41 43 41 38 38 36 34 33 32 32 30 30 29 29 30 29 28 29 32 33 33 32 32 32 32 32 32 31 30 27 25
10 10 7 4 3 1 7 12 17 21 25 28 29 29 30 30 32 33 33 34 34 34 35 36 38 40 40 41 42 42 42 41 40 42 42 40 39 39 37 34 33 33 33 32 31 30 30 30 29 28 30 31 32 33 33 33 33 34 33 32 31 30 27
12 12 11 11 12 10 7 5 11 17 20 24 26 28 29 30 31 33 33 33 34 35 35 36 38 40 40 41 41 40 40 42 42 42 42 42 41 41 39 36 34 35 35 33 32 32 32 31 31 29 28 29 31 32 33 34 33 34 34 33 31 30 29
11 10 11 12 12 13 13 9 6 12 17 21 24 26 28 29 30 31 32 33 34 35 35 35 37 39 39 38 38 40 42 43 44 44 44 43 44 43 41 39 37 36 36 35 33 34 34 33 33 32 29 27 28 30 32 33 33 34 34 33 31 30 29
10 9 10 13 14 13 12 11 9 9 12 17 21 24 27 29 30 31 32 33 35 35 35 35 35 37 37 35 37 40 43 45 45 45 45 45 45 45 43 42 40 38 38 36 35 36 37 35 34 34 32 29 27 28 29 30 32 34 34 32 31 29 28
10 9 10 14 16 15 13 12 12 12 13 14 17 22 26 28 29 31 31 31 32 33 35 35 34 35 37 36 37 40 43 45 45 46 46 46 45 45 44 44 43 41 39 36 36 38 38 36 35 35 35 33 29 28 28 27 29 33 35 33 31 29 28
11 12 13 15 17 18 18 16 15 15 15 15 16 20 25 28 29 30 29 30 31 34 35 36 35 35 37 37 37 39 42 44 45 46 46 45 45 45 45 44 44 43 40 36 36 38 39 37 34 35 36 35 32 30 28 28 28 31 33 33 31 29 28
15 16 17 17 19 21 21 19 19 18 17 17 18 19 23 27 29 30 30 31 32 34 35 36 36 36 37 38 37 39 41 43 45 46 46 46 46 45 45 44 44 44 42 37 33 34 36 37 35 35 36 36 35 33 31 30 29 30 33 33 31 28 28
17 19 19 20 21 22 21 20 21 21 20 19 19 20 22 27 30 31 31 31 32 34 35 36 37 37 39 40 39 39 40 42 44 44 44 45 46 45 44 44 43 44 44 40 34 31 33 35 35 34 35 36 37 36 34 32 32 33 35 34 32 30 28
20 20 21 21 22 23 21 20 22 23 22 21 20 21 23 26 29 32 33 32 33 34 35 37 38 38 40 40 39 39 40 39 40 42 42 43 46 45 44 44 44 44 44 43 38 32 30 31 32 32 33 35 36 38 36 34 33 35 36 36 35 32 30
24 22 20 19 20 20 19 21 24 25 24 24 22 21 23 26 29 32 34 34 34 35 37 39 40 40 41 41 39 39 39 37 38 42 43 43 45 45 44 44 44 44 44 43 41 35 30 28 29 29 30 31 33 36 36 34 33 34 36 36 36 34 32
26 25 21 19 19 18 18 21 25 26 25 24 22 21 23 26 29 33 36 36 35 37 38 40 42 41 40 39 38 38 39 39 40 42 42 43 44 43 43 43 42 42 43 43 40 36 32 29 27 28 28 28 29 31 34 35 34 35 36 36 36 35 33
24 22 19 20 20 18 18 22 24 25 24 22 20 20 22 26 30 34 37 37 36 38 39 40 39 38 37 37 37 37 38 39 39 40 40 41 41 41 41 41 40 40 42 41 37 34 32 31 29 27 27 27 27 27 30 33 34 35 36 36 36 34 32
24 19 16 17 16 14 18 22 23 23 22 20 18 19 22 26 31 35 36 37 38 38 37 36 36 36 37 37 37 36 36 37 37 38 38 39 39 40 40 39 38 38 39 37 34 32 32 32 30 28 26 26 26 26 27 28 31 32 33 34 34 32 30
24 20 18 17 15 14 19 24 23 22 20 17 17 18 21 26 31 34 36 38 38 35 32 33 35 36 36 37 36 35 35 36 36 36 36 37 38 39 39 38 37 37 38 36 32 30 29 29 29 28 26 25 25 25 25 25 26 29 30 31 30 30 29
24 22 20 19 15 14 19 23 22 20 18 16 16 17 21 25 29 33 35 36 36 32 29 32 35 35 36 36 36 35 34 35 35 35 34 35 36 37 38 38 37 36 36 36 32 29 27 27 28 28 26 25 24 24 24 24 25 27 29 29 29 29 29
26 24 21 18 15 13 18 21 20 17 16 14 15 17 20 23 27 31 34 33 32 30 29 31 33 35 35 36 35 35 34 33 33 33 32 33 35 36 36 36 35 35 35 35 33 30 27 27 27 26 26 25 24 24 23 23 24 25 27 27 26 28 29
27 24 19 17 16 13 15 16 14 13 12 10 12 17 19 21 25 29 30 29 29 29 29 30 32 33 33 33 34 34 33 32 31 31 30 31 32 34 35 35 34 34 34 33 31 30 28 27 26 25 25 25 25 24 23 23 23 24 25 25 24 24 25
29 25 20 18 17 13 11 9 8 7 8 6 7 14 18 20 23 26 27 27 28 29 29 29 31 32 31 30 31 32 31 31 30 29 29 29 29 29 32 33 32 32 33 32 30 29 28 28 27 26 26 25 24 24 23 23 23 23 24 27 26 24 24
31 27 21 18 16 12 7 6 5 3 4 5 4 8 14 18 19 22 25 27 28 28 28 29 30 30 29 28 29 29 30 29 29 28 27 27 26 25 26 29 29 30 32 32 30 29 29 28 28 28 26 25 23 23 23 24 24 24 26 28 26 25 25
32 30 23 18 16 14 6 3 5 3 3 5 4 5 10 15 17 20 23 26 28 29 29 29 29 28 26 26 26 27 28 27 27 26 24 24 26 27 27 29 29 28 28 28 28 28 28 27 27 27 25 24 23 24 24 26 27 26 27 27 25 23 24
32 29 23 18 16 16 11 5 4 5 4 4 4 5 7 10 14 18 22 24 26 28 29 28 27 26 26 25 25 25 27 26 25 25 24 24 29 32 31 31 31 29 28 28 29 30 30 28 26 26 25 25 26 27 26 26 26 26 26 27 25 23 23
31 29 23 19 18 17 13 12 9 6 6 5 6 6 5 7 11 15 19 22 25 27 28 27 26 25 26 25 23 24 25 25 24 25 25 25 29 33 33 32 32 31 30 30 29 30 31 30 28 27 27 27 29 29 27 27 27 26 26 26 26 25 24
31 31 25 21 20 17 13 14 15 12 10 9 8 8 5 7 10 12 12 15 20 24 25 25 25 25 25 23 22 23 25 24 23 25 26 25 27 31 33 33 33 32 32 32 29 28 30 31 30 29 28 28 29 28 27 27 27 27 26 25 25 25 24

ECMWFFLT1_850_spd_060.txt.gz
Wind_Speed
36 35 35 35 35 34 35 39 39 37 37 39 41 43 42 39 39 40 41 42 45 45 45 45 45 45 44 43 41 39 38 37 36 35 33 32 30 29 27 25 24 22 21 20 19 18 17 16 15 14 13 13 14 13 12 11 10 10 10 10 11 10 8
37 36 35 36 37 36 37 40 40 37 37 39 42 43 41 38 40 42 42 44 45 45 46 46 46 45 44 44 43 41 40 38 37 36 35 33 32 30 29 27 25 24 23 21 19 18 18 18 17 17 15 13 14 14 13 12 12 11 11 11 11 10 9
38 36 37 39 40 39 37 39 40 38 38 41 44 46 44 41 41 43 44 45 46 45 46 47 46 46 45 44 43 42 41 40 39 38 37 35 33 32 30 28 27 25 24 22 20 18 18 19 20 20 18 15 14 15 14 13 13 13 12 11 11 11 10
39 38 40 40 38 38 38 39 40 41 44 47 47 47 47 45 43 44 45 45 47 47 47 47 47 46 45 44 43 43 42 41 40 39 38 36 35 32 31 30 29 27 25 24 23 20 19 20 21 21 20 17 16 15 15 15 14 14 13 13 12 11 11
40 38 38 39 37 38 41 42 43 45 48 49 49 48 46 43 41 42 43 44 46 47 46 46 47 46 45 45 44 43 42 41 40 39 38 36 35 33 31 31 30 28 27 26 24 23 21 21 22 22 22 20 18 17 17 16 15 15 14 14 14 13 12
38 37 37 39 39 38 40 43 45 46 48 49 49 47 45 42 41 40 40 41 43 44 43 44 46 46 45 45 45 44 43 42 40 39 38 36 34 33 32 32 31 30 28 27 26 25 24 23 23 23 23 22 21 20 20 19 17 16 16 15 15 14 13
30 41 44 40 40 39 38 39 41 41 43 45 43 43 44 44 43 41 39 39 42 43 42 42 44 45 45 45 44 44 43 42 41 40 39 37 35 34 33 32 32 30 29 28 27 26 26 26 25 25 24 22 22 22 22 21 20 19 18 17 16 16 15
21 36 48 43 38 39 36 35 37 38 38 38 38 42 46 45 44 43 40 39 39 41 42 42 43 44 45 45 44 44 44 42 41 41 40 38 37 36 34 33 33 32 30 28 28 27 27 28 28 28 26 24 23 23 23 22 21 20 20 19 18 17 16
21 25 41 45 39 37 37 37 36 36 37 38 39 43 46 45 44 43 42 40 39 40 43 43 43 44 44 44 44 44 43 43 42 41 41 40 39 38 36 35 34 33 31 29 28 28 28 29 30 30 28 26 24 24 24 23 22 21 21 20 19 18 18
26 26 32 41 42 38 37 38 37 37 40 41 42 44 44 45 45 44 43 41 40 41 42 42 42 43 44 45 44 44 44 43 42 42 42 41 40 39 38 36 35 34 33 31 29 29 30 30 30 30 29 28 27 26 25 25 24 22 22 21 20 20 19
19 31 34 35 40 41 39 39 39 39 41 41 42 44 44 44 45 44 44 43 43 42 42 41 40 41 44 45 45 45 45 44 43 43 43 42 41 41 38 36 34 34 34 33 31 30 30 31 31 31 30 29 29 28 27 27 26 25 23 22 21 20 21
5 21 37 32 33 42 41 40 40 40 42 42 42 42 43 44 44 44 44 43 44 43 41 40 40 40 43 44 45 45 45 45 45 44 44 43 42 41 38 35 34 34 34 34 33 31 30 32 32 32 31 31 30 30 29 28 29 28 26 24 23 21 21
13 14 35 29 29 42 44 40 40 41 42 45 44 41 41 44 44 43 44 43 42 42 41 40 40 40 42 42 43 44 45 46 46 45 44 43 42 40 38 36 35 34 35 35 34 33 31 32 33 32 32 32 32 31 30 30 30 30 28 26 25 24 23
19 11 16 9 6 24 37 40 42 42 41 43 45 41 39 42 42 41 43 42 42 42 40 40 40 40 42 42 41 43 45 46 45 44 44 43 41 40 38 37 36 34 34 35 35 35 33 32 32 33 32 33 33 33 32 32 32 31 30 28 27 26 25
21 20 22 26 26 16 10 21 29 36 41 44 44 41 37 38 39 39 40 40 41 41 39 39 40 41 41 42 42 44 45 45 44 43 43 42 41 41 39 38 37 36 35 35 35 35 34 32 32 32 33 33 33 33 33 33 34 34 33 30 29 28 28
16 17 20 23 24 24 16 7 3 11 26 35 37 38 36 35 36 38 38 38 40 41 39 39 41 41 42 43 44 44 44 44 44 43 43 42 42 42 41 39 38 37 37 36 35 35 35 33 32 32 32 33 33 34 33 34 34 35 34 32 31 30 29
16 16 18 20 20 22 20 16 16 12 6 14 20 25 29 32 35 35 35 35 37 39 38 38 41 42 43 43 43 43 44 44 44 44 44 43 42 42 42 40 39 39 38 37 37 35 35 35 34 32 32 33 33 34 34 34 34 35 34 33 32 31 30
16 16 19 20 19 20 21 19 19 16 9 4 11 15 17 22 29 31 32 33 34 36 37 36 39 42 42 41 41 41 43 44 44 44 45 45 44 43 43 42 40 40 40 39 38 37 36 36 37 35 32 32 33 33 33 33 33 34 34 34 32 31 31
15 17 19 20 18 18 18 17 16 13 12 7 7 14 16 18 22 25 29 31 31 33 36 35 36 40 41 40 40 41 43 44 45 45 45 46 45 44 44 43 42 41 41 40 39 38 37 37 37 38 35 33 32 32 32 31 32 33 33 33 32 30 30
16 17 17 16 16 17 16 16 16 13 12 13 12 11 13 17 20 22 25 29 29 31 34 35 35 37 40 41 40 41 43 44 45 46 45 46 46 45 45 45 45 43 42 41 40 38 38 37 37 38 38 36 33 32 32 30 30 32 32 32 32 30 29
17 18 17 16 16 17 17 17 17 15 13 13 14 13 12 15 19 21 23 25 26 27 30 34 35 36 40 42 40 41 43 43 45 46 46 46 46 46 46 46 46 45 43 42 41 40 40 38 37 38 39 38 36 33 32 31 30 31 31 32 31 29 28
19 19 18 18 18 18 17 17 17 18 17 14 15 16 15 14 16 20 24 26 27 28 30 34 36 36 39 42 41 42 43 44 45 46 46 46 46 46 47 47 47 46 44 42 40 39 40 39 38 37 38 39 38 35 33 32 31 31 31 31 30 29 28
19 20 20 19 19 18 18 17 17 19 19 17 17 17 15 15 16 18 25 29 30 31 33 35 37 37 40 42 43 43 43 44 45 46 46 46 47 47 47 47 47 47 45 43 39 37 39 40 39 37 37 38 39 38 35 33 32 32 31 31 30 29 29
19 21 22 21 21 19 18 18 18 18 19 18 17 16 16 19 21 22 26 30 32 33 35 37 39 40 41 44 45 44 44 45 45 46 46 47 48 48 47 47 47 47 46 45 40 36 36 39 39 37 36 37 38 39 38 35 34 33 33 32 32 31 30
23 24 23 22 21 21 21 21 20 19 19 18 18 17 18 22 25 27 29 32 35 36 37 40 42 42 44 46 45 44 43 44 45 46 47 47 48 47 47 47 47 46 46 45 42 36 34 35 37 36 35 35 36 37 38 37 36 35 35 34 34 33 32
25 26 26 25 22 21 21 20 20 21 21 20 20 20 19 21 24 28 30 33 37 39 39 41 44 44 44 44 44 43 42 43 44 46 47 47 46 46 46 46 45 45 45 45 43 38 34 33 33 33 33 33 34 35 36 36 36 37 36 36 36 35 34
25 25 25 25 23 22 21 20 21 23 22 19 20 21 21 20 22 27 29 32 37 42 42 42 43 43 42 42 43 43 43 43 43 44 44 44 44 45 45 44 44 44 45 45 44 41 37 33 31 31 31 31 32 33 34 34 35 36 36 36 36 35 35
27 27 25 24 22 20 21 22 23 24 23 22 22 23 23 21 21 25 29 31 35 42 43 40 41 42 41 41 42 42 42 43 43 42 42 40 40 43 43 41 41 42 43 43 42 41 39 36 33 31 30 30 30 31 31 32 32 33 34 34 34 35 35
28 28 27 25 23 21 21 23 24 24 23 24 24 25 24 22 21 24 29 31 33 40 43 38 38 41 41 42 42 41 41 42 41 42 42 39 38 40 41 40 38 38 40 42 41 40 40 39 36 32 30 30 30 30 30 30 31 31 31 31 31 32 33
29 29 28 25 24 22 21 23 25 23 21 22 24 24 23 22 22 23 28 31 32 38 41 37 36 40 41 42 42 41 39 40 40 40 41 39 37 38 40 40 38 37 39 41 41 40 40 40 39 37 33 31 30 30 29 29 30 31 30 29 29 30 30
29 29 29 26 24 22 21 23 25 22 20 22 24 23 24 24 23 22 27 30 31 36 40 36 36 39 41 42 42 41 39 38 38 39 39 38 37 38 40 40 39 38 39 40 40 40 40 40 40 40 38 34 31 30 29 28 29 31 31 30 30 30 30
30 29 29 27 24 22 22 23 23 20 20 22 23 21 23 24 21 21 27 28 29 35 39 36 36 39 41 41 41 41 39 38 37 38 38 37 37 38 40 40 39 39 40 40 40 40 40 40 40 40 40 39 35 32 30 29 30 31 32 32 32 32 31
31 30 29 29 28 26 24 23 22 20 19 22 21 19 21 21 18 21 26 27 28 35 39 37 36 39 40 40 40 40 39 38 38 38 37 37 37 38 38 38 38 39 41 41 41 40 40 40 40 39 40 40 39 36 33 32 32 32 33 33 34 33 32
31 31 30 31 30 26 23 22 21 19 18 20 19 18 19 18 15 18 23 25 29 34 37 37 37 38 40 40 39 39 38 39 39 38 37 38 38 36 36 37 38 40 42 43 42 42 42 42 42 41 41 41 40 39 37 35 34 35 36 37 36 36 35
31 30 31 34 33 28 23 21 20 18 17 18 19 17 17 17 15 15 18 23 28 33 35 35 35 37 39 38 38 38 39 40 40 39 38 38 39 38 37 38 38 38 40 41 41 41 42 43 43 43 42 40 39 39 38 38 38 38 38 39 38 36 35
29 29 32 37 36 29 22 18 18 16 15 16 17 17 16 16 16 17 19 22 25 29 32 32 33 36 38 39 40 40 40 42 43 42 40 39 41 41 40 40 39 37 38 39 39 39 40 40 41 42 40 37 37 37 38 39 39 38 37 36 35 33 32
26 28 33 37 37 33 26 19 18 16 12 13 15 15 14 14 16 18 22 23 24 27 29 31 33 36 38 39 41 41 41 42 43 42 41 41 43 44 43 41 40 39 37 38 38 38 38 37 36 36 35 34 34 34 34 34 34 33 33 33 33 31 29
22 25 31 35 37 38 33 24 20 17 11 7 10 13 12 12 13 18 22 25 26 28 30 31 34 37 39 41 41 41 42 43 42 41 42 42 44 46 45 43 42 40 38 36 35 36 36 35 33 32 32 32 33 32 31 31 31 31 31 31 31 31 29

ECMWFFLT1_850_spd_063.txt.gz
Wind_Speed
44 43 41 41 43 43 43 44 44 45 46 45 45 45 44 44 45 45 46 47 48 48 48 48 47 45 43 42 41 41 40 39 39 38 37 35 32 30 28 27 26 25 24 21 18 15 13 12 13 13 14 14 13 14 14 13 13 15 15 15 14 11 10
41 43 42 41 43 43 44 46 45 44 46 46 47 47 46 45 46 47 47 48 48 48 49 49 49 48 46 43 42 41 41 40 40 39 38 37 34 32 30 28 27 27 25 23 20 18 15 14 14 13 14 15 15 14 14 14 14 15 14 15 15 13 10
42 43 43 44 45 45 45 47 47 47 46 46 47 49 49 47 47 47 48 49 48 48 49 50 50 49 47 45 44 42 42 42 41 41 40 39 37 35 33 31 29 28 26 25 23 20 18 17 16 15 14 15 16 16 15 15 15 15 14 14 15 14 12
43 44 45 46 46 47 46 47 49 49 49 47 47 49 51 49 48 48 48 48 48 48 49 50 50 50 49 48 46 44 43 43 42 41 40 39 38 36 35 33 31 30 28 26 24 22 20 19 18 18 17 16 16 17 16 16 16 15 15 15 15 15 13
42 42 42 43 44 45 45 47 49 50 50 49 48 49 51 50 49 48 48 48 48 48 48 48 49 50 49 49 48 46 45 43 42 42 41 40 38 38 37 35 33 31 30 28 26 24 22 21 20 20 20 18 17 18 18 17 17 16 16 15 16 16 15
37 38 39 41 43 45 46 47 49 50 50 50 49 49 50 51 50 49 48 47 48 48 47 47 48 49 50 50 50 48 47 45 44 43 42 41 40 39 38 36 35 33 32 30 28 26 24 23 22 22 22 21 20 19 19 18 18 17 17 16 16 16 16
39 39 41 42 43 44 46 47 48 49 50 50 49 48 48 50 50 49 48 48 48 48 48 48 48 48 49 50 50 50 49 47 46 45 44 42 41 41 40 38 37 35 34 32 30 28 26 25 24 24 23 22 22 22 21 21 20 19 18 17 17 16 16
44 42 42 42 45 46 45 47 47 47 48 48 48 48 48 50 51 49 47 47 47 48 48 49 49 48 48 48 50 50 50 49 47 46 45 44 44 43 41 41 39 38 36 35 33 31 29 27 26 25 25 24 23 23 23 23 22 21 20 19 18 18 17
47 46 47 45 45 47 47 48 48 47 47 47 47 48 49 49 51 51 49 47 47 48 49 49 49 48 47 47 48 50 50 50 48 47 47 46 45 45 43 42 41 40 38 37 35 33 31 30 29 28 27 26 25 24 24 25 24 23 23 21 20 19 18
45 45 47 48 47 46 47 46 46 45 46 48 47 48 50 51 51 52 50 48 47 48 49 49 48 49 47 46 47 49 50 50 49 49 48 47 47 46 45 43 42 41 39 38 36 35 33 31 31 31 30 29 28 26 25 26 26 25 25 24 22 21 20
42 49 47 48 45 41 43 43 43 45 46 47 47 47 49 51 52 53 53 51 50 48 48 48 48 47 47 47 47 48 49 51 51 50 49 48 47 46 45 44 43 42 40 39 38 36 34 33 33 33 33 32 31 29 27 26 26 26 26 25 24 23 21
19 31 36 46 49 44 43 43 43 46 47 48 48 47 49 50 51 52 53 54 53 51 49 49 48 46 45 45 45 47 50 51 52 52 51 50 48 47 46 44 43 42 41 40 39 38 36 35 34 35 35 34 33 31 29 28 28 27 26 25 25 24 24
31 23 13 17 31 39 42 44 46 47 46 47 46 45 47 48 50 51 52 54 55 54 52 50 47 45 44 44 43 45 49 51 53 53 52 51 49 47 46 45 44 43 42 41 40 39 38 37 36 36 36 35 34 32 31 30 30 29 28 26 26 25 25
38 38 34 30 22 14 12 20 33 43 45 46 46 46 46 47 49 49 51 53 53 53 52 50 48 46 44 44 43 44 47 50 53 53 53 51 50 48 47 46 45 44 43 42 41 41 40 38 37 37 36 36 35 34 33 32 32 31 30 29 28 26 26
34 35 36 39 36 29 25 19 5 17 32 37 37 41 44 44 46 47 48 50 50 50 50 48 47 47 46 45 45 45 46 49 51 52 52 51 50 49 49 47 46 45 43 42 42 41 41 40 39 38 38 37 36 35 34 34 33 33 32 31 30 28 27
30 32 33 33 32 30 28 28 26 13 7 20 25 27 28 30 35 38 38 40 42 44 45 46 47 47 47 48 49 47 45 46 49 51 51 51 51 50 49 48 46 45 44 43 42 41 42 42 41 40 39 38 37 37 36 35 35 34 33 31 30 29 28
29 30 31 30 28 27 25 24 25 24 15 2 15 22 23 23 27 33 35 34 33 33 34 38 44 47 48 47 48 47 45 45 48 50 50 51 51 50 50 49 47 46 45 44 43 41 41 42 42 42 40 39 38 37 37 37 36 35 34 32 31 30 30
29 29 30 30 28 25 23 21 18 17 20 14 2 11 20 23 24 31 37 39 37 33 28 27 32 40 46 47 46 46 45 45 46 48 50 51 51 51 50 49 48 47 46 45 44 42 41 42 44 43 41 40 39 38 38 38 37 36 34 32 31 30 30
28 28 28 28 29 25 21 21 18 15 16 16 14 7 6 16 20 25 31 33 35 36 34 30 28 29 35 41 45 46 46 45 46 48 49 50 51 51 50 49 49 48 48 47 45 43 41 42 44 43 42 41 40 39 38 38 37 36 35 33 31 30 30
26 28 28 27 27 26 22 20 18 17 15 14 13 12 6 4 13 19 23 24 27 32 36 38 36 33 31 34 41 45 46 46 46 47 49 49 50 50 50 50 50 49 49 47 46 44 43 42 43 44 42 41 40 39 38 37 37 36 35 33 32 31 30
26 28 29 29 29 28 25 22 20 17 13 11 9 4 3 5 7 11 14 16 22 28 32 36 40 41 40 39 41 45 48 48 47 47 48 49 49 50 50 51 51 50 49 48 47 46 45 43 43 44 43 42 41 40 39 38 37 35 34 33 31 30 30
26 27 28 30 30 28 26 23 22 19 14 12 11 4 4 5 5 6 10 14 19 24 28 32 36 41 45 45 45 47 50 50 48 48 48 49 49 50 51 51 51 51 50 48 48 47 46 45 44 44 44 43 42 41 40 39 38 35 33 31 29 29 29
25 26 28 31 30 29 28 25 22 20 16 16 13 7 7 8 6 6 9 13 17 21 26 32 36 40 44 45 44 48 52 51 49 49 48 49 50 50 51 51 51 51 50 49 48 48 47 47 46 45 44 44 44 43 42 40 39 37 34 31 29 29 29
26 27 30 32 32 31 30 27 24 21 18 17 15 10 9 10 9 9 11 14 17 21 27 33 35 38 44 45 43 46 52 53 50 49 49 49 50 50 50 51 51 51 51 50 49 48 48 47 46 46 45 45 45 45 44 42 41 39 36 33 31 30 30
28 29 30 31 32 32 31 29 27 23 20 20 18 14 11 11 11 12 13 15 18 21 26 32 36 37 42 45 43 44 50 53 51 50 49 49 50 50 50 50 51 51 51 50 49 48 47 46 46 46 46 45 45 45 45 44 42 40 38 36 33 32 31
27 29 30 31 32 32 31 30 28 25 23 22 21 18 16 14 15 15 15 16 19 23 26 30 35 36 38 42 42 42 47 52 52 51 50 49 49 49 50 50 50 50 51 51 49 47 46 45 46 46 46 46 45 45 46 46 44 42 40 38 36 34 33
25 26 28 31 31 32 32 30 29 27 25 24 23 22 20 18 18 18 18 18 22 25 28 30 34 37 38 41 42 42 45 50 52 52 51 49 48 48 49 49 49 50 50 51 50 48 47 45 45 45 46 45 45 45 45 46 46 45 43 40 38 37 35
27 26 27 29 30 31 31 31 30 30 28 26 24 23 21 20 22 22 22 24 25 25 28 30 32 36 38 41 42 41 43 49 52 51 50 49 48 48 49 49 49 49 49 50 50 49 48 46 45 45 45 45 45 45 45 45 45 45 45 43 42 39 38
26 26 27 29 30 30 31 32 31 31 31 28 25 23 20 20 23 25 26 28 28 26 26 28 31 34 37 40 42 41 43 47 50 50 50 49 49 48 48 48 49 48 48 50 50 50 49 48 46 45 44 44 44 45 44 44 43 43 43 43 43 42 41
26 25 25 27 28 29 30 31 32 33 33 30 26 23 21 20 21 23 24 26 28 28 27 27 29 33 37 41 45 46 45 46 48 48 49 49 48 48 48 48 49 49 48 49 50 50 50 50 48 47 45 44 44 43 43 43 42 41 39 39 39 40 41
25 24 25 25 27 28 28 30 32 33 34 33 28 24 22 21 22 23 23 24 27 30 31 30 29 32 37 41 46 49 47 46 47 48 48 48 48 48 49 48 49 49 48 49 50 51 51 51 50 49 47 45 44 43 42 41 40 39 37 35 35 35 36
25 24 24 25 26 28 28 29 31 32 34 34 30 26 24 23 23 25 25 26 28 31 32 31 30 33 38 41 46 50 49 47 48 48 48 48 47 48 49 49 49 49 49 48 50 51 52 52 52 50 48 46 45 43 42 40 38 38 36 34 33 33 32
27 26 24 24 27 29 29 29 30 32 34 35 33 28 26 25 24 25 27 28 28 29 30 30 29 32 38 41 45 51 51 50 51 50 48 48 47 47 48 48 48 49 49 49 51 52 52 52 52 51 50 48 45 44 42 40 39 38 36 34 33 33 32
27 27 24 23 26 28 28 28 29 31 32 34 32 29 28 27 25 24 26 27 26 27 28 29 29 32 37 40 45 51 52 52 52 50 48 47 47 46 47 47 48 49 51 52 53 53 54 53 53 53 52 50 47 44 42 41 41 39 38 36 36 35 34
27 26 23 23 25 27 27 27 28 29 29 28 27 27 28 28 26 24 25 26 25 25 26 27 29 32 35 40 46 51 53 52 51 51 49 48 47 46 46 46 47 48 50 51 52 52 53 53 53 53 53 52 50 48 45 43 43 43 41 39 37 36 34
28 26 22 21 24 25 26 26 27 27 25 22 22 24 26 27 25 23 24 26 26 26 25 24 28 33 36 41 47 51 52 52 51 49 48 47 46 46 46 45 46 47 48 47 48 49 50 50 50 51 51 51 52 51 49 47 45 44 43 41 39 37 35
28 26 23 21 22 24 25 25 26 26 25 24 24 24 22 22 22 22 23 26 27 28 25 21 25 35 39 43 48 50 50 51 50 49 48 47 46 45 46 45 45 46 48 47 46 46 48 47 47 48 49 50 50 50 50 48 46 45 43 42 40 39 37
26 25 23 22 21 22 25 26 27 29 30 28 26 25 19 16 17 19 23 26 28 30 27 20 22 32 38 40 44 46 45 45 44 41 40 41 41 42 44 46 47 47 47 48 47 46 45 45 46 46 47 48 48 48 48 47 46 46 44 42 41 40 38

ECMWFFLT1_850_spd_066.txt.gz
Wind_Speed
38 40 42 44 45 47 47 47 48 50 52 51 52 52 52 52 51 50 49 48 46 46 46 45 45 43 42 43 43 41 40 39 37 35 34 33 31 29 28 27 25 23 21 20 18 16 14 14 15 15 15 15 15 15 15 15 15 15 14 14 14 13 12
37 38 40 42 44 46 48 49 49 50 52 53 52 52 53 52 52 52 51 49 48 47 46 46 46 46 44 43 44 43 42 41 40 38 36 35 33 31 29 28 26 24 22 20 18 16 14 14 14 14 15 15 15 16 16 16 16 15 15 15 15 14 13
37 38 40 43 45 47 49 50 51 50 51 53 53 52 53 54 54 53 52 51 49 48 47 47 47 47 46 45 45 45 44 43 42 41 39 38 36 33 31 29 28 25 23 22 20 18 17 15 15 14 15 16 16 17 17 17 17 17 16 16 15 15 14
40 42 43 44 45 46 47 50 51 51 52 53 54 54 54 54 54 54 53 51 50 50 49 48 48 48 48 47 46 46 46 45 44 44 43 41 38 35 34 32 31 29 26 25 23 21 20 19 17 16 16 17 18 18 19 18 18 18 17 17 16 16 15
42 43 42 42 43 43 45 48 50 51 52 53 54 54 54 54 53 53 53 51 51 50 49 48 48 48 48 49 48 47 47 46 45 45 45 44 41 39 37 36 34 32 30 28 26 24 23 22 21 19 18 18 19 20 21 20 19 19 19 18 18 17 17
40 40 41 42 43 44 45 48 50 51 51 52 53 54 53 53 52 52 53 52 52 50 49 48 48 48 49 49 49 49 48 47 46 46 46 45 44 42 41 39 37 35 33 31 29 27 26 25 23 22 20 20 20 21 22 22 22 21 20 20 19 19 19
39 39 43 44 44 45 46 47 50 50 51 50 51 53 53 52 52 52 52 52 52 51 50 50 49 49 49 49 50 50 50 49 47 46 46 46 46 45 43 41 40 38 36 34 32 30 28 27 26 24 22 22 21 21 22 23 23 23 22 21 21 20 20
42 43 45 45 45 46 47 47 48 48 49 49 49 50 51 51 52 52 52 52 52 52 52 51 50 49 49 49 50 50 51 50 49 47 46 47 47 46 44 42 41 39 38 37 35 32 31 29 28 26 25 24 23 23 23 24 23 24 24 24 23 22 22
35 42 46 47 46 45 46 47 47 47 48 48 48 49 50 51 51 52 52 52 52 52 52 52 50 49 49 49 49 49 50 51 50 49 48 47 47 47 45 43 42 40 40 38 36 35 33 31 30 28 27 26 25 24 24 25 25 25 25 25 24 23 23
19 29 36 41 44 45 45 44 43 44 45 47 47 48 50 51 51 51 51 51 51 52 52 51 50 49 49 49 48 47 48 50 51 51 50 49 48 47 46 45 43 42 41 39 38 37 35 34 32 31 30 29 28 27 26 26 27 27 27 26 26 25 24
3 10 17 23 28 31 33 36 39 43 46 47 47 48 49 51 52 51 51 51 51 51 51 51 50 50 50 50 48 47 47 48 50 51 52 51 50 48 47 46 45 44 43 41 40 39 37 36 35 34 33 32 30 29 29 28 28 29 30 29 27 26 25
27 19 13 7 7 10 13 18 26 35 42 47 49 49 50 51 52 52 51 50 50 50 50 50 50 50 50 50 49 49 47 46 47 50 51 52 51 50 48 48 47 46 45 44 43 41 40 39 38 37 36 34 33 31 31 30 29 29 30 31 30 29 27
35 35 33 27 20 13 8 4 7 15 26 36 43 47 49 51 52 52 51 51 50 48 48 49 49 49 49 49 49 49 49 47 46 47 49 51 51 50 49 49 49 49 48 46 45 44 43 42 41 39 38 36 35 34 32 31 30 30 30 31 31 31 30
34 36 36 34 32 27 20 13 6 2 10 21 30 35 38 42 46 49 50 50 49 48 47 47 48 48 48 48 49 49 49 48 46 45 46 47 49 50 50 49 49 49 49 48 47 47 45 44 42 41 39 38 37 36 34 33 33 32 30 31 32 32 31
33 35 35 34 33 32 29 25 18 12 5 8 19 26 29 30 32 37 43 45 45 45 45 45 45 47 47 47 48 48 48 47 46 45 45 45 47 49 50 50 49 49 49 49 49 48 47 45 43 42 41 40 39 38 37 36 36 34 32 31 32 32 32
28 31 34 33 31 29 28 27 24 19 14 8 7 14 23 29 28 27 30 36 40 41 42 42 43 44 44 44 43 43 43 43 44 45 45 45 46 48 49 49 49 49 49 49 50 49 48 46 45 44 42 41 40 39 39 39 38 36 34 33 32 32 32
27 27 31 32 31 27 24 24 24 21 17 14 11 7 8 20 30 30 27 29 35 40 42 43 43 43 42 43 42 40 38 37 39 42 44 45 45 46 48 49 49 49 49 49 49 49 49 48 47 46 44 43 42 41 41 40 39 37 36 34 33 32 33
26 25 27 31 31 27 23 22 23 21 17 15 12 9 7 2 14 26 30 28 29 36 43 45 44 44 44 45 45 43 39 36 37 40 44 46 46 45 46 48 48 49 49 49 49 49 49 49 48 47 46 44 43 43 42 41 39 38 36 35 33 33 33
23 24 26 27 28 28 24 21 22 20 14 12 11 7 6 6 4 10 23 29 27 28 36 43 45 45 45 46 46 45 43 40 38 38 42 46 46 45 44 46 48 49 50 50 49 49 49 50 49 48 47 46 45 44 44 43 41 39 38 36 34 34 34
24 26 29 30 30 30 27 23 21 20 14 9 11 9 5 5 8 5 9 21 26 26 29 35 42 46 46 47 47 47 47 45 41 38 39 43 45 45 44 45 47 48 49 49 49 49 50 50 50 49 48 47 46 46 45 44 42 41 39 37 36 35 35
24 27 30 33 33 31 30 26 23 21 17 13 13 12 6 3 4 5 2 9 18 24 27 30 36 42 45 46 46 46 46 46 45 43 41 39 42 46 46 44 45 46 48 49 49 50 50 50 50 50 49 48 47 47 46 45 44 42 41 39 37 36 36
24 27 29 30 31 31 30 27 24 22 20 19 17 13 10 5 2 2 4 3 7 15 24 29 33 38 42 44 44 44 44 44 45 46 45 41 41 44 47 46 44 44 46 48 48 49 50 50 51 50 50 49 48 48 47 46 44 43 42 40 38 37 37
24 26 26 27 28 29 29 27 26 24 22 21 18 16 16 10 6 8 10 7 5 9 17 24 29 33 38 42 43 43 43 43 43 45 46 45 43 44 47 48 46 44 44 46 48 49 50 50 51 50 50 50 49 49 48 46 45 44 43 41 39 38 37
24 24 24 26 27 28 28 28 29 29 28 26 22 19 20 15 10 14 16 12 7 7 11 16 22 27 32 36 39 42 43 43 43 44 45 47 47 47 47 47 47 45 43 44 47 49 50 50 50 50 50 50 50 50 48 47 45 44 42 41 39 38 38
23 23 22 23 25 27 27 27 28 28 29 30 27 23 22 18 15 16 18 15 12 10 10 12 16 21 26 28 31 36 40 42 42 42 45 48 49 48 48 47 47 45 44 44 45 47 49 49 49 50 50 50 51 50 49 48 46 45 43 41 40 39 38
23 23 21 21 22 24 26 25 25 26 28 31 31 28 24 22 19 18 18 17 16 14 12 11 11 14 19 23 26 30 35 39 40 41 43 47 49 48 48 48 47 46 45 44 45 46 48 49 49 50 50 50 50 50 50 49 48 46 44 42 41 40 38
23 23 22 19 19 23 25 25 24 24 26 29 32 31 28 26 23 21 20 19 19 17 16 14 13 13 15 18 23 27 31 35 38 39 41 44 46 47 48 48 48 48 47 45 45 46 47 49 49 49 50 50 50 50 51 50 49 48 46 44 42 41 39
24 25 24 20 18 21 25 25 25 24 25 27 30 32 32 29 26 23 21 20 20 19 19 18 18 18 17 18 20 24 28 33 36 38 40 42 44 46 47 48 48 49 48 47 46 46 47 49 49 49 49 49 50 50 51 51 50 49 48 45 44 42 41
24 26 27 24 21 21 24 25 25 25 25 27 30 32 33 32 30 27 24 22 21 21 21 21 21 21 21 20 20 22 25 30 34 37 40 42 44 45 46 47 48 49 49 48 47 47 47 48 49 49 49 48 49 50 50 50 50 50 49 47 45 44 43
24 27 28 27 24 21 23 24 24 23 23 25 28 31 32 32 32 30 26 24 24 24 23 23 23 23 24 24 23 23 24 27 32 36 40 43 45 46 46 46 48 50 50 49 48 47 47 48 49 49 49 49 49 49 49 50 50 50 49 48 46 45 44
25 27 28 28 25 21 21 24 24 22 21 22 25 29 30 30 31 32 29 26 27 27 26 25 24 25 26 27 27 26 26 27 29 34 40 43 45 47 48 47 48 50 51 49 48 48 48 48 48 49 50 50 50 49 49 48 48 49 50 49 47 46 45
25 26 28 29 26 22 22 24 24 22 21 21 22 25 29 29 30 31 30 28 28 28 28 27 27 27 28 29 29 29 28 29 30 33 38 43 46 47 48 48 49 50 51 50 48 48 48 49 49 49 50 50 50 50 49 47 47 48 49 49 48 46 45
25 26 27 28 26 24 24 24 25 24 23 22 22 23 27 29 31 32 31 30 29 29 27 27 27 29 30 30 31 31 31 31 31 32 36 42 46 48 48 49 49 50 51 51 50 50 49 49 48 49 49 51 51 50 48 46 46 48 49 49 49 47 45
25 25 26 27 26 25 24 24 25 25 24 24 24 24 25 29 32 33 34 32 30 28 27 26 26 28 31 31 31 31 32 32 32 32 36 41 46 47 48 49 50 51 52 52 52 50 49 48 48 49 50 50 50 48 46 45 47 48 50 51 49 46 44
24 24 26 26 26 25 24 23 24 24 23 23 24 24 25 27 30 33 34 33 31 29 28 28 28 30 32 31 29 29 31 32 32 32 35 41 45 47 48 48 49 50 50 51 51 50 49 48 49 49 50 50 50 49 48 48 50 52 53 51 49 46 43
23 23 24 25 26 25 23 23 23 23 22 22 24 25 24 24 26 29 31 32 31 29 28 30 32 33 33 31 28 28 29 31 31 31 34 40 44 45 45 45 46 47 48 49 50 50 49 49 48 48 47 48 49 50 51 52 53 52 51 50 48 47 43
24 23 23 24 25 25 24 22 21 21 21 22 24 24 23 22 23 25 27 29 30 30 29 30 32 35 35 32 29 27 27 29 30 29 33 40 43 43 44 45 45 46 47 48 50 50 49 49 48 47 46 46 47 48 50 52 51 50 49 48 47 46 43
25 23 23 24 25 25 24 22 21 21 21 22 24 24 22 21 22 23 24 26 28 30 31 31 32 35 36 34 30 28 27 28 28 28 34 41 44 45 46 47 48 48 48 49 49 49 48 48 47 47 46 46 46 46 48 49 49 48 48 47 46 45 43

ECMWFFLT1_850_spd_069.txt.gz
Wind_Speed
36 37 40 42 44 45 46 47 48 49 50 52 53 52 52 51 51 51 49 47 44 41 40 40 40 39 37 36 36 36 35 33 33 33 33 31 29 27 26 26 25 23 23 22 21 19 17 17 17 17 16 15 14 14 14 14 14 13 13 13 13 12 12
36 38 39 42 44 46 46 47 48 49 49 51 52 52 53 52 53 52 51 49 46 43 41 40 40 40 39 37 36 36 36 35 34 34 33 33 31 29 28 27 26 24 24 23 21 19 17 17 17 17 16 15 15 14 14 15 15 14 14 15 14 14 13
38 41 42 43 45 47 46 46 47 48 49 50 52 53 54 54 54 54 52 50 48 45 43 42 41 40 40 39 37 37 37 37 36 36 35 34 33 31 29 28 27 26 25 24 23 20 17 17 16 16 16 16 15 15 15 15 16 15 15 16 16 15 15
39 42 45 46 46 45 45 45 46 48 49 50 52 54 55 55 55 54 53 51 49 47 46 44 42 41 40 40 39 38 38 38 38 38 37 36 35 33 31 29 28 27 26 25 23 21 19 18 17 15 15 16 16 16 16 15 16 16 16 16 17 16 15
38 40 41 43 44 44 45 45 47 48 49 50 51 53 54 54 54 54 53 52 50 48 47 44 43 41 41 41 40 39 39 39 40 39 39 38 36 35 33 31 29 28 27 26 24 22 20 19 18 17 16 15 15 16 17 17 16 17 17 17 17 16 15
34 37 39 41 43 45 46 47 48 49 49 50 50 51 52 52 53 54 53 53 52 50 48 46 44 43 41 41 41 40 39 40 40 40 40 40 38 37 36 33 31 29 28 27 26 24 22 21 20 19 18 17 16 16 17 18 18 18 19 19 18 17 16
34 37 41 43 44 45 47 47 47 48 49 49 48 49 50 51 52 53 53 53 53 51 50 49 47 45 43 42 41 41 40 40 40 41 42 41 40 39 38 36 34 32 30 29 28 27 25 24 22 21 20 20 19 18 17 18 19 19 20 20 20 18 18
26 33 35 38 41 43 46 47 47 47 47 47 47 47 49 50 51 52 52 53 53 52 52 51 49 47 45 43 42 41 41 40 40 41 42 43 43 42 40 39 37 35 34 32 31 30 29 27 25 24 23 22 21 20 19 19 19 20 21 22 21 20 19
2 14 21 25 28 32 36 40 43 45 45 46 46 47 48 49 50 51 52 52 52 52 52 51 50 48 46 45 43 42 41 41 41 41 41 43 44 45 43 42 41 39 38 36 34 33 32 30 29 27 26 25 24 23 22 21 20 20 21 22 22 22 21
29 16 5 9 15 19 22 26 31 35 40 43 44 45 46 48 49 51 51 51 52 52 52 51 50 49 47 46 44 43 42 41 41 41 41 42 44 46 46 45 44 43 42 40 38 36 35 33 32 31 30 29 27 26 25 24 22 22 22 23 23 23 23
38 34 26 17 9 8 11 16 21 26 31 36 39 42 44 45 47 49 50 50 51 51 51 51 50 49 49 48 46 44 43 42 41 41 42 43 44 45 46 46 46 46 45 44 42 40 38 36 35 34 33 32 30 29 28 27 25 23 23 24 24 24 24
36 37 36 33 27 18 12 9 13 18 23 29 34 37 39 42 44 46 47 49 50 50 50 50 50 49 49 48 48 46 45 43 42 41 41 42 43 44 45 46 47 47 47 47 45 43 41 39 37 36 35 33 32 31 30 29 28 26 25 24 25 25 25
34 36 36 36 35 30 23 17 11 8 13 20 26 31 34 37 40 42 43 45 46 47 48 48 48 49 49 49 48 48 46 45 43 41 40 40 41 42 43 45 46 47 47 47 47 46 45 42 40 37 36 34 33 33 32 32 31 30 27 26 26 26 26
38 38 38 38 38 36 31 26 21 14 8 9 15 22 27 31 35 38 40 41 43 43 44 45 46 47 48 48 49 49 48 46 44 42 40 39 39 39 40 42 44 45 46 47 47 47 46 44 42 39 37 36 35 34 34 34 34 33 31 29 28 27 27
39 39 39 38 37 36 35 31 26 22 16 9 8 11 18 23 28 32 35 38 39 40 40 41 42 44 45 46 48 48 48 46 45 44 42 40 39 39 39 39 40 42 44 45 47 47 46 45 44 42 41 39 38 37 37 36 36 35 34 32 30 29 28
34 37 38 38 37 36 35 32 28 26 22 16 11 6 7 12 20 26 30 32 34 35 37 38 38 38 41 44 47 48 48 47 46 45 44 42 41 40 39 38 38 40 41 43 45 45 46 45 45 45 44 42 41 40 39 39 38 37 35 33 32 30 30
28 33 36 36 36 35 35 33 29 27 25 22 17 12 7 3 8 17 24 29 31 33 35 38 39 38 38 41 44 46 47 47 47 46 45 44 43 42 41 40 39 39 39 40 42 43 44 45 45 46 45 44 43 42 41 40 39 38 37 35 33 32 31
26 29 31 33 35 35 34 33 31 28 26 25 21 16 12 8 2 8 17 24 30 35 35 34 37 39 39 39 40 42 44 46 47 46 45 44 43 43 43 42 42 41 40 40 40 41 42 43 44 45 45 44 44 43 42 41 39 39 38 36 34 33 32
26 28 28 30 32 33 32 32 31 29 26 24 22 19 16 13 7 1 9 16 23 29 32 31 31 35 38 38 38 39 43 46 46 46 45 45 44 43 43 43 43 43 42 40 39 39 41 42 43 44 44 44 44 43 42 40 39 38 38 37 35 34 33
24 25 25 27 29 31 30 30 30 29 26 24 22 20 19 16 10 6 1 10 15 19 26 32 32 32 36 38 38 39 41 44 44 44 46 46 46 44 43 43 43 43 42 40 39 39 40 41 42 43 43 44 44 43 42 40 38 38 37 37 35 34 34
24 23 23 25 27 27 28 29 30 30 28 25 23 21 20 17 11 8 6 2 10 15 21 27 30 31 35 39 40 40 42 42 41 41 45 47 48 47 46 44 43 42 42 41 38 37 37 38 40 41 43 43 43 43 43 41 38 37 37 36 36 35 35
24 24 23 23 25 25 26 27 28 30 30 28 26 23 21 19 14 9 8 4 3 10 16 21 25 29 33 37 39 41 43 43 41 39 43 46 48 48 48 47 45 42 41 41 39 36 34 35 37 39 41 42 43 43 44 41 39 37 37 36 36 36 36
23 24 23 22 22 22 23 24 24 26 29 29 28 26 23 22 18 14 13 9 3 4 9 13 18 22 27 33 37 39 41 42 42 41 41 44 47 48 48 48 47 44 42 42 42 40 36 33 33 35 38 40 42 43 43 41 39 37 36 36 36 37 37
21 23 23 23 23 21 20 22 23 23 25 28 29 27 26 24 21 19 18 14 8 5 5 7 11 14 17 22 28 33 36 39 41 42 42 44 46 48 48 47 47 46 44 42 42 41 39 35 33 33 34 37 40 42 42 41 39 37 36 36 36 37 38
19 21 22 23 24 23 20 21 22 22 22 24 27 28 28 27 24 21 18 16 12 9 7 7 7 9 10 12 15 21 27 32 37 40 42 44 47 48 49 48 46 45 44 44 43 41 39 38 36 35 34 35 38 40 42 42 40 38 37 36 36 37 38
18 19 21 22 23 24 23 21 21 22 22 23 26 28 28 28 27 24 20 18 16 12 10 10 8 9 10 10 11 14 19 23 28 34 39 42 45 47 48 47 45 44 43 43 43 42 40 39 38 38 37 36 37 39 41 42 41 39 38 36 36 37 38
16 17 19 21 22 23 24 23 21 21 22 22 23 25 27 28 28 27 24 21 19 16 13 11 11 12 12 13 13 14 16 18 21 24 29 34 38 42 44 45 43 42 42 42 43 42 41 40 39 39 38 37 37 38 40 41 41 40 38 37 36 37 38
16 16 18 20 20 20 23 24 23 20 20 20 21 23 25 27 28 28 27 24 21 19 16 14 14 14 14 16 16 16 17 17 17 17 19 23 28 34 39 41 41 40 40 41 42 43 42 40 39 39 39 38 38 39 39 40 41 41 39 38 37 37 38
19 18 18 19 19 19 21 23 24 23 21 20 21 22 23 26 28 28 28 26 23 21 19 17 16 16 16 17 18 19 19 19 18 16 15 16 20 25 30 34 37 38 39 39 41 42 42 41 40 39 39 39 39 40 40 40 41 41 41 40 39 38 38
22 21 19 18 18 19 20 23 24 24 23 20 20 21 23 25 27 29 29 28 26 23 21 19 18 18 18 17 18 19 20 20 19 16 14 14 16 19 23 27 31 35 37 38 40 42 43 42 40 40 40 40 40 41 41 41 41 41 41 41 40 39 39
25 24 21 18 17 18 19 22 23 24 25 22 19 19 21 23 25 28 29 29 28 26 24 22 20 20 20 19 18 18 19 21 20 18 16 15 15 17 21 24 28 32 35 37 40 42 43 42 41 40 40 40 41 42 42 42 42 42 42 42 41 41 40
25 24 22 20 18 17 19 21 21 22 24 23 20 19 20 22 24 26 28 29 29 27 26 25 24 23 22 22 20 18 18 20 21 21 19 18 17 18 19 23 26 30 33 36 39 41 42 42 41 40 40 41 41 42 42 43 43 43 43 43 42 42 41
27 25 24 23 21 19 19 20 21 21 22 23 21 20 21 22 23 25 27 28 28 27 26 26 26 25 25 25 23 21 20 21 20 20 21 20 19 20 20 23 26 30 33 36 38 40 42 42 42 42 42 42 42 42 43 44 44 44 44 44 44 43 41
30 27 26 25 23 21 20 20 21 21 21 22 21 21 22 22 23 24 25 26 27 27 27 27 27 27 27 27 27 26 26 23 19 19 21 21 20 21 22 23 26 30 33 35 36 38 40 42 42 43 42 42 42 42 43 45 46 46 45 44 43 42 41
31 29 28 28 26 23 21 21 21 21 22 21 20 20 22 23 22 23 24 24 25 27 28 28 28 28 29 29 28 28 27 25 21 19 20 21 21 22 23 24 26 29 32 34 34 34 35 37 39 40 41 41 41 41 43 45 44 42 41 42 41 39 39
31 30 28 29 28 26 24 23 22 21 22 21 19 19 21 22 22 22 22 22 23 25 27 28 28 29 30 30 29 27 26 25 22 20 20 21 22 23 23 25 26 29 32 34 34 32 32 34 35 36 38 40 41 40 41 41 38 35 36 39 39 38 38
30 29 28 27 28 28 26 24 23 22 22 22 20 19 19 20 20 21 21 20 21 23 26 27 28 29 30 31 30 28 26 24 22 20 19 20 21 23 24 25 26 28 31 35 36 34 33 33 35 36 38 41 42 41 42 42 39 37 38 39 39 38 38
29 27 26 26 26 27 27 25 23 22 22 22 22 21 19 19 19 20 20 20 20 22 24 25 27 28 30 30 30 29 27 24 21 19 19 19 20 22 23 23 25 27 31 35 37 38 36 35 36 38 40 42 43 43 44 43 42 40 39 39 39 39 38

ECMWFFLT1_850_spd_072.txt.gz
Wind_Speed
30 34 36 39 40 41 42 43 43 43 44 45 46 46 45 45 44 44 43 41 40 38 35 33 32 31 32 32 31 31 31 30 28 26 25 24 24 23 23 22 22 22 20 19 17 16 15 14 14 14 14 13 13 12 12 11 10 10 10 10 10 9 9
29 33 36 38 40 42 43 43 43 44 44 45 46 46 46 46 46 45 44 43 41 39 37 35 33 32 31 31 31 31 31 31 30 28 26 25 24 24 24 23 22 22 21 19 17 16 15 14 14 14 14 14 13 13 13 12 12 11 10 10 10 10 10
33 35 37 39 40 42 43 43 44 45 46 46 47 47 47 47 47 46 45 44 42 40 39 37 35 33 31 31 31 31 31 31 31 30 27 26 25 24 24 24 23 22 22 20 18 16 15 14 14 14 14 14 14 13 13 13 12 12 11 11 11 11 11
29 36 36 39 40 40 41 42 44 45 46 47 48 48 48 48 47 47 45 45 43 41 40 39 37 35 33 32 32 31 31 31 31 30 29 27 25 24 25 26 25 23 23 21 19 18 17 15 14 13 13 14 13 13 13 13 12 12 12 12 11 12 12
14 31 34 35 37 39 40 42 43 45 46 47 48 48 48 47 47 47 47 46 44 42 40 38 37 36 35 34 32 31 31 31 31 31 30 28 27 26 26 26 26 25 24 23 21 20 19 18 16 14 13 13 12 13 13 13 13 13 13 13 12 12 12
15 14 28 32 34 37 39 41 43 44 45 46 47 47 47 47 47 48 47 47 46 44 42 40 39 38 37 35 34 32 32 31 31 31 31 30 29 29 28 27 27 26 25 24 23 22 21 20 19 17 15 13 12 12 12 12 13 13 13 13 13 12 12
31 13 9 23 28 31 33 35 37 39 41 42 43 45 46 46 47 47 47 47 46 45 44 43 41 40 39 37 35 34 33 32 32 31 31 31 31 31 30 28 28 27 26 25 24 23 23 22 21 20 17 16 14 13 13 12 12 13 14 14 14 13 13
36 31 17 2 13 20 24 28 30 32 34 36 39 41 43 45 46 46 47 47 47 46 45 44 43 41 40 39 37 36 34 33 33 32 32 32 32 33 32 31 30 29 29 28 26 25 24 23 22 21 20 18 16 15 14 14 13 13 14 15 15 15 14
38 36 31 22 11 8 12 18 22 25 28 32 35 37 40 42 43 44 46 46 46 46 46 45 44 42 41 40 39 37 36 35 34 33 33 33 33 33 34 33 32 31 31 30 28 27 26 25 24 23 22 21 19 18 17 16 15 15 15 15 15 16 16
38 38 35 31 24 16 11 12 15 18 22 27 31 34 37 40 41 42 43 44 45 46 46 45 44 43 43 42 41 39 38 37 36 35 34 34 34 34 34 34 34 34 33 32 32 31 29 28 27 26 25 24 23 22 21 19 17 17 16 16 16 16 17
38 40 39 35 31 26 19 14 11 11 15 21 25 29 33 37 40 41 42 43 44 45 45 45 45 44 44 43 42 42 41 40 38 37 36 35 34 34 34 35 35 35 35 34 34 34 32 31 30 29 28 28 27 26 25 23 21 20 18 18 17 17 17
40 40 41 40 36 32 27 22 17 12 10 12 18 22 25 30 36 40 42 43 44 45 46 46 45 45 44 44 44 43 43 41 40 39 38 36 35 34 34 34 35 36 36 36 36 35 34 34 33 32 31 31 30 29 28 27 25 24 22 20 19 19 18
39 40 42 43 40 36 33 29 23 18 13 9 10 14 18 22 28 34 39 42 43 43 44 45 45 45 44 44 44 44 43 42 41 40 39 37 35 34 34 34 35 35 36 37 37 37 37 36 35 35 34 33 32 32 31 30 29 28 26 23 22 21 20
36 37 40 42 42 39 37 35 30 24 18 12 8 9 13 17 23 28 33 37 40 41 42 42 43 44 44 44 44 44 43 42 42 41 39 38 36 35 34 33 33 33 34 35 37 38 38 38 37 37 36 35 35 34 33 33 32 31 29 27 24 23 22
32 34 36 38 39 39 38 37 34 31 25 18 12 7 7 11 17 23 27 31 34 37 40 41 41 42 43 43 44 44 43 42 41 40 39 38 37 36 35 34 33 32 32 33 35 36 37 38 38 39 39 38 38 37 36 36 35 32 30 29 27 25 24
28 30 32 33 33 34 34 34 34 33 30 25 19 13 7 4 7 13 20 26 29 32 36 39 41 41 42 43 44 43 42 41 41 40 39 39 39 37 36 35 34 34 33 32 32 33 34 36 37 38 39 39 39 39 39 38 37 34 32 31 29 28 27
26 28 30 31 30 29 29 31 32 33 32 30 27 22 15 9 4 3 11 19 25 28 32 36 39 41 41 42 42 41 41 41 41 41 40 39 38 38 37 36 35 35 34 34 33 32 32 33 34 35 37 37 38 38 38 38 37 36 34 33 32 31 30
27 28 30 30 29 28 27 27 28 29 30 30 29 26 22 18 13 7 4 10 18 25 29 33 36 38 40 40 40 40 40 39 39 41 42 41 38 36 35 35 36 35 35 34 33 32 32 32 32 32 33 34 35 36 37 37 37 36 36 35 34 33 32
26 28 28 29 29 28 26 26 25 24 24 26 27 26 25 24 20 15 11 6 10 19 25 30 33 36 38 39 39 40 40 38 36 37 41 44 43 39 34 33 34 34 34 33 32 32 32 32 31 31 31 32 32 33 34 35 35 35 35 35 34 33 32
25 26 26 27 27 27 26 25 24 22 20 20 22 23 23 23 22 18 16 12 2 14 24 28 31 34 37 38 38 40 41 39 37 36 37 40 43 44 41 38 34 32 32 32 32 33 33 32 32 31 31 31 32 32 33 34 35 35 35 34 33 32 32
24 24 25 26 26 26 25 25 24 23 21 19 20 21 21 22 22 20 19 17 8 7 18 26 30 32 35 37 38 38 39 40 40 39 38 39 41 43 44 43 40 35 32 31 32 32 33 33 34 33 32 31 31 32 33 33 34 34 34 34 32 32 31
23 23 24 24 25 24 24 24 23 22 22 21 22 22 21 21 21 21 21 17 11 7 9 18 26 29 31 34 36 36 36 38 41 42 42 42 42 43 43 43 43 40 37 34 32 31 31 33 34 34 34 33 32 33 33 32 32 32 33 32 32 31 31
21 22 22 23 23 23 22 21 21 20 19 20 22 23 22 21 19 18 18 16 12 9 8 9 16 21 26 30 33 33 34 36 40 42 42 43 44 44 42 41 41 41 40 38 36 33 32 31 32 33 33 34 34 34 33 31 30 31 31 31 31 31 31
21 22 22 22 23 23 22 21 19 19 18 18 19 21 22 21 19 17 15 14 13 11 9 9 8 10 19 25 28 31 33 36 39 39 40 41 43 44 43 41 40 40 40 40 39 36 33 32 32 32 33 33 33 33 33 31 29 29 30 31 31 31 32
24 23 23 23 23 24 24 23 20 18 17 17 17 19 21 22 21 19 16 14 14 12 10 10 9 6 11 17 21 25 28 32 34 35 35 37 39 40 41 41 39 38 38 39 40 39 37 36 35 35 34 34 33 33 33 32 29 28 29 30 31 32 32
26 26 25 25 24 24 24 24 23 20 17 17 18 18 20 21 22 22 21 18 15 14 12 10 9 9 10 12 14 17 21 24 27 29 30 32 34 36 38 38 38 37 37 38 39 39 40 39 38 38 36 35 35 34 34 33 30 29 28 29 30 32 33
25 26 26 26 26 26 25 24 24 23 19 16 16 17 18 20 21 22 22 20 18 17 16 13 10 9 11 13 14 15 16 18 20 21 23 26 28 30 32 34 36 36 36 36 38 39 40 40 40 39 38 36 36 36 35 34 32 29 28 28 29 31 32
26 26 26 26 25 25 26 26 26 25 23 18 15 15 17 19 19 20 22 21 19 19 19 18 16 13 11 13 16 18 16 15 16 17 18 19 21 22 25 27 28 30 32 34 36 39 40 41 41 41 39 38 37 36 36 34 33 31 29 28 28 29 31
27 28 28 28 27 26 27 29 28 27 26 23 18 15 16 18 19 19 20 21 20 20 21 21 20 17 15 13 13 16 18 18 19 17 13 12 15 18 21 21 22 24 27 29 33 36 39 40 41 42 41 40 39 38 36 35 34 33 31 30 29 28 29
28 28 29 29 29 28 28 29 29 28 27 26 23 18 15 16 19 20 19 20 21 21 21 22 23 21 19 16 14 13 13 15 18 15 9 9 13 15 16 18 20 22 23 25 28 32 37 39 41 42 43 41 40 38 37 35 34 33 31 31 30 29 27
29 28 29 30 30 29 29 29 29 29 28 28 26 22 17 15 18 19 19 20 21 22 22 23 24 24 23 20 18 16 13 10 10 10 9 13 18 17 15 17 18 21 23 24 25 29 34 38 41 42 43 42 41 39 38 36 35 33 31 30 30 29 28
30 29 29 30 30 30 30 30 30 30 30 28 27 25 21 17 17 18 19 20 21 23 24 23 24 25 25 23 21 19 17 11 8 9 12 16 21 22 20 18 18 20 22 24 25 28 32 37 41 42 42 42 41 39 38 37 35 34 32 30 30 30 29
30 30 30 30 30 29 29 30 31 31 31 30 28 27 25 22 19 18 17 18 21 23 24 24 24 24 26 26 24 22 20 16 11 10 13 16 20 22 22 20 20 21 23 24 26 28 31 35 40 43 43 42 40 38 37 37 36 35 33 32 32 31 30
29 30 30 30 29 28 28 29 30 31 32 31 31 30 29 26 23 20 17 17 20 22 23 24 24 25 26 26 26 24 22 19 15 12 11 13 17 20 20 20 21 23 25 26 28 30 32 34 39 42 42 40 39 38 36 35 35 35 34 33 32 30 28
28 29 30 30 29 28 28 28 29 31 32 32 33 34 32 28 26 24 20 17 19 22 23 24 23 24 25 26 26 25 23 21 17 14 12 12 15 19 20 21 22 25 28 30 32 34 34 35 38 40 39 38 38 38 37 36 33 30 29 29 29 27 25
30 30 30 30 29 29 29 29 28 30 32 32 33 35 34 31 28 26 23 20 19 21 23 23 24 24 24 25 26 26 24 22 19 17 15 14 15 18 21 22 22 24 28 32 34 35 35 35 38 38 38 37 37 35 35 33 28 24 23 26 27 27 25
32 32 31 31 31 31 31 30 28 29 31 32 34 35 35 33 31 27 24 22 21 23 23 23 24 24 23 23 24 25 25 24 21 19 17 16 16 18 20 22 22 23 27 30 32 33 35 38 40 40 40 40 39 36 34 32 29 26 26 27 28 28 26
32 31 31 31 31 32 32 30 29 28 29 30 32 34 36 35 33 29 25 23 23 25 25 24 24 24 23 21 22 24 24 24 22 20 18 17 16 17 19 21 22 24 25 27 29 31 34 36 37 38 39 39 39 38 37 35 31 28 27 27 28 29 28

ECMWFFLT1_850_spd_075.txt.gz
Wind_Speed
23 24 27 30 31 34 35 32 35 38 38 38 37 36 37 37 37 35 33 31 29 28 28 27 26 25 25 27 28 27 27 25 24 23 22 21 20 19 19 19 19 19 18 17 15 13 12 11 11 11 10 9 9 8 8 8 7 7 7 7 7 6 6
12 20 24 27 29 33 36 36 38 40 39 38 38 38 38 39 38 37 35 32 30 28 28 28 27 26 25 25 26 27 27 26 26 25 24 22 21 20 20 19 19 19 19 18 16 14 12 12 12 12 11 10 10 9 9 9 9 8 8 8 8 7 7
10 9 18 24 26 28 33 37 39 41 41 40 40 39 39 39 38 37 35 33 32 30 29 29 28 27 26 25 25 26 26 27 27 26 25 24 22 21 20 20 20 20 20 19 17 15 13 12 12 12 11 11 10 10 10 10 10 10 9 9 9 9 8
17 9 11 19 23 25 27 32 36 38 39 39 40 40 40 40 38 37 36 34 33 32 31 30 29 29 28 26 25 25 25 26 26 26 26 25 23 22 21 20 20 20 20 20 18 17 15 13 12 12 11 11 11 11 11 10 11 11 10 10 10 9 9
21 13 4 10 18 22 24 27 30 33 34 35 37 38 38 39 38 38 37 36 34 33 30 29 28 29 29 28 26 25 24 24 25 25 26 26 25 23 23 22 20 20 20 20 19 18 17 15 14 13 12 11 10 11 11 11 11 11 11 11 10 10 10
22 20 13 3 7 15 22 25 26 29 34 35 35 37 37 38 39 39 39 38 37 35 33 31 30 30 29 28 28 26 24 24 24 24 24 25 26 25 24 23 22 21 20 20 20 19 19 18 16 14 13 12 11 11 11 11 11 11 11 11 11 10 10
23 24 22 15 6 4 12 19 22 26 33 35 34 35 37 37 38 38 40 40 40 38 35 33 32 32 31 30 29 28 26 25 24 24 24 24 25 26 26 25 23 22 21 21 21 20 20 19 18 16 15 14 13 12 11 11 11 11 11 11 11 11 11
26 27 27 24 17 9 6 10 14 18 25 32 34 35 36 35 35 37 39 40 40 40 38 35 33 33 32 31 30 28 27 26 25 25 24 24 25 25 26 26 25 24 22 22 21 21 21 21 19 18 17 16 16 15 14 13 12 11 11 11 11 10 11
30 31 30 30 26 18 12 9 11 12 14 22 29 32 34 35 34 35 38 39 39 39 39 38 35 34 32 31 31 30 28 28 27 26 25 25 25 25 25 26 26 25 24 23 22 22 22 21 21 20 19 19 19 18 17 16 14 13 12 12 11 11 11
32 35 36 35 33 28 21 13 10 10 11 14 18 21 27 34 35 34 35 37 37 37 38 38 37 36 35 33 32 31 31 31 29 28 27 26 26 25 25 25 26 27 26 25 24 24 23 22 21 20 20 21 21 20 19 18 16 15 14 13 12 12 12
35 39 41 40 38 34 28 22 16 11 9 9 13 15 19 26 31 33 34 36 35 36 37 38 36 35 35 34 34 34 34 33 32 31 30 28 27 25 25 25 26 27 27 27 27 26 25 24 24 22 22 23 23 22 22 20 19 18 17 16 15 14 14
34 39 40 41 41 38 35 30 25 20 15 11 8 11 15 19 23 27 32 35 34 33 35 38 37 36 35 35 35 36 35 35 34 33 32 30 29 27 26 25 26 26 26 28 29 29 28 27 27 26 25 24 25 24 24 23 22 21 20 19 18 18 17
29 35 37 38 39 39 38 35 32 27 22 17 12 8 10 15 19 24 29 32 29 26 29 36 38 37 37 37 36 36 36 36 35 35 34 32 30 29 28 27 26 26 26 27 28 29 30 30 29 28 27 27 27 27 27 25 24 24 23 22 21 21 20
26 30 33 35 35 36 36 36 35 32 28 23 17 12 8 8 13 19 24 28 27 23 23 30 36 36 36 36 37 36 35 35 35 36 35 33 31 30 29 29 28 27 27 27 27 28 29 30 31 30 30 29 29 29 28 28 27 27 25 24 24 23 22
23 26 30 32 32 31 32 32 32 32 31 29 24 17 12 6 5 10 15 21 27 27 23 23 30 34 34 35 36 36 35 34 35 35 35 35 34 32 31 31 30 29 29 28 27 28 29 30 30 31 31 31 31 31 30 30 29 28 27 25 25 24 23
21 23 26 28 29 29 28 28 28 28 29 30 29 25 20 14 7 1 5 11 19 26 27 25 27 30 32 35 36 35 35 35 34 34 35 35 35 34 33 33 32 31 31 29 28 28 28 29 29 31 31 32 32 32 33 32 31 29 28 26 26 25 25
21 21 22 25 27 28 27 27 26 25 25 26 27 27 26 23 16 9 3 4 10 18 25 28 29 28 29 33 35 34 34 35 34 35 35 35 35 34 33 33 33 33 32 31 30 29 29 29 29 30 30 32 33 33 34 34 32 30 29 28 28 27 27
19 20 20 21 24 26 27 27 26 24 23 22 22 22 24 25 22 16 9 4 4 11 19 24 28 30 29 31 33 34 34 34 34 35 35 34 35 35 34 33 34 33 33 33 33 31 30 30 30 29 29 30 31 32 34 35 34 32 31 30 30 29 29
18 19 19 19 21 23 25 25 24 23 21 20 18 18 18 19 20 20 16 9 4 6 13 18 24 29 31 32 32 33 34 35 35 35 35 34 34 35 35 36 36 34 33 32 33 34 33 32 31 30 29 29 30 31 32 34 34 33 33 32 32 31 31
18 19 19 20 20 20 22 23 22 21 20 19 17 15 14 14 14 17 18 15 10 5 6 13 20 25 30 32 33 33 34 35 36 36 36 36 35 35 36 37 37 37 35 34 34 34 34 34 34 33 32 31 31 30 30 31 33 33 33 33 33 33 32
17 19 20 21 21 21 21 22 22 21 20 19 17 15 14 13 11 12 16 16 13 10 6 6 11 17 23 26 30 33 34 34 35 36 37 37 36 36 37 37 37 37 36 37 37 35 34 33 34 35 34 33 33 33 32 31 31 31 31 32 33 33 32
17 19 20 20 21 22 21 21 20 20 20 19 18 16 14 13 12 12 14 14 13 12 10 7 4 10 17 20 23 28 31 31 31 33 35 36 36 36 38 38 38 36 35 36 37 37 36 35 34 34 33 33 33 35 34 32 31 31 31 31 32 31 31
18 20 21 20 20 21 21 21 19 18 18 18 17 17 15 13 12 12 12 12 12 11 10 8 6 4 10 16 20 24 27 28 28 28 30 32 33 35 37 38 38 37 36 37 37 37 38 37 35 34 33 32 33 34 34 33 31 30 30 30 30 30 31
19 21 22 22 22 21 21 21 20 18 17 17 17 17 16 14 13 12 12 11 10 10 10 9 8 6 5 9 16 21 24 26 26 26 27 28 31 33 35 36 35 33 33 35 36 37 38 38 37 36 34 32 32 31 32 31 30 30 29 29 29 29 30
21 22 23 23 24 23 22 22 21 20 18 16 16 17 17 16 15 15 14 13 12 11 10 9 9 8 7 7 10 14 18 21 23 24 26 27 29 31 32 34 34 32 31 31 31 33 35 37 38 39 37 35 32 31 31 30 29 29 30 29 29 29 29
23 24 24 24 25 25 24 23 22 22 21 19 17 17 17 17 15 15 15 15 14 13 11 10 9 8 8 9 9 9 12 15 19 22 24 26 28 29 29 29 30 31 31 30 29 28 28 29 33 36 37 37 35 33 32 31 31 30 30 29 29 29 29
23 24 24 25 25 25 25 25 24 24 23 22 20 17 17 17 17 15 15 15 15 14 12 11 11 10 9 9 9 9 10 12 15 19 21 23 22 23 24 24 24 27 30 30 29 28 27 26 27 29 31 35 37 36 34 33 32 32 31 30 30 30 30
24 25 25 25 25 25 26 27 26 26 25 24 23 21 18 18 18 17 16 15 15 16 14 12 12 12 12 11 10 11 11 12 12 14 16 18 18 17 20 22 22 23 27 28 27 27 27 27 27 28 28 30 33 36 36 35 34 32 32 32 31 31 31
24 25 26 26 26 26 27 28 28 28 27 26 26 24 22 20 20 19 17 15 16 17 17 14 13 13 14 14 13 13 13 12 11 10 10 11 14 15 16 20 22 21 22 25 27 27 27 27 28 30 30 27 27 30 34 36 36 35 33 33 32 32 32
23 24 25 25 26 26 27 28 29 29 29 29 28 27 25 24 22 21 19 17 17 18 19 17 15 13 13 14 14 14 14 12 11 9 7 6 10 14 15 18 22 21 21 25 29 30 30 30 31 33 33 29 26 27 28 31 35 37 35 34 33 33 33
22 23 24 25 25 25 26 28 29 29 30 30 30 29 28 27 25 23 21 19 18 19 20 19 18 15 13 14 14 13 13 13 12 10 8 8 11 16 16 18 21 21 20 24 29 30 33 34 34 35 34 28 26 27 28 29 34 37 36 34 34 34 34
22 22 22 23 24 24 25 27 28 30 31 31 31 31 31 30 28 27 25 22 20 20 21 21 20 17 14 14 14 13 12 13 13 14 12 12 15 19 19 19 22 21 20 23 26 28 32 34 34 34 33 27 25 27 30 33 36 38 36 36 36 35 35
23 22 22 22 23 24 25 26 28 29 30 31 32 32 32 31 31 30 28 25 22 21 22 22 21 19 17 15 15 14 13 13 13 16 17 16 16 20 23 24 25 24 22 24 26 27 30 32 31 32 32 29 27 26 26 31 37 38 37 36 36 36 35
24 24 24 24 23 24 25 26 28 29 30 31 32 33 34 33 32 32 31 29 26 23 23 23 22 21 19 17 16 15 15 14 12 15 19 19 18 20 23 27 29 27 26 26 27 29 31 30 27 27 29 31 31 27 25 31 37 38 37 37 36 36 36
26 27 27 26 26 25 26 27 28 29 30 30 31 33 36 35 33 33 32 31 28 25 24 24 24 22 21 20 17 15 15 16 14 14 17 20 22 22 22 25 30 30 29 28 28 30 33 32 29 27 26 28 28 26 28 35 37 34 34 35 34 34 33
29 29 29 29 28 27 26 27 28 30 32 32 30 33 37 38 36 34 32 30 29 27 25 25 26 24 22 21 20 17 15 16 17 16 17 20 24 26 24 24 27 30 32 30 29 31 33 35 36 35 32 31 30 28 30 36 37 33 32 32 31 31 30
26 27 27 27 26 25 24 25 25 27 31 33 31 32 36 39 37 34 32 31 29 27 26 26 28 27 24 22 21 19 17 17 18 18 19 21 23 26 28 27 27 29 31 33 33 32 33 34 37 38 37 39 40 39 38 39 38 36 34 33 31 30 28
24 23 24 24 24 24 24 23 23 25 28 31 33 33 35 38 39 36 34 34 32 28 26 27 28 29 27 24 22 20 19 19 19 19 20 21 22 25 28 30 30 29 29 31 34 35 35 34 34 36 37 39 42 44 44 42 40 38 37 34 32 29 27

ECMWFFLT1_850_spd_078.txt.gz
Wind_Speed
9 17 19 21 23 25 25 26 27 27 27 27 27 27 26 25 24 24 26 26 24 23 23 21 20 19 18 19 22 23 22 21 20 19 17 17 17 17 17 16 16 15 13 11 10 10 9 8 8 8 7 7 7 6 6 6 5 5 4 5 4 4 5
3 8 15 18 20 22 24 25 25 26 27 27 28 28 27 25 25 26 27 26 24 24 23 22 21 20 19 18 20 21 22 22 21 20 19 18 17 17 17 16 16 16 16 13 11 11 10 9 8 9 8 8 7 7 7 6 6 6 5 5 4 4 4
12 5 7 15 18 19 20 23 24 23 24 25 26 27 27 26 26 27 27 25 24 24 24 23 22 20 19 19 19 20 21 22 22 22 20 19 18 17 17 17 17 16 16 16 15 12 11 10 10 9 9 8 8 8 7 7 7 7 6 6 5 5 4
14 12 4 6 13 17 17 19 22 22 22 23 23 24 25 26 27 27 26 24 23 24 25 24 23 22 21 21 20 20 20 20 21 22 22 21 20 18 17 18 17 17 16 17 16 15 13 12 11 10 10 9 9 9 8 8 8 7 7 7 6 6 6
14 12 9 8 3 9 16 17 19 21 21 22 23 24 25 26 26 26 25 24 23 23 23 24 23 22 22 21 21 21 20 19 19 21 22 22 22 21 19 18 17 17 17 17 17 17 16 14 12 11 10 10 9 9 9 9 8 8 8 8 7 7 7
15 14 13 15 16 6 7 12 16 19 19 19 21 23 23 24 25 24 23 23 22 21 22 23 24 25 24 22 22 22 21 20 19 19 20 22 23 22 21 20 19 18 18 17 17 18 18 16 15 14 12 11 10 9 10 9 9 9 9 8 8 8 8
18 19 18 17 19 17 11 7 7 12 16 18 20 21 21 21 22 21 21 20 20 21 20 21 22 23 25 25 24 23 23 22 21 19 19 20 22 23 22 21 20 19 18 18 18 19 19 18 18 17 15 13 12 11 11 10 10 10 10 10 9 8 8
20 21 21 20 19 17 15 14 12 9 9 13 15 17 18 19 19 19 21 21 20 21 21 20 20 21 23 25 26 25 23 23 22 21 20 20 21 21 22 22 22 21 20 20 20 20 20 20 19 18 18 16 15 14 13 12 11 11 11 10 10 9 9
23 23 23 23 21 18 16 13 13 13 12 10 10 12 14 16 17 18 20 22 22 22 21 21 21 21 22 24 27 27 25 25 24 23 22 21 21 21 21 22 22 23 22 21 20 20 21 21 20 20 20 19 18 17 16 15 14 13 13 12 10 10 9
23 25 26 27 25 22 18 15 12 12 12 11 9 10 12 12 14 16 19 21 22 21 20 19 20 20 22 24 25 25 26 27 27 26 24 23 22 21 20 20 21 22 23 22 21 21 21 22 22 22 22 21 21 20 19 18 17 16 15 14 12 11 10
21 25 30 32 30 26 22 18 15 14 13 12 8 8 12 12 11 12 17 22 22 21 19 18 18 19 20 21 22 22 24 26 27 27 27 25 24 22 21 20 20 21 22 23 23 22 22 22 23 24 24 23 22 22 21 20 20 19 18 16 14 13 12
19 24 29 32 32 31 28 25 21 18 16 13 11 9 10 13 12 11 14 19 22 22 21 20 19 19 19 19 19 20 21 23 25 26 27 26 25 23 22 21 21 21 21 22 23 24 24 24 24 24 24 24 23 23 23 23 22 21 20 18 17 15 14
19 21 24 28 31 31 30 29 27 24 21 17 13 10 9 11 14 14 12 12 14 16 19 20 20 20 21 19 19 20 20 21 22 24 26 27 26 24 23 22 22 21 21 21 21 23 24 25 25 25 25 25 24 24 24 24 24 24 22 21 20 19 17
19 20 21 24 27 29 29 28 28 27 25 22 17 12 8 7 10 13 13 12 13 13 13 15 17 18 20 20 21 22 22 21 21 22 24 26 27 26 25 24 24 23 23 23 22 22 23 24 26 26 26 26 26 26 26 26 26 26 26 25 23 22 21
17 19 20 22 23 25 26 25 25 25 25 24 22 18 13 8 5 8 10 13 15 17 18 18 17 16 17 19 22 23 23 23 23 23 25 26 27 27 27 26 26 26 26 26 25 24 23 23 24 25 27 27 28 28 28 29 29 29 29 28 27 25 25
16 17 19 20 20 21 22 21 21 21 22 21 21 20 18 13 8 3 5 9 14 18 21 22 21 19 17 18 21 22 22 24 25 25 26 28 28 27 26 26 27 28 29 29 29 27 25 25 25 25 26 28 29 30 30 31 32 32 32 30 29 28 27
16 16 17 18 18 19 19 19 18 18 18 18 18 18 18 17 13 8 3 3 8 14 19 23 24 24 21 19 20 21 21 22 24 25 25 26 27 27 26 25 26 28 29 30 30 29 28 27 27 27 27 27 28 29 31 32 33 34 33 32 31 29 29
14 15 16 16 17 18 18 18 17 17 17 16 16 15 16 15 14 13 9 4 2 7 14 20 25 26 26 24 22 21 21 22 23 23 23 23 24 25 26 26 27 28 29 29 29 30 30 29 29 29 28 28 28 28 29 31 33 35 34 32 31 30 30
13 14 14 15 15 16 17 17 17 17 16 16 15 15 14 13 13 14 12 8 6 2 5 12 18 23 26 28 26 23 21 21 21 20 20 21 23 23 25 27 28 27 27 27 28 29 29 29 29 29 29 29 30 29 29 30 32 34 34 33 32 31 31
12 12 13 14 15 15 16 17 17 16 16 15 15 15 14 13 13 13 11 10 9 7 4 2 8 16 20 24 27 27 25 22 21 19 18 18 19 19 21 24 26 26 26 26 26 27 29 28 28 29 29 29 29 30 30 31 31 33 34 34 33 33 32
10 11 12 13 14 15 15 16 17 17 16 16 16 16 15 13 12 12 11 10 10 10 9 8 3 10 16 17 20 25 27 25 22 20 18 17 16 15 16 18 19 21 24 24 23 24 26 27 27 28 29 29 29 29 30 32 32 32 33 33 33 32 32
9 10 11 12 12 13 14 15 17 17 16 16 16 16 15 13 11 11 11 11 11 10 10 10 7 2 11 15 17 20 24 25 24 21 19 18 17 16 16 17 17 18 20 22 22 21 22 24 25 27 28 29 29 29 30 31 32 32 32 32 32 30 30
8 9 9 10 11 11 12 14 16 16 16 15 15 16 16 15 12 10 10 10 9 10 10 10 9 6 2 8 12 16 20 23 25 24 22 20 18 17 17 18 18 18 18 20 20 20 21 22 23 24 25 26 28 30 31 31 32 33 33 32 32 31 30
8 9 9 10 11 10 11 15 16 16 15 15 15 16 16 16 15 13 12 10 9 9 10 11 10 7 4 2 4 9 13 18 23 24 24 24 22 20 19 19 20 19 19 19 19 20 21 22 23 23 23 24 26 28 30 32 32 33 33 33 32 31 31
10 11 11 11 11 10 13 18 19 17 15 15 16 16 16 16 16 16 16 14 12 11 10 9 9 8 6 4 4 5 6 9 13 16 19 23 25 24 23 23 23 21 21 22 22 22 23 24 24 25 24 25 26 27 29 31 32 33 33 33 33 32 31
10 12 13 13 13 13 16 18 17 16 16 16 18 18 17 17 17 17 18 17 16 15 13 10 8 7 7 5 4 5 5 6 7 9 13 16 19 21 23 24 26 27 28 27 26 26 26 26 27 27 27 27 27 27 28 30 32 33 34 34 33 32 32
11 11 12 13 16 20 19 16 15 16 17 19 22 22 20 19 19 18 19 19 18 17 17 15 11 8 8 8 6 6 5 6 8 9 10 12 13 15 16 18 22 27 29 29 28 28 28 28 28 28 28 27 27 27 28 29 31 32 34 34 34 32 32
13 13 11 12 16 19 19 18 18 18 18 18 21 23 23 24 22 20 20 20 20 19 20 20 17 12 8 9 9 8 7 8 9 8 9 11 13 13 13 14 17 22 24 25 25 25 26 26 25 25 26 27 28 28 29 30 31 32 34 36 36 34 33
14 15 14 13 13 13 15 18 21 22 21 20 20 22 25 27 26 24 23 21 21 21 22 22 22 19 13 10 10 11 11 11 11 9 9 10 12 14 14 14 16 19 21 23 23 24 25 25 24 24 26 29 31 30 30 31 33 34 35 36 37 37 36
14 15 15 15 14 13 13 16 19 22 24 23 23 24 26 28 29 29 28 25 23 23 23 24 24 24 21 16 13 13 12 11 11 11 11 10 11 14 16 15 13 14 17 22 24 24 25 25 25 26 28 31 32 32 31 31 32 34 35 36 38 39 39
14 15 16 15 15 15 15 15 17 20 22 22 23 24 25 27 29 31 31 30 28 25 25 25 26 26 25 23 20 17 14 11 10 10 12 12 11 13 16 17 16 15 16 19 23 25 25 24 23 24 27 29 30 31 31 30 30 32 32 34 36 38 40
14 15 16 16 17 18 17 17 17 18 20 21 21 22 24 25 27 30 32 33 33 31 29 28 28 28 28 27 25 23 19 15 12 11 11 12 13 14 14 16 18 20 19 18 21 24 24 23 20 20 23 25 28 31 30 28 29 31 30 32 35 36 38
13 14 15 17 18 20 20 20 20 19 21 22 22 22 24 26 28 30 31 33 33 33 33 32 31 30 30 29 28 26 24 21 18 15 14 14 15 16 16 15 15 18 20 21 21 23 25 24 21 21 22 22 25 29 28 28 29 30 30 32 33 34 35
13 14 16 17 18 20 20 21 23 23 24 24 23 23 24 26 28 30 32 33 33 33 34 34 33 32 31 30 29 28 27 26 24 21 19 17 17 18 19 18 16 15 17 20 21 24 27 26 25 25 25 23 23 24 24 25 28 30 31 31 29 28 29
14 15 17 18 19 19 20 22 24 25 25 25 24 24 24 25 26 28 30 32 33 32 32 33 33 33 32 30 29 28 27 26 26 25 24 22 21 21 21 21 21 20 20 20 20 22 26 28 29 30 27 24 23 23 24 26 27 28 29 29 28 27 26
16 17 18 18 19 20 21 22 22 23 24 25 24 24 25 25 25 26 28 29 31 31 30 29 30 31 31 29 27 24 23 23 24 26 28 26 24 23 23 24 24 25 26 26 23 22 23 26 30 33 32 29 27 26 28 29 28 25 25 27 29 28 26
17 18 19 19 20 21 21 21 21 22 24 24 24 24 24 25 26 26 27 28 29 28 28 28 28 29 29 27 26 25 25 25 25 26 28 29 28 26 25 25 25 25 26 28 29 26 24 25 28 31 35 36 35 33 32 33 32 30 30 31 31 30 28
18 19 20 20 21 21 22 22 22 22 23 23 23 24 25 26 27 27 27 27 27 26 26 28 28 29 29 28 27 28 28 26 23 23 26 29 30 30 27 25 24 25 26 28 30 29 27 26 27 28 31 36 38 38 37 36 36 38 40 39 38 36 35

ECMWFFLT1_850_spd_081.txt.gz
Wind_Speed
13 17 19 21 22 22 25 28 26 25 25 26 27 27 27 27 26 26 26 27 27 25 24 22 21 21 21 21 21 20 20 19 17 17 17 16 15 14 14 14 14 13 11 10 10 10 9 10 10 10 9 8 8 8 8 7 8 7 7 8 7 7 7
7 14 16 18 20 21 22 23 24 24 24 25 26 25 26 27 26 26 26 27 26 25 24 23 22 21 20 20 20 20 20 19 18 18 17 17 16 15 15 14 14 14 13 11 10 11 11 11 11 11 10 8 8 9 8 8 7 7 7 7 7 7 8
8 6 11 14 16 19 21 19 21 25 24 23 25 25 24 25 24 23 25 26 26 25 24 24 23 21 20 19 19 18 18 19 20 19 18 17 17 16 15 15 14 14 14 13 12 12 12 12 12 11 10 9 9 9 9 8 8 7 7 7 7 7 7
13 9 6 8 13 18 22 24 23 25 24 22 23 24 23 25 24 22 23 25 25 25 25 25 24 23 21 20 19 17 17 18 20 20 19 17 17 16 16 16 16 15 14 15 14 13 12 13 12 12 11 11 11 10 10 9 9 8 7 7 6 6 6
13 13 10 4 9 19 23 25 25 25 25 22 21 23 23 23 23 22 23 25 25 25 26 26 24 24 22 20 20 18 17 16 18 20 19 18 17 17 17 17 16 16 15 15 15 15 14 13 13 13 12 12 12 11 11 10 10 9 8 7 7 7 6
11 11 12 12 4 14 17 20 24 25 24 22 22 24 25 24 23 22 23 25 25 24 25 26 25 25 24 22 20 19 18 17 16 18 19 20 19 18 18 17 17 17 16 16 15 16 16 16 14 13 13 12 12 11 11 11 11 10 9 8 8 8 7
10 11 12 14 12 8 8 14 21 22 21 20 21 22 22 24 23 22 23 23 23 24 26 27 26 25 25 23 21 21 19 18 17 17 18 20 21 20 19 18 18 17 17 16 16 16 16 17 16 15 13 13 12 12 12 12 12 12 11 10 9 9 9
12 13 13 14 14 14 13 10 12 19 21 20 19 18 18 22 23 23 24 23 24 25 27 27 25 24 24 23 22 22 21 19 18 18 18 19 21 21 21 20 20 19 18 17 17 17 17 16 16 16 15 14 14 13 13 14 13 13 12 11 11 10 10
15 16 16 16 15 16 17 19 17 12 11 12 15 17 18 21 22 22 21 21 24 24 23 23 22 22 22 21 21 21 21 20 20 19 19 20 20 21 21 21 20 20 20 19 18 18 18 17 16 17 17 17 16 15 15 15 14 13 13 13 12 11 11
17 17 18 19 19 18 17 18 22 21 17 12 9 10 13 15 17 16 13 14 18 17 17 18 19 19 19 19 20 20 20 21 21 20 20 21 21 21 21 21 21 21 21 20 19 18 18 19 18 18 19 19 18 18 17 17 16 14 14 14 13 13 12
17 19 20 20 20 20 18 18 20 21 20 18 14 11 10 10 11 14 13 13 14 13 12 13 14 15 18 18 19 20 20 21 21 21 21 21 21 21 21 21 21 21 22 21 20 19 19 20 20 20 21 21 21 21 20 19 18 17 16 14 14 14 13
17 19 21 22 23 22 21 20 18 18 17 15 13 12 11 10 11 13 14 13 12 11 10 10 11 13 16 17 19 20 20 21 21 22 22 22 22 21 21 21 21 22 22 22 22 21 21 20 21 22 23 23 22 22 22 21 20 20 19 17 15 15 14
16 17 19 22 23 23 23 22 20 18 16 14 12 11 9 8 10 12 14 14 13 10 8 9 11 11 13 15 17 19 20 20 21 21 22 22 22 22 22 21 22 22 22 21 22 23 23 22 22 23 25 25 24 23 23 23 23 22 22 20 18 17 16
15 16 18 20 22 23 23 23 22 19 16 14 11 9 8 7 8 10 12 15 15 14 12 12 13 12 13 14 15 16 17 19 20 21 22 22 22 22 23 22 22 22 22 22 22 23 23 23 23 23 24 25 25 25 24 25 25 25 25 24 22 20 18
15 15 16 18 20 21 21 21 22 21 18 16 12 9 7 6 7 7 10 14 16 16 16 16 16 15 15 15 15 15 15 17 18 19 21 22 22 22 23 23 23 23 23 23 23 23 23 23 23 23 23 24 25 25 25 25 25 26 26 27 26 24 21
15 15 16 16 17 17 18 18 19 19 19 18 15 12 8 5 5 5 7 11 15 17 17 17 17 16 14 13 15 16 16 16 17 16 17 19 20 22 22 22 23 23 24 24 24 23 23 23 23 23 23 23 24 25 25 25 25 26 27 28 28 26 24
14 14 14 15 15 15 16 17 17 18 18 18 17 15 12 8 5 3 4 5 9 15 18 18 19 18 14 11 12 16 18 18 16 14 15 16 17 19 20 21 23 23 24 25 25 25 25 24 24 24 23 23 23 24 25 25 25 27 28 29 29 28 27
12 13 13 14 14 14 15 16 16 17 17 17 17 16 14 13 10 5 3 1 1 6 12 15 18 21 20 14 12 14 17 17 15 13 14 16 16 17 19 20 21 23 24 25 26 26 27 27 26 25 25 24 23 24 24 25 25 27 29 30 31 30 29
11 11 12 12 13 13 14 15 15 15 16 16 16 15 15 15 14 11 6 4 3 1 3 6 9 15 19 18 17 16 16 16 15 14 15 17 18 19 20 20 21 22 23 24 24 25 26 27 27 27 27 26 26 25 25 24 25 26 28 30 32 32 31
10 10 10 11 12 12 13 14 14 14 15 16 15 14 14 14 15 15 12 9 6 5 6 7 7 8 12 16 17 18 19 19 19 18 18 19 20 22 21 21 22 22 22 23 23 23 24 25 25 26 27 27 28 28 27 26 26 26 28 30 32 32 32
9 9 10 10 11 11 12 12 13 13 13 15 15 14 13 14 14 14 14 13 9 9 10 11 11 8 8 13 13 15 20 24 26 26 23 22 23 23 21 22 22 21 21 23 21 20 22 23 22 23 25 26 27 28 29 29 29 29 29 30 32 33 33
7 8 9 10 10 10 10 11 12 13 12 13 13 13 14 14 13 13 13 13 11 10 10 11 11 10 6 6 7 11 17 20 24 25 22 21 22 22 22 23 23 21 21 21 19 20 22 22 22 23 24 25 25 27 28 29 30 32 33 33 34 34 33
6 6 8 8 9 9 9 10 12 12 11 11 11 12 14 14 14 14 13 13 14 13 12 11 10 10 8 6 4 6 10 13 17 19 19 20 22 23 23 23 22 21 20 20 21 23 25 23 22 22 23 24 25 26 28 28 29 32 34 35 35 35 33
5 5 6 7 8 8 7 10 12 11 11 11 10 11 12 13 13 13 13 13 13 13 14 14 13 11 10 10 9 5 5 7 10 14 16 17 18 19 21 21 20 20 20 20 23 25 25 24 24 24 24 25 25 26 27 28 29 31 33 34 35 35 34
3 4 4 6 7 7 8 12 13 11 11 10 11 12 12 12 12 11 13 15 13 12 13 13 13 11 10 11 12 10 9 8 8 8 9 10 11 13 15 19 21 21 19 20 23 24 25 26 26 26 27 27 26 26 27 28 29 31 33 34 34 34 34
4 4 5 6 6 7 10 12 11 10 10 11 13 14 13 12 12 12 14 16 14 11 12 13 14 12 9 8 8 9 12 12 11 9 9 9 8 7 9 13 18 20 20 21 23 23 24 26 27 27 27 27 25 26 27 28 28 30 32 33 35 35 34
5 5 6 7 8 10 10 9 8 9 10 11 13 13 12 13 14 15 18 17 14 12 12 15 17 16 14 11 8 8 11 12 12 13 12 10 7 6 7 10 13 17 20 23 25 25 25 26 27 27 27 26 26 27 28 28 29 29 30 32 35 35 35
5 6 7 8 10 10 9 8 8 9 9 10 11 11 11 12 15 18 21 20 16 14 14 17 20 20 18 16 14 12 11 10 11 12 11 10 9 8 8 9 12 15 18 22 26 27 27 28 28 27 26 25 27 28 29 29 30 30 31 31 32 33 33
5 5 7 8 9 9 10 10 11 11 11 11 11 11 11 12 14 18 22 22 21 20 20 21 22 22 22 20 18 17 16 15 14 13 10 8 9 10 10 10 12 14 16 20 23 26 28 29 30 29 27 27 28 28 29 29 30 31 32 32 33 33 32
5 5 6 7 8 9 10 11 12 13 13 12 12 12 12 12 13 15 18 20 21 23 25 25 25 24 24 24 22 21 20 20 19 17 14 13 10 8 9 11 12 13 15 17 20 22 24 26 28 28 28 29 29 27 26 27 28 29 31 31 32 33 34
5 6 6 7 8 10 11 12 12 13 13 13 12 13 13 13 14 14 15 17 20 23 26 27 27 26 26 26 26 25 24 23 23 21 18 17 16 15 13 11 11 13 14 16 18 19 20 23 25 27 27 27 27 25 24 24 26 28 30 30 30 31 33
7 7 7 7 8 10 13 14 14 14 14 14 13 13 13 13 14 16 17 19 21 22 23 23 23 26 28 28 28 27 26 26 25 22 19 17 18 20 19 16 14 15 16 18 19 18 17 19 23 25 26 26 26 26 26 25 25 26 28 30 31 31 31
9 9 8 8 8 10 12 13 15 15 16 17 16 16 16 16 16 16 17 18 19 19 19 22 24 26 26 25 24 25 27 29 29 27 25 22 20 19 19 17 15 15 17 19 20 18 17 17 19 21 23 24 25 26 26 25 24 24 25 28 31 30 29
10 11 11 11 11 10 11 12 14 16 18 19 19 18 18 18 18 18 19 19 18 17 18 22 24 26 26 25 24 24 26 28 29 28 27 26 22 18 19 21 21 20 19 18 17 17 17 17 18 18 18 19 20 23 25 26 25 25 25 27 29 28 26
10 12 13 13 13 13 12 13 14 15 18 19 20 20 20 20 19 19 19 19 19 18 19 19 21 23 25 25 24 22 21 21 21 21 21 20 19 20 24 28 30 30 29 26 23 21 20 20 21 20 18 17 19 22 25 26 24 24 26 28 29 27 25
11 13 14 15 15 16 16 16 15 15 17 18 19 20 20 21 20 19 18 18 19 20 20 20 20 21 21 21 20 19 18 18 18 17 17 17 18 21 25 29 32 34 35 35 33 30 28 27 27 26 24 24 24 25 26 27 26 26 28 30 29 28 26
12 13 14 16 17 18 18 19 18 18 17 17 17 18 18 19 20 20 20 19 19 20 21 21 22 22 22 21 20 20 20 20 20 20 20 21 23 24 27 33 38 39 38 38 36 34 33 33 33 31 28 27 28 29 29 30 29 29 31 32 32 32 30
12 14 15 16 17 18 19 20 20 20 19 18 17 17 17 18 19 20 21 21 21 22 22 23 24 25 24 23 23 24 23 23 22 22 22 23 25 25 28 32 37 38 38 38 37 35 34 33 34 33 31 29 30 32 31 30 28 27 28 28 30 32 33

ECMWFFLT1_850_spd_084.txt.gz
Wind_Speed
17 17 17 18 20 18 18 24 29 30 29 30 29 24 24 27 27 29 28 27 29 28 26 26 24 23 23 22 21 20 19 19 19 19 19 17 16 15 15 15 14 13 12 12 11 10 10 11 11 11 10 10 10 9 9 9 9 10 11 11 9 9 10
16 16 17 18 18 17 18 23 28 30 29 30 31 25 24 27 25 27 29 28 28 28 26 26 25 23 23 23 22 21 20 19 19 19 19 18 17 16 15 14 13 13 13 13 12 11 11 12 12 11 11 10 10 10 9 9 9 9 11 11 8 9 9
12 15 16 17 18 18 19 22 25 27 28 31 31 25 25 28 22 20 27 29 27 27 26 25 24 23 23 23 23 22 21 20 20 19 20 19 19 17 15 15 14 13 13 13 14 13 12 12 12 11 11 10 10 10 10 9 9 9 9 9 8 8 8
9 10 12 13 16 16 18 21 23 25 27 28 29 27 25 28 23 17 22 27 26 26 26 25 24 23 23 23 23 23 22 22 21 20 20 19 19 17 16 16 16 14 13 14 14 13 12 12 13 12 11 11 10 10 10 10 9 9 9 9 8 8 8
12 8 5 9 14 14 15 19 22 24 23 22 25 26 24 25 25 20 20 25 25 25 25 24 23 23 23 22 22 22 22 23 22 21 20 19 18 18 18 17 17 16 15 14 14 14 14 14 13 13 12 12 12 11 11 11 10 9 10 9 8 9 9
11 11 11 5 11 14 12 13 18 21 21 20 21 22 21 21 23 24 23 24 23 22 22 23 22 22 22 22 21 21 21 22 23 22 21 21 19 19 19 18 18 17 16 15 15 16 16 15 13 13 14 13 13 13 11 11 11 10 10 10 9 10 9
8 9 14 14 8 7 8 10 15 19 21 23 21 20 20 20 21 23 24 23 22 21 21 22 22 21 21 21 21 21 20 20 22 23 23 22 21 21 21 20 19 18 17 17 16 16 17 16 14 13 14 13 13 13 12 12 12 12 11 11 11 11 10
9 8 10 13 14 12 9 10 12 16 20 23 22 19 18 19 20 23 23 22 22 22 22 23 24 23 23 22 21 21 21 21 21 23 24 24 23 22 21 21 21 19 18 18 17 17 17 17 16 15 14 14 13 13 13 13 13 13 13 12 12 12 11
9 10 11 11 13 15 15 14 12 13 16 20 21 18 18 21 23 23 23 23 22 23 23 24 25 25 25 25 24 23 22 22 22 22 23 24 23 23 21 21 21 21 20 19 18 19 18 18 17 17 16 15 15 15 15 14 15 14 14 14 13 13 12
9 10 13 14 13 16 20 21 17 14 14 15 15 15 17 22 25 25 25 24 22 23 23 22 23 25 26 27 27 26 22 22 24 23 23 24 23 24 22 21 21 21 21 20 19 19 20 19 18 19 19 18 18 17 17 16 16 15 15 15 15 14 14
11 12 14 15 15 16 21 25 23 19 15 13 11 11 12 16 20 21 21 22 22 22 23 24 24 26 29 28 28 27 24 23 25 24 23 23 22 23 23 21 21 21 21 21 19 19 20 20 20 19 20 20 21 20 19 19 18 17 16 16 16 15 15
12 14 16 17 17 16 18 21 23 22 19 15 13 13 12 9 11 13 15 18 20 21 23 23 23 26 29 28 26 28 27 25 25 25 23 23 22 21 21 22 21 21 21 21 21 20 19 20 21 21 21 21 21 21 21 21 20 19 17 16 16 16 16
13 15 17 18 19 17 16 16 16 17 17 16 15 16 16 12 7 8 15 17 16 17 17 13 15 20 24 24 24 25 25 24 25 23 19 19 22 21 20 20 20 20 21 21 21 21 20 19 20 21 22 22 22 21 21 22 22 21 20 18 17 16 16
14 16 17 19 20 19 18 16 13 12 12 11 10 12 15 12 9 7 10 15 14 14 14 10 7 8 11 17 21 21 21 22 24 23 18 16 20 21 20 20 20 20 21 21 20 20 21 20 20 21 22 23 23 22 22 22 22 22 22 21 20 19 18
14 15 16 18 19 19 19 19 17 14 12 9 7 8 11 13 11 8 7 9 12 13 13 11 9 6 4 7 14 16 19 21 22 23 22 20 22 22 22 20 19 19 20 21 20 20 20 20 20 21 21 22 23 23 23 23 23 24 24 23 22 21 21
13 14 16 17 17 17 18 18 18 17 16 14 9 7 8 11 12 8 6 7 10 11 10 10 10 8 5 6 9 10 11 15 17 20 22 23 23 22 22 22 22 21 19 19 20 19 19 20 20 21 21 21 22 23 23 24 24 24 25 24 24 23 23
13 14 15 15 16 16 16 17 17 17 17 17 16 12 8 4 4 6 5 6 7 9 8 7 7 10 10 8 6 7 6 8 11 13 15 18 19 20 20 21 24 24 23 20 19 19 19 19 21 22 21 21 22 23 23 23 24 25 26 26 25 25 25
13 14 14 14 15 15 16 16 16 17 17 15 16 16 14 12 8 3 0 2 3 3 5 7 8 10 11 9 7 6 5 6 9 11 12 13 14 17 20 22 24 25 26 24 22 22 22 21 22 23 23 23 22 23 24 24 24 25 26 27 27 26 26
12 14 13 14 15 15 15 15 15 16 17 16 16 15 15 15 15 14 12 6 3 2 2 4 7 11 13 13 11 10 9 9 10 10 11 11 12 15 17 18 21 23 25 24 23 25 26 25 25 26 27 27 26 24 24 25 25 26 27 28 28 28 27
11 12 13 13 14 14 14 14 14 14 14 15 15 15 14 15 16 16 17 14 10 8 6 5 4 3 9 13 13 13 12 12 11 10 9 10 12 14 14 14 15 19 21 22 22 23 24 26 28 29 29 30 30 29 28 26 26 26 28 29 30 30 30
10 11 12 12 12 13 13 13 13 13 13 13 13 14 14 14 14 13 14 15 14 13 10 10 11 8 2 6 10 11 11 12 14 14 12 12 13 14 14 13 14 16 19 21 22 23 23 24 27 28 28 29 31 32 32 31 29 28 27 28 30 31 32
8 10 11 11 11 11 12 13 12 12 12 12 12 13 13 13 13 12 13 14 13 13 12 14 16 15 11 4 4 9 9 9 11 12 13 15 17 17 16 15 15 17 20 21 22 23 23 24 25 27 28 30 30 30 32 34 33 32 30 29 28 29 30
7 9 10 9 10 10 10 11 11 11 11 11 11 12 12 12 13 12 13 15 14 12 12 13 16 16 15 12 5 2 5 6 6 7 9 13 16 18 18 16 16 17 18 19 20 21 23 24 26 27 27 29 30 30 31 32 33 33 34 34 33 31 31
6 8 8 8 9 9 9 11 11 10 10 10 10 12 11 10 10 10 12 14 14 12 11 11 13 15 15 14 11 7 6 6 6 5 6 8 10 12 15 16 16 16 16 17 19 21 23 24 25 27 26 26 27 30 32 33 32 32 33 35 36 36 36
6 6 7 8 8 6 9 12 10 9 10 9 9 11 10 9 9 8 9 12 12 11 11 10 12 14 14 14 13 11 9 8 7 7 6 5 7 9 11 13 15 16 17 18 19 20 21 22 23 25 25 24 25 28 30 32 32 32 33 34 34 35 37
5 6 6 7 6 7 9 11 9 9 10 10 11 11 10 9 9 8 10 11 10 9 10 11 12 14 13 13 13 13 12 10 8 8 8 5 4 8 10 12 13 15 18 20 20 20 19 20 21 23 24 24 27 29 29 30 32 34 35 34 33 34 36
4 5 6 6 7 8 8 8 8 9 10 11 11 11 10 10 10 10 13 13 11 9 9 10 12 14 14 13 13 12 13 12 11 9 8 7 4 4 8 11 13 14 14 15 17 19 20 20 21 23 24 25 27 30 31 31 31 32 33 33 31 30 32
3 4 6 6 7 7 7 7 8 8 9 10 11 11 10 10 11 12 15 15 13 11 11 12 15 16 15 15 14 13 13 13 13 12 11 9 6 4 5 7 11 12 12 13 14 15 17 19 20 22 26 27 29 30 31 31 31 31 31 31 30 29 29
3 4 5 5 6 7 7 7 7 8 9 10 10 10 11 11 12 13 14 14 13 13 15 17 20 21 20 18 16 15 15 15 15 15 14 12 10 8 7 7 8 10 12 14 15 15 15 16 15 17 22 25 27 30 31 31 32 31 30 29 29 30 30
3 4 4 5 5 6 6 7 7 8 8 8 9 10 10 10 11 12 12 12 13 15 18 20 21 21 20 19 19 18 18 18 17 16 15 15 14 13 12 12 12 11 11 13 14 15 15 15 14 15 18 20 22 24 27 29 29 29 29 28 29 30 31
3 4 4 5 5 6 6 7 8 8 8 8 8 9 9 9 10 10 10 12 14 15 16 16 16 17 19 20 21 21 20 19 18 17 16 16 15 14 15 16 16 15 14 15 15 15 14 14 15 16 18 19 19 19 20 23 25 26 27 27 27 27 29
3 3 3 4 5 7 8 8 8 8 8 9 9 9 8 8 9 9 10 11 12 13 13 12 13 15 18 19 19 19 19 19 19 20 21 20 18 18 19 19 19 18 17 17 17 15 14 13 14 15 16 17 18 18 18 18 20 22 22 23 24 26 27
2 3 3 4 6 7 7 8 8 9 10 10 11 11 11 10 10 10 11 12 12 11 11 12 12 13 15 17 18 18 18 19 20 21 22 22 21 20 19 17 17 16 15 15 15 14 13 14 15 15 15 15 16 17 17 17 16 17 18 19 20 22 23
2 3 4 5 6 7 8 8 9 10 11 12 13 13 13 13 12 12 13 13 12 11 12 13 13 13 14 16 18 18 16 16 17 18 18 18 18 17 16 15 16 17 18 19 19 18 18 20 21 20 20 21 21 21 21 18 15 15 16 16 16 18 19
3 4 5 6 6 7 8 9 10 11 12 13 13 14 14 14 13 13 13 12 12 13 14 14 15 15 14 14 14 14 14 13 13 13 13 13 13 14 14 15 16 18 20 21 21 21 23 26 28 27 27 29 30 30 29 26 22 20 18 17 16 16 17
4 4 5 6 7 8 9 10 11 12 13 13 13 13 13 13 13 14 13 13 13 14 14 15 17 17 16 15 13 13 13 13 14 14 14 15 15 15 17 19 21 21 22 24 26 28 31 34 35 33 31 31 32 33 33 34 32 30 27 26 23 21 22
4 5 6 7 8 9 9 10 11 12 12 13 14 14 14 14 14 14 14 14 15 15 16 18 19 20 18 16 15 15 15 16 16 16 17 18 19 20 22 26 28 30 31 33 34 35 35 34 33 30 29 30 32 32 31 33 33 32 32 32 30 29 29
5 6 7 8 8 8 9 10 10 11 13 14 14 15 15 15 15 16 16 15 16 17 18 18 19 20 19 18 17 18 18 18 18 17 18 18 19 19 20 24 27 29 29 29 28 27 25 25 26 29 30 31 32 32 32 32 31 31 31 30 29 29 30

ECMWFFLT1_850_spd_087.txt.gz
Wind_Speed
23 25 25 26 28 29 28 27 27 32 35 33 29 29 30 29 30 30 27 25 25 24 26 26 23 22 22 21 21 20 20 20 21 22 19 18 18 17 16 15 12 11 10 10 10 9 10 11 10 10 10 10 10 11 10 10 11 12 12 13 12 10 10
22 24 25 26 27 28 28 27 27 29 34 34 29 28 30 30 31 32 29 26 25 24 26 27 24 23 22 21 21 21 21 21 21 22 21 20 19 18 16 16 15 13 12 11 10 10 10 11 11 11 11 10 10 11 10 11 12 12 12 13 11 10 11
22 23 24 24 26 28 29 27 27 28 32 34 31 28 29 28 29 32 31 27 26 25 26 27 25 23 22 22 22 21 21 22 21 21 22 22 20 18 16 15 15 14 12 11 11 11 11 11 11 12 12 11 11 10 11 11 11 11 12 12 10 10 11
15 19 21 22 23 25 24 23 23 25 29 32 32 29 28 27 27 31 31 27 24 24 25 27 25 23 22 22 23 22 22 22 22 21 21 22 20 19 17 15 15 15 13 12 12 11 11 12 12 13 13 12 12 11 11 11 11 11 11 12 11 10 11
7 10 15 18 19 18 17 19 20 21 25 29 30 31 29 26 26 29 30 27 24 22 24 26 27 25 23 22 23 23 23 22 22 21 21 21 20 20 19 17 16 16 14 14 13 12 12 12 13 14 13 12 13 12 12 11 12 12 11 12 12 11 11
14 12 9 13 16 15 16 19 20 20 23 27 30 31 31 28 27 30 30 28 26 23 23 26 26 26 25 24 23 23 23 23 23 21 21 20 20 20 20 18 17 17 16 15 15 15 14 13 13 13 13 14 13 13 13 13 13 12 12 12 12 12 12
19 16 9 9 11 13 15 17 18 20 22 26 29 30 29 28 27 29 29 27 27 25 24 25 25 25 25 25 24 24 23 24 23 22 21 20 20 19 19 19 18 17 17 16 16 17 16 15 14 14 14 15 14 14 13 14 14 13 13 13 12 12 13
22 21 14 6 4 7 12 13 15 19 20 22 25 25 25 26 26 29 29 28 28 28 26 25 25 25 25 24 24 23 22 22 22 23 22 20 20 19 18 19 18 17 18 18 18 18 18 18 17 16 15 16 16 15 14 14 14 15 14 14 13 13 13
19 19 15 8 7 8 11 11 14 18 19 19 20 21 23 24 24 26 28 28 29 29 28 26 26 26 25 24 24 23 22 20 19 22 23 22 21 21 19 19 19 18 18 19 18 18 18 20 20 18 16 16 16 16 15 15 15 15 15 15 15 14 13
15 15 13 8 7 10 13 14 14 17 17 17 15 17 20 23 22 23 25 27 29 30 30 28 28 29 28 27 26 24 23 22 20 21 23 23 23 22 21 20 20 20 19 19 19 18 18 19 20 19 18 17 17 17 16 16 16 15 15 15 15 15 15
13 13 13 12 12 12 16 18 18 17 16 16 14 13 14 18 20 20 21 23 23 24 26 27 28 29 28 27 27 27 25 25 24 23 24 24 24 23 22 21 21 21 20 20 20 20 19 19 19 19 19 19 18 18 17 17 17 17 16 16 16 15 15
13 14 13 14 15 16 17 19 19 18 18 17 16 15 14 15 16 17 18 20 20 18 17 19 22 24 25 25 26 28 28 28 27 25 24 25 25 24 23 22 21 21 20 20 21 21 21 20 19 19 19 19 19 19 19 19 19 18 17 16 16 16 16
15 16 14 12 12 15 18 19 19 19 18 18 18 17 17 16 14 13 13 15 17 16 13 12 15 19 22 25 27 27 28 28 28 27 26 25 25 25 24 23 22 22 21 20 20 22 23 22 21 20 19 19 19 19 19 20 21 21 20 18 17 17 17
16 17 16 14 12 13 14 15 17 18 17 17 18 17 16 16 15 14 13 12 12 13 12 11 12 15 17 20 25 28 27 27 28 28 27 24 24 25 24 21 22 23 24 23 21 20 22 25 24 22 20 19 18 18 18 20 22 22 22 21 19 18 18
16 16 16 17 16 15 14 13 12 12 13 14 15 16 16 16 15 15 14 13 11 10 11 12 11 11 13 16 20 24 26 26 28 29 27 25 23 25 24 21 21 23 23 25 26 22 19 23 25 24 23 21 20 19 18 19 20 22 23 22 21 20 19
15 15 14 15 17 17 17 17 15 13 10 9 9 10 12 12 11 11 11 12 11 10 10 13 14 10 7 11 16 20 23 24 26 26 26 25 23 23 23 22 22 22 21 22 27 28 23 22 24 26 25 24 22 21 20 20 19 20 21 22 21 21 20
16 15 14 15 16 16 18 18 18 18 16 13 10 7 7 7 7 6 7 8 9 8 8 11 16 15 9 8 11 16 20 20 21 23 23 24 24 24 24 23 23 23 21 19 23 29 28 25 25 26 26 25 25 24 22 21 21 20 20 21 22 22 22
17 16 15 15 16 16 17 18 19 18 18 17 15 12 9 9 9 9 8 7 5 4 5 9 13 14 12 9 8 11 14 15 17 19 22 24 25 25 25 25 25 25 23 19 19 24 28 28 27 27 26 24 25 26 25 23 21 21 21 21 21 23 23
19 17 17 16 16 15 16 16 17 18 17 16 17 18 17 15 16 16 15 13 10 5 3 7 8 9 10 10 10 10 10 10 11 14 17 20 22 23 24 25 26 27 25 23 20 21 26 28 28 28 27 25 23 25 27 26 24 23 22 21 20 21 22
19 18 17 16 16 15 14 13 13 15 17 16 16 17 17 17 18 20 19 17 16 14 10 5 6 7 7 9 12 14 13 11 11 12 15 16 17 19 20 22 26 28 27 26 24 23 25 27 28 29 28 27 25 24 24 24 23 23 23 22 21 21 22
17 17 17 17 16 15 14 13 12 14 16 16 15 14 14 14 17 19 18 17 17 18 19 15 8 3 5 9 12 13 13 15 14 13 14 15 16 17 18 19 23 26 28 28 28 27 26 27 28 29 29 29 29 28 27 25 22 20 19 19 20 22 25
16 15 14 14 15 15 15 15 14 13 13 14 14 14 14 15 17 19 17 15 15 18 21 21 17 12 8 6 8 8 8 11 14 13 14 16 18 18 19 19 20 23 26 27 28 28 27 27 27 28 29 29 30 30 31 30 28 26 24 22 21 21 22
16 15 15 13 12 15 16 16 14 10 10 13 14 12 13 13 15 19 18 13 11 12 15 19 19 17 15 11 6 2 1 5 10 12 14 17 18 18 19 20 20 21 22 23 24 25 25 25 25 26 27 28 29 29 29 29 31 32 32 31 29 28 26
15 15 16 13 11 13 15 15 13 9 8 13 14 10 8 8 9 14 17 14 10 8 9 13 15 16 15 13 11 8 5 3 4 5 8 14 16 17 19 20 19 19 18 19 20 22 22 23 23 24 25 25 26 26 25 26 29 32 33 34 34 33 33
15 14 13 11 10 11 13 13 12 9 7 11 12 9 5 4 4 8 13 13 9 7 7 8 10 12 12 11 10 9 8 6 4 3 1 5 9 13 15 16 18 18 18 18 18 19 21 22 22 22 23 24 24 23 23 25 28 30 31 32 32 31 31
13 12 10 9 10 11 9 10 10 9 8 9 8 6 4 2 2 4 6 7 5 4 5 5 7 8 9 8 8 7 6 5 5 4 3 2 2 5 8 10 13 15 16 17 18 18 19 20 21 21 21 21 21 20 21 25 28 29 29 29 29 28 27
11 11 10 9 10 10 8 7 8 8 9 8 5 3 2 2 4 5 6 4 4 3 3 5 7 7 7 6 6 5 5 5 4 4 3 4 4 4 4 5 8 10 11 13 15 16 16 16 17 18 19 19 19 18 21 24 26 27 27 27 27 27 26
9 9 9 7 6 6 5 4 6 8 8 6 4 3 2 2 3 5 4 3 4 4 5 8 10 9 8 6 5 5 5 5 5 6 5 6 6 5 4 5 6 6 6 7 10 12 13 14 14 14 14 14 15 17 20 22 23 24 25 25 26 27 27
6 8 7 5 3 3 2 3 7 9 7 4 4 3 2 2 3 3 2 2 4 6 8 9 9 9 8 8 7 7 6 6 7 7 7 7 8 7 6 6 6 6 7 8 9 10 11 11 11 11 10 10 10 11 14 16 17 18 20 22 24 25 27
6 7 6 2 0 0 2 4 7 7 3 1 1 1 2 2 2 2 1 3 4 6 6 6 6 7 9 9 9 8 8 8 8 8 9 9 10 10 9 9 8 8 9 9 10 10 11 10 9 8 8 7 6 7 9 12 13 12 13 16 19 22 23
7 7 5 2 2 2 2 4 4 2 1 2 3 4 4 3 3 2 3 5 5 6 6 5 6 7 9 10 9 9 9 9 8 9 10 10 11 12 12 12 11 10 10 11 11 10 10 9 8 8 8 8 7 7 8 10 11 11 10 10 12 15 16
7 6 4 2 3 3 1 2 2 1 2 4 5 5 5 5 4 4 5 5 5 5 6 7 7 8 9 10 10 9 9 8 8 7 7 7 8 9 10 10 10 11 11 10 9 8 8 8 9 10 10 10 10 11 13 14 15 13 11 10 10 11 12
4 3 2 1 2 2 2 1 2 3 4 5 6 6 6 5 5 5 5 5 4 5 8 9 9 9 9 9 9 8 8 9 9 8 8 7 6 6 5 5 6 9 11 9 7 8 9 10 11 13 15 15 16 17 20 21 21 20 17 15 14 13 13
4 3 2 1 1 2 3 3 4 4 5 6 6 6 5 4 4 4 4 4 4 6 7 7 9 10 10 10 9 7 7 6 7 7 8 8 7 7 6 6 7 9 10 9 9 11 13 15 17 19 20 22 23 25 27 27 26 25 23 21 19 19 18
5 4 3 3 3 4 5 5 5 5 5 4 5 6 6 5 4 4 4 5 6 6 7 8 10 11 11 11 9 7 5 6 7 8 9 10 10 10 10 11 11 12 12 12 12 13 16 19 21 22 24 27 29 29 30 29 27 24 24 24 23 23 23
5 5 4 4 4 4 4 5 5 4 3 4 6 6 6 6 6 5 7 7 7 7 8 9 10 11 11 10 8 7 8 10 11 11 12 13 15 15 15 15 15 16 18 18 18 19 20 22 24 25 27 30 30 27 25 26 27 26 25 25 24 23 24
6 6 4 4 3 3 4 3 2 3 5 7 7 6 6 7 6 6 7 7 7 8 8 9 9 10 10 10 9 9 11 12 13 14 15 16 17 18 20 20 19 19 20 22 23 24 23 23 24 24 24 26 27 26 25 26 26 25 24 25 24 24 24
6 4 2 2 3 3 2 2 4 5 7 8 9 8 8 8 7 6 7 7 7 8 9 10 11 12 11 11 11 11 12 13 14 16 17 18 18 19 19 21 22 22 22 21 21 22 22 22 22 21 20 21 23 25 26 24 21 21 24 25 25 25 24

ECMWFFLT1_850_spd_090.txt.gz
Wind_Speed
28 29 31 35 38 40 36 31 32 37 39 38 36 34 32 30 28 28 29 28 27 27 27 28 27 26 26 25 25 24 25 25 23 21 19 16 14 14 13 12 11 10 9 9 9 9 9 10 10 11 11 10 11 11 12 13 13 12 11 11 11 11 11
24 25 22 23 29 33 32 29 30 34 37 36 36 34 33 32 30 29 29 29 27 26 26 27 28 27 25 25 24 24 24 25 24 22 21 18 16 15 14 13 12 10 9 9 8 8 9 10 10 11 11 11 11 11 11 12 12 11 11 11 10 10 11
21 23 19 14 13 14 15 19 24 30 35 37 37 36 35 34 31 30 30 29 28 26 26 27 28 27 25 24 24 24 23 24 24 23 22 20 18 17 16 14 13 12 11 9 9 9 10 10 10 11 11 10 10 9 9 10 10 10 11 11 10 9 10
17 17 19 19 17 17 21 25 28 30 34 36 38 39 37 34 33 32 30 29 29 28 27 26 27 27 26 25 24 24 24 23 23 23 23 22 19 18 17 16 14 14 13 11 11 11 11 11 10 11 11 10 10 9 8 9 9 9 10 10 10 10 9
12 12 13 18 19 21 26 33 35 32 32 34 36 38 38 36 36 34 32 30 29 28 26 25 26 27 26 25 24 23 24 23 23 23 23 23 21 19 18 17 15 15 14 12 12 12 12 11 11 11 11 10 10 10 9 9 9 9 9 9 10 11 9
13 12 10 12 16 19 23 30 35 35 36 37 36 34 34 36 36 35 34 32 30 28 26 24 24 26 26 25 24 23 23 23 23 22 22 22 22 20 18 17 16 15 14 13 13 13 12 12 12 11 11 10 11 11 10 10 10 9 9 9 10 11 10
19 14 10 9 14 19 23 26 29 33 36 38 37 34 30 28 31 34 35 33 32 30 28 25 23 24 25 24 24 24 23 22 23 23 22 22 22 21 19 17 17 15 14 15 14 13 13 13 13 12 11 11 12 11 11 11 11 10 10 11 10 11 11
18 15 13 10 12 15 18 20 21 27 32 34 36 37 33 26 25 31 35 35 34 31 28 26 25 24 25 24 23 23 23 22 22 22 22 22 22 22 20 19 18 17 16 16 15 15 14 14 13 13 12 12 13 13 12 13 13 12 12 12 11 12 12
15 13 11 10 12 14 16 17 18 22 28 32 34 37 37 31 26 27 31 33 33 30 27 26 27 26 26 25 24 23 23 22 21 22 22 22 22 22 21 20 19 19 18 17 17 17 17 15 14 13 13 13 13 14 13 13 13 13 13 12 12 12 12
14 11 9 9 10 10 12 16 18 21 26 29 31 32 35 36 32 29 29 30 30 29 25 24 27 28 26 25 24 22 22 22 21 20 21 23 22 21 20 20 19 20 19 18 18 19 19 18 16 15 14 14 14 14 14 14 13 13 14 13 13 13 13
13 11 8 8 8 6 7 12 18 21 25 26 26 26 29 33 33 30 28 28 29 28 25 24 27 29 26 25 24 23 23 23 21 21 21 22 22 22 20 19 18 19 19 19 19 20 20 20 19 18 17 16 15 15 16 15 15 14 14 14 14 15 15
12 12 10 8 8 8 9 12 17 21 22 23 23 24 24 25 28 28 27 27 27 26 25 25 27 29 27 25 25 25 25 24 23 22 21 21 22 22 21 20 19 19 20 20 20 21 21 21 20 19 19 18 17 17 17 16 16 15 15 14 15 15 15
12 12 11 9 9 10 11 13 16 20 21 20 21 23 24 24 24 24 24 25 25 24 24 26 28 28 27 26 26 26 27 26 23 22 22 23 23 23 23 22 21 21 21 21 22 22 22 22 22 21 19 18 17 17 17 17 17 17 16 15 15 15 15
14 13 12 10 10 10 11 13 15 18 20 19 18 18 19 21 22 23 22 22 23 24 24 26 26 27 28 28 27 27 27 26 24 22 22 22 23 23 24 25 24 23 23 23 23 23 23 22 22 23 21 18 16 15 15 16 17 18 18 18 17 16 16
17 16 14 12 12 11 12 12 12 13 16 18 20 20 19 17 18 21 22 19 19 20 22 22 22 24 28 28 28 29 27 25 24 23 22 22 23 23 24 25 26 26 25 24 24 24 24 23 22 22 23 21 19 17 16 15 16 16 17 18 19 19 19
17 17 16 15 15 14 14 14 13 10 11 14 16 17 18 19 18 18 19 19 18 17 18 18 16 19 24 27 27 27 27 27 26 24 23 24 25 24 23 26 27 27 26 26 25 24 25 26 25 23 23 23 22 21 19 18 16 15 14 15 16 18 19
17 17 16 14 14 14 14 15 14 12 11 11 12 13 15 16 16 16 16 16 17 17 16 17 17 17 19 22 23 23 25 27 27 26 25 25 26 25 24 26 28 28 27 26 25 24 24 27 29 27 25 24 24 24 22 21 19 16 15 14 13 13 15
17 17 17 15 15 15 16 17 18 18 17 15 14 16 16 15 14 13 13 12 14 17 17 18 19 18 18 18 19 20 22 24 26 26 26 26 26 26 26 26 28 29 29 27 24 21 22 24 29 31 29 27 26 25 24 23 22 21 20 19 17 16 15
18 16 16 16 17 18 18 18 20 20 21 19 18 18 18 17 15 13 11 11 12 15 16 17 17 16 15 16 17 18 19 20 21 23 24 24 25 26 27 27 28 29 29 28 26 22 19 21 27 31 31 30 29 27 26 25 25 25 24 23 22 21 20
18 16 16 16 17 19 19 19 18 18 19 19 19 19 18 18 17 14 10 9 10 10 11 13 14 13 13 14 16 17 17 17 17 18 19 21 22 23 24 25 27 28 28 29 28 25 21 21 24 29 31 30 29 27 27 26 26 25 25 24 23 23 22
18 17 17 18 17 17 18 18 18 18 18 17 16 16 17 19 19 18 13 11 11 10 9 8 9 9 10 11 13 14 14 14 15 15 16 17 18 20 21 22 23 25 26 27 28 28 25 23 23 27 29 30 29 28 27 26 26 26 24 23 23 24 24
17 16 17 18 17 17 17 17 17 17 17 18 16 14 15 16 17 17 16 15 15 15 14 13 11 9 8 7 7 8 10 11 12 12 12 14 15 17 18 19 19 20 22 23 25 25 25 24 24 25 28 29 30 30 29 27 25 24 23 23 23 24 24
16 16 16 16 16 17 17 16 15 15 16 17 18 16 15 14 14 14 14 13 15 16 15 15 14 12 10 10 9 6 5 7 9 10 9 10 12 14 15 17 17 17 18 19 21 21 21 21 22 23 25 26 26 27 29 30 28 26 24 24 24 25 25
16 16 14 15 16 17 16 14 14 14 13 14 15 15 15 14 12 11 11 10 12 14 14 14 13 12 11 10 10 9 7 4 5 7 6 7 9 11 13 15 16 16 16 17 18 18 19 19 19 20 20 20 19 19 22 25 26 25 25 26 26 28 29
18 16 14 14 15 16 15 13 12 12 11 11 11 11 12 12 10 8 7 7 7 9 10 11 11 10 10 9 9 9 9 8 7 6 3 2 4 6 8 10 12 14 16 16 15 16 17 19 18 17 18 19 22 23 24 24 23 22 22 24 27 30 32
18 15 13 13 13 13 12 11 11 10 9 9 8 7 7 8 7 4 3 3 2 3 6 8 8 7 6 6 7 7 7 8 8 7 5 4 2 0 1 3 5 8 11 12 12 13 15 18 17 15 14 18 22 24 25 26 25 24 24 26 28 30 32
16 14 13 12 11 10 8 9 9 9 7 6 5 4 4 4 3 2 1 1 2 3 3 4 4 3 3 3 3 3 3 4 5 4 4 4 4 3 2 1 1 2 3 5 6 8 11 15 17 16 14 15 18 19 19 20 22 24 26 27 28 28 30
16 14 12 11 9 8 7 6 7 8 7 5 4 3 2 2 2 1 1 1 2 3 4 4 4 2 1 1 1 1 1 1 1 1 1 1 1 1 1 1 1 1 1 1 3 5 6 8 12 16 17 17 17 17 17 17 19 20 21 24 26 27 28
14 13 11 9 7 7 7 7 7 7 7 6 5 4 2 2 2 1 1 1 2 3 5 5 5 5 4 3 3 3 3 4 4 4 4 4 4 3 2 2 1 1 1 0 1 3 4 3 4 7 10 12 12 13 14 14 14 13 13 15 20 23 26
12 12 10 7 6 6 7 8 8 7 6 6 5 4 3 3 2 2 2 2 3 4 4 5 6 6 5 4 4 4 4 4 4 4 4 4 4 4 3 3 3 2 2 2 1 1 3 1 2 3 4 6 8 10 11 11 10 9 8 9 11 16 19
11 11 9 7 6 6 6 7 6 6 6 5 4 4 4 3 3 2 3 4 4 4 4 5 5 5 4 4 4 4 5 5 5 5 6 6 6 5 5 5 4 3 3 3 3 2 2 3 3 4 3 4 7 8 9 9 9 9 9 9 11 13 16
11 10 8 7 7 6 6 6 6 6 6 5 4 3 3 3 3 3 3 4 5 5 5 5 5 4 3 3 4 5 6 7 7 7 8 8 7 6 6 6 6 5 4 3 3 4 5 5 5 5 5 6 8 10 10 10 10 11 13 14 14 15 15
11 9 8 8 7 6 6 6 6 6 5 4 4 3 3 4 4 4 5 5 5 5 6 6 6 5 5 4 4 6 8 8 9 10 10 9 9 8 7 7 6 6 6 6 6 7 7 7 7 8 8 10 13 14 15 15 16 17 18 18 17 16 16
12 10 9 9 8 7 6 5 4 4 4 4 4 4 4 4 5 6 7 7 8 7 7 7 7 7 7 6 6 8 9 9 10 11 11 11 10 9 9 9 8 8 7 7 8 9 9 10 10 11 12 14 17 19 20 20 21 20 19 19 18 18 18
10 10 9 9 8 7 6 4 3 3 3 3 4 4 5 5 6 7 8 8 9 9 9 9 9 9 9 8 8 9 10 11 11 12 12 12 12 11 11 11 12 12 11 11 10 11 11 12 13 14 16 17 18 20 22 24 24 22 20 19 19 19 20
9 9 9 8 7 6 3 2 3 3 3 4 4 5 5 5 5 6 7 7 7 7 8 9 10 10 10 10 9 9 10 10 11 11 12 13 13 13 13 13 13 14 15 15 16 15 15 16 16 17 19 20 21 22 23 25 25 22 20 20 21 21 21
9 9 9 7 6 4 4 5 5 5 5 6 7 7 7 6 5 3 3 4 4 5 7 9 11 11 11 11 11 10 9 10 10 10 11 11 12 13 14 14 15 14 15 16 18 19 20 21 21 21 22 23 24 25 24 23 23 22 22 23 22 21 20
9 8 7 5 5 7 8 7 6 6 6 8 9 9 7 5 3 2 3 4 6 7 8 10 11 12 13 12 11 9 8 9 9 10 11 11 11 12 13 15 16 16 15 15 16 17 18 19 20 22 22 22 23 23 22 21 21 21 21 21 20 20 20

ECMWFFLT1_850_spd_093.txt.gz
Wind_Speed
27 30 32 28 22 22 22 23 30 37 39 40 39 37 35 32 29 27 25 22 21 22 24 23 23 25 27 27 26 24 23 22 20 19 17 15 14 13 12 11 11 11 11 9 9 9 9 10 11 11 11 11 11 11 11 12 12 12 11 10 10 10 10
24 24 28 33 31 29 26 22 24 32 37 39 39 38 36 34 31 28 26 23 21 21 23 24 24 25 27 27 26 25 24 23 22 20 19 17 15 14 13 11 11 11 10 9 8 9 9 11 11 11 11 11 11 11 11 12 12 11 10 10 10 9 9
21 22 28 36 39 36 33 26 22 26 34 38 39 39 38 35 32 28 25 23 21 20 22 24 24 24 25 26 26 25 24 24 23 22 21 18 16 15 13 12 11 11 11 10 9 10 10 11 11 10 10 10 11 11 11 11 11 11 10 10 10 8 8
23 25 26 30 36 39 39 35 27 23 30 37 39 39 38 36 32 29 25 22 20 19 21 23 23 23 24 25 26 25 25 24 24 24 23 20 18 16 14 13 13 12 12 11 11 11 11 11 11 10 10 10 10 11 10 11 11 10 10 10 9 8 8
20 21 21 21 26 32 36 39 36 30 28 32 37 39 38 36 33 30 27 23 20 18 18 20 21 22 24 25 25 24 24 24 23 23 23 22 20 19 17 15 14 14 13 12 12 12 12 11 11 11 11 11 10 10 10 10 10 10 9 9 9 9 8
12 13 15 15 17 21 27 32 36 35 28 28 34 37 38 37 35 32 29 27 24 22 20 20 20 21 22 24 25 24 23 22 23 23 23 23 22 21 19 17 15 15 13 12 12 12 12 12 11 11 11 11 11 10 9 10 10 9 9 9 9 9 8
9 9 10 11 13 15 20 24 30 34 32 28 30 35 38 39 37 35 33 31 30 27 25 25 24 23 22 23 24 25 23 22 22 23 22 22 23 23 21 19 17 16 14 13 13 13 13 13 12 12 11 11 11 10 10 10 10 10 10 9 9 8 8
9 9 8 9 12 14 17 19 23 30 34 31 29 32 36 38 39 38 36 34 32 30 28 27 27 26 25 24 24 25 24 22 22 23 22 22 23 23 22 20 19 17 15 14 14 14 14 13 13 13 12 11 12 11 11 11 11 11 11 10 9 9 9
10 8 7 8 10 12 15 18 20 25 30 31 29 29 31 35 38 38 37 36 34 32 29 27 26 27 25 24 25 25 25 23 22 22 22 22 22 22 22 21 20 18 17 16 14 14 15 14 13 13 13 12 12 13 13 12 12 12 11 11 10 10 9
11 10 7 6 7 10 14 18 20 21 25 30 31 30 29 31 35 37 38 38 36 33 30 27 26 27 26 24 24 25 25 24 23 23 23 23 22 22 21 21 20 20 19 18 16 15 15 15 14 14 14 14 14 13 13 13 13 13 12 12 12 11 10
12 11 8 6 5 7 11 16 19 20 23 30 34 34 32 30 31 33 35 36 35 33 33 30 27 27 27 25 24 24 25 25 24 24 24 24 23 22 21 20 20 20 19 18 17 16 15 15 15 14 15 15 15 15 14 13 13 13 13 13 13 12 11
12 12 11 9 6 3 5 12 17 18 20 26 29 31 31 30 28 29 31 31 30 30 33 32 29 28 28 26 24 24 24 25 25 24 24 24 23 22 21 20 20 19 18 18 17 15 14 14 15 16 16 16 16 15 15 14 14 14 14 14 14 14 13
13 14 14 12 8 4 2 6 10 13 17 21 24 26 29 32 33 33 32 30 27 26 29 32 31 30 29 26 25 25 24 24 24 24 23 23 22 21 21 21 21 20 19 18 16 15 14 14 14 15 16 16 16 15 15 15 14 14 15 15 15 15 15
15 16 15 13 11 7 4 3 3 7 12 15 20 25 30 33 36 37 35 32 29 28 28 28 30 31 30 27 27 26 25 25 24 24 23 22 21 20 20 21 22 21 20 19 18 16 15 15 14 14 15 16 16 15 14 14 14 13 14 14 15 15 15
17 16 15 14 12 10 8 5 7 7 8 12 18 22 25 27 30 32 31 31 31 31 31 30 31 32 31 30 30 28 26 26 26 25 24 23 22 21 20 20 21 22 21 20 19 18 17 16 15 15 15 16 16 16 15 14 14 13 12 12 13 14 14
17 16 16 15 13 12 11 9 11 12 10 10 16 18 18 20 22 23 24 24 26 28 28 29 31 32 31 31 32 31 30 29 28 27 25 24 23 22 21 21 21 21 22 22 21 20 19 18 17 17 16 17 17 18 18 17 16 14 13 13 12 13 13
17 17 17 16 14 13 12 10 10 11 10 9 11 14 16 17 19 20 20 21 23 24 23 25 29 31 31 31 31 31 32 31 29 28 27 25 24 23 22 21 20 21 22 23 23 22 21 21 20 19 19 18 19 20 20 20 18 17 16 15 15 15 15
16 17 18 18 17 15 13 11 9 10 10 10 10 12 13 14 16 17 18 19 18 18 19 21 24 26 26 27 27 29 31 30 29 28 27 25 24 23 22 22 21 20 21 23 24 24 24 23 23 22 21 21 21 22 22 22 21 20 19 18 18 19 19
17 16 18 19 19 18 17 15 13 13 12 11 11 11 11 11 11 12 14 16 14 14 16 18 19 20 21 20 20 22 25 27 26 25 25 25 24 23 23 22 22 22 22 23 24 24 25 25 25 23 23 23 23 23 23 23 22 22 22 22 21 21 22
18 17 17 18 18 18 19 18 16 15 14 13 12 10 9 8 8 7 8 10 11 11 13 13 15 15 16 16 16 16 18 19 19 20 21 22 23 24 25 25 25 25 25 25 25 26 27 28 26 24 22 22 22 22 23 24 24 24 24 24 23 22 23
18 19 19 18 19 18 18 17 16 15 16 16 15 13 12 11 9 7 6 6 7 8 8 7 8 9 10 12 13 14 15 15 16 17 18 18 19 20 22 23 24 24 24 24 24 25 26 27 27 25 23 22 22 22 23 23 24 25 26 26 24 23 23
20 20 20 19 19 18 17 16 15 15 15 16 16 16 15 14 12 11 10 10 10 10 9 7 6 6 7 9 9 8 10 11 13 14 15 16 16 16 17 18 18 19 19 19 18 18 19 22 25 26 26 25 23 22 22 23 23 23 24 25 25 24 24
21 20 19 19 19 19 18 16 15 14 13 14 14 15 15 14 13 13 12 11 10 10 10 10 9 9 8 7 6 5 5 5 6 8 10 11 13 12 12 13 14 15 16 16 15 13 13 16 19 21 23 23 22 22 22 22 22 22 22 22 22 23 23
21 21 20 19 19 19 19 17 15 14 13 13 13 12 11 11 11 12 12 12 11 10 9 9 9 9 9 8 6 4 4 4 4 5 7 8 9 8 8 9 10 12 13 15 16 15 14 14 16 18 18 18 19 22 23 23 23 23 23 22 22 22 23
21 22 20 18 18 18 18 16 15 13 12 12 12 11 8 6 7 8 10 10 10 9 9 10 8 7 7 7 6 5 5 5 4 4 5 6 7 5 5 6 7 8 10 13 15 16 14 13 16 19 18 15 17 21 24 24 24 23 22 22 22 23 24
22 21 20 18 17 16 15 14 13 12 10 10 11 9 6 3 2 2 4 5 5 6 8 8 7 6 6 5 5 4 4 5 5 4 5 4 4 3 2 2 3 4 7 10 12 13 14 13 15 18 18 16 16 19 20 22 23 23 23 23 23 23 24
21 19 18 16 15 14 12 11 10 10 9 9 8 6 4 3 3 2 2 1 1 2 5 6 5 5 5 4 4 4 4 4 4 4 5 5 4 3 2 2 1 1 3 4 6 9 13 14 14 15 17 16 14 14 16 18 20 20 22 25 25 24 23
20 19 16 15 13 12 10 9 7 7 7 7 7 6 5 4 4 4 4 3 3 3 2 2 3 4 5 5 5 4 4 4 4 4 4 5 4 4 3 3 3 3 3 3 2 3 5 9 10 10 13 14 14 14 17 19 18 18 19 20 21 22 21
19 18 17 15 13 11 9 7 6 6 6 6 6 5 5 5 4 4 5 5 5 4 3 2 3 3 3 4 4 5 5 5 5 5 5 5 5 5 5 4 3 4 5 5 6 7 6 6 5 4 5 7 9 13 16 16 15 16 17 17 17 19 20
19 18 17 15 13 11 9 7 6 7 7 6 6 6 5 5 5 5 5 5 5 5 4 3 3 3 3 4 4 4 4 5 5 6 6 6 6 6 5 4 4 4 5 6 8 8 7 6 5 4 3 3 5 8 11 10 10 11 12 11 11 12 13
19 17 15 13 12 11 8 7 7 8 8 8 7 7 7 6 6 6 6 6 6 5 4 4 3 3 4 5 5 4 5 5 5 5 6 6 6 6 5 5 5 5 5 6 7 9 9 8 8 8 8 7 7 7 7 7 9 9 9 8 8 7 8
17 14 12 11 10 9 9 8 8 9 9 9 9 8 8 8 8 7 7 7 7 7 7 6 5 4 4 5 5 6 6 6 6 6 6 6 6 6 5 5 5 5 5 5 6 8 10 10 10 10 11 10 10 10 8 8 8 9 10 11 11 11 12
15 13 11 9 9 8 7 8 9 10 9 9 8 8 9 9 9 9 9 9 9 9 9 8 7 7 6 6 7 7 7 8 8 8 8 8 8 8 7 7 7 7 6 6 7 7 9 9 10 11 12 12 12 13 12 12 11 12 13 13 14 15 16
15 13 10 9 8 7 7 8 9 9 8 8 8 8 9 10 10 11 11 11 12 12 11 11 10 9 9 9 9 9 9 9 10 10 10 10 10 10 10 9 9 9 9 9 9 9 9 10 10 11 12 13 14 16 16 16 15 16 16 18 18 19 20
14 12 10 8 6 7 7 7 7 6 6 6 6 6 7 8 9 11 11 12 13 13 13 12 12 11 11 11 10 10 11 11 11 11 11 11 11 10 10 10 11 10 10 10 10 11 12 12 13 14 15 15 16 17 19 19 19 19 19 20 21 22 23
14 12 10 9 9 8 8 7 6 5 5 5 5 4 4 5 7 9 10 11 11 12 12 12 11 11 11 11 11 11 11 11 12 12 12 12 12 11 10 10 11 11 11 11 11 11 12 13 14 16 18 18 19 19 20 21 22 22 23 23 23 23 23
14 11 10 10 11 10 8 7 7 7 6 6 5 5 6 5 5 6 7 8 9 10 10 10 10 10 10 10 11 11 12 12 12 12 13 13 13 13 12 12 11 11 12 13 13 13 13 14 15 16 18 20 22 22 23 24 25 25 25 25 25 24 25
12 11 11 11 12 10 9 8 8 8 8 7 6 7 7 5 5 6 6 7 7 8 9 10 11 11 11 12 12 12 12 12 13 13 13 14 14 14 14 14 13 13 12 12 13 14 15 14 15 15 16 18 20 22 24 24 24 25 24 24 23 24 25

ECMWFFLT1_850_spd_096.txt.gz
Wind_Speed
28 30 27 19 16 23 30 34 36 37 38 37 36 35 34 32 31 28 26 24 23 22 22 22 21 21 20 19 19 20 19 18 18 17 15 13 12 11 10 10 10 9 8 8 8 8 8 9 9 9 8 9 9 10 10 10 10 11 10 8 8 8 8
28 32 33 27 19 18 23 29 32 35 37 37 37 36 34 33 31 29 27 25 23 21 21 21 22 22 21 20 20 21 20 19 19 18 17 15 13 12 11 11 10 9 8 7 7 8 9 9 9 8 9 9 9 9 10 10 11 11 10 9 8 8 7
28 32 37 36 29 22 21 24 28 32 34 35 37 37 35 33 31 29 27 26 24 22 21 21 21 21 21 21 22 22 21 20 20 19 18 17 15 13 12 11 10 8 8 8 7 8 9 9 9 9 9 9 9 9 9 10 10 10 10 9 9 8 7
25 30 36 38 34 26 20 20 23 27 30 32 34 36 36 34 32 30 28 27 25 23 21 21 21 22 21 21 22 23 22 21 20 20 19 17 16 14 13 13 11 9 9 9 9 9 9 10 10 10 10 9 9 10 10 9 10 10 10 10 9 8 7
20 25 29 30 30 30 27 23 22 23 25 28 31 33 34 34 33 32 30 28 26 23 20 19 20 22 22 22 22 22 22 21 20 19 18 18 17 16 16 14 13 12 10 9 9 10 10 10 11 11 11 11 10 10 10 9 9 9 10 9 9 8 7
16 19 21 23 27 33 35 32 28 24 22 23 26 29 32 34 34 34 32 30 28 26 23 21 21 21 22 22 22 21 21 20 20 19 19 18 18 18 18 16 15 13 12 10 10 10 11 11 12 12 12 12 11 11 10 10 10 9 9 8 8 7 7
15 16 16 19 25 29 33 35 34 30 26 22 21 24 28 32 34 35 34 32 30 27 25 23 21 21 21 21 21 21 21 20 20 19 19 19 19 19 19 18 16 15 13 12 11 11 12 12 12 12 12 12 12 11 11 11 10 10 9 8 8 7 6
17 18 16 17 21 24 28 31 34 35 33 30 25 23 24 28 32 34 35 34 33 30 27 24 22 20 20 20 20 20 20 20 20 19 20 20 21 20 20 19 18 16 15 13 12 12 12 13 13 13 12 12 11 11 11 11 10 10 10 9 8 7 7
16 17 17 17 18 19 22 25 29 32 34 36 34 29 26 27 30 33 34 35 34 33 29 26 23 21 20 20 20 19 19 20 20 20 20 21 22 21 20 19 18 18 17 15 13 13 13 13 13 13 13 12 11 10 11 11 11 11 11 10 9 9 8
14 15 16 16 17 18 18 19 22 24 28 31 34 34 32 30 29 31 34 35 35 34 32 29 27 25 22 21 20 19 19 20 20 21 21 21 22 22 21 20 19 19 18 16 15 15 14 14 14 13 13 13 11 10 10 10 10 11 11 11 10 10 9
14 13 13 13 15 16 16 17 17 19 22 26 30 33 35 34 32 31 33 34 35 34 33 33 31 29 27 25 23 22 21 20 20 21 22 22 22 23 22 21 20 19 19 18 17 16 15 15 15 15 14 13 12 11 10 9 9 9 10 10 10 11 11
11 10 9 9 10 11 13 15 17 18 20 22 25 29 33 35 34 31 31 32 33 34 34 33 32 31 30 28 26 25 24 22 21 21 22 23 22 22 22 21 21 20 20 19 18 17 17 16 16 16 16 15 13 12 11 10 9 9 9 9 9 11 12
10 10 9 8 7 6 7 8 12 16 19 21 24 26 30 33 33 31 30 29 30 32 33 33 32 31 30 29 27 25 24 23 22 20 21 22 22 22 22 22 21 21 20 19 19 18 18 17 16 16 15 15 14 12 11 10 9 9 9 9 9 10 11
11 10 9 8 8 5 4 2 4 9 14 18 21 24 27 29 30 29 29 29 30 31 31 31 31 30 29 29 27 25 23 22 22 20 20 21 21 21 22 22 22 21 20 20 19 19 18 17 17 15 14 14 13 12 10 10 9 9 8 8 8 9 9
12 11 10 10 9 7 4 2 1 4 10 14 15 18 22 26 28 28 27 28 29 29 28 28 30 30 29 29 28 27 26 24 22 20 20 21 21 20 20 21 21 21 21 21 20 19 18 17 16 15 14 14 13 11 11 10 10 9 8 7 7 7 8
12 11 10 11 11 10 7 4 2 2 7 10 12 13 16 20 24 26 26 27 27 26 25 24 26 28 28 28 29 29 29 27 23 21 20 21 21 21 20 19 20 20 20 21 21 20 19 18 17 16 15 14 13 13 12 12 11 10 9 8 7 7 8
13 12 11 10 11 11 10 8 6 3 3 6 8 10 11 13 15 17 19 22 24 25 24 23 24 25 25 26 27 27 29 28 24 22 22 21 22 22 20 20 19 19 19 19 19 19 20 19 18 17 15 15 14 14 14 13 12 11 11 10 10 10 10
15 13 12 11 10 10 9 8 7 7 7 6 6 7 7 6 8 10 12 15 17 19 22 22 24 26 27 28 28 28 29 29 26 24 23 22 22 21 21 21 20 20 20 20 19 19 19 19 19 17 16 15 15 15 15 14 13 12 12 12 12 12 12
17 16 14 13 12 11 10 8 7 7 8 7 8 8 8 8 8 8 8 9 8 10 15 18 19 21 24 25 26 27 28 29 27 25 24 25 24 22 21 22 22 21 22 22 22 21 20 20 20 19 18 16 15 15 15 14 14 13 13 13 13 13 14
19 18 17 16 15 13 11 10 9 9 9 8 8 8 7 7 7 7 6 6 6 7 7 10 11 14 17 18 18 20 22 24 24 24 25 26 25 23 22 22 22 21 21 21 22 20 20 20 21 21 20 19 18 17 16 15 15 15 15 15 15 15 16
18 19 19 17 16 14 12 11 10 11 12 12 11 9 9 9 6 4 3 2 2 5 7 7 7 9 12 13 13 13 13 15 17 20 23 24 24 24 22 21 21 21 21 21 21 20 19 20 21 22 22 21 20 19 18 17 16 16 16 16 17 17 18
18 18 18 17 16 15 14 13 12 13 14 15 14 13 13 13 11 8 7 5 3 4 5 6 5 6 6 7 9 11 12 13 13 15 17 19 21 22 21 20 19 20 20 20 20 21 22 22 22 23 23 22 21 20 20 19 18 17 17 17 18 18 19
17 16 16 16 15 14 14 13 13 14 15 16 16 16 15 15 13 12 12 11 8 7 7 7 7 6 4 5 6 6 8 8 8 10 13 16 16 17 17 17 17 18 18 18 19 20 20 21 22 22 22 21 20 19 19 19 18 18 18 18 18 19 19
17 16 15 14 14 14 14 13 12 12 12 13 16 16 15 13 13 13 14 14 11 8 8 8 9 8 7 8 7 4 2 2 2 4 8 10 11 11 12 13 13 14 17 19 19 17 15 16 18 19 19 19 20 20 19 18 18 17 17 18 19 19 20
18 17 15 14 13 13 13 12 12 11 10 11 13 13 11 10 10 10 12 12 10 9 10 9 9 9 9 9 8 5 3 3 3 3 5 6 7 7 7 7 7 9 13 16 16 15 14 14 14 15 16 16 17 19 18 18 18 17 17 17 18 19 20
19 18 17 15 13 12 12 11 10 9 8 9 9 8 6 6 5 6 8 8 7 8 10 9 8 7 7 7 7 6 6 6 6 4 3 3 3 3 2 3 5 7 8 10 11 12 13 13 13 15 15 14 15 16 15 15 16 16 17 18 19 20 20
19 18 16 15 13 11 10 9 8 7 7 6 6 4 3 3 4 5 6 5 4 5 7 7 6 5 4 3 4 4 5 5 6 6 5 4 3 2 2 2 2 3 2 4 6 8 11 13 14 15 16 14 13 12 13 14 14 15 16 17 18 19 19
21 19 17 15 13 10 8 7 5 4 4 4 3 2 0 2 4 4 5 4 4 4 5 5 4 3 2 1 1 1 2 3 4 4 5 5 4 2 2 3 4 4 3 2 1 4 7 11 13 14 14 14 13 13 13 14 15 15 15 14 15 16 16
21 19 17 15 13 10 7 6 4 3 2 2 1 1 2 3 4 4 4 4 4 4 3 3 3 2 2 1 1 1 1 2 3 4 4 5 4 3 2 2 2 2 3 3 3 4 6 8 9 9 9 9 12 13 12 11 11 12 12 13 13 13 14
20 19 17 14 12 10 7 5 4 3 2 2 3 3 4 4 4 4 4 4 3 3 3 3 2 2 2 2 2 1 1 2 2 3 3 4 4 4 4 5 5 5 6 7 8 9 8 8 8 8 6 6 7 8 8 7 7 8 8 9 10 11 12
20 18 16 13 12 10 7 5 4 3 3 3 4 5 6 6 6 6 5 4 3 3 3 3 3 3 3 2 2 2 2 2 2 3 4 4 4 4 5 6 6 7 8 9 10 10 10 8 7 8 8 8 7 6 5 6 6 7 7 8 9 10 10
20 18 16 14 12 10 8 6 4 3 4 5 5 6 7 8 8 8 7 5 4 4 4 3 3 3 3 3 3 3 4 4 4 4 4 4 5 5 5 6 7 7 8 8 9 10 10 9 8 9 10 10 9 7 6 7 7 8 9 9 10 11 11
20 18 16 14 12 10 8 6 4 4 6 7 8 8 8 9 9 9 9 8 8 7 6 6 5 5 5 5 5 5 6 6 6 6 5 6 6 6 6 6 7 8 8 9 9 9 9 9 9 10 11 11 11 10 10 10 10 10 11 11 12 13 14
20 19 16 13 12 10 9 7 6 6 7 8 10 10 10 10 10 10 10 10 11 10 10 9 8 8 8 7 7 7 7 8 8 8 7 7 7 7 7 7 8 8 9 10 10 10 9 9 9 10 11 12 12 12 12 12 13 13 14 15 16 17 17
19 17 15 12 11 10 8 7 6 7 7 9 9 10 11 11 11 12 12 12 12 12 12 12 11 10 10 9 8 7 7 8 8 8 8 8 7 8 8 8 8 8 9 10 10 11 11 11 11 12 12 13 14 14 15 15 16 17 18 19 20 21 21
18 15 13 12 10 9 7 7 7 7 7 8 9 10 11 12 12 12 12 13 13 13 12 12 11 11 10 9 8 7 6 6 7 7 7 7 7 7 7 8 8 9 9 9 10 10 11 12 13 14 14 15 16 17 18 18 19 20 21 22 23 23 24
16 15 14 12 10 8 8 8 9 8 8 8 9 9 9 9 10 11 11 12 12 12 11 11 10 10 10 9 8 8 8 7 7 7 8 8 7 7 7 7 8 9 9 10 10 10 10 11 12 14 15 16 17 17 18 19 20 21 22 23 24 24 24
17 15 13 12 10 10 10 10 9 9 8 9 8 8 7 7 8 9 9 10 11 11 11 10 9 9 10 10 9 9 9 10 10 10 10 9 9 8 8 8 8 8 9 9 10 10 10 10 11 12 14 15 16 17 17 18 19 21 22 23 23 23 23

ECMWFFLT1_850_spd_099.txt.gz
Wind_Speed
33 33 32 30 30 31 33 33 31 32 32 32 31 30 29 29 27 25 24 23 23 22 21 20 19 18 17 16 15 14 14 13 12 12 12 11 10 8 7 6 6 6 5 5 5 5 5 6 7 8 8 8 8 9 9 8 8 8 8 7 8 8 7
28 30 30 28 28 28 29 31 32 33 33 33 32 31 31 30 28 25 24 23 23 22 21 20 20 19 18 16 15 15 14 14 14 13 13 13 11 10 8 7 6 6 5 5 4 5 6 7 7 8 8 8 7 8 8 8 8 8 8 7 8 8 7
26 28 29 26 27 29 26 26 30 33 33 34 33 32 32 31 28 26 24 23 23 22 21 21 20 20 18 17 16 16 15 15 15 14 14 13 12 11 9 8 7 6 6 6 5 5 6 7 8 8 8 8 8 8 8 8 8 8 8 8 8 8 8
24 28 30 26 26 29 24 21 25 30 32 32 33 33 32 31 29 28 26 24 23 22 21 20 20 20 20 19 18 17 16 16 15 15 15 14 13 12 11 9 8 8 7 6 6 6 6 7 8 8 8 8 8 9 9 8 8 8 8 8 8 8 8
22 28 32 28 25 26 24 21 22 26 28 29 30 30 31 31 30 29 28 27 25 23 21 20 19 20 20 19 19 18 17 16 16 16 15 15 14 13 13 11 10 9 8 8 7 7 7 8 8 8 9 9 9 9 9 9 8 9 9 8 8 8 8
20 26 31 30 28 26 24 22 21 23 24 25 26 27 28 29 29 30 29 28 27 25 23 22 20 19 19 19 20 19 17 17 16 17 16 15 15 15 14 13 11 10 10 9 9 9 8 8 8 9 9 9 9 9 9 9 9 9 9 9 9 9 9
18 22 27 30 30 29 27 25 22 22 22 22 23 23 24 25 26 28 29 29 28 27 25 24 22 21 20 19 20 20 18 17 16 17 17 16 16 16 16 15 13 12 11 10 10 10 9 9 9 9 9 9 9 9 10 10 9 9 9 9 9 8 9
17 20 24 28 31 31 31 29 26 25 25 25 24 23 24 24 25 26 27 28 28 28 27 25 24 23 22 20 20 20 19 18 16 16 17 17 17 17 17 16 15 14 13 11 11 10 10 10 9 10 10 10 10 10 10 10 10 9 10 9 9 9 9
14 15 18 22 27 30 32 31 31 30 29 28 28 27 26 26 26 26 26 27 27 27 27 26 26 24 23 22 20 19 19 19 18 17 17 17 18 18 18 17 16 15 14 13 12 11 11 10 10 10 10 10 10 10 10 10 11 11 10 10 9 9 9
11 11 12 14 19 24 28 30 32 33 32 31 30 30 29 28 27 27 26 26 27 27 26 26 27 26 24 23 21 19 19 19 18 18 18 18 18 17 18 18 17 16 16 15 14 12 11 10 11 11 11 11 11 10 10 10 11 11 11 10 10 10 9
11 11 11 12 14 17 21 25 27 29 31 32 33 33 31 30 29 27 25 24 26 27 27 26 26 26 25 24 23 21 20 19 18 17 17 18 18 17 17 17 18 17 17 16 15 14 12 11 11 12 12 12 11 11 10 10 10 11 11 11 10 9 9
10 10 10 11 13 15 17 19 19 20 21 24 27 30 32 33 32 31 28 26 26 27 27 27 26 26 25 25 24 23 22 21 20 19 17 17 17 18 18 18 18 18 17 17 16 15 14 13 12 12 13 13 12 12 11 10 10 10 10 10 9 9 9
8 8 8 8 9 11 14 15 16 16 16 16 17 19 24 29 32 34 34 33 32 30 28 27 26 26 26 25 25 24 23 22 21 20 19 17 17 18 19 19 18 18 18 17 17 16 16 15 14 13 13 13 14 13 12 12 11 11 10 10 9 9 9
9 8 7 7 7 8 9 11 13 15 15 16 14 14 17 20 23 26 30 32 32 31 28 26 26 27 26 25 25 24 24 23 21 21 21 20 18 18 19 19 19 19 18 18 17 17 17 16 15 15 14 15 15 15 14 13 12 12 11 11 10 10 9
9 8 7 7 6 6 5 4 5 7 9 12 13 13 13 14 16 19 22 24 25 25 24 24 25 26 26 25 25 26 25 23 21 20 20 20 19 18 19 20 20 19 19 18 17 17 17 17 16 16 16 16 16 16 15 15 14 13 12 11 10 10 9
9 8 7 6 7 7 6 4 2 0 1 3 6 8 8 10 12 15 19 21 21 20 20 22 23 24 25 25 27 28 27 25 23 21 20 19 18 18 19 20 20 20 20 20 19 18 18 17 17 16 16 16 16 16 16 16 15 14 13 12 11 10 10
9 9 8 7 8 8 8 8 7 4 4 3 3 5 6 7 9 12 17 21 21 19 20 21 22 23 24 25 26 28 28 28 26 25 23 21 19 18 19 20 20 20 21 21 20 19 19 19 18 17 16 16 16 16 16 16 16 14 13 13 13 12 11
9 10 9 8 8 8 9 11 13 12 12 9 6 5 6 8 10 12 14 17 19 19 19 19 19 21 23 23 25 26 27 28 28 27 26 25 23 20 19 20 21 21 22 22 21 20 19 19 19 19 18 18 17 17 17 17 16 14 13 14 15 15 14
9 10 9 8 9 10 10 11 12 13 14 13 12 10 8 7 8 9 9 11 13 15 16 17 18 20 22 22 23 24 26 27 27 27 26 26 26 23 20 20 21 22 22 21 21 20 19 19 19 19 19 19 18 18 17 16 16 15 15 15 16 17 17
9 10 11 10 12 12 11 12 12 12 13 14 13 12 10 8 8 8 6 5 6 8 12 15 18 21 22 23 23 23 25 27 27 27 26 27 27 25 23 22 22 22 21 20 20 20 19 18 18 18 18 18 18 16 16 16 16 15 15 16 16 17 18
11 12 13 13 15 15 14 15 16 16 16 16 15 14 12 10 10 9 8 7 6 6 8 11 14 16 17 20 22 23 24 25 25 26 27 28 28 27 25 23 22 20 20 19 18 18 18 18 18 18 18 17 16 15 16 17 17 16 16 16 16 16 17
14 15 15 16 17 18 18 18 18 19 19 19 18 18 17 15 13 12 11 10 8 7 6 7 7 7 7 10 13 15 18 20 21 22 23 26 27 27 26 25 23 21 19 17 17 17 18 18 18 19 20 19 18 17 17 18 18 18 17 16 16 16 16
16 17 18 19 19 20 21 20 20 20 21 21 21 21 20 17 15 15 15 14 10 8 6 6 7 7 8 8 9 9 8 10 14 17 19 22 24 24 25 25 23 21 19 18 17 18 18 19 20 20 20 19 18 18 18 17 17 17 17 17 17 17 16
16 16 18 18 19 20 20 20 20 20 20 21 20 20 18 16 15 15 16 15 13 11 10 10 11 10 8 8 9 8 7 6 7 10 12 14 16 19 21 21 21 20 18 18 17 16 16 18 20 19 17 16 17 18 18 17 16 16 17 17 18 18 18
16 16 17 17 17 18 18 18 17 17 18 18 18 16 14 13 13 13 14 13 11 12 13 14 14 13 11 12 12 10 7 7 6 5 5 6 8 11 13 16 17 17 16 16 16 16 15 16 16 15 15 15 17 18 18 17 17 17 18 18 19 18 19
16 16 16 16 16 16 15 15 15 14 14 14 14 13 11 10 10 11 12 10 9 10 12 13 12 12 11 11 12 11 10 9 8 6 5 5 5 6 7 10 13 14 13 13 14 15 16 15 13 12 13 14 14 15 16 16 17 17 18 19 20 19 19
15 16 16 16 15 15 14 13 12 11 11 11 11 9 9 9 9 10 10 8 7 9 11 10 10 9 8 8 8 8 8 9 10 9 9 8 8 7 7 7 8 9 9 10 12 13 12 10 9 9 9 11 13 14 14 15 16 17 18 19 19 20 20
16 16 16 15 14 13 12 11 9 8 9 9 8 7 8 8 8 9 9 7 7 9 9 8 8 7 6 6 5 5 6 6 7 7 8 9 9 8 9 9 7 6 7 7 8 10 9 6 6 8 9 10 13 13 13 14 15 16 17 17 17 18 18
16 15 14 14 13 11 9 8 8 7 7 7 6 6 7 7 8 9 8 7 8 9 7 7 6 6 5 5 5 5 5 4 4 4 5 6 6 5 6 7 7 7 8 6 5 6 7 5 3 6 8 10 12 13 13 13 13 13 14 14 14 14 15
17 16 15 13 12 10 7 5 5 5 5 5 5 5 6 6 7 8 7 7 8 8 6 6 6 5 4 4 4 4 4 4 4 4 3 3 3 3 3 3 3 4 4 5 5 6 7 7 6 4 6 7 9 9 10 10 10 11 12 11 11 12 13
18 17 15 13 11 9 6 4 4 4 4 4 4 4 5 6 7 7 7 6 6 6 5 5 5 5 4 4 3 3 3 4 4 3 3 2 2 2 1 1 1 2 2 4 5 5 6 8 10 9 7 7 6 6 6 7 9 9 8 8 10 11 12
19 17 15 14 12 9 7 4 4 4 4 4 4 4 5 5 6 6 6 5 5 5 4 4 4 4 4 4 3 2 1 1 1 2 2 2 2 3 2 3 3 4 4 5 6 7 8 8 9 10 10 9 7 6 6 6 7 7 6 7 10 11 11
20 18 16 14 11 9 6 4 3 3 3 4 4 5 6 5 5 5 5 5 5 5 5 5 5 5 4 4 4 4 3 2 1 1 1 2 2 3 4 4 5 5 5 6 7 8 9 8 8 9 9 9 8 7 7 7 7 7 8 9 10 11 11
21 19 17 14 10 7 5 2 1 2 4 4 5 6 6 6 7 6 6 6 6 6 6 6 6 6 5 5 5 5 5 5 4 3 2 2 3 3 4 5 6 6 7 7 8 9 10 10 10 11 11 11 10 10 10 10 11 11 12 13 13 14 14
22 20 17 13 10 7 4 2 1 3 5 5 6 6 6 7 7 8 8 8 8 8 8 7 6 6 5 4 4 4 4 4 4 4 3 3 4 4 5 5 6 7 8 9 10 10 11 11 12 12 13 13 14 14 14 15 17 17 17 17 17 18 18
22 19 16 14 11 8 6 5 3 3 4 6 6 6 6 6 7 7 8 8 8 8 8 8 7 6 5 3 3 2 2 2 2 3 3 3 4 4 5 6 6 7 8 9 10 11 12 12 13 13 13 14 15 16 17 18 19 19 20 20 20 21 21
23 19 16 14 12 9 7 5 3 4 5 5 5 5 5 5 6 6 6 6 6 7 7 7 7 6 5 4 3 2 2 2 2 2 2 3 3 4 5 6 6 7 8 8 9 10 11 11 12 13 13 14 15 15 16 18 19 19 20 20 20 20 20
21 17 15 13 11 8 6 4 4 5 5 4 4 4 3 3 4 4 4 4 4 5 5 6 6 6 6 6 5 4 3 3 3 3 3 2 3 3 4 5 6 7 7 8 9 9 9 10 10 11 12 12 13 14 15 16 16 17 17 17 18 18 18

ECMWFFLT1_850_spd_102.txt.gz
Wind_Speed
28 33 29 21 20 22 22 22 20 20 20 19 19 18 17 17 18 19 20 19 17 17 16 16 16 17 17 16 15 15 14 14 13 13 12 11 10 9 8 6 6 5 5 5 5 5 7 8 8 8 8 8 8 8 8 8 8 8 7 8 7 7 7
27 33 33 25 20 21 21 21 21 20 20 20 19 18 17 18 19 22 22 20 18 17 17 16 16 17 16 16 16 15 15 15 14 14 13 12 12 10 8 8 7 6 6 6 6 6 6 7 8 8 8 8 8 8 8 8 8 8 8 8 8 7 8
25 29 32 29 23 21 20 20 20 20 20 19 19 17 18 20 21 23 24 21 19 18 18 17 16 17 16 16 16 15 15 15 15 14 13 12 11 10 9 9 8 7 6 6 6 5 5 7 7 8 8 8 8 8 9 8 8 8 8 8 8 8 8
23 26 31 33 29 25 23 19 16 18 19 18 18 18 19 21 23 23 24 23 21 19 19 18 16 17 17 16 15 15 15 16 15 14 13 12 11 10 10 10 8 7 7 6 6 6 7 7 7 8 8 8 8 8 9 9 9 9 9 9 8 8 8
22 23 26 31 34 34 31 26 20 18 19 17 16 17 18 22 23 24 25 25 23 21 19 18 16 17 17 16 16 15 15 15 16 15 14 13 12 11 11 10 9 8 8 7 7 8 8 7 7 7 8 8 8 8 8 8 8 9 9 9 8 7 7
22 23 22 24 32 38 38 35 28 20 18 16 15 16 18 21 23 24 24 24 24 22 20 19 18 17 17 16 16 16 16 15 15 15 15 15 14 13 12 11 9 9 8 8 7 7 7 7 7 8 7 7 7 7 8 8 8 8 8 8 8 7 7
20 23 22 20 25 35 39 38 35 27 19 16 14 13 16 19 20 21 22 22 23 23 22 21 19 18 18 17 16 16 16 16 15 15 15 15 15 14 13 12 11 10 9 8 8 8 8 8 8 8 8 8 8 8 9 9 9 9 8 8 8 8 8
17 21 22 20 21 30 36 37 35 32 25 19 15 13 13 15 15 16 18 19 19 20 22 21 20 18 18 18 17 16 16 16 15 15 15 15 15 15 14 13 12 11 10 9 9 9 8 8 8 9 9 8 9 9 10 10 9 9 9 8 8 8 7
15 18 20 19 18 23 31 32 30 30 29 23 17 16 16 16 16 15 16 17 17 18 21 21 20 19 20 20 19 17 16 16 16 16 15 15 15 15 15 14 13 13 12 11 10 9 10 9 9 10 10 9 10 10 10 10 9 9 9 9 8 8 8
11 13 16 18 18 18 23 26 27 28 29 25 21 20 20 20 19 18 17 16 17 18 19 20 19 19 21 22 21 18 17 16 16 16 15 15 15 15 15 14 14 14 14 13 11 10 11 10 10 12 12 10 11 11 10 10 10 9 9 9 9 8 8
8 9 12 15 17 17 17 20 23 25 27 26 24 23 23 23 23 22 20 19 18 18 19 20 19 19 22 23 22 20 18 16 16 16 16 15 15 15 15 15 15 14 14 14 13 12 12 12 12 13 13 12 11 11 11 11 10 10 10 9 9 9 8
8 8 9 11 12 13 13 16 19 21 24 26 26 25 25 25 25 24 23 22 21 19 19 20 20 19 20 22 22 22 20 18 16 16 16 16 15 15 15 15 15 15 15 15 15 14 13 13 13 13 13 13 12 11 11 11 11 12 11 10 9 9 9
9 8 8 9 9 9 10 13 15 17 20 22 23 24 25 26 27 26 26 25 23 22 21 22 22 21 20 20 21 21 21 20 19 17 16 15 15 15 15 15 15 15 15 15 15 15 15 15 14 14 14 13 13 12 12 12 12 13 13 12 11 10 10
9 9 8 8 7 7 8 9 9 12 16 18 20 20 19 22 25 27 29 29 27 25 25 23 22 22 21 20 20 21 22 21 20 19 18 16 16 16 15 15 15 15 15 15 15 16 16 16 15 15 14 14 13 13 13 14 14 13 13 13 12 11 11
10 10 9 8 7 6 6 5 5 6 10 14 17 17 15 16 18 21 24 27 27 28 29 28 26 25 24 22 21 22 22 22 21 20 19 18 18 18 18 17 17 17 17 16 16 16 16 16 16 15 14 14 15 14 14 14 13 13 14 13 12 12 11
11 11 11 9 8 7 6 6 5 4 4 8 11 13 14 15 16 17 18 20 21 23 26 28 30 31 30 27 24 22 22 23 24 23 20 19 19 19 20 19 19 18 18 18 17 17 17 17 17 16 15 15 16 16 16 14 14 15 16 15 13 12 11
12 11 11 10 9 8 7 7 6 5 4 4 5 9 13 15 15 16 16 16 16 17 19 22 24 26 28 28 27 25 24 24 25 25 23 21 19 19 20 21 19 19 19 19 19 18 18 19 18 17 16 15 16 16 16 14 14 17 17 16 15 14 12
11 11 11 11 10 10 10 8 7 7 7 7 7 9 11 12 13 14 15 16 16 16 17 18 19 20 21 23 24 24 25 25 26 27 26 23 21 20 20 20 20 20 19 20 20 19 19 20 20 19 17 15 15 15 15 14 16 18 17 16 16 16 15
11 12 12 11 11 12 12 12 10 9 9 8 8 8 9 9 10 11 13 14 14 15 17 17 19 19 20 20 20 21 23 26 27 29 30 29 26 24 22 21 21 21 20 21 20 19 19 20 20 21 19 16 15 14 14 15 17 18 17 16 16 17 18
13 13 11 11 11 11 12 13 13 12 11 11 10 8 7 6 6 7 8 10 11 13 15 17 18 19 20 21 21 21 22 24 25 27 29 30 29 28 27 25 23 21 20 20 20 19 19 19 18 19 19 19 18 16 15 17 18 19 18 18 17 17 18
14 13 12 12 12 11 11 12 12 12 12 12 11 10 9 9 8 7 6 4 5 7 10 13 15 17 18 20 22 22 22 23 23 24 26 28 28 27 27 26 26 23 21 20 19 19 18 17 16 17 18 19 19 17 18 21 21 20 19 18 18 17 17
14 13 13 13 13 13 13 12 13 13 13 12 11 10 10 10 10 9 9 8 5 4 2 2 4 6 10 14 17 19 21 23 22 21 21 23 24 25 26 25 25 24 22 21 21 20 19 18 17 16 17 17 15 15 20 24 23 21 20 20 19 17 16
13 14 15 14 15 15 15 15 17 18 17 16 14 13 12 11 11 11 12 11 8 7 6 5 5 5 3 2 3 8 14 20 22 23 22 22 21 23 25 26 26 27 26 23 21 21 21 20 18 17 19 18 16 17 22 24 21 20 20 20 19 17 16
14 15 15 15 16 16 16 17 18 18 18 18 17 16 15 13 13 14 14 13 10 10 10 8 8 8 8 8 8 6 6 8 13 18 20 21 21 21 23 26 27 28 28 27 24 22 21 20 20 22 24 23 20 20 22 21 19 19 19 19 19 18 16
14 15 15 15 15 15 15 16 15 15 16 16 15 15 14 13 13 14 15 14 13 14 14 14 13 12 12 11 9 7 7 7 6 6 8 11 14 16 19 22 24 25 27 29 27 24 21 20 22 23 22 19 18 18 20 19 18 18 18 18 19 17 17
14 15 15 14 14 14 14 14 13 13 14 14 13 12 11 11 12 12 13 13 12 13 15 15 14 13 13 14 12 10 9 8 7 7 6 5 6 8 11 14 17 20 24 27 28 26 23 22 23 22 16 13 14 18 20 19 18 18 18 19 19 18 18
13 13 14 14 14 14 12 11 11 11 12 13 12 11 10 10 10 11 11 10 10 11 12 12 13 12 11 12 13 13 12 11 10 9 8 7 5 4 5 8 10 12 17 21 22 22 21 21 23 21 17 16 18 20 20 19 18 18 18 18 18 17 17
13 13 14 14 13 13 11 10 10 10 11 12 11 11 10 9 10 10 10 9 10 10 10 10 10 10 10 10 10 11 11 11 11 11 11 11 10 7 5 4 4 4 6 9 10 10 11 13 15 15 16 18 20 19 19 18 17 17 17 18 17 17 16
15 14 14 13 12 11 10 10 10 10 10 10 10 11 10 9 10 10 10 10 11 10 9 9 9 9 8 8 8 8 8 8 8 9 9 10 10 9 8 7 7 5 4 2 3 4 5 7 9 10 12 15 16 16 16 16 15 14 14 13 13 13 13
15 14 14 13 12 11 9 9 9 9 9 9 9 10 10 9 9 9 9 10 11 10 9 9 9 9 8 7 6 7 7 6 5 6 6 7 7 7 7 6 6 6 6 6 6 5 5 6 6 6 7 9 10 10 10 10 10 10 9 9 9 9 10
15 14 13 12 12 11 8 7 7 8 8 8 8 8 9 9 9 8 8 9 9 8 8 8 8 8 7 6 5 5 5 5 5 4 4 5 5 5 5 5 4 3 3 4 5 5 4 5 6 5 4 4 4 4 4 5 6 6 6 6 6 6 7
15 15 14 13 12 10 8 8 7 7 7 7 7 7 8 8 8 7 7 7 7 6 6 6 6 6 5 5 5 4 5 5 4 4 3 3 3 2 3 4 3 2 3 3 3 2 2 4 4 3 3 2 1 1 2 2 3 3 4 4 5 5 6
17 16 15 14 12 10 9 9 7 6 6 6 6 6 6 7 6 6 7 6 6 5 5 5 5 4 4 3 3 3 3 3 3 3 2 2 2 1 1 2 2 3 4 4 4 3 2 3 4 3 3 4 3 4 3 3 4 4 5 6 6 8 9
19 17 16 14 11 10 10 8 6 5 4 4 4 5 5 5 5 5 5 4 4 4 5 5 4 4 4 4 3 2 2 2 3 3 2 3 4 3 4 4 4 5 5 5 6 6 6 6 6 6 6 7 7 5 4 6 7 6 7 8 9 11 12
19 18 16 13 11 10 9 7 5 3 2 2 3 3 3 3 3 4 4 3 4 4 5 4 5 5 6 6 5 4 4 3 2 3 2 2 4 5 5 6 7 7 7 7 8 8 9 9 10 9 9 10 10 8 6 8 10 10 10 12 13 13 14
18 18 16 14 13 11 9 7 4 1 1 2 2 2 2 3 3 3 3 3 3 4 4 4 5 5 5 5 4 3 4 4 1 2 3 2 0 2 4 6 7 8 8 9 9 10 10 11 11 11 10 11 12 12 11 12 13 13 14 15 15 16 16
20 20 19 17 14 11 8 6 3 2 2 2 1 0 1 2 2 2 2 2 3 3 3 3 5 4 3 2 1 2 3 3 1 1 2 2 2 2 2 3 5 7 8 9 9 10 11 11 11 12 12 13 13 14 14 15 15 15 16 16 16 16 16
22 23 22 20 16 12 8 6 4 3 3 2 1 1 0 1 1 1 1 1 2 3 3 4 5 4 2 1 1 1 2 2 1 1 1 2 3 3 3 1 2 5 6 7 8 9 9 10 11 11 11 12 12 13 14 14 14 14 15 15 14 14 14

ECMWFFLT1_850_spd_105.txt.gz
Wind_Speed
31 25 23 22 21 22 22 22 22 22 21 20 18 18 17 17 16 15 15 15 16 16 16 17 17 16 15 15 14 13 13 11 10 9 9 8 8 8 8 7 7 7 7 6 7 8 8 9 10 10 10 10 10 10 9 9 9 8 7 8 8 7 7
29 28 26 22 19 21 22 21 21 22 21 20 19 18 18 17 17 16 15 15 15 15 15 16 17 16 15 15 14 14 14 12 11 11 10 10 11 10 9 8 7 8 9 7 7 7 8 9 10 10 10 9 9 10 9 9 9 8 7 8 9 8 8
27 28 28 24 20 21 22 21 21 22 21 21 20 19 18 17 17 17 16 15 16 15 15 15 15 16 15 15 14 14 14 14 13 12 11 11 11 10 9 9 8 7 8 8 7 6 7 8 9 10 10 9 8 9 9 9 9 9 9 10 9 7 9
25 27 30 28 21 20 22 21 21 22 21 20 21 20 19 17 17 17 16 16 16 15 15 15 15 15 15 15 15 14 14 14 13 12 12 10 9 9 9 9 8 8 7 8 7 7 7 8 9 9 10 10 10 10 10 9 10 10 11 10 9 8 9
24 25 31 32 25 22 24 21 19 21 20 20 21 20 19 18 17 17 16 16 16 16 15 15 14 15 15 14 14 14 14 15 14 13 13 11 10 10 10 9 8 8 8 8 8 8 9 9 9 9 9 10 11 10 10 10 10 10 10 10 10 9 8
23 22 26 32 30 26 25 22 19 19 18 19 20 19 17 17 16 15 15 16 16 15 15 15 14 14 15 15 14 14 13 14 15 14 14 13 12 11 11 10 10 9 9 9 9 9 9 9 9 9 9 9 9 9 10 10 10 10 10 10 11 10 9
22 21 22 28 33 30 27 25 23 20 18 17 19 18 16 15 15 14 14 14 15 15 15 15 14 13 13 14 14 14 14 14 15 15 14 13 13 13 12 12 11 10 11 11 10 9 9 9 9 10 10 9 9 10 10 10 10 10 10 10 11 10 10
21 22 21 25 31 33 31 30 27 23 21 19 18 16 15 14 14 14 14 13 13 14 15 15 14 13 13 13 13 14 14 14 14 14 15 14 14 14 14 13 13 12 12 11 11 11 10 10 10 10 10 10 10 10 10 11 12 10 9 9 10 10 9
22 22 21 22 26 28 29 31 31 27 22 20 19 18 16 13 11 11 12 13 12 12 14 14 13 13 13 13 13 13 14 14 14 14 15 15 15 15 15 15 14 14 13 12 12 12 11 11 10 11 11 10 11 11 11 12 12 10 10 10 10 9 9
21 21 20 20 21 22 24 27 32 32 26 22 21 20 18 15 12 10 10 12 13 11 12 13 13 12 13 14 14 13 13 14 15 15 15 16 16 15 16 15 15 14 14 14 13 12 12 12 11 12 13 11 11 13 12 12 12 10 11 12 11 10 10
19 19 19 18 18 20 21 22 27 33 33 29 24 20 17 15 15 13 11 12 13 12 12 14 14 14 13 14 15 14 14 14 14 16 16 16 16 16 16 16 15 15 15 15 14 13 12 12 12 13 15 13 12 12 12 12 12 11 11 12 11 10 10
16 17 17 18 17 18 19 17 22 32 36 33 28 23 20 19 18 18 17 15 13 12 12 13 16 17 16 15 15 15 16 15 15 15 16 16 16 16 16 16 16 16 16 15 15 14 13 13 13 13 15 13 12 12 12 12 12 12 12 12 11 10 10
13 14 15 16 17 17 16 15 19 25 30 30 28 24 23 21 20 21 22 20 18 16 14 12 14 17 17 16 15 15 17 18 16 15 16 16 17 16 16 16 16 16 16 15 15 15 15 14 13 13 14 13 13 13 13 13 13 13 13 12 11 11 10
12 13 13 14 15 15 14 14 15 17 20 24 27 27 24 21 20 20 22 22 21 21 19 15 13 15 17 17 15 15 16 17 17 17 16 16 16 17 16 15 16 16 15 15 15 15 16 15 14 14 13 13 13 13 13 14 13 13 14 13 12 12 11
10 11 11 11 12 12 12 13 13 13 14 16 20 23 22 20 19 19 20 21 22 23 22 19 16 16 17 17 17 17 15 15 16 18 18 18 17 17 17 16 15 15 15 15 15 15 15 15 15 15 14 14 14 14 14 14 14 14 14 13 12 12 11
12 12 12 12 11 10 9 10 10 11 12 12 13 14 15 15 15 15 15 17 19 22 23 23 22 20 18 17 17 18 17 17 19 20 21 21 20 19 18 17 15 15 15 15 15 15 15 15 15 15 15 15 15 15 15 15 15 14 15 14 13 12 11
16 15 14 13 12 10 10 9 9 10 11 12 12 13 14 14 14 13 13 13 14 17 18 20 23 24 23 21 19 18 18 19 20 21 22 23 23 22 20 19 17 16 15 16 16 15 15 15 15 16 16 15 15 16 15 15 15 15 16 17 15 13 12
17 15 14 14 13 12 11 10 9 10 11 12 12 13 14 14 14 14 15 15 14 15 15 15 17 18 20 23 23 23 24 23 22 21 21 22 23 24 23 22 20 18 16 16 16 16 16 16 16 17 16 15 16 16 16 16 17 16 17 18 17 16 15
16 15 14 14 14 12 11 10 9 9 11 11 11 11 11 13 14 15 15 16 16 17 17 16 15 15 16 19 22 24 27 29 27 24 22 21 22 24 24 23 22 21 19 16 14 14 15 16 17 17 17 17 16 15 15 17 18 17 17 18 18 18 18
15 14 13 13 13 12 11 11 10 10 9 9 8 8 9 10 12 12 12 12 13 15 15 15 15 15 17 18 19 20 22 25 26 25 25 23 23 24 24 23 22 22 22 20 17 17 17 17 16 16 16 17 17 16 17 18 18 18 20 20 18 18 19
13 13 13 12 12 11 11 12 12 12 12 11 9 8 6 6 7 8 6 4 6 10 12 13 14 14 16 18 19 20 21 21 21 23 26 27 26 26 27 27 25 23 22 22 21 21 21 20 19 17 16 17 17 15 16 16 16 18 20 21 19 18 18
13 13 12 11 12 12 12 13 13 13 15 14 12 11 9 7 6 6 6 6 5 4 5 8 9 9 10 13 17 20 21 21 21 22 23 25 27 27 27 29 30 27 25 24 23 23 22 21 20 19 20 22 20 16 14 14 14 16 19 19 19 19 18
15 15 13 13 13 13 13 13 13 13 14 14 12 12 11 10 9 8 8 8 8 7 6 4 3 2 3 7 11 15 18 22 24 24 24 23 23 24 25 26 27 27 26 26 26 24 22 21 20 20 22 24 22 20 18 17 17 17 19 19 19 19 18
16 16 15 15 15 14 14 14 14 14 14 14 13 12 11 11 10 9 9 9 9 9 8 7 7 6 4 2 2 4 8 14 19 22 24 23 22 22 21 20 21 24 26 28 27 24 23 22 21 22 23 22 21 21 20 18 19 20 21 22 22 20 19
17 16 16 16 15 15 15 15 15 15 15 15 14 13 11 11 11 11 11 10 10 10 11 10 9 8 7 6 4 4 3 4 8 11 13 16 20 22 21 19 19 21 24 26 26 24 23 24 23 23 23 22 21 21 20 19 19 20 20 21 21 20 19
16 16 16 16 16 15 15 14 14 15 14 14 14 13 11 11 12 12 12 11 11 11 12 13 12 11 10 9 7 5 5 4 3 2 2 4 9 13 16 17 18 20 21 22 23 23 23 25 25 22 20 20 21 21 21 21 20 20 21 21 20 19 18
15 15 16 16 15 14 13 13 13 13 13 13 12 12 11 11 13 13 12 12 12 12 12 12 12 12 12 13 11 9 9 8 6 6 5 4 4 4 5 8 11 13 13 14 16 19 21 23 23 20 19 21 22 21 22 22 20 21 23 23 21 20 18
14 14 14 14 13 13 12 12 13 13 13 12 12 11 10 10 12 12 12 12 12 11 10 10 10 11 11 11 11 11 11 11 11 10 9 7 6 5 3 3 3 3 3 4 6 9 15 19 21 20 21 23 23 23 23 22 21 22 23 23 21 19 18
13 13 13 12 12 13 13 12 12 12 12 12 11 11 10 10 11 11 11 12 11 9 9 9 10 10 10 9 9 10 10 10 10 10 10 9 8 7 6 6 7 7 5 5 4 3 6 11 14 17 20 21 21 22 22 22 21 21 21 20 20 18 17
12 12 11 11 11 12 12 12 11 11 11 11 10 10 10 10 11 10 10 11 10 9 9 9 10 10 10 9 9 9 8 7 8 8 8 8 8 8 7 8 8 9 9 8 6 4 5 6 7 8 10 11 10 11 12 13 14 16 16 15 14 13 13
12 12 11 11 10 10 11 12 11 10 10 9 9 10 10 10 10 9 9 9 9 8 8 8 8 8 8 7 8 9 8 8 7 7 7 7 6 6 6 7 7 8 8 7 5 4 4 4 4 4 4 4 3 2 3 4 7 10 10 10 9 8 8
11 11 11 11 10 9 10 11 10 10 9 9 9 9 9 8 7 7 8 8 7 7 6 6 6 6 6 6 6 7 7 7 7 7 7 6 6 5 5 5 5 8 10 7 4 4 4 4 5 5 5 4 4 3 4 4 4 4 4 5 6 5 5
10 10 10 10 9 9 9 9 9 9 8 8 8 7 7 7 7 8 8 8 6 5 5 5 5 4 4 4 4 4 5 6 6 6 6 6 7 7 6 6 5 6 8 7 5 4 3 3 4 4 4 4 3 3 4 2 2 2 1 3 3 2 2
11 11 10 9 8 8 8 8 8 8 6 6 6 6 5 5 5 5 5 4 3 3 4 5 5 4 5 5 4 4 4 4 5 5 3 2 3 4 4 4 3 3 4 4 4 4 4 3 4 4 3 2 2 2 4 2 3 2 1 3 3 4 5
14 13 11 10 9 8 7 8 7 6 4 4 4 3 3 3 3 3 2 2 2 3 3 5 6 6 6 6 5 5 5 4 3 3 3 3 3 3 3 2 2 3 3 4 4 4 4 4 4 4 3 5 6 3 3 4 6 5 3 5 7 7 8
14 14 12 11 10 9 9 9 7 4 2 2 1 1 1 2 1 1 1 2 2 2 3 5 6 5 4 4 3 3 5 4 2 2 4 3 4 4 3 4 5 5 5 6 6 7 7 6 7 7 7 8 8 6 7 10 10 9 9 10 11 11 11
15 15 16 15 12 10 10 10 7 5 2 1 1 1 0 1 1 1 2 2 2 2 1 5 6 4 2 2 3 5 6 4 2 1 3 4 3 1 2 3 4 4 5 6 7 8 9 9 9 10 12 12 12 11 11 12 13 14 13 13 13 13 13
15 15 17 17 16 14 13 11 9 7 4 2 2 2 2 2 2 2 2 2 2 2 2 4 5 4 2 1 2 4 5 3 2 2 2 3 3 2 1 2 5 7 7 6 6 6 8 9 10 11 13 14 14 14 13 13 14 14 13 13 12 12 12

ECMWFFLT1_850_spd_108.txt.gz
Wind_Speed
26 27 27 25 25 26 26 26 25 25 25 25 23 23 23 24 24 23 22 22 22 22 20 18 17 17 16 15 14 13 12 12 12 10 9 9 9 8 9 8 7 7 7 7 8 9 10 9 10 10 10 10 11 10 9 9 9 8 8 9 9 7 7
26 26 27 24 24 26 25 26 25 24 24 24 23 22 22 23 23 22 22 22 22 22 21 19 18 18 17 15 14 13 13 12 11 10 9 9 10 9 8 7 8 9 8 7 9 10 10 9 11 11 11 10 10 10 10 10 10 9 9 9 10 9 7
25 25 25 23 24 27 26 27 26 25 24 23 23 22 22 23 22 21 22 22 22 21 21 20 19 18 18 16 14 13 13 12 11 11 11 10 10 9 9 9 10 11 11 9 9 9 10 10 11 12 12 10 9 10 10 10 10 10 10 9 8 8 7
27 25 23 22 23 26 26 27 27 26 25 23 22 22 22 22 21 20 20 21 20 20 22 21 19 19 18 18 17 15 14 13 12 12 12 11 9 9 11 12 11 11 11 11 10 9 9 10 10 10 11 10 10 10 10 10 10 10 10 8 8 9 8
28 25 21 21 24 24 25 26 27 26 24 22 22 22 22 22 22 21 20 20 20 20 21 21 20 19 18 17 17 16 15 15 14 13 13 12 10 12 14 13 12 12 12 11 11 9 9 10 9 9 10 10 11 10 10 10 10 10 9 9 10 11 10
28 25 20 20 23 24 26 27 26 26 24 21 22 23 21 21 21 20 19 20 21 20 20 19 19 19 19 18 16 15 15 15 15 14 14 13 12 13 14 12 11 12 11 10 10 9 9 9 9 8 9 9 10 10 10 9 9 10 9 9 10 11 10
28 26 22 20 22 22 26 29 27 27 25 22 22 23 22 22 22 20 19 19 20 20 20 19 18 18 18 18 17 16 15 15 15 15 15 14 13 12 12 11 11 11 10 10 10 10 10 9 8 9 9 9 10 11 10 10 9 9 9 9 10 11 11
28 28 24 23 23 22 24 28 30 29 27 24 25 26 25 23 23 23 21 20 20 20 20 19 18 18 17 17 17 18 16 15 15 15 15 14 14 13 12 12 11 10 11 11 11 11 11 10 10 10 9 9 10 10 11 10 9 9 10 10 10 10 10
25 27 26 25 25 23 24 27 30 29 27 26 26 26 25 23 23 23 20 18 19 19 19 18 17 17 16 15 16 16 16 15 15 15 15 14 14 14 13 13 11 11 11 12 12 13 12 11 11 11 10 10 10 11 12 11 10 10 10 10 10 10 9
23 23 25 28 27 26 25 26 28 28 26 26 27 25 23 22 21 19 18 17 15 15 17 17 16 16 15 15 15 14 14 15 15 14 14 14 14 14 14 13 13 12 12 13 13 13 12 11 11 12 12 12 12 12 13 12 10 10 10 10 10 9 9
21 20 22 26 26 26 27 26 26 26 25 25 27 27 25 24 21 16 16 16 13 14 17 16 16 17 16 15 15 14 14 14 14 14 13 13 13 14 13 13 13 13 13 14 13 12 11 11 12 13 13 12 13 13 13 12 11 11 10 9 9 9 10
20 20 21 24 24 23 28 29 24 24 24 23 25 26 24 24 24 20 18 17 13 12 15 15 16 16 15 14 15 15 15 13 13 13 13 13 13 13 13 13 13 14 13 13 14 13 13 13 13 14 14 13 13 13 13 12 12 12 11 10 10 11 11
26 25 23 26 24 19 23 29 27 24 23 22 25 27 25 23 23 21 20 19 16 14 14 14 14 16 15 14 13 14 16 15 14 14 13 13 13 12 13 13 13 14 15 14 14 14 14 14 14 14 14 13 13 13 13 12 12 12 12 11 12 12 11
24 22 22 26 25 21 21 25 26 26 25 24 25 26 24 21 19 18 18 19 19 19 17 15 14 15 16 16 14 12 14 15 16 16 14 12 12 12 13 13 13 13 14 15 15 14 15 14 13 14 15 14 13 13 13 13 13 13 13 12 12 12 11
17 16 18 20 22 21 20 18 18 20 23 25 26 25 22 18 16 17 18 19 20 20 19 17 15 14 16 17 16 14 12 13 14 15 15 14 13 12 12 13 13 13 13 14 15 14 14 15 14 15 15 14 13 13 13 13 14 14 14 13 13 13 12
14 16 16 16 18 18 17 16 15 15 16 20 25 27 26 22 18 16 16 18 19 20 19 17 15 14 14 15 15 15 16 16 15 15 17 18 17 16 14 13 13 13 13 14 15 15 14 15 15 15 15 15 13 12 12 15 15 15 14 13 13 13 12
14 17 16 16 17 17 16 17 17 17 16 17 19 22 22 20 18 15 14 15 16 18 19 20 20 19 17 15 15 16 18 19 18 18 19 18 19 19 18 17 16 14 13 13 14 15 14 14 14 14 14 14 14 13 14 16 16 16 14 11 12 13 12
15 15 16 14 15 17 16 16 17 17 17 17 18 18 17 16 15 14 14 13 14 14 15 17 20 22 22 21 19 17 18 19 20 21 21 20 20 20 20 21 21 19 18 15 13 14 14 14 15 15 14 13 13 15 17 17 16 15 14 12 12 12 11
15 16 15 14 16 15 13 13 13 14 16 16 16 16 15 15 15 14 14 14 13 13 12 12 14 19 21 22 22 21 21 21 21 21 21 19 20 20 21 22 23 23 23 22 18 15 15 16 17 17 15 13 13 14 16 16 15 16 15 13 13 13 12
17 17 15 14 14 12 10 11 10 9 11 12 11 11 12 13 14 14 13 13 13 13 13 11 11 13 15 16 18 20 22 23 23 23 22 20 20 21 21 22 22 22 25 26 24 20 17 17 18 18 18 17 14 14 14 14 13 14 16 14 14 15 15
18 18 16 14 13 12 11 11 10 9 9 8 7 6 6 8 9 9 9 10 11 11 11 11 10 11 12 13 14 16 19 21 22 23 23 23 24 24 23 22 22 22 23 25 25 24 21 19 18 19 19 18 17 17 17 14 12 12 14 14 15 16 16
18 18 17 15 14 15 15 14 13 14 14 14 11 8 7 7 6 5 5 6 6 7 7 9 10 10 11 12 13 15 17 18 19 19 19 19 22 24 24 22 22 22 23 23 23 24 24 21 19 20 20 19 18 19 18 16 14 13 13 13 15 16 17
18 18 17 15 14 15 16 17 17 16 15 15 13 12 12 11 9 7 6 5 4 5 5 5 6 6 7 8 10 13 15 17 18 18 18 17 18 21 22 23 24 25 25 24 24 24 24 21 20 20 20 19 18 19 19 18 16 15 14 15 16 17 18
18 18 18 16 15 15 16 16 17 16 15 15 13 11 11 11 11 12 11 9 9 8 8 8 7 4 1 2 3 4 7 9 12 14 16 18 19 19 20 22 24 26 26 26 26 26 26 24 22 21 20 20 20 21 22 20 18 16 15 16 18 18 18
19 17 16 15 15 16 16 16 17 16 16 16 14 13 12 12 12 13 12 10 9 9 9 10 11 10 7 5 5 3 2 1 2 4 8 13 16 18 20 21 22 23 24 24 24 26 27 27 26 24 22 21 22 23 23 23 21 20 18 18 20 19 19
17 17 16 16 15 16 16 16 17 16 15 16 15 14 13 13 13 13 13 12 10 10 10 10 12 12 9 8 8 6 5 6 6 5 3 1 5 10 14 18 19 19 21 22 20 21 23 25 26 26 24 23 23 24 25 24 24 23 21 20 20 19 19
17 16 15 15 15 15 15 15 16 16 15 14 14 14 14 15 15 15 15 14 13 13 12 11 11 11 9 9 9 8 7 7 7 7 8 7 4 1 4 8 10 9 10 13 14 15 17 20 22 25 26 25 25 25 25 25 25 25 24 22 21 20 19
16 15 15 14 14 14 14 15 16 16 16 14 14 13 13 15 16 16 15 15 14 12 11 11 11 10 10 11 11 10 9 8 8 9 9 8 7 6 4 2 1 2 2 1 4 8 11 14 17 20 22 24 25 26 26 26 26 26 24 22 22 22 20
13 13 14 14 13 14 14 15 16 16 15 14 14 13 12 12 13 13 13 14 13 11 10 10 11 10 10 11 11 10 9 8 8 8 8 8 8 8 8 8 7 7 6 5 3 3 7 9 11 13 15 18 20 21 23 25 25 25 24 22 20 20 18
12 12 13 13 13 13 13 14 14 14 14 14 13 13 12 10 10 10 10 11 10 9 10 10 11 10 10 10 11 11 11 10 9 9 9 9 9 11 11 9 8 9 9 8 7 4 4 4 5 6 9 10 11 12 14 16 18 20 20 19 17 16 15
11 12 12 12 12 12 12 13 14 13 13 13 13 13 12 11 10 10 9 10 9 8 8 9 9 9 9 9 9 10 11 11 10 10 11 10 9 10 11 9 7 9 11 10 8 6 6 6 5 3 2 3 3 3 5 6 8 10 12 13 13 13 13
10 11 12 12 11 12 12 12 13 13 14 13 12 11 11 11 10 9 9 9 7 6 7 7 7 8 8 8 8 9 8 7 9 11 11 11 10 9 10 9 8 10 11 10 7 7 8 7 8 8 6 3 5 4 3 3 3 3 5 7 9 11 11
11 11 12 11 11 10 10 11 12 12 12 12 10 10 10 11 10 10 9 8 6 4 5 6 6 6 7 7 7 9 10 9 8 8 7 7 7 7 7 7 7 7 8 8 7 7 7 5 5 7 4 1 3 5 3 3 5 5 4 5 4 5 6
12 12 12 11 9 7 8 10 11 9 9 10 9 8 8 8 7 7 6 5 4 4 4 5 6 8 9 9 7 6 7 8 6 5 3 5 5 1 2 1 3 4 3 3 4 6 7 5 5 6 2 2 1 3 2 1 3 4 4 3 1 0 1
12 11 11 12 9 7 7 10 9 6 6 6 6 5 5 5 4 4 4 3 3 3 3 5 8 9 9 8 7 7 6 5 3 3 4 2 2 3 4 4 2 1 2 2 2 4 5 4 5 6 3 2 2 2 3 3 1 1 1 1 3 4 4
11 10 10 11 8 6 7 8 6 3 3 3 3 3 4 3 3 4 4 3 2 1 2 5 7 7 4 2 4 6 6 5 3 4 5 5 5 4 2 2 3 4 2 0 2 4 4 4 5 6 5 4 4 5 6 6 6 6 6 8 10 9 9
12 11 11 11 9 7 8 9 7 4 1 0 1 1 2 2 3 4 4 3 1 0 2 6 8 6 4 6 8 9 8 5 3 6 7 6 3 3 3 4 6 6 5 4 3 4 6 6 7 9 9 9 9 9 8 9 10 11 12 12 13 12 11
10 11 11 11 10 11 11 11 10 8 6 4 3 2 3 3 2 3 3 2 1 1 3 5 6 5 5 6 6 9 10 7 4 5 7 7 4 0 2 5 8 8 6 5 5 5 4 5 7 9 10 11 11 11 10 11 11 12 13 12 12 11 10

ECMWFFLT1_850_spd_111.txt.gz
Wind_Speed
29 26 22 26 29 26 26 29 30 29 29 29 32 31 30 30 28 25 25 25 25 25 24 23 22 21 20 18 16 16 16 15 15 14 13 13 13 13 12 13 13 13 12 11 9 8 8 8 7 7 8 8 9 9 8 9 9 8 7 8 7 8 7
31 29 25 24 29 27 25 29 32 31 30 29 31 32 30 30 28 25 25 25 24 25 24 23 22 21 20 18 16 16 15 15 15 14 13 13 13 13 13 13 13 13 12 10 10 10 9 9 9 9 9 8 9 10 9 9 9 9 9 8 8 9 8
32 31 27 24 27 29 26 30 33 33 31 28 30 34 32 29 29 26 25 25 24 24 24 23 23 21 20 18 17 16 15 15 15 15 14 13 13 12 12 13 13 12 11 10 10 11 10 9 11 11 11 9 8 9 10 10 10 10 10 9 9 10 9
31 32 31 27 28 31 29 29 31 32 33 30 31 34 33 30 29 26 24 24 24 25 24 23 22 21 20 18 18 16 16 15 15 14 14 13 12 12 12 13 13 12 11 10 10 10 10 9 10 12 12 11 9 9 9 10 10 10 10 9 9 9 9
30 32 34 31 29 32 30 28 29 31 32 31 30 30 29 29 29 27 24 23 24 25 24 23 22 21 20 18 18 17 16 15 14 14 13 13 12 12 13 12 11 11 10 11 11 9 8 8 9 11 12 11 10 9 9 9 9 9 9 9 9 10 10
31 31 33 33 30 30 29 29 30 30 30 30 30 28 26 28 29 27 25 23 23 24 23 22 22 21 20 19 18 17 16 16 15 13 13 13 12 11 12 12 10 10 10 11 11 9 8 8 8 10 10 9 10 10 9 8 9 9 9 9 10 10 10
33 31 30 32 32 29 28 31 32 31 31 31 29 26 26 29 29 26 24 23 22 23 23 23 22 21 20 20 19 18 17 17 16 14 13 13 12 11 9 10 10 10 10 10 9 9 10 9 8 8 8 8 9 10 10 9 8 9 9 9 10 11 10
34 34 31 31 32 29 28 33 36 34 33 31 30 28 27 30 30 27 25 24 23 24 24 23 21 20 19 19 18 17 15 15 16 15 15 14 13 10 8 9 10 10 10 10 9 9 9 8 8 8 8 7 8 9 9 8 8 8 8 9 10 10 10
32 35 33 27 24 26 27 32 34 34 34 31 31 32 30 30 32 29 26 25 24 24 25 24 23 22 20 17 18 18 15 13 14 15 15 15 12 11 10 9 9 10 10 9 8 9 8 7 8 9 8 8 8 8 9 9 8 8 9 9 10 9 9
28 32 33 24 18 23 28 31 32 33 35 35 33 34 33 32 32 29 27 26 26 25 25 25 25 24 21 18 18 20 18 14 13 13 14 15 12 10 10 9 9 9 9 8 8 9 8 7 10 10 9 9 10 10 10 10 9 10 10 10 9 9 9
27 30 33 27 22 26 30 30 32 32 34 35 34 34 35 34 31 28 26 26 26 26 27 27 26 24 24 21 18 21 20 17 16 14 14 14 14 12 11 10 9 9 9 9 9 10 8 9 12 12 11 11 11 11 11 10 10 11 10 9 9 9 9
24 29 33 30 25 29 32 32 32 33 33 34 33 33 35 35 33 30 28 26 26 27 28 28 26 23 23 22 19 19 19 17 17 16 14 13 13 15 14 13 12 10 10 10 10 10 9 10 12 12 12 12 12 11 12 11 10 11 12 10 9 9 9
17 20 27 32 29 29 31 29 28 28 28 31 33 34 34 33 32 30 28 27 26 26 27 27 25 20 19 21 21 21 20 19 19 19 16 13 11 13 14 14 13 12 12 12 11 10 11 11 12 11 11 11 12 12 12 11 12 12 12 11 10 10 9
11 11 14 20 24 26 27 26 27 27 25 26 28 31 32 32 32 30 28 26 26 26 26 25 23 20 20 23 24 23 20 19 20 21 19 18 16 15 16 16 15 15 14 15 14 13 12 11 12 12 11 11 12 12 12 12 13 13 12 12 12 12 12
9 9 11 10 14 20 24 26 28 30 31 29 27 28 30 30 30 28 27 26 25 25 25 25 23 24 24 24 23 21 17 16 19 21 21 21 21 20 19 18 17 17 17 16 15 15 15 13 12 12 13 13 12 12 12 12 13 14 14 13 13 14 14
11 13 15 13 11 13 18 25 27 26 29 32 31 30 30 30 29 28 28 28 26 23 23 25 27 27 26 24 21 19 19 20 22 22 22 22 22 21 21 21 19 18 17 17 17 17 18 17 16 15 14 14 14 13 12 12 13 14 14 14 13 13 14
10 13 16 17 15 10 10 16 21 20 20 25 28 28 26 24 22 21 21 24 25 25 24 24 26 26 24 22 21 21 22 24 23 23 23 23 24 23 22 22 22 20 19 19 19 18 17 17 18 18 15 13 15 16 14 14 14 13 13 14 13 11 12
6 8 12 13 14 11 7 8 16 19 19 22 24 23 20 19 17 14 13 14 17 21 23 23 23 23 20 19 20 21 22 22 22 22 23 23 24 24 23 23 23 22 21 20 20 20 19 18 18 18 17 14 13 15 15 15 14 12 13 14 14 12 12
8 5 5 5 6 10 11 10 12 15 15 19 24 23 22 23 21 19 17 16 14 15 18 21 21 21 19 18 19 20 21 21 21 22 22 23 23 22 22 22 22 23 23 21 20 20 20 20 19 18 18 16 13 13 14 14 12 11 13 14 14 14 13
15 13 10 8 7 9 13 13 11 12 13 15 20 24 23 21 19 18 18 18 16 14 15 17 19 21 22 22 23 23 23 23 22 21 22 22 22 21 21 21 22 23 23 22 22 22 21 20 20 18 16 16 16 15 15 13 11 11 12 13 14 14 13
17 15 12 10 9 8 10 11 10 9 8 8 11 16 18 17 16 15 15 15 15 14 13 14 15 17 18 19 20 22 23 24 23 23 23 22 23 23 22 22 22 22 22 22 22 22 22 21 20 19 17 17 19 19 18 16 13 12 11 11 13 14 15
17 17 15 11 10 9 8 8 8 7 7 6 6 8 9 10 11 12 12 12 12 12 12 13 13 12 12 12 14 16 18 20 21 23 23 23 24 24 23 22 22 21 21 22 22 22 21 21 21 21 20 20 20 19 19 18 16 14 13 13 13 14 15
16 16 17 16 15 17 17 14 12 12 11 9 8 8 7 6 6 7 8 7 7 6 7 8 8 8 8 9 10 12 13 15 16 18 20 21 22 23 22 22 23 23 22 22 22 22 22 22 22 22 22 23 22 20 20 19 18 18 17 16 14 14 15
17 15 17 18 18 19 20 19 16 14 14 14 13 13 14 12 10 10 10 11 10 9 8 7 5 4 4 5 6 8 9 11 13 14 16 17 18 18 19 19 20 22 22 22 21 21 22 22 21 21 22 24 24 23 22 21 20 19 18 17 16 15 16
17 15 17 19 19 19 21 20 17 14 15 16 16 14 15 15 16 16 15 13 11 11 11 11 10 8 6 5 4 4 4 4 6 8 10 13 15 16 17 17 17 17 19 21 22 22 23 23 22 22 22 22 23 23 22 22 21 20 19 18 17 17 17
17 16 18 21 22 22 22 20 19 18 18 18 15 13 14 14 15 15 14 12 12 13 13 13 11 9 7 5 4 5 5 5 4 2 2 4 7 10 12 15 16 17 19 20 21 21 22 22 22 23 24 25 25 24 23 22 22 22 22 21 19 19 18
18 18 17 18 19 19 19 18 18 18 19 18 16 15 15 15 14 14 14 14 15 15 14 12 9 7 6 6 7 8 8 8 8 8 7 6 4 2 3 5 8 13 15 16 18 21 21 21 22 23 25 27 27 26 25 24 23 23 23 23 23 23 22
17 17 16 15 15 17 19 19 17 15 14 13 12 12 13 13 14 16 16 16 16 14 12 12 10 10 11 12 12 11 10 9 9 9 10 10 9 7 6 5 4 4 5 7 11 16 17 16 18 20 21 23 25 25 25 25 25 25 23 22 23 23 22
17 17 16 16 15 15 14 13 13 13 10 9 9 11 11 11 13 15 15 15 16 15 14 13 13 14 16 16 16 15 13 11 10 10 11 11 11 10 10 10 9 7 5 5 4 6 8 9 11 13 15 17 19 20 22 23 23 23 23 23 23 21 21
16 16 15 14 13 13 12 10 9 8 8 8 8 9 9 8 10 11 12 13 14 14 14 13 13 14 15 15 16 16 15 13 13 12 12 11 10 10 11 11 11 11 9 6 5 4 5 4 4 5 6 7 8 10 13 15 16 16 15 16 19 20 19
16 16 15 13 11 11 12 12 11 10 10 10 10 10 9 8 8 9 10 11 11 10 10 11 11 11 11 11 11 12 13 14 14 14 12 11 10 10 11 10 9 11 12 11 9 8 8 8 6 4 2 1 1 3 5 5 6 6 6 9 14 18 18
14 14 13 13 11 8 10 12 13 12 12 12 11 11 11 10 9 9 10 9 9 8 8 8 8 10 10 11 11 10 10 11 11 10 10 10 9 9 10 10 9 9 10 11 11 10 9 9 8 7 6 5 4 3 2 2 2 3 4 6 10 13 15
13 12 13 13 11 10 12 13 12 11 12 12 12 11 10 10 9 9 10 9 7 7 7 8 9 10 9 10 11 11 11 10 8 6 5 6 6 6 7 8 9 8 7 7 8 9 7 6 5 5 5 5 5 6 6 6 6 6 5 4 4 5 6
16 15 15 12 10 11 11 9 9 8 9 10 10 8 8 8 7 7 8 7 7 7 8 11 13 13 12 11 11 10 8 6 5 5 3 1 2 3 3 4 8 7 6 5 6 7 6 4 4 3 2 3 4 5 6 5 5 6 5 5 5 4 3
14 14 13 10 10 11 11 8 6 6 6 6 6 5 5 5 5 5 5 4 5 7 10 13 13 11 10 11 12 10 7 4 4 4 4 3 2 3 1 3 6 6 5 6 7 6 5 4 3 2 1 2 2 3 3 1 1 3 3 2 1 1 1
12 12 11 9 9 11 11 9 6 3 3 3 3 4 4 4 4 4 3 3 4 7 9 11 11 9 9 11 11 12 10 7 5 4 4 2 1 3 4 5 5 4 4 5 6 6 5 4 3 3 3 2 1 1 2 2 3 3 4 4 4 4 4
11 11 11 11 10 9 9 9 7 4 2 2 2 2 3 3 3 2 2 1 2 5 8 9 9 9 11 12 12 13 12 9 5 4 3 1 3 5 5 6 6 5 4 4 2 3 4 5 5 6 6 6 6 7 6 6 7 7 7 7 7 6 5
11 10 10 11 11 11 10 9 8 7 7 6 6 5 5 5 5 5 4 2 1 2 6 8 8 8 9 11 13 14 12 10 7 5 4 3 1 2 3 4 5 5 6 5 4 3 2 1 2 3 5 6 7 8 8 8 9 9 9 8 7 5 3

ECMWFFLT1_850_spd_114.txt.gz
Wind_Speed
35 31 28 27 29 37 42 43 42 41 37 35 33 32 31 31 30 29 28 28 28 28 27 25 25 24 23 22 22 22 22 21 20 20 19 19 18 17 17 16 15 14 13 13 12 11 11 12 12 11 11 11 10 10 9 8 8 8 7 7 7 7 6
36 34 31 29 29 34 42 43 42 42 38 35 34 33 33 33 32 31 29 27 27 28 27 26 25 25 24 23 21 21 22 21 19 19 19 18 18 17 17 16 15 13 14 13 12 11 10 12 12 10 11 11 10 10 9 9 9 8 8 8 8 8 7
37 36 34 33 32 33 40 43 42 42 39 37 37 35 35 35 33 32 30 28 27 27 27 27 26 25 24 23 22 21 22 21 19 20 19 18 18 17 16 16 15 15 15 15 14 13 11 11 12 10 10 11 10 10 10 10 10 9 9 9 9 9 9
38 38 35 35 35 34 37 42 43 41 39 38 38 36 36 35 33 31 30 27 26 27 29 28 27 26 25 24 22 21 21 20 18 19 19 18 17 17 16 16 16 16 17 16 15 14 13 12 12 11 11 10 10 10 10 10 11 10 10 9 9 9 9
37 37 35 35 37 37 36 39 42 42 39 39 39 37 37 36 33 32 30 27 26 27 29 28 27 26 25 24 22 21 20 18 18 18 18 17 17 17 18 17 17 17 17 16 15 13 13 13 12 12 12 11 11 10 9 11 11 11 10 10 10 10 10
36 37 37 36 37 39 39 38 40 43 41 40 41 40 39 37 34 32 30 27 26 27 29 29 28 27 25 24 23 21 20 19 18 18 18 17 18 18 17 16 16 16 16 15 14 13 12 12 11 12 13 12 12 10 9 10 11 11 10 10 10 11 11
36 36 37 36 35 37 40 39 39 41 41 39 40 40 40 38 35 32 30 28 27 28 29 29 28 27 25 24 23 22 21 20 19 19 18 17 18 17 16 15 15 15 15 15 14 13 13 12 11 12 12 12 12 10 10 9 9 10 10 10 10 11 11
36 36 36 36 35 37 42 43 40 40 40 39 39 38 37 38 36 34 32 30 27 28 30 30 29 28 26 25 24 23 21 20 19 19 18 18 18 17 15 15 15 14 14 14 13 13 13 12 11 11 11 11 11 11 11 10 9 9 10 10 10 10 11
34 35 36 37 36 36 40 42 41 41 41 40 39 37 35 38 39 36 33 31 29 28 30 30 29 27 26 25 25 23 21 20 19 19 19 18 18 17 15 14 15 14 14 14 13 13 13 12 11 11 10 10 11 11 11 11 10 9 9 8 9 9 10
30 33 35 35 35 36 38 38 36 37 40 40 38 36 37 40 41 37 33 32 30 29 29 31 30 28 27 26 25 23 22 20 19 19 19 19 19 18 16 14 14 14 14 13 13 12 12 12 11 11 11 11 11 10 10 10 10 9 8 8 8 8 9
28 29 29 26 25 27 30 32 32 34 37 38 37 37 38 42 44 39 35 34 32 30 29 29 30 29 27 25 24 23 22 21 19 18 19 20 20 18 16 14 14 14 13 13 12 12 11 11 11 11 11 11 11 11 10 9 9 9 9 9 9 9 9
27 26 24 21 20 18 17 20 26 33 36 36 37 37 38 43 45 39 35 35 32 31 30 29 29 28 26 24 23 23 24 23 20 19 18 18 19 18 16 14 13 13 13 13 12 11 11 11 10 10 10 11 11 11 10 9 9 9 10 10 10 9 10
25 24 24 24 25 24 21 22 27 33 36 37 37 38 40 44 45 40 37 36 33 31 31 30 29 28 26 25 24 24 25 24 22 20 18 15 15 16 16 14 13 13 13 13 12 11 11 10 10 9 9 9 10 10 10 10 10 10 11 11 10 10 10
19 20 20 19 20 23 24 26 29 30 32 33 32 33 34 34 35 35 35 36 35 33 31 30 29 29 29 28 27 26 27 25 21 19 19 17 14 15 16 16 16 15 14 13 14 13 11 11 11 10 10 9 9 9 10 10 11 11 11 11 11 11 11
15 16 18 16 14 17 20 23 25 25 28 28 20 17 24 28 27 29 30 31 32 31 30 30 30 30 31 30 28 28 28 26 22 20 21 21 18 18 19 21 20 19 17 16 16 16 15 14 13 12 12 12 11 10 10 11 11 10 11 12 12 12 12
15 15 18 18 16 17 18 21 27 28 32 34 22 11 21 31 30 29 30 27 27 26 26 27 28 28 29 29 29 29 28 25 23 22 23 22 21 21 20 21 22 20 19 19 18 18 18 17 16 15 15 15 14 13 13 13 12 12 12 13 14 13 13
15 16 17 19 18 19 18 19 25 29 32 36 29 17 19 27 27 27 28 26 27 28 26 25 26 27 27 26 26 27 26 24 23 24 24 23 22 23 22 21 22 21 18 19 19 19 18 18 19 18 18 18 17 16 17 16 15 13 13 13 14 14 13
12 15 16 17 17 18 20 19 22 27 30 32 31 24 21 23 25 26 26 25 26 27 27 27 27 26 25 23 21 22 22 24 25 26 25 24 24 25 25 24 24 23 20 19 19 19 18 18 19 20 20 19 19 19 19 18 16 14 13 13 13 14 14
9 10 13 15 15 16 20 20 20 23 27 27 27 25 22 23 25 26 27 27 28 27 27 28 26 24 25 24 23 23 22 22 25 27 26 26 26 28 28 26 25 24 23 21 20 20 20 19 20 20 20 20 20 21 21 20 18 16 14 14 14 15 16
9 7 6 9 12 14 16 17 17 19 23 23 23 22 22 24 25 26 27 28 29 28 28 28 26 24 25 27 28 28 24 21 22 24 24 24 24 25 27 27 25 24 24 23 22 22 22 21 21 21 20 20 20 21 21 20 18 17 17 16 16 16 16
12 10 8 7 9 11 13 15 17 18 19 22 23 22 21 21 21 23 23 23 24 23 23 24 24 22 24 26 27 27 26 23 23 25 26 26 25 25 26 28 28 26 25 25 25 24 23 23 22 21 20 20 21 21 21 20 19 18 18 17 16 16 15
14 13 11 9 9 11 11 11 13 14 13 15 18 19 18 17 18 19 19 18 17 16 15 16 19 21 24 26 24 24 25 25 25 26 27 26 26 27 27 27 27 27 27 27 27 27 27 25 23 22 21 21 21 21 21 21 20 20 19 18 17 16 15
17 15 14 12 11 11 11 11 13 14 14 14 13 11 10 10 13 16 19 18 16 17 16 15 17 21 24 24 24 24 24 24 25 26 27 26 26 27 26 23 23 25 26 27 28 28 27 26 24 23 22 21 21 21 21 22 21 21 21 19 18 17 16
20 18 18 17 16 16 17 17 18 18 18 18 20 18 15 13 11 11 13 12 10 11 14 13 13 15 17 19 21 22 22 20 20 21 24 27 28 28 28 26 26 27 27 27 28 27 25 25 24 23 23 23 22 21 22 22 22 22 22 20 20 19 18
25 24 22 20 20 22 22 20 20 20 18 19 21 20 18 17 16 13 11 10 8 9 9 8 7 7 9 11 13 14 16 17 15 14 18 23 25 25 26 26 27 27 27 28 28 26 24 24 24 23 24 26 27 26 24 23 23 24 23 22 21 20 20
23 23 21 19 19 22 23 20 19 17 16 15 15 15 14 14 12 10 10 12 13 12 11 9 6 4 4 4 5 6 8 9 8 7 10 15 18 19 21 22 23 24 24 24 24 24 23 24 23 22 23 24 26 27 26 24 23 24 24 23 22 21 20
22 21 19 18 18 20 20 17 15 15 14 12 11 12 11 10 11 13 14 15 15 13 11 8 5 5 5 5 4 3 2 3 4 3 4 6 8 10 12 15 18 20 20 20 20 21 21 20 19 20 21 22 23 25 25 23 22 22 22 22 22 21 21
22 22 21 20 19 17 17 15 13 12 12 9 7 7 7 6 10 15 16 14 14 13 11 9 8 9 9 9 9 9 8 8 7 7 7 5 4 3 5 7 10 13 16 17 18 19 18 17 16 17 19 20 21 22 22 22 22 21 21 22 21 20 21
18 20 22 21 18 14 14 14 13 12 11 8 6 5 4 5 11 14 13 13 14 13 12 13 15 15 14 13 11 10 10 9 9 9 9 8 7 5 5 4 4 6 8 9 11 13 13 13 12 13 14 15 16 16 15 17 18 19 21 22 21 20 21
15 17 18 16 13 10 10 12 13 14 13 12 9 6 4 6 10 14 14 15 16 16 16 18 18 17 16 14 13 12 10 9 9 9 9 9 8 7 6 6 6 5 5 4 4 4 5 6 5 6 6 6 7 8 8 9 10 12 16 19 20 21 22
13 12 10 8 8 8 8 10 10 11 12 11 9 7 5 5 7 11 14 15 15 15 15 15 15 16 15 14 13 12 11 9 8 8 7 7 7 6 7 7 7 7 8 7 6 5 3 3 2 2 2 3 4 4 5 5 4 6 10 12 14 16 19
9 7 6 7 8 9 10 12 12 12 12 11 10 9 8 7 7 9 11 12 11 11 10 10 10 12 12 11 11 11 10 8 8 8 8 6 6 6 7 7 7 7 7 7 7 6 5 4 3 2 1 1 1 1 1 1 1 3 5 6 7 9 12
9 8 7 7 8 10 12 14 14 14 13 12 10 9 9 9 9 9 10 9 9 9 9 8 8 8 9 9 9 8 7 7 7 8 7 7 6 4 4 4 5 5 5 4 4 4 5 5 5 5 5 5 4 3 2 2 3 2 2 1 2 4 4
11 10 7 5 6 8 9 11 12 12 12 11 10 9 8 9 10 9 8 8 8 10 10 10 11 10 10 9 9 8 6 5 5 5 4 3 3 1 1 3 4 2 2 2 2 3 5 5 5 6 6 5 4 4 4 4 4 4 4 3 2 1 1
12 10 8 6 5 3 4 6 7 8 10 10 10 9 8 8 7 7 7 7 9 11 12 12 12 13 12 10 9 8 7 5 4 4 2 2 2 2 4 6 7 4 3 1 1 1 2 2 2 3 3 2 2 2 3 3 3 3 4 3 2 1 1
13 11 9 8 6 2 1 1 3 5 7 7 7 7 7 6 6 5 5 5 7 9 9 9 9 11 12 11 9 9 8 7 6 5 3 2 1 2 5 8 8 6 5 4 3 2 1 1 1 2 3 2 3 3 2 2 3 4 5 5 4 4 4
10 9 8 8 8 5 4 3 1 0 2 3 3 3 3 3 4 3 3 3 6 7 7 7 6 7 9 10 10 10 9 8 7 5 3 1 2 4 5 7 6 5 5 5 5 4 4 4 5 6 6 7 7 8 8 8 7 7 7 7 7 7 6
8 6 6 6 6 6 5 5 4 4 4 5 5 4 3 3 2 2 1 2 4 6 7 8 8 8 8 9 10 11 10 10 8 6 4 3 3 2 3 4 6 6 6 5 4 3 2 3 4 5 6 7 8 9 9 9 9 8 8 7 7 6 5

ECMWFFLT1_850_spd_117.txt.gz
Wind_Speed
35 32 30 32 37 42 44 44 44 43 41 38 36 34 33 30 28 27 27 27 28 28 28 28 28 27 25 24 24 24 23 23 22 20 19 19 17 17 16 16 15 15 16 16 15 14 12 12 13 13 12 13 12 12 12 11 10 10 9 8 7 8 8
35 34 31 32 37 43 45 46 45 44 42 40 37 36 34 32 29 28 28 28 28 28 28 28 28 27 25 25 24 24 24 23 22 22 21 21 19 18 18 17 16 16 15 15 14 12 12 12 14 14 13 13 13 13 12 11 10 9 9 9 8 8 8
36 36 34 32 37 43 46 46 46 45 44 42 39 37 35 33 29 28 28 29 28 27 27 27 27 26 25 25 24 24 23 23 23 23 23 22 21 20 18 18 18 17 16 15 15 14 13 12 14 14 14 13 13 13 12 11 10 10 10 10 9 9 9
36 37 36 33 34 42 46 46 46 46 45 43 40 38 35 32 29 27 27 28 28 27 27 28 27 26 25 25 25 24 23 23 23 23 23 22 21 20 19 19 19 18 18 17 16 15 15 13 14 14 14 14 13 13 12 10 10 11 11 11 10 10 9
36 37 37 34 33 39 45 46 46 46 45 44 41 38 35 32 30 28 28 27 27 26 25 26 27 27 26 25 25 24 23 23 23 22 21 20 20 20 20 19 19 19 19 18 16 16 16 15 15 15 15 15 14 13 12 10 10 12 12 12 11 11 11
36 37 38 37 35 37 43 46 47 47 45 44 43 40 36 33 31 29 27 27 27 26 24 25 27 28 27 26 26 25 24 23 22 22 21 20 20 20 20 19 19 19 18 17 16 16 16 16 16 15 15 14 13 13 12 11 10 12 13 13 12 11 12
35 37 39 38 35 36 40 44 46 46 45 44 43 41 38 35 32 30 28 28 28 27 26 26 27 28 27 26 26 26 25 23 21 21 20 20 20 20 20 19 19 19 18 17 17 17 17 17 16 15 14 13 13 13 12 12 11 12 13 13 12 12 12
34 36 39 38 35 34 37 41 44 45 44 44 43 43 40 37 34 32 29 27 28 29 28 27 27 28 28 27 27 26 25 23 21 21 20 20 21 21 20 19 18 18 18 17 17 17 17 16 15 14 13 13 13 13 13 13 12 12 13 13 12 12 12
31 33 35 34 31 30 31 35 40 43 44 44 45 44 42 40 37 35 31 29 29 30 29 27 27 28 28 27 27 26 25 24 22 22 21 20 21 20 19 18 17 17 18 18 17 17 17 16 15 14 13 13 13 13 13 13 12 12 12 12 11 12 12
26 27 28 29 29 30 31 32 34 38 41 44 46 45 43 42 39 36 33 31 31 30 28 27 27 28 29 27 26 26 25 25 23 23 22 22 21 20 19 18 17 18 18 17 16 17 17 16 16 15 14 14 14 13 13 13 13 13 12 11 11 10 11
22 24 26 27 29 31 33 36 37 40 42 43 45 45 44 44 42 40 37 35 34 31 28 26 27 28 29 28 26 26 26 25 24 24 23 23 22 21 19 19 18 18 17 16 16 17 16 16 16 15 15 15 15 14 13 12 12 13 13 12 10 9 9
21 23 22 22 23 23 28 35 39 41 42 40 38 38 36 35 37 38 38 36 34 33 30 28 28 28 29 28 26 26 26 26 25 25 24 24 23 21 21 20 18 18 17 16 16 16 16 15 15 14 14 14 14 14 13 12 12 12 13 12 11 9 9
15 18 21 25 28 26 25 29 35 39 40 38 38 39 37 33 32 33 34 34 34 33 30 28 28 29 30 29 27 26 27 26 26 25 24 23 22 21 21 20 19 18 17 16 15 15 15 15 15 14 13 12 12 13 12 12 12 12 12 11 11 10 10
8 9 14 23 30 29 24 26 32 39 43 43 42 42 41 38 36 36 36 36 36 34 29 26 27 29 30 30 28 27 27 26 26 25 23 22 21 21 22 21 20 19 17 16 16 15 15 15 15 15 14 13 12 12 12 12 12 11 11 11 11 11 11
9 11 13 17 24 28 26 25 30 35 39 42 41 40 40 39 40 40 38 37 36 34 30 27 27 28 30 31 30 28 27 27 26 26 24 22 20 20 22 22 21 20 18 17 17 16 16 15 15 15 15 15 14 13 13 13 12 11 11 11 12 12 12
11 18 19 17 20 25 25 24 26 28 32 37 39 40 40 40 41 41 39 37 35 33 30 28 27 27 29 31 30 29 29 28 27 27 27 25 24 23 21 21 22 21 20 19 18 17 16 16 16 17 16 16 15 15 15 14 13 13 12 12 12 13 13
7 13 14 12 14 17 18 20 24 26 29 33 36 38 38 38 40 40 38 37 36 33 30 28 27 28 30 30 29 29 29 28 27 27 27 27 28 27 24 21 21 21 20 20 19 19 18 18 18 18 18 17 16 16 16 16 15 14 14 14 14 14 15
4 6 8 10 13 13 12 16 21 24 27 30 33 34 33 34 36 36 35 35 34 31 30 29 28 30 31 30 29 29 28 27 26 27 27 26 25 24 24 23 21 21 21 21 21 21 20 20 20 20 19 19 18 18 18 17 17 16 16 16 15 15 15
2 3 4 7 9 9 8 13 18 22 25 29 31 30 29 31 33 33 33 33 32 30 29 29 29 30 31 30 29 29 28 27 27 27 26 24 23 22 22 22 22 22 22 21 21 22 22 21 21 21 20 20 20 20 19 19 19 19 18 18 17 16 16
1 3 3 3 4 5 5 8 13 18 20 22 24 26 27 29 31 32 33 33 31 29 29 29 29 27 26 26 26 26 26 27 28 27 25 23 23 23 21 20 21 22 22 22 21 21 22 22 21 21 20 20 20 21 22 22 21 21 21 20 20 18 18
7 6 5 4 2 2 2 2 7 15 18 17 18 20 24 26 28 30 31 30 29 29 30 31 30 27 24 23 24 24 24 25 25 24 23 22 22 23 23 22 23 23 24 25 24 21 20 21 21 21 21 20 21 22 23 23 22 22 22 22 22 21 20
8 8 7 7 6 5 6 7 5 8 16 18 16 16 19 22 24 25 25 25 25 26 27 28 26 24 25 26 26 25 24 23 22 22 23 23 22 23 24 25 25 24 24 27 28 26 23 20 18 19 20 21 21 22 23 23 22 22 22 23 23 22 21
9 8 6 6 6 8 10 11 11 9 10 14 14 14 16 18 19 20 20 22 23 23 23 23 23 24 25 25 24 24 24 23 22 21 22 23 23 23 24 26 27 26 26 26 26 26 26 23 19 19 21 22 22 22 23 23 23 23 23 24 24 23 21
11 9 8 8 9 10 12 12 13 14 13 12 11 10 11 13 15 17 18 18 19 19 18 18 20 22 22 21 20 22 22 23 22 21 21 24 25 26 27 27 28 28 28 28 24 22 23 24 23 23 23 23 23 23 24 24 24 25 24 24 24 23 22
15 14 12 12 14 15 15 15 16 17 17 16 17 15 11 9 9 12 14 14 16 17 15 15 16 17 18 19 21 22 21 21 22 22 23 24 27 28 30 30 29 28 28 28 25 23 21 22 23 23 23 23 24 25 25 26 26 26 25 24 24 24 23
18 16 15 15 16 16 16 16 16 16 16 16 16 15 13 10 8 8 8 9 12 13 12 12 12 13 14 17 20 20 19 20 22 23 23 24 25 28 29 30 29 27 25 25 26 26 25 23 23 24 23 23 24 25 26 27 26 26 26 26 26 26 26
15 14 14 15 14 13 14 14 14 14 14 13 11 10 9 10 12 14 14 12 12 12 11 9 8 8 9 11 12 12 12 12 15 18 19 20 21 22 23 24 23 22 20 20 22 23 24 26 27 27 27 25 25 26 27 27 25 26 28 29 28 28 28
13 13 13 11 10 10 12 14 15 15 14 13 11 10 10 13 17 19 17 15 14 13 11 10 9 8 7 6 7 8 7 6 8 10 11 12 12 12 13 13 13 14 14 16 16 14 15 19 21 22 24 25 24 25 26 24 23 24 26 27 27 27 28
13 13 12 10 9 8 10 12 15 16 14 13 14 13 11 13 17 18 16 15 15 13 11 11 11 10 9 7 6 6 6 6 6 5 4 4 3 4 4 4 6 7 8 10 11 10 11 13 14 14 18 19 18 18 19 19 19 19 20 21 22 23 24
11 11 10 10 9 8 8 10 13 14 13 11 12 12 10 11 15 17 17 17 16 13 10 11 11 11 9 8 7 7 7 7 6 5 4 4 3 2 2 3 3 2 1 0 1 1 4 7 8 9 10 11 9 9 10 11 12 12 13 15 17 19 20
8 7 8 8 8 7 7 9 12 13 13 11 10 10 10 11 14 17 17 17 16 13 11 10 10 10 9 8 7 6 5 5 5 5 4 4 4 5 6 7 7 6 6 5 5 5 4 4 4 4 4 4 4 4 5 6 7 8 9 10 11 12 14
6 5 5 5 5 5 6 7 9 9 10 9 7 6 7 8 10 13 14 14 13 12 11 10 9 9 8 7 6 5 4 4 4 4 4 5 5 5 6 7 8 8 7 7 7 6 6 5 5 4 2 2 2 3 4 4 4 5 5 5 5 6 6
6 6 7 7 7 7 7 7 8 8 8 8 8 7 6 6 6 7 9 8 7 8 8 7 7 7 6 5 5 5 5 5 5 5 5 5 5 4 4 4 5 5 5 5 6 7 7 6 6 5 4 3 3 2 2 1 1 0 0 0 1 2 2
6 7 9 11 11 11 10 11 11 11 11 11 11 10 9 7 6 6 5 5 4 4 4 4 5 6 5 4 3 3 3 3 3 4 6 7 7 7 5 3 1 2 2 3 4 6 6 6 5 5 4 4 3 3 3 2 2 2 3 2 1 1 1
6 7 8 9 9 10 10 10 11 12 12 12 12 11 10 9 7 5 4 3 3 4 5 5 5 5 5 4 4 2 1 0 2 4 6 8 8 8 7 6 4 3 2 1 1 3 3 3 2 2 2 2 2 2 2 1 1 2 2 1 1 3 3
7 6 6 6 6 6 7 7 8 8 9 10 11 10 10 9 8 6 4 3 4 4 4 4 4 5 5 4 4 3 3 2 3 5 6 8 8 7 6 6 6 5 5 3 2 1 1 1 2 2 2 2 3 3 4 4 4 5 5 6 6 7 7
6 5 4 4 3 3 3 4 4 4 5 6 6 7 7 7 8 7 5 2 2 3 3 3 3 4 5 5 5 5 5 5 5 6 6 6 6 6 5 4 6 7 7 6 5 4 4 5 5 6 5 5 5 6 6 7 7 7 8 8 9 9 10
5 5 4 3 2 1 1 2 2 3 4 4 5 5 4 4 5 5 5 4 3 3 4 5 6 6 6 6 7 7 7 7 8 8 7 6 6 6 5 4 5 5 6 5 5 5 5 5 5 5 5 5 5 6 6 6 7 7 7 8 8 9 9

ECMWFFLT1_850_spd_120.txt.gz
Wind_Speed
30 31 34 36 37 38 39 39 37 37 37 36 34 32 30 28 27 25 25 23 22 22 22 21 22 23 24 24 23 23 22 22 21 20 18 16 16 16 15 14 14 15 15 14 14 13 12 12 13 13 13 13 12 12 11 11 11 10 10 10 9 8 8
29 30 33 35 36 38 39 39 38 38 38 36 35 34 31 29 28 26 25 24 23 22 23 23 23 24 24 24 24 23 23 22 21 20 19 17 16 16 15 14 14 14 14 14 13 13 13 13 13 14 14 14 13 12 12 12 11 10 10 10 10 9 9
29 30 33 35 36 37 38 39 39 39 39 38 37 35 33 31 28 25 25 25 24 23 24 24 24 24 25 25 24 24 22 21 20 19 19 18 17 16 15 15 15 14 14 13 13 13 13 13 14 14 15 14 14 13 12 12 12 11 11 11 11 10 10
31 31 31 33 35 36 37 38 39 40 40 39 38 36 34 31 28 26 24 25 25 25 25 25 25 24 25 25 25 24 22 20 20 19 19 18 17 16 16 17 16 16 15 14 13 14 14 14 14 14 15 15 15 14 14 13 12 12 12 12 12 12 11
33 31 30 31 33 34 36 38 39 40 41 40 39 37 34 32 30 28 26 25 25 25 25 25 25 25 25 25 25 24 22 20 20 19 18 18 18 17 17 17 17 17 16 15 15 15 15 15 15 15 15 15 16 15 15 14 14 14 13 13 13 12 12
33 33 33 33 34 35 36 38 39 40 40 41 41 39 37 34 33 31 28 26 26 26 26 25 26 26 25 25 24 24 23 21 20 19 18 18 18 18 17 17 18 17 17 16 16 16 17 17 17 16 16 16 16 16 15 15 14 14 13 13 13 13 13
32 34 35 35 36 36 35 37 38 39 40 40 41 41 39 37 35 33 30 27 26 26 26 26 26 26 25 24 24 24 23 22 21 19 19 18 18 18 17 17 17 17 17 17 17 17 18 18 18 17 17 16 17 16 16 15 14 13 13 13 13 14 14
30 33 34 35 37 38 36 35 36 37 39 40 41 42 41 39 37 35 32 29 27 26 26 27 26 26 25 24 24 24 22 21 21 20 19 18 18 18 18 17 17 17 17 17 17 17 18 18 17 17 16 16 16 16 15 15 14 13 12 12 13 14 14
25 28 31 32 34 37 37 36 35 36 38 40 42 42 42 41 39 37 33 30 27 26 27 26 25 24 23 23 24 23 22 22 21 21 20 18 18 18 18 18 17 17 17 17 17 17 18 17 16 16 16 16 16 16 15 14 13 13 13 13 13 14 14
18 21 24 26 29 33 35 35 34 35 37 40 42 43 43 42 40 38 35 32 29 27 26 26 25 23 23 22 23 23 23 22 22 22 21 19 18 18 17 17 17 17 17 17 17 17 17 16 16 16 16 16 16 15 15 14 14 13 14 13 13 13 13
12 15 18 21 23 26 30 33 34 35 38 41 42 42 42 42 41 40 38 36 33 31 29 28 27 25 24 23 22 23 23 23 22 22 22 20 19 18 17 17 17 17 17 16 16 16 16 17 17 17 16 16 16 15 15 14 14 14 14 14 14 13 12
11 14 17 18 19 21 24 28 31 34 38 41 42 43 42 41 41 41 40 38 35 32 32 31 30 29 28 26 24 24 24 23 23 22 22 21 19 18 18 17 17 16 16 16 16 16 16 17 17 17 17 17 16 15 14 14 14 14 14 13 14 14 13
11 14 17 19 21 23 24 26 28 31 34 37 39 41 42 43 43 43 40 37 34 31 31 32 32 32 30 28 26 25 24 23 22 22 22 21 19 18 18 17 17 17 16 16 16 16 16 16 17 17 16 16 16 15 14 13 14 14 13 12 13 14 13
7 9 12 14 17 19 20 21 22 24 27 30 30 32 34 37 41 43 41 38 35 32 31 31 32 32 30 28 26 25 25 25 24 22 22 22 21 20 19 18 18 17 17 16 16 16 16 16 15 16 16 16 15 15 14 14 14 14 13 12 13 14 14
5 4 4 6 9 12 13 12 12 16 23 29 30 30 30 31 33 38 40 39 38 36 33 32 32 32 31 29 27 26 25 25 25 24 24 24 23 22 21 20 19 18 18 18 16 16 15 15 15 15 16 16 16 15 15 15 15 14 13 13 13 14 14
6 5 2 1 5 8 10 11 14 17 21 27 30 32 34 34 34 36 39 40 41 39 37 35 33 32 31 29 28 27 25 25 25 24 24 24 23 21 20 20 20 19 19 19 18 17 16 15 15 16 16 16 16 16 16 16 15 15 14 14 14 14 15
7 7 5 3 6 9 10 13 17 20 20 22 26 30 34 36 36 36 38 39 40 41 40 38 35 33 32 30 29 27 26 25 25 24 24 23 22 21 20 20 20 21 21 21 20 19 18 17 16 16 16 17 16 16 16 16 16 15 15 15 15 15 16
8 8 7 4 6 8 8 10 13 16 18 20 24 27 30 33 35 36 37 38 39 40 41 40 37 33 31 31 30 28 26 25 25 24 23 23 23 22 22 21 21 21 22 22 21 21 19 18 18 17 17 17 17 16 16 16 16 16 16 16 16 16 17
8 8 6 3 5 6 7 8 8 11 15 19 23 25 27 31 36 38 37 37 38 38 37 37 36 32 31 32 31 28 27 25 24 23 23 23 22 21 22 22 21 21 21 22 22 22 20 19 19 19 18 19 18 18 18 18 18 18 18 18 17 17 18
10 8 7 4 3 5 6 6 6 8 12 15 19 23 25 29 33 36 36 35 36 36 33 31 32 32 32 33 31 29 26 25 23 23 23 23 22 21 20 21 20 20 21 22 22 21 20 19 20 19 19 19 19 19 20 20 20 20 20 20 20 19 20
11 10 10 9 6 5 5 5 4 5 8 12 15 19 22 26 29 31 32 33 33 33 32 31 31 31 31 31 30 28 26 25 24 23 22 22 22 21 19 18 18 19 21 21 20 20 20 20 20 20 20 20 20 21 21 21 22 22 22 22 21 21 22
10 11 11 11 10 7 6 5 5 2 4 8 9 12 16 22 26 28 28 29 29 29 29 29 29 28 28 26 25 25 24 24 23 23 22 21 22 21 19 17 17 18 20 21 20 20 20 20 21 21 21 21 21 22 22 22 22 23 23 23 23 23 23
9 10 10 10 10 9 8 7 5 3 2 5 4 5 9 15 22 26 26 26 26 25 25 24 23 22 21 20 20 19 19 19 19 19 19 19 20 20 19 18 19 20 20 21 21 20 20 21 22 23 22 22 23 23 23 22 22 23 24 24 24 24 24
14 15 14 13 12 11 12 11 10 9 4 1 2 4 8 12 16 19 20 20 20 21 21 22 21 19 18 18 17 14 12 13 16 17 17 18 19 20 20 19 19 20 20 21 21 22 21 22 23 24 25 25 25 24 23 23 23 24 25 25 25 25 25
19 19 17 16 15 16 17 16 15 15 13 11 9 6 4 7 12 15 17 17 18 18 17 17 18 17 17 18 17 15 12 10 11 14 16 17 18 19 20 20 20 20 21 22 23 22 22 23 23 23 24 26 26 25 24 25 25 25 26 26 27 27 27
19 19 18 16 15 15 15 15 14 15 16 15 13 12 9 6 6 9 11 12 14 14 12 13 14 14 14 15 15 15 14 11 11 13 15 15 16 17 18 19 20 21 22 23 24 23 23 24 24 23 23 24 24 23 23 24 25 25 27 28 28 28 29
17 17 17 15 14 13 13 14 16 16 17 16 14 12 12 12 12 14 13 12 12 10 10 10 10 9 8 8 8 7 7 7 8 9 10 12 13 14 15 16 17 18 19 21 22 22 22 24 24 24 24 24 23 21 21 22 24 26 27 29 29 30 30
15 15 15 14 13 14 16 19 21 20 19 17 15 14 14 16 18 18 18 19 18 15 14 14 13 11 9 8 8 8 6 5 5 3 2 3 5 7 8 10 11 11 12 14 15 17 19 20 20 22 23 24 23 21 21 24 27 27 28 28 29 29 29
14 14 14 13 13 14 15 18 21 22 22 19 17 15 13 13 15 17 18 20 20 17 14 15 16 15 12 11 11 11 9 8 7 8 9 8 5 3 1 0 1 3 5 7 10 14 16 15 15 17 20 20 20 19 19 21 23 24 23 23 24 25 25
13 14 14 15 15 14 14 16 18 20 21 20 19 17 15 14 14 16 18 19 19 18 16 15 14 14 13 13 13 13 13 13 12 13 13 12 11 9 9 9 7 4 2 2 3 7 11 10 10 12 12 12 12 11 10 10 13 14 14 14 16 18 19
12 13 14 15 15 14 15 16 17 18 19 20 19 18 17 17 18 18 19 18 18 19 17 14 12 12 13 14 14 13 12 12 12 13 13 13 12 12 12 12 11 9 8 7 6 3 4 5 4 4 5 5 5 5 4 5 7 8 9 9 10 12 13
13 14 15 16 16 16 16 17 17 16 17 17 16 15 15 14 14 15 16 15 14 14 13 12 11 12 12 13 13 13 13 13 13 14 14 13 12 12 12 11 10 10 10 9 8 7 5 3 3 2 1 1 2 2 2 3 4 5 6 6 6 7 8
15 16 17 17 16 16 16 17 16 15 15 14 12 11 11 10 10 10 10 10 9 9 9 8 8 9 10 10 11 11 12 11 12 13 13 13 13 11 10 9 8 8 8 8 8 8 8 7 6 5 5 5 5 4 3 2 1 1 2 3 3 4 4
16 18 18 18 18 18 18 18 18 17 17 16 14 12 10 9 8 7 6 6 6 6 6 6 6 7 8 8 8 9 9 10 11 13 14 15 15 13 9 7 6 6 6 6 5 6 6 6 6 6 6 6 6 6 5 4 3 2 2 2 2 2 3
14 16 17 17 17 18 18 19 18 17 17 17 16 14 13 11 10 8 7 6 5 5 5 6 6 6 7 7 7 7 8 9 11 12 14 15 16 14 11 8 6 6 6 6 5 4 4 5 5 6 5 5 4 4 3 3 3 3 4 4 5 5 5
11 12 14 14 14 15 15 15 15 15 15 15 14 14 13 13 12 11 9 8 7 6 6 7 7 7 7 7 7 7 8 9 10 11 13 13 14 14 13 11 9 8 7 7 6 6 6 6 6 6 6 6 5 4 4 5 5 6 7 7 8 8 7
8 9 11 11 11 12 12 12 12 12 12 13 12 11 12 12 12 11 10 9 8 7 7 7 7 7 7 7 7 7 7 8 9 10 11 11 11 12 13 12 10 8 7 7 7 6 7 7 8 8 8 8 7 7 6 6 7 7 7 8 8 8 8
6 7 8 9 9 9 9 9 10 10 10 11 10 9 9 10 10 11 10 10 9 8 8 8 8 7 7 7 7 8 8 8 8 8 8 8 9 10 11 10 8 7 6 6 6 6 6 7 7 8 8 8 8 7 7 6 6 6 6 6 6 7 7